<?xml version="1.0" encoding="utf-8"?>
<gpx xmlns:xsi="http://www.w3.org/2001/XMLSchema-instance" xmlns:xsd="http://www.w3.org/2001/XMLSchema" version="1.1" creator="Shapelink.com" xmlns="http://www.topografix.com/GPX/1/1" xmlns:gpxtpx="http://www.garmin.com/xmlschemas/TrackPointExtension/v1">
  <metadata>
    <name>Löpning 10.58 km, 2018-01-09</name>
    <desc></desc>
    <author><name>Bengt-Åke Forslund</name></author> 
    <time>2018-01-09T11:37:59Z</time>
  </metadata>
  <trk>
    <name>Löpning 10.58 km, 2018-01-09</name>
    <trkseg>
      <trkpt lat="62.641683649101" lon="17.899109663363">
        <ele>0</ele>
        <time>2018-01-09T11:37:59Z</time>
      </trkpt>
      <trkpt lat="62.641716925244" lon="17.898796096484">
        <ele>0.2</ele>
        <time>2018-01-09T11:39:24Z</time>
      </trkpt>
      <trkpt lat="62.641720864737" lon="17.898744547799">
        <ele>0.2</ele>
        <time>2018-01-09T11:39:25Z</time>
      </trkpt>
      <trkpt lat="62.641724552773" lon="17.898691993286">
        <ele>0</ele>
        <time>2018-01-09T11:39:26Z</time>
      </trkpt>
      <trkpt lat="62.641728827542" lon="17.898638935859">
        <ele>0</ele>
        <time>2018-01-09T11:39:27Z</time>
      </trkpt>
      <trkpt lat="62.641729917189" lon="17.898602223137">
        <ele>0.2</ele>
        <time>2018-01-09T11:39:28Z</time>
      </trkpt>
      <trkpt lat="62.641735952157" lon="17.898521086345">
        <ele>0.2</ele>
        <time>2018-01-09T11:39:29Z</time>
      </trkpt>
      <trkpt lat="62.64174156803" lon="17.898455539887">
        <ele>0.2</ele>
        <time>2018-01-09T11:39:30Z</time>
      </trkpt>
      <trkpt lat="62.641748022093" lon="17.898383455547">
        <ele>0.2</ele>
        <time>2018-01-09T11:39:31Z</time>
      </trkpt>
      <trkpt lat="62.64175497907" lon="17.898321513306">
        <ele>0</ele>
        <time>2018-01-09T11:39:32Z</time>
      </trkpt>
      <trkpt lat="62.641762858056" lon="17.898249009871">
        <ele>0</ele>
        <time>2018-01-09T11:39:33Z</time>
      </trkpt>
      <trkpt lat="62.641769144481" lon="17.898171393477">
        <ele>0</ele>
        <time>2018-01-09T11:39:34Z</time>
      </trkpt>
      <trkpt lat="62.64177844839" lon="17.898084137898">
        <ele>0</ele>
        <time>2018-01-09T11:39:35Z</time>
      </trkpt>
      <trkpt lat="62.641787081747" lon="17.89800098945">
        <ele>0</ele>
        <time>2018-01-09T11:39:36Z</time>
      </trkpt>
      <trkpt lat="62.641795296009" lon="17.897918260097">
        <ele>0</ele>
        <time>2018-01-09T11:39:37Z</time>
      </trkpt>
      <trkpt lat="62.641798816407" lon="17.89783251326">
        <ele>0</ele>
        <time>2018-01-09T11:39:38Z</time>
      </trkpt>
      <trkpt lat="62.641801498615" lon="17.897749867726">
        <ele>0</ele>
        <time>2018-01-09T11:39:39Z</time>
      </trkpt>
      <trkpt lat="62.64179185943" lon="17.897675520273">
        <ele>0</ele>
        <time>2018-01-09T11:39:40Z</time>
      </trkpt>
      <trkpt lat="62.641768306291" lon="17.897611063462">
        <ele>0</ele>
        <time>2018-01-09T11:39:41Z</time>
      </trkpt>
      <trkpt lat="62.641749195559" lon="17.897560520605">
        <ele>0</ele>
        <time>2018-01-09T11:39:42Z</time>
      </trkpt>
      <trkpt lat="62.641726732067" lon="17.897562448442">
        <ele>0</ele>
        <time>2018-01-09T11:39:43Z</time>
      </trkpt>
      <trkpt lat="62.641708794801" lon="17.897561526433">
        <ele>0</ele>
        <time>2018-01-09T11:39:44Z</time>
      </trkpt>
      <trkpt lat="62.641692785372" lon="17.897563286632">
        <ele>0</ele>
        <time>2018-01-09T11:39:45Z</time>
      </trkpt>
      <trkpt lat="62.641687672413" lon="17.897567393763">
        <ele>0</ele>
        <time>2018-01-09T11:39:46Z</time>
      </trkpt>
      <trkpt lat="62.641679290513" lon="17.897571333256">
        <ele>0</ele>
        <time>2018-01-09T11:39:47Z</time>
      </trkpt>
      <trkpt lat="62.641681050712" lon="17.897569992152">
        <ele>0</ele>
        <time>2018-01-09T11:39:48Z</time>
      </trkpt>
      <trkpt lat="62.641517519843" lon="17.897806948465">
        <ele>0</ele>
        <time>2018-01-09T11:40:47Z</time>
      </trkpt>
      <trkpt lat="62.641502851518" lon="17.897828070853">
        <ele>0</ele>
        <time>2018-01-09T11:40:48Z</time>
      </trkpt>
      <trkpt lat="62.641479633655" lon="17.897850366707">
        <ele>0</ele>
        <time>2018-01-09T11:40:49Z</time>
      </trkpt>
      <trkpt lat="62.64145490705" lon="17.897871992009">
        <ele>0</ele>
        <time>2018-01-09T11:40:50Z</time>
      </trkpt>
      <trkpt lat="62.641435461042" lon="17.897886325058">
        <ele>0</ele>
        <time>2018-01-09T11:40:51Z</time>
      </trkpt>
      <trkpt lat="62.641419367794" lon="17.897894874596">
        <ele>0</ele>
        <time>2018-01-09T11:40:52Z</time>
      </trkpt>
      <trkpt lat="62.641396904302" lon="17.897912560405">
        <ele>0</ele>
        <time>2018-01-09T11:40:53Z</time>
      </trkpt>
      <trkpt lat="62.641379972864" lon="17.897923624513">
        <ele>0</ele>
        <time>2018-01-09T11:40:54Z</time>
      </trkpt>
      <trkpt lat="62.641360275399" lon="17.897947177652">
        <ele>0</ele>
        <time>2018-01-09T11:40:55Z</time>
      </trkpt>
      <trkpt lat="62.641339572106" lon="17.897965701651">
        <ele>0</ele>
        <time>2018-01-09T11:40:56Z</time>
      </trkpt>
      <trkpt lat="62.64131912027" lon="17.897981375804">
        <ele>0</ele>
        <time>2018-01-09T11:40:57Z</time>
      </trkpt>
      <trkpt lat="62.641293806932" lon="17.897999061613">
        <ele>0</ele>
        <time>2018-01-09T11:40:58Z</time>
      </trkpt>
      <trkpt lat="62.641274444743" lon="17.898019094354">
        <ele>0</ele>
        <time>2018-01-09T11:40:59Z</time>
      </trkpt>
      <trkpt lat="62.641254076726" lon="17.898034684688">
        <ele>0</ele>
        <time>2018-01-09T11:41:00Z</time>
      </trkpt>
      <trkpt lat="62.641230020673" lon="17.898050107384">
        <ele>0</ele>
        <time>2018-01-09T11:41:01Z</time>
      </trkpt>
      <trkpt lat="62.641205461706" lon="17.898062428777">
        <ele>0</ele>
        <time>2018-01-09T11:41:02Z</time>
      </trkpt>
      <trkpt lat="62.641185177508" lon="17.898071145953">
        <ele>0</ele>
        <time>2018-01-09T11:41:03Z</time>
      </trkpt>
      <trkpt lat="62.641168329889" lon="17.898079527853">
        <ele>0</ele>
        <time>2018-01-09T11:41:04Z</time>
      </trkpt>
      <trkpt lat="62.641137819773" lon="17.89807977931">
        <ele>0</ele>
        <time>2018-01-09T11:41:05Z</time>
      </trkpt>
      <trkpt lat="62.641117870851" lon="17.898080198405">
        <ele>0.2</ele>
        <time>2018-01-09T11:41:06Z</time>
      </trkpt>
      <trkpt lat="62.641098592481" lon="17.898078438206">
        <ele>0.4</ele>
        <time>2018-01-09T11:41:07Z</time>
      </trkpt>
      <trkpt lat="62.641073362962" lon="17.898059578931">
        <ele>0.6</ele>
        <time>2018-01-09T11:41:08Z</time>
      </trkpt>
      <trkpt lat="62.64105173766" lon="17.898039378552">
        <ele>0.6</ele>
        <time>2018-01-09T11:41:09Z</time>
      </trkpt>
      <trkpt lat="62.641036231145" lon="17.898016998879">
        <ele>0.6</ele>
        <time>2018-01-09T11:41:10Z</time>
      </trkpt>
      <trkpt lat="62.641021227544" lon="17.897985650573">
        <ele>0.8</ele>
        <time>2018-01-09T11:41:11Z</time>
      </trkpt>
      <trkpt lat="62.641008654694" lon="17.897948686394">
        <ele>1</ele>
        <time>2018-01-09T11:41:12Z</time>
      </trkpt>
      <trkpt lat="62.641000524251" lon="17.897912728043">
        <ele>1</ele>
        <time>2018-01-09T11:41:13Z</time>
      </trkpt>
      <trkpt lat="62.640992896722" lon="17.897874087484">
        <ele>1.2</ele>
        <time>2018-01-09T11:41:14Z</time>
      </trkpt>
      <trkpt lat="62.640984933917" lon="17.897827735577">
        <ele>1.6</ele>
        <time>2018-01-09T11:41:15Z</time>
      </trkpt>
      <trkpt lat="62.640981245881" lon="17.897796303452">
        <ele>1.8</ele>
        <time>2018-01-09T11:41:16Z</time>
      </trkpt>
      <trkpt lat="62.640973953628" lon="17.897758249626">
        <ele>2</ele>
        <time>2018-01-09T11:41:17Z</time>
      </trkpt>
      <trkpt lat="62.640970097954" lon="17.897724889664">
        <ele>2.2</ele>
        <time>2018-01-09T11:41:18Z</time>
      </trkpt>
      <trkpt lat="62.640966409918" lon="17.897693541358">
        <ele>2.6</ele>
        <time>2018-01-09T11:41:19Z</time>
      </trkpt>
      <trkpt lat="62.640963308615" lon="17.897660181396">
        <ele>2.6</ele>
        <time>2018-01-09T11:41:20Z</time>
      </trkpt>
      <trkpt lat="62.640960961683" lon="17.897625145054">
        <ele>2.8</ele>
        <time>2018-01-09T11:41:21Z</time>
      </trkpt>
      <trkpt lat="62.640952998878" lon="17.897598239155">
        <ele>2.8</ele>
        <time>2018-01-09T11:41:22Z</time>
      </trkpt>
      <trkpt lat="62.640951322498" lon="17.897564124822">
        <ele>3</ele>
        <time>2018-01-09T11:41:23Z</time>
      </trkpt>
      <trkpt lat="62.640947885919" lon="17.897531100136">
        <ele>3</ele>
        <time>2018-01-09T11:41:24Z</time>
      </trkpt>
      <trkpt lat="62.640941850951" lon="17.897502769314">
        <ele>3.2</ele>
        <time>2018-01-09T11:41:25Z</time>
      </trkpt>
      <trkpt lat="62.640940090752" lon="17.897462368556">
        <ele>3.4</ele>
        <time>2018-01-09T11:41:26Z</time>
      </trkpt>
      <trkpt lat="62.640932211766" lon="17.897418363581">
        <ele>3.4</ele>
        <time>2018-01-09T11:41:27Z</time>
      </trkpt>
      <trkpt lat="62.640926092979" lon="17.897380561212">
        <ele>3.6</ele>
        <time>2018-01-09T11:41:28Z</time>
      </trkpt>
      <trkpt lat="62.640921147658" lon="17.897343177938">
        <ele>3.6</ele>
        <time>2018-01-09T11:41:29Z</time>
      </trkpt>
      <trkpt lat="62.640913520129" lon="17.897301771352">
        <ele>3.8</ele>
        <time>2018-01-09T11:41:30Z</time>
      </trkpt>
      <trkpt lat="62.640904719134" lon="17.897264388078">
        <ele>4</ele>
        <time>2018-01-09T11:41:31Z</time>
      </trkpt>
      <trkpt lat="62.640897259243" lon="17.897234548514">
        <ele>4</ele>
        <time>2018-01-09T11:41:32Z</time>
      </trkpt>
      <trkpt lat="62.640890218447" lon="17.897200434181">
        <ele>4.4</ele>
        <time>2018-01-09T11:41:33Z</time>
      </trkpt>
      <trkpt lat="62.640883429108" lon="17.897159781966">
        <ele>4.4</ele>
        <time>2018-01-09T11:41:34Z</time>
      </trkpt>
      <trkpt lat="62.640874963389" lon="17.897125332357">
        <ele>4.8</ele>
        <time>2018-01-09T11:41:35Z</time>
      </trkpt>
      <trkpt lat="62.640868676964" lon="17.897093648775">
        <ele>5</ele>
        <time>2018-01-09T11:41:36Z</time>
      </trkpt>
      <trkpt lat="62.640860546521" lon="17.8970580257">
        <ele>5.2</ele>
        <time>2018-01-09T11:41:37Z</time>
      </trkpt>
      <trkpt lat="62.640850739698" lon="17.897022151168">
        <ele>5.4</ele>
        <time>2018-01-09T11:41:38Z</time>
      </trkpt>
      <trkpt lat="62.640841435789" lon="17.896989713215">
        <ele>5.6</ele>
        <time>2018-01-09T11:41:39Z</time>
      </trkpt>
      <trkpt lat="62.640833472984" lon="17.896959370737">
        <ele>5.6</ele>
        <time>2018-01-09T11:41:40Z</time>
      </trkpt>
      <trkpt lat="62.640826599826" lon="17.896929363535">
        <ele>5.8</ele>
        <time>2018-01-09T11:41:41Z</time>
      </trkpt>
      <trkpt lat="62.640816541546" lon="17.896896757944">
        <ele>6</ele>
        <time>2018-01-09T11:41:42Z</time>
      </trkpt>
      <trkpt lat="62.640808494922" lon="17.896872701891">
        <ele>6</ele>
        <time>2018-01-09T11:41:43Z</time>
      </trkpt>
      <trkpt lat="62.640802208497" lon="17.896852082417">
        <ele>6.4</ele>
        <time>2018-01-09T11:41:44Z</time>
      </trkpt>
      <trkpt lat="62.640793826597" lon="17.896827104355">
        <ele>6.4</ele>
        <time>2018-01-09T11:41:45Z</time>
      </trkpt>
      <trkpt lat="62.640787372534" lon="17.896801791017">
        <ele>6.6</ele>
        <time>2018-01-09T11:41:46Z</time>
      </trkpt>
      <trkpt lat="62.640779074453" lon="17.896775388032">
        <ele>6.8</ele>
        <time>2018-01-09T11:41:47Z</time>
      </trkpt>
      <trkpt lat="62.640769519087" lon="17.896746386658">
        <ele>6.8</ele>
        <time>2018-01-09T11:41:48Z</time>
      </trkpt>
      <trkpt lat="62.640761556282" lon="17.896717133827">
        <ele>7</ele>
        <time>2018-01-09T11:41:49Z</time>
      </trkpt>
      <trkpt lat="62.640754012572" lon="17.896692323403">
        <ele>7.2</ele>
        <time>2018-01-09T11:41:50Z</time>
      </trkpt>
      <trkpt lat="62.640747809966" lon="17.896661142735">
        <ele>7.2</ele>
        <time>2018-01-09T11:41:51Z</time>
      </trkpt>
      <trkpt lat="62.640739260428" lon="17.896626525488">
        <ele>7.6</ele>
        <time>2018-01-09T11:41:52Z</time>
      </trkpt>
      <trkpt lat="62.640733393098" lon="17.896603056168">
        <ele>7.6</ele>
        <time>2018-01-09T11:41:53Z</time>
      </trkpt>
      <trkpt lat="62.640722412809" lon="17.896580341219">
        <ele>8</ele>
        <time>2018-01-09T11:41:54Z</time>
      </trkpt>
      <trkpt lat="62.640712605986" lon="17.896555195519">
        <ele>8.2</ele>
        <time>2018-01-09T11:41:55Z</time>
      </trkpt>
      <trkpt lat="62.640706319561" lon="17.896516722598">
        <ele>8.6</ele>
        <time>2018-01-09T11:41:56Z</time>
      </trkpt>
      <trkpt lat="62.640698943489" lon="17.896482524446">
        <ele>8.8</ele>
        <time>2018-01-09T11:41:57Z</time>
      </trkpt>
      <trkpt lat="62.640691064503" lon="17.896463665171">
        <ele>9</ele>
        <time>2018-01-09T11:41:58Z</time>
      </trkpt>
      <trkpt lat="62.640682682603" lon="17.896428125915">
        <ele>9</ele>
        <time>2018-01-09T11:41:59Z</time>
      </trkpt>
      <trkpt lat="62.640665834984" lon="17.896376828687">
        <ele>9.2</ele>
        <time>2018-01-09T11:42:00Z</time>
      </trkpt>
      <trkpt lat="62.640656028161" lon="17.896338942499">
        <ele>9.4</ele>
        <time>2018-01-09T11:42:01Z</time>
      </trkpt>
      <trkpt lat="62.640647813899" lon="17.896313880618">
        <ele>9.4</ele>
        <time>2018-01-09T11:42:02Z</time>
      </trkpt>
      <trkpt lat="62.640639515818" lon="17.89626761253">
        <ele>9.4</ele>
        <time>2018-01-09T11:42:03Z</time>
      </trkpt>
      <trkpt lat="62.640632726479" lon="17.896216231483">
        <ele>9.6</ele>
        <time>2018-01-09T11:42:04Z</time>
      </trkpt>
      <trkpt lat="62.640627529701" lon="17.896184044987">
        <ele>9.8</ele>
        <time>2018-01-09T11:42:05Z</time>
      </trkpt>
      <trkpt lat="62.640624847493" lon="17.896129394999">
        <ele>10</ele>
        <time>2018-01-09T11:42:06Z</time>
      </trkpt>
      <trkpt lat="62.640614705394" lon="17.896094777752">
        <ele>10.2</ele>
        <time>2018-01-09T11:42:07Z</time>
      </trkpt>
      <trkpt lat="62.640613448109" lon="17.896045995094">
        <ele>10.4</ele>
        <time>2018-01-09T11:42:08Z</time>
      </trkpt>
      <trkpt lat="62.640611352634" lon="17.895993440581">
        <ele>10.6</ele>
        <time>2018-01-09T11:42:09Z</time>
      </trkpt>
      <trkpt lat="62.640606491132" lon="17.895959074791">
        <ele>10.8</ele>
        <time>2018-01-09T11:42:10Z</time>
      </trkpt>
      <trkpt lat="62.640600539983" lon="17.895917919662">
        <ele>11</ele>
        <time>2018-01-09T11:42:11Z</time>
      </trkpt>
      <trkpt lat="62.640597271042" lon="17.89588623608">
        <ele>10.8</ele>
        <time>2018-01-09T11:42:12Z</time>
      </trkpt>
      <trkpt lat="62.640595091748" lon="17.89584935572">
        <ele>11</ele>
        <time>2018-01-09T11:42:13Z</time>
      </trkpt>
      <trkpt lat="62.640589978789" lon="17.89580660803">
        <ele>11</ele>
        <time>2018-01-09T11:42:14Z</time>
      </trkpt>
      <trkpt lat="62.640584698192" lon="17.895766542548">
        <ele>11.2</ele>
        <time>2018-01-09T11:42:15Z</time>
      </trkpt>
      <trkpt lat="62.640581177794" lon="17.895733601681">
        <ele>11.2</ele>
        <time>2018-01-09T11:42:16Z</time>
      </trkpt>
      <trkpt lat="62.640577573577" lon="17.895690267258">
        <ele>11.4</ele>
        <time>2018-01-09T11:42:17Z</time>
      </trkpt>
      <trkpt lat="62.640571203333" lon="17.895638886211">
        <ele>11.6</ele>
        <time>2018-01-09T11:42:18Z</time>
      </trkpt>
      <trkpt lat="62.640567766754" lon="17.8955995751">
        <ele>11.8</ele>
        <time>2018-01-09T11:42:19Z</time>
      </trkpt>
      <trkpt lat="62.640564413994" lon="17.895572585382">
        <ele>11.8</ele>
        <time>2018-01-09T11:42:20Z</time>
      </trkpt>
      <trkpt lat="62.640562737614" lon="17.895526065837">
        <ele>12</ele>
        <time>2018-01-09T11:42:21Z</time>
      </trkpt>
      <trkpt lat="62.640557876112" lon="17.895469571831">
        <ele>12.2</ele>
        <time>2018-01-09T11:42:22Z</time>
      </trkpt>
      <trkpt lat="62.640556451189" lon="17.895435708955">
        <ele>12.4</ele>
        <time>2018-01-09T11:42:23Z</time>
      </trkpt>
      <trkpt lat="62.640551841144" lon="17.895393547998">
        <ele>12.6</ele>
        <time>2018-01-09T11:42:24Z</time>
      </trkpt>
      <trkpt lat="62.640546728185" lon="17.895336467259">
        <ele>12.6</ele>
        <time>2018-01-09T11:42:25Z</time>
      </trkpt>
      <trkpt lat="62.64054127995" lon="17.895285589126">
        <ele>12.8</ele>
        <time>2018-01-09T11:42:26Z</time>
      </trkpt>
      <trkpt lat="62.640537340457" lon="17.895236052097">
        <ele>12.8</ele>
        <time>2018-01-09T11:42:27Z</time>
      </trkpt>
      <trkpt lat="62.640533317145" lon="17.895168577802">
        <ele>12.8</ele>
        <time>2018-01-09T11:42:28Z</time>
      </trkpt>
      <trkpt lat="62.64052786891" lon="17.895119376049">
        <ele>12.8</ele>
        <time>2018-01-09T11:42:29Z</time>
      </trkpt>
      <trkpt lat="62.64052703072" lon="17.895036227601">
        <ele>13</ele>
        <time>2018-01-09T11:42:30Z</time>
      </trkpt>
      <trkpt lat="62.640518145906" lon="17.894999095784">
        <ele>12.8</ele>
        <time>2018-01-09T11:42:31Z</time>
      </trkpt>
      <trkpt lat="62.640515715155" lon="17.894927179082">
        <ele>12.8</ele>
        <time>2018-01-09T11:42:32Z</time>
      </trkpt>
      <trkpt lat="62.640511524205" lon="17.89488795179">
        <ele>12.8</ele>
        <time>2018-01-09T11:42:33Z</time>
      </trkpt>
      <trkpt lat="62.640509261092" lon="17.894833134164">
        <ele>12.6</ele>
        <time>2018-01-09T11:42:34Z</time>
      </trkpt>
      <trkpt lat="62.6405035614" lon="17.894780495832">
        <ele>12.6</ele>
        <time>2018-01-09T11:42:35Z</time>
      </trkpt>
      <trkpt lat="62.64050272321" lon="17.894746884413">
        <ele>12.6</ele>
        <time>2018-01-09T11:42:36Z</time>
      </trkpt>
      <trkpt lat="62.640500879192" lon="17.894673961883">
        <ele>12.6</ele>
        <time>2018-01-09T11:42:37Z</time>
      </trkpt>
      <trkpt lat="62.640498616079" lon="17.894640601921">
        <ele>12.6</ele>
        <time>2018-01-09T11:42:38Z</time>
      </trkpt>
      <trkpt lat="62.640494089853" lon="17.894597518955">
        <ele>12.6</ele>
        <time>2018-01-09T11:42:39Z</time>
      </trkpt>
      <trkpt lat="62.640492748749" lon="17.894539097112">
        <ele>12.6</ele>
        <time>2018-01-09T11:42:40Z</time>
      </trkpt>
      <trkpt lat="62.640488641618" lon="17.894489895359">
        <ele>12.6</ele>
        <time>2018-01-09T11:42:41Z</time>
      </trkpt>
      <trkpt lat="62.640485707953" lon="17.894458379415">
        <ele>12.6</ele>
        <time>2018-01-09T11:42:42Z</time>
      </trkpt>
      <trkpt lat="62.640480175899" lon="17.894405741083">
        <ele>12.8</ele>
        <time>2018-01-09T11:42:43Z</time>
      </trkpt>
      <trkpt lat="62.640475984949" lon="17.894358718624">
        <ele>13</ele>
        <time>2018-01-09T11:42:44Z</time>
      </trkpt>
      <trkpt lat="62.640471374904" lon="17.894315384201">
        <ele>13</ele>
        <time>2018-01-09T11:42:45Z</time>
      </trkpt>
      <trkpt lat="62.640466597221" lon="17.894286718103">
        <ele>13.2</ele>
        <time>2018-01-09T11:42:46Z</time>
      </trkpt>
      <trkpt lat="62.640459724063" lon="17.894244473327">
        <ele>13.4</ele>
        <time>2018-01-09T11:42:47Z</time>
      </trkpt>
      <trkpt lat="62.640452012715" lon="17.894204994578">
        <ele>13.4</ele>
        <time>2018-01-09T11:42:48Z</time>
      </trkpt>
      <trkpt lat="62.640444469005" lon="17.894162330707">
        <ele>13.6</ele>
        <time>2018-01-09T11:42:49Z</time>
      </trkpt>
      <trkpt lat="62.640434997458" lon="17.89413106622">
        <ele>13.6</ele>
        <time>2018-01-09T11:42:50Z</time>
      </trkpt>
      <trkpt lat="62.640424687721" lon="17.89407239292">
        <ele>13.6</ele>
        <time>2018-01-09T11:42:51Z</time>
      </trkpt>
      <trkpt lat="62.640409013568" lon="17.894035428741">
        <ele>13.8</ele>
        <time>2018-01-09T11:42:52Z</time>
      </trkpt>
      <trkpt lat="62.640396021623" lon="17.894002320236">
        <ele>13.8</ele>
        <time>2018-01-09T11:42:53Z</time>
      </trkpt>
      <trkpt lat="62.640381688574" lon="17.893953705216">
        <ele>13.8</ele>
        <time>2018-01-09T11:42:54Z</time>
      </trkpt>
      <trkpt lat="62.640367523163" lon="17.893920009978">
        <ele>13.8</ele>
        <time>2018-01-09T11:42:55Z</time>
      </trkpt>
      <trkpt lat="62.640354866494" lon="17.893879860677">
        <ele>14</ele>
        <time>2018-01-09T11:42:56Z</time>
      </trkpt>
      <trkpt lat="62.640344389119" lon="17.893832586761">
        <ele>14</ele>
        <time>2018-01-09T11:42:57Z</time>
      </trkpt>
      <trkpt lat="62.640326954767" lon="17.893790844899">
        <ele>14.2</ele>
        <time>2018-01-09T11:42:58Z</time>
      </trkpt>
      <trkpt lat="62.640312789356" lon="17.893745079725">
        <ele>14.2</ele>
        <time>2018-01-09T11:42:59Z</time>
      </trkpt>
      <trkpt lat="62.640303569266" lon="17.893706355347">
        <ele>14.4</ele>
        <time>2018-01-09T11:43:00Z</time>
      </trkpt>
      <trkpt lat="62.640296947565" lon="17.893669977901">
        <ele>14.6</ele>
        <time>2018-01-09T11:43:01Z</time>
      </trkpt>
      <trkpt lat="62.640289906769" lon="17.893632259351">
        <ele>14.6</ele>
        <time>2018-01-09T11:43:02Z</time>
      </trkpt>
      <trkpt lat="62.640286218733" lon="17.89360803566">
        <ele>15</ele>
        <time>2018-01-09T11:43:03Z</time>
      </trkpt>
      <trkpt lat="62.640281608688" lon="17.893578615191">
        <ele>15.2</ele>
        <time>2018-01-09T11:43:04Z</time>
      </trkpt>
      <trkpt lat="62.640280351403" lon="17.893544081763">
        <ele>15.4</ele>
        <time>2018-01-09T11:43:05Z</time>
      </trkpt>
      <trkpt lat="62.640279094118" lon="17.893507201403">
        <ele>15.6</ele>
        <time>2018-01-09T11:43:06Z</time>
      </trkpt>
      <trkpt lat="62.640279513213" lon="17.893469985767">
        <ele>15.8</ele>
        <time>2018-01-09T11:43:07Z</time>
      </trkpt>
      <trkpt lat="62.640281021955" lon="17.893436877262">
        <ele>16</ele>
        <time>2018-01-09T11:43:08Z</time>
      </trkpt>
      <trkpt lat="62.640283452706" lon="17.893405696594">
        <ele>16.2</ele>
        <time>2018-01-09T11:43:09Z</time>
      </trkpt>
      <trkpt lat="62.640285632" lon="17.893368564777">
        <ele>16.2</ele>
        <time>2018-01-09T11:43:10Z</time>
      </trkpt>
      <trkpt lat="62.64028814657" lon="17.893328331657">
        <ele>16.4</ele>
        <time>2018-01-09T11:43:11Z</time>
      </trkpt>
      <trkpt lat="62.640291666968" lon="17.89329287622">
        <ele>16.6</ele>
        <time>2018-01-09T11:43:12Z</time>
      </trkpt>
      <trkpt lat="62.640294600633" lon="17.893256163498">
        <ele>16.8</ele>
        <time>2018-01-09T11:43:13Z</time>
      </trkpt>
      <trkpt lat="62.640296360832" lon="17.893220205147">
        <ele>17</ele>
        <time>2018-01-09T11:43:14Z</time>
      </trkpt>
      <trkpt lat="62.640298959221" lon="17.893182821873">
        <ele>17</ele>
        <time>2018-01-09T11:43:15Z</time>
      </trkpt>
      <trkpt lat="62.640300551782" lon="17.893160526019">
        <ele>17.4</ele>
        <time>2018-01-09T11:43:16Z</time>
      </trkpt>
      <trkpt lat="62.64030155761" lon="17.893141247649">
        <ele>17.4</ele>
        <time>2018-01-09T11:43:17Z</time>
      </trkpt>
      <trkpt lat="62.640301138515" lon="17.893098667597">
        <ele>17.4</ele>
        <time>2018-01-09T11:43:18Z</time>
      </trkpt>
      <trkpt lat="62.640300384144" lon="17.893066984015">
        <ele>17.8</ele>
        <time>2018-01-09T11:43:19Z</time>
      </trkpt>
      <trkpt lat="62.640300132687" lon="17.893033204958">
        <ele>18</ele>
        <time>2018-01-09T11:43:20Z</time>
      </trkpt>
      <trkpt lat="62.640301138515" lon="17.892998000978">
        <ele>18.2</ele>
        <time>2018-01-09T11:43:21Z</time>
      </trkpt>
      <trkpt lat="62.640297282841" lon="17.892966485034">
        <ele>18.4</ele>
        <time>2018-01-09T11:43:22Z</time>
      </trkpt>
      <trkpt lat="62.64029317571" lon="17.892931783968">
        <ele>18.8</ele>
        <time>2018-01-09T11:43:23Z</time>
      </trkpt>
      <trkpt lat="62.640291164054" lon="17.892898172549">
        <ele>18.8</ele>
        <time>2018-01-09T11:43:24Z</time>
      </trkpt>
      <trkpt lat="62.640286973104" lon="17.892869003537">
        <ele>19.4</ele>
        <time>2018-01-09T11:43:25Z</time>
      </trkpt>
      <trkpt lat="62.640284626172" lon="17.892837990507">
        <ele>19.8</ele>
        <time>2018-01-09T11:43:26Z</time>
      </trkpt>
      <trkpt lat="62.640283536525" lon="17.892805720192">
        <ele>19.8</ele>
        <time>2018-01-09T11:43:27Z</time>
      </trkpt>
      <trkpt lat="62.640279429394" lon="17.892769761841">
        <ele>20</ele>
        <time>2018-01-09T11:43:28Z</time>
      </trkpt>
      <trkpt lat="62.640273645883" lon="17.892722823201">
        <ele>20.2</ele>
        <time>2018-01-09T11:43:29Z</time>
      </trkpt>
      <trkpt lat="62.640269454933" lon="17.892673872905">
        <ele>20.4</ele>
        <time>2018-01-09T11:43:30Z</time>
      </trkpt>
      <trkpt lat="62.640265850716" lon="17.892618720003">
        <ele>20.4</ele>
        <time>2018-01-09T11:43:31Z</time>
      </trkpt>
      <trkpt lat="62.640259815748" lon="17.892575637037">
        <ele>20.4</ele>
        <time>2018-01-09T11:43:32Z</time>
      </trkpt>
      <trkpt lat="62.640251769124" lon="17.892547641491">
        <ele>20.6</ele>
        <time>2018-01-09T11:43:33Z</time>
      </trkpt>
      <trkpt lat="62.640244225414" lon="17.892497014815">
        <ele>20.8</ele>
        <time>2018-01-09T11:43:34Z</time>
      </trkpt>
      <trkpt lat="62.640239615369" lon="17.892451836374">
        <ele>20.8</ele>
        <time>2018-01-09T11:43:35Z</time>
      </trkpt>
      <trkpt lat="62.64023450241" lon="17.892404143363">
        <ele>21</ele>
        <time>2018-01-09T11:43:36Z</time>
      </trkpt>
      <trkpt lat="62.640231065831" lon="17.892367849736">
        <ele>21</ele>
        <time>2018-01-09T11:43:37Z</time>
      </trkpt>
      <trkpt lat="62.640227293976" lon="17.892324431494">
        <ele>21.2</ele>
        <time>2018-01-09T11:43:38Z</time>
      </trkpt>
      <trkpt lat="62.640224863225" lon="17.892281683804">
        <ele>21.4</ele>
        <time>2018-01-09T11:43:39Z</time>
      </trkpt>
      <trkpt lat="62.64022109137" lon="17.892238181743">
        <ele>21.6</ele>
        <time>2018-01-09T11:43:40Z</time>
      </trkpt>
      <trkpt lat="62.640218995895" lon="17.892184621402">
        <ele>21.8</ele>
        <time>2018-01-09T11:43:41Z</time>
      </trkpt>
      <trkpt lat="62.640217570972" lon="17.892127037749">
        <ele>22</ele>
        <time>2018-01-09T11:43:42Z</time>
      </trkpt>
      <trkpt lat="62.640219582628" lon="17.892087726638">
        <ele>22</ele>
        <time>2018-01-09T11:43:43Z</time>
      </trkpt>
      <trkpt lat="62.640224108854" lon="17.892034585392">
        <ele>22</ele>
        <time>2018-01-09T11:43:44Z</time>
      </trkpt>
      <trkpt lat="62.640228886537" lon="17.891985551277">
        <ele>22.2</ele>
        <time>2018-01-09T11:43:45Z</time>
      </trkpt>
      <trkpt lat="62.640241710844" lon="17.891953364781">
        <ele>22</ele>
        <time>2018-01-09T11:43:46Z</time>
      </trkpt>
      <trkpt lat="62.640252188219" lon="17.891915646231">
        <ele>22</ele>
        <time>2018-01-09T11:43:47Z</time>
      </trkpt>
      <trkpt lat="62.640276076634" lon="17.891872814722">
        <ele>22</ele>
        <time>2018-01-09T11:43:48Z</time>
      </trkpt>
      <trkpt lat="62.640304239818" lon="17.891827803919">
        <ele>22</ele>
        <time>2018-01-09T11:43:49Z</time>
      </trkpt>
      <trkpt lat="62.640330810441" lon="17.891793857224">
        <ele>22</ele>
        <time>2018-01-09T11:43:50Z</time>
      </trkpt>
      <trkpt lat="62.640357967797" lon="17.891764269117">
        <ele>21.8</ele>
        <time>2018-01-09T11:43:51Z</time>
      </trkpt>
      <trkpt lat="62.640390824845" lon="17.891750187525">
        <ele>21.8</ele>
        <time>2018-01-09T11:43:52Z</time>
      </trkpt>
      <trkpt lat="62.640416892554" lon="17.89174641567">
        <ele>21.8</ele>
        <time>2018-01-09T11:43:53Z</time>
      </trkpt>
      <trkpt lat="62.640446480661" lon="17.891739207236">
        <ele>21.6</ele>
        <time>2018-01-09T11:43:54Z</time>
      </trkpt>
      <trkpt lat="62.640500795373" lon="17.891733759001">
        <ele>21.6</ele>
        <time>2018-01-09T11:43:55Z</time>
      </trkpt>
      <trkpt lat="62.640564078718" lon="17.891728981318">
        <ele>21.6</ele>
        <time>2018-01-09T11:43:56Z</time>
      </trkpt>
      <trkpt lat="62.640631133918" lon="17.891728226947">
        <ele>21.4</ele>
        <time>2018-01-09T11:43:57Z</time>
      </trkpt>
      <trkpt lat="62.640687711743" lon="17.891745158385">
        <ele>21.2</ele>
        <time>2018-01-09T11:43:58Z</time>
      </trkpt>
      <trkpt lat="62.640753258201" lon="17.891791929387">
        <ele>20.6</ele>
        <time>2018-01-09T11:43:59Z</time>
      </trkpt>
      <trkpt lat="62.640808494922" lon="17.891854793637">
        <ele>19.6</ele>
        <time>2018-01-09T11:44:00Z</time>
      </trkpt>
      <trkpt lat="62.640858702503" lon="17.89192662652">
        <ele>19</ele>
        <time>2018-01-09T11:44:01Z</time>
      </trkpt>
      <trkpt lat="62.640899689994" lon="17.892016731945">
        <ele>18.2</ele>
        <time>2018-01-09T11:44:02Z</time>
      </trkpt>
      <trkpt lat="62.640941767132" lon="17.892095270348">
        <ele>17.4</ele>
        <time>2018-01-09T11:44:03Z</time>
      </trkpt>
      <trkpt lat="62.640985688288" lon="17.892170204534">
        <ele>16.6</ele>
        <time>2018-01-09T11:44:04Z</time>
      </trkpt>
      <trkpt lat="62.641030531453" lon="17.892214041871">
        <ele>16.4</ele>
        <time>2018-01-09T11:44:05Z</time>
      </trkpt>
      <trkpt lat="62.641068166184" lon="17.892237092096">
        <ele>16.2</ele>
        <time>2018-01-09T11:44:06Z</time>
      </trkpt>
      <trkpt lat="62.641101945241" lon="17.892248994394">
        <ele>15.8</ele>
        <time>2018-01-09T11:44:07Z</time>
      </trkpt>
      <trkpt lat="62.64113639485" lon="17.892250838412">
        <ele>15.8</ele>
        <time>2018-01-09T11:44:08Z</time>
      </trkpt>
      <trkpt lat="62.641185177508" lon="17.892247066557">
        <ele>15.8</ele>
        <time>2018-01-09T11:44:09Z</time>
      </trkpt>
      <trkpt lat="62.641214430339" lon="17.89223172768">
        <ele>15.6</ele>
        <time>2018-01-09T11:44:10Z</time>
      </trkpt>
      <trkpt lat="62.641243766989" lon="17.892212616948">
        <ele>15.6</ele>
        <time>2018-01-09T11:44:11Z</time>
      </trkpt>
      <trkpt lat="62.641277965141" lon="17.892193757673">
        <ele>15.8</ele>
        <time>2018-01-09T11:44:12Z</time>
      </trkpt>
      <trkpt lat="62.641310989827" lon="17.892169198706">
        <ele>15.6</ele>
        <time>2018-01-09T11:44:13Z</time>
      </trkpt>
      <trkpt lat="62.641349630386" lon="17.892142292807">
        <ele>15.8</ele>
        <time>2018-01-09T11:44:14Z</time>
      </trkpt>
      <trkpt lat="62.641387348936" lon="17.892121673333">
        <ele>15.6</ele>
        <time>2018-01-09T11:44:15Z</time>
      </trkpt>
      <trkpt lat="62.641421295631" lon="17.892101389135">
        <ele>15.6</ele>
        <time>2018-01-09T11:44:16Z</time>
      </trkpt>
      <trkpt lat="62.641442501838" lon="17.892069621734">
        <ele>15.6</ele>
        <time>2018-01-09T11:44:17Z</time>
      </trkpt>
      <trkpt lat="62.641467815176" lon="17.892046403871">
        <ele>15.4</ele>
        <time>2018-01-09T11:44:18Z</time>
      </trkpt>
      <trkpt lat="62.641502013328" lon="17.892014468832">
        <ele>15.4</ele>
        <time>2018-01-09T11:44:19Z</time>
      </trkpt>
      <trkpt lat="62.641543587552" lon="17.892004242914">
        <ele>15.4</ele>
        <time>2018-01-09T11:44:20Z</time>
      </trkpt>
      <trkpt lat="62.641581389921" lon="17.891986473286">
        <ele>15</ele>
        <time>2018-01-09T11:44:21Z</time>
      </trkpt>
      <trkpt lat="62.641624053792" lon="17.891976415006">
        <ele>14.6</ele>
        <time>2018-01-09T11:44:22Z</time>
      </trkpt>
      <trkpt lat="62.641666047111" lon="17.891968787477">
        <ele>13.6</ele>
        <time>2018-01-09T11:44:23Z</time>
      </trkpt>
      <trkpt lat="62.641702256919" lon="17.891959148292">
        <ele>13</ele>
        <time>2018-01-09T11:44:24Z</time>
      </trkpt>
      <trkpt lat="62.641736119795" lon="17.891949760564">
        <ele>12</ele>
        <time>2018-01-09T11:44:25Z</time>
      </trkpt>
      <trkpt lat="62.641771407594" lon="17.891932158574">
        <ele>11</ele>
        <time>2018-01-09T11:44:26Z</time>
      </trkpt>
      <trkpt lat="62.641808539411" lon="17.891915310955">
        <ele>10.4</ele>
        <time>2018-01-09T11:44:27Z</time>
      </trkpt>
      <trkpt lat="62.641858579354" lon="17.89188974616">
        <ele>10</ele>
        <time>2018-01-09T11:44:28Z</time>
      </trkpt>
      <trkpt lat="62.641914486627" lon="17.891859403682">
        <ele>9.8</ele>
        <time>2018-01-09T11:44:29Z</time>
      </trkpt>
      <trkpt lat="62.641975674497" lon="17.891820595485">
        <ele>9.2</ele>
        <time>2018-01-09T11:44:30Z</time>
      </trkpt>
      <trkpt lat="62.642038119652" lon="17.891784888591">
        <ele>8.6</ele>
        <time>2018-01-09T11:44:31Z</time>
      </trkpt>
      <trkpt lat="62.642097044409" lon="17.891748175869">
        <ele>8.2</ele>
        <time>2018-01-09T11:44:32Z</time>
      </trkpt>
      <trkpt lat="62.642169464025" lon="17.891702745971">
        <ele>7.4</ele>
        <time>2018-01-09T11:44:33Z</time>
      </trkpt>
      <trkpt lat="62.642246745143" lon="17.891641222825">
        <ele>6.8</ele>
        <time>2018-01-09T11:44:34Z</time>
      </trkpt>
      <trkpt lat="62.64232913922" lon="17.891554637798">
        <ele>5.8</ele>
        <time>2018-01-09T11:44:35Z</time>
      </trkpt>
      <trkpt lat="62.642399463361" lon="17.89146478383">
        <ele>5.2</ele>
        <time>2018-01-09T11:44:36Z</time>
      </trkpt>
      <trkpt lat="62.642447407829" lon="17.891377695889">
        <ele>4.8</ele>
        <time>2018-01-09T11:44:37Z</time>
      </trkpt>
      <trkpt lat="62.642480935429" lon="17.891287506645">
        <ele>4</ele>
        <time>2018-01-09T11:44:38Z</time>
      </trkpt>
      <trkpt lat="62.642500716713" lon="17.891200167247">
        <ele>3.6</ele>
        <time>2018-01-09T11:44:39Z</time>
      </trkpt>
      <trkpt lat="62.642514127753" lon="17.891113330763">
        <ele>3.6</ele>
        <time>2018-01-09T11:44:40Z</time>
      </trkpt>
      <trkpt lat="62.642519073074" lon="17.891036636378">
        <ele>3.8</ele>
        <time>2018-01-09T11:44:41Z</time>
      </trkpt>
      <trkpt lat="62.642508008966" lon="17.890978801268">
        <ele>3.6</ele>
        <time>2018-01-09T11:44:42Z</time>
      </trkpt>
      <trkpt lat="62.642492670089" lon="17.890932449361">
        <ele>3.2</ele>
        <time>2018-01-09T11:44:43Z</time>
      </trkpt>
      <trkpt lat="62.64246911695" lon="17.890862711953">
        <ele>3.4</ele>
        <time>2018-01-09T11:44:44Z</time>
      </trkpt>
      <trkpt lat="62.642442462508" lon="17.890811750001">
        <ele>3.6</ele>
        <time>2018-01-09T11:44:45Z</time>
      </trkpt>
      <trkpt lat="62.642403570492" lon="17.890779898781">
        <ele>3.4</ele>
        <time>2018-01-09T11:44:46Z</time>
      </trkpt>
      <trkpt lat="62.642352943816" lon="17.890752238511">
        <ele>3.6</ele>
        <time>2018-01-09T11:44:47Z</time>
      </trkpt>
      <trkpt lat="62.642306675728" lon="17.890754166348">
        <ele>3.6</ele>
        <time>2018-01-09T11:44:48Z</time>
      </trkpt>
      <trkpt lat="62.642241464546" lon="17.890718040359">
        <ele>3.2</ele>
        <time>2018-01-09T11:44:49Z</time>
      </trkpt>
      <trkpt lat="62.642201315245" lon="17.890694403401">
        <ele>2.8</ele>
        <time>2018-01-09T11:44:50Z</time>
      </trkpt>
      <trkpt lat="62.642166278903" lon="17.890675795583">
        <ele>2.6</ele>
        <time>2018-01-09T11:44:51Z</time>
      </trkpt>
      <trkpt lat="62.642139875918" lon="17.890659450878">
        <ele>2.2</ele>
        <time>2018-01-09T11:44:52Z</time>
      </trkpt>
      <trkpt lat="62.6421128862" lon="17.890638160852">
        <ele>1.8</ele>
        <time>2018-01-09T11:44:53Z</time>
      </trkpt>
      <trkpt lat="62.642093691649" lon="17.890634221359">
        <ele>2</ele>
        <time>2018-01-09T11:44:54Z</time>
      </trkpt>
      <trkpt lat="62.642074832374" lon="17.890632628798">
        <ele>2</ele>
        <time>2018-01-09T11:44:55Z</time>
      </trkpt>
      <trkpt lat="62.642057481841" lon="17.890628940762">
        <ele>2.2</ele>
        <time>2018-01-09T11:44:56Z</time>
      </trkpt>
      <trkpt lat="62.642044238439" lon="17.890622821975">
        <ele>2.6</ele>
        <time>2018-01-09T11:44:57Z</time>
      </trkpt>
      <trkpt lat="62.642026720268" lon="17.890604130338">
        <ele>2.8</ele>
        <time>2018-01-09T11:44:58Z</time>
      </trkpt>
      <trkpt lat="62.642009956468" lon="17.89059306623">
        <ele>3</ele>
        <time>2018-01-09T11:44:59Z</time>
      </trkpt>
      <trkpt lat="62.641993360306" lon="17.890578565543">
        <ele>3.2</ele>
        <time>2018-01-09T11:45:00Z</time>
      </trkpt>
      <trkpt lat="62.641985397501" lon="17.890567585254">
        <ele>3.4</ele>
        <time>2018-01-09T11:45:01Z</time>
      </trkpt>
      <trkpt lat="62.641973830479" lon="17.890560460639">
        <ele>3.6</ele>
        <time>2018-01-09T11:45:02Z</time>
      </trkpt>
      <trkpt lat="62.641961006172" lon="17.890552330196">
        <ele>4</ele>
        <time>2018-01-09T11:45:03Z</time>
      </trkpt>
      <trkpt lat="62.641942649811" lon="17.890546379047">
        <ele>4.2</ele>
        <time>2018-01-09T11:45:04Z</time>
      </trkpt>
      <trkpt lat="62.641931920979" lon="17.890535566396">
        <ele>4.6</ele>
        <time>2018-01-09T11:45:05Z</time>
      </trkpt>
      <trkpt lat="62.641921862699" lon="17.890525256659">
        <ele>4.8</ele>
        <time>2018-01-09T11:45:06Z</time>
      </trkpt>
      <trkpt lat="62.641910379496" lon="17.890518634958">
        <ele>5.2</ele>
        <time>2018-01-09T11:45:07Z</time>
      </trkpt>
      <trkpt lat="62.641896800818" lon="17.890508492859">
        <ele>5.4</ele>
        <time>2018-01-09T11:45:08Z</time>
      </trkpt>
      <trkpt lat="62.641884730882" lon="17.890500530054">
        <ele>5.8</ele>
        <time>2018-01-09T11:45:09Z</time>
      </trkpt>
      <trkpt lat="62.641874253507" lon="17.890490136498">
        <ele>6</ele>
        <time>2018-01-09T11:45:10Z</time>
      </trkpt>
      <trkpt lat="62.641857154431" lon="17.890481251684">
        <ele>6.4</ele>
        <time>2018-01-09T11:45:11Z</time>
      </trkpt>
      <trkpt lat="62.641851119463" lon="17.890465409893">
        <ele>6.8</ele>
        <time>2018-01-09T11:45:12Z</time>
      </trkpt>
      <trkpt lat="62.641837792242" lon="17.890450071016">
        <ele>7</ele>
        <time>2018-01-09T11:45:13Z</time>
      </trkpt>
      <trkpt lat="62.641827482505" lon="17.890440180374">
        <ele>7.2</ele>
        <time>2018-01-09T11:45:14Z</time>
      </trkpt>
      <trkpt lat="62.641815915483" lon="17.890427858981">
        <ele>7.2</ele>
        <time>2018-01-09T11:45:15Z</time>
      </trkpt>
      <trkpt lat="62.641800073692" lon="17.89041034081">
        <ele>7.2</ele>
        <time>2018-01-09T11:45:16Z</time>
      </trkpt>
      <trkpt lat="62.641786411195" lon="17.890386787671">
        <ele>7.4</ele>
        <time>2018-01-09T11:45:17Z</time>
      </trkpt>
      <trkpt lat="62.641769898852" lon="17.890362144885">
        <ele>7.4</ele>
        <time>2018-01-09T11:45:18Z</time>
      </trkpt>
      <trkpt lat="62.641756990726" lon="17.890340184307">
        <ele>7.6</ele>
        <time>2018-01-09T11:45:19Z</time>
      </trkpt>
      <trkpt lat="62.641746513351" lon="17.890318056091">
        <ele>7.8</ele>
        <time>2018-01-09T11:45:20Z</time>
      </trkpt>
      <trkpt lat="62.641737460899" lon="17.890290144364">
        <ele>8</ele>
        <time>2018-01-09T11:45:21Z</time>
      </trkpt>
      <trkpt lat="62.64172648061" lon="17.890263573741">
        <ele>8.2</ele>
        <time>2018-01-09T11:45:22Z</time>
      </trkpt>
      <trkpt lat="62.641715835597" lon="17.890242451353">
        <ele>8.2</ele>
        <time>2018-01-09T11:45:23Z</time>
      </trkpt>
      <trkpt lat="62.641702424557" lon="17.890215629273">
        <ele>8.6</ele>
        <time>2018-01-09T11:45:24Z</time>
      </trkpt>
      <trkpt lat="62.641690773716" lon="17.890191657039">
        <ele>9</ele>
        <time>2018-01-09T11:45:25Z</time>
      </trkpt>
      <trkpt lat="62.64167786559" lon="17.890161146923">
        <ele>9</ele>
        <time>2018-01-09T11:45:26Z</time>
      </trkpt>
      <trkpt lat="62.641667974948" lon="17.890134241024">
        <ele>9.2</ele>
        <time>2018-01-09T11:45:27Z</time>
      </trkpt>
      <trkpt lat="62.641658251944" lon="17.890109011505">
        <ele>9.4</ele>
        <time>2018-01-09T11:45:28Z</time>
      </trkpt>
      <trkpt lat="62.64164601437" lon="17.890071041498">
        <ele>9.4</ele>
        <time>2018-01-09T11:45:29Z</time>
      </trkpt>
      <trkpt lat="62.641637464832" lon="17.890019241356">
        <ele>9.4</ele>
        <time>2018-01-09T11:45:30Z</time>
      </trkpt>
      <trkpt lat="62.641628328561" lon="17.88999292219">
        <ele>9.6</ele>
        <time>2018-01-09T11:45:31Z</time>
      </trkpt>
      <trkpt lat="62.641620198118" lon="17.889952940527">
        <ele>9.8</ele>
        <time>2018-01-09T11:45:32Z</time>
      </trkpt>
      <trkpt lat="62.641612738227" lon="17.889905918068">
        <ele>9.8</ele>
        <time>2018-01-09T11:45:33Z</time>
      </trkpt>
      <trkpt lat="62.641603518137" lon="17.889863757111">
        <ele>9.8</ele>
        <time>2018-01-09T11:45:34Z</time>
      </trkpt>
      <trkpt lat="62.64159488478" lon="17.889819249222">
        <ele>10.2</ele>
        <time>2018-01-09T11:45:35Z</time>
      </trkpt>
      <trkpt lat="62.641589520364" lon="17.88976996365">
        <ele>10.2</ele>
        <time>2018-01-09T11:45:36Z</time>
      </trkpt>
      <trkpt lat="62.641584072129" lon="17.889715732757">
        <ele>10</ele>
        <time>2018-01-09T11:45:37Z</time>
      </trkpt>
      <trkpt lat="62.641578875351" lon="17.889660747493">
        <ele>10</ele>
        <time>2018-01-09T11:45:38Z</time>
      </trkpt>
      <trkpt lat="62.641574600582" lon="17.889590842447">
        <ele>9.8</ele>
        <time>2018-01-09T11:45:39Z</time>
      </trkpt>
      <trkpt lat="62.641571583098" lon="17.889529570758">
        <ele>9.4</ele>
        <time>2018-01-09T11:45:40Z</time>
      </trkpt>
      <trkpt lat="62.641571666917" lon="17.889449691251">
        <ele>9</ele>
        <time>2018-01-09T11:45:41Z</time>
      </trkpt>
      <trkpt lat="62.641572672745" lon="17.88937685254">
        <ele>8.6</ele>
        <time>2018-01-09T11:45:42Z</time>
      </trkpt>
      <trkpt lat="62.641574600582" lon="17.889298230318">
        <ele>8.2</ele>
        <time>2018-01-09T11:45:43Z</time>
      </trkpt>
      <trkpt lat="62.641582982482" lon="17.889188930342">
        <ele>7.6</ele>
        <time>2018-01-09T11:45:44Z</time>
      </trkpt>
      <trkpt lat="62.641598321359" lon="17.889065967869">
        <ele>6.6</ele>
        <time>2018-01-09T11:45:45Z</time>
      </trkpt>
      <trkpt lat="62.641616426263" lon="17.888899168059">
        <ele>5.6</ele>
        <time>2018-01-09T11:45:46Z</time>
      </trkpt>
      <trkpt lat="62.641647606931" lon="17.888715185354">
        <ele>4.4</ele>
        <time>2018-01-09T11:45:47Z</time>
      </trkpt>
      <trkpt lat="62.641688259146" lon="17.888511672822">
        <ele>2.6</ele>
        <time>2018-01-09T11:45:48Z</time>
      </trkpt>
      <trkpt lat="62.641740646021" lon="17.888334311818">
        <ele>0.6</ele>
        <time>2018-01-09T11:45:49Z</time>
      </trkpt>
      <trkpt lat="62.641786495014" lon="17.888182599428">
        <ele>0</ele>
        <time>2018-01-09T11:45:50Z</time>
      </trkpt>
      <trkpt lat="62.641836954052" lon="17.888061061878">
        <ele>0</ele>
        <time>2018-01-09T11:45:51Z</time>
      </trkpt>
      <trkpt lat="62.641879953199" lon="17.887962574553">
        <ele>0</ele>
        <time>2018-01-09T11:45:52Z</time>
      </trkpt>
      <trkpt lat="62.641920856871" lon="17.887870792748">
        <ele>0</ele>
        <time>2018-01-09T11:45:53Z</time>
      </trkpt>
      <trkpt lat="62.641957485774" lon="17.887789236861">
        <ele>0</ele>
        <time>2018-01-09T11:45:54Z</time>
      </trkpt>
      <trkpt lat="62.64199134865" lon="17.887721175833">
        <ele>0</ele>
        <time>2018-01-09T11:45:55Z</time>
      </trkpt>
      <trkpt lat="62.642023870422" lon="17.8876619158">
        <ele>0</ele>
        <time>2018-01-09T11:45:56Z</time>
      </trkpt>
      <trkpt lat="62.642045663362" lon="17.887634674625">
        <ele>0</ele>
        <time>2018-01-09T11:45:57Z</time>
      </trkpt>
      <trkpt lat="62.6420793586" lon="17.887589580003">
        <ele>0</ele>
        <time>2018-01-09T11:45:58Z</time>
      </trkpt>
      <trkpt lat="62.642107270327" lon="17.887553537833">
        <ele>0</ele>
        <time>2018-01-09T11:45:59Z</time>
      </trkpt>
      <trkpt lat="62.642133170398" lon="17.887519172043">
        <ele>0</ele>
        <time>2018-01-09T11:46:00Z</time>
      </trkpt>
      <trkpt lat="62.642152029673" lon="17.887485476805">
        <ele>0</ele>
        <time>2018-01-09T11:46:01Z</time>
      </trkpt>
      <trkpt lat="62.642172481509" lon="17.887454128499">
        <ele>0</ele>
        <time>2018-01-09T11:46:02Z</time>
      </trkpt>
      <trkpt lat="62.642193687716" lon="17.887424372754">
        <ele>0</ele>
        <time>2018-01-09T11:46:03Z</time>
      </trkpt>
      <trkpt lat="62.642204668005" lon="17.887387911489">
        <ele>0</ele>
        <time>2018-01-09T11:46:04Z</time>
      </trkpt>
      <trkpt lat="62.642220090701" lon="17.887335692252">
        <ele>0</ele>
        <time>2018-01-09T11:46:05Z</time>
      </trkpt>
      <trkpt lat="62.642232160637" lon="17.887294285666">
        <ele>0</ele>
        <time>2018-01-09T11:46:06Z</time>
      </trkpt>
      <trkpt lat="62.642236686863" lon="17.887243910447">
        <ele>0</ele>
        <time>2018-01-09T11:46:07Z</time>
      </trkpt>
      <trkpt lat="62.642240039623" lon="17.887208119734">
        <ele>0</ele>
        <time>2018-01-09T11:46:08Z</time>
      </trkpt>
      <trkpt lat="62.642243979116" lon="17.887162522198">
        <ele>0</ele>
        <time>2018-01-09T11:46:09Z</time>
      </trkpt>
      <trkpt lat="62.64224615841" lon="17.887130000426">
        <ele>0</ele>
        <time>2018-01-09T11:46:10Z</time>
      </trkpt>
      <trkpt lat="62.642244314392" lon="17.887106447287">
        <ele>0</ele>
        <time>2018-01-09T11:46:11Z</time>
      </trkpt>
      <trkpt lat="62.642249008256" lon="17.887046013788">
        <ele>0</ele>
        <time>2018-01-09T11:46:12Z</time>
      </trkpt>
      <trkpt lat="62.642249846446" lon="17.887008546695">
        <ele>0</ele>
        <time>2018-01-09T11:46:13Z</time>
      </trkpt>
      <trkpt lat="62.642249678808" lon="17.886960518408">
        <ele>0</ele>
        <time>2018-01-09T11:46:14Z</time>
      </trkpt>
      <trkpt lat="62.642252109559" lon="17.886918273632">
        <ele>0</ele>
        <time>2018-01-09T11:46:15Z</time>
      </trkpt>
      <trkpt lat="62.642247750971" lon="17.886889439896">
        <ele>0</ele>
        <time>2018-01-09T11:46:16Z</time>
      </trkpt>
      <trkpt lat="62.6422469966" lon="17.886837723573">
        <ele>0</ele>
        <time>2018-01-09T11:46:17Z</time>
      </trkpt>
      <trkpt lat="62.642244062935" lon="17.886798999195">
        <ele>0</ele>
        <time>2018-01-09T11:46:18Z</time>
      </trkpt>
      <trkpt lat="62.642239201433" lon="17.886743930112">
        <ele>0</ele>
        <time>2018-01-09T11:46:19Z</time>
      </trkpt>
      <trkpt lat="62.642232412094" lon="17.886694560721">
        <ele>0</ele>
        <time>2018-01-09T11:46:20Z</time>
      </trkpt>
      <trkpt lat="62.642225790393" lon="17.88665273504">
        <ele>0.2</ele>
        <time>2018-01-09T11:46:21Z</time>
      </trkpt>
      <trkpt lat="62.64222101271" lon="17.886621135277">
        <ele>0.4</ele>
        <time>2018-01-09T11:46:22Z</time>
      </trkpt>
      <trkpt lat="62.642213133724" lon="17.886588948781">
        <ele>0.4</ele>
        <time>2018-01-09T11:46:23Z</time>
      </trkpt>
      <trkpt lat="62.642204835643" lon="17.886554163896">
        <ele>0.6</ele>
        <time>2018-01-09T11:46:24Z</time>
      </trkpt>
      <trkpt lat="62.642198213942" lon="17.886522564133">
        <ele>0.8</ele>
        <time>2018-01-09T11:46:25Z</time>
      </trkpt>
      <trkpt lat="62.642189496766" lon="17.886496077329">
        <ele>0.8</ele>
        <time>2018-01-09T11:46:26Z</time>
      </trkpt>
      <trkpt lat="62.642182036875" lon="17.886468500878">
        <ele>1</ele>
        <time>2018-01-09T11:46:27Z</time>
      </trkpt>
      <trkpt lat="62.642175415174" lon="17.886439918599">
        <ele>1.4</ele>
        <time>2018-01-09T11:46:28Z</time>
      </trkpt>
      <trkpt lat="62.642165440713" lon="17.886413515614">
        <ele>1.6</ele>
        <time>2018-01-09T11:46:29Z</time>
      </trkpt>
      <trkpt lat="62.642156052985" lon="17.886386609715">
        <ele>1.8</ele>
        <time>2018-01-09T11:46:30Z</time>
      </trkpt>
      <trkpt lat="62.642146916714" lon="17.886362553662">
        <ele>2</ele>
        <time>2018-01-09T11:46:31Z</time>
      </trkpt>
      <trkpt lat="62.64213887009" lon="17.886342185645">
        <ele>2.4</ele>
        <time>2018-01-09T11:46:32Z</time>
      </trkpt>
      <trkpt lat="62.642129147086" lon="17.886316956126">
        <ele>2.6</ele>
        <time>2018-01-09T11:46:33Z</time>
      </trkpt>
      <trkpt lat="62.642120094634" lon="17.88628560782">
        <ele>3</ele>
        <time>2018-01-09T11:46:34Z</time>
      </trkpt>
      <trkpt lat="62.64211120982" lon="17.886256103532">
        <ele>3.2</ele>
        <time>2018-01-09T11:46:35Z</time>
      </trkpt>
      <trkpt lat="62.642100061893" lon="17.886230119642">
        <ele>3.6</ele>
        <time>2018-01-09T11:46:36Z</time>
      </trkpt>
      <trkpt lat="62.642090757984" lon="17.886210925091">
        <ele>3.8</ele>
        <time>2018-01-09T11:46:37Z</time>
      </trkpt>
      <trkpt lat="62.642079777695" lon="17.886184270649">
        <ele>4.2</ele>
        <time>2018-01-09T11:46:38Z</time>
      </trkpt>
      <trkpt lat="62.642066701931" lon="17.886149401945">
        <ele>4.4</ele>
        <time>2018-01-09T11:46:39Z</time>
      </trkpt>
      <trkpt lat="62.642057230384" lon="17.886126854634">
        <ele>4.6</ele>
        <time>2018-01-09T11:46:40Z</time>
      </trkpt>
      <trkpt lat="62.642045579543" lon="17.886106570436">
        <ele>4.8</ele>
        <time>2018-01-09T11:46:41Z</time>
      </trkpt>
      <trkpt lat="62.642030575942" lon="17.886076479415">
        <ele>5</ele>
        <time>2018-01-09T11:46:42Z</time>
      </trkpt>
      <trkpt lat="62.642017919273" lon="17.886062146366">
        <ele>5</ele>
        <time>2018-01-09T11:46:43Z</time>
      </trkpt>
      <trkpt lat="62.642000149645" lon="17.886018309029">
        <ele>5.2</ele>
        <time>2018-01-09T11:46:44Z</time>
      </trkpt>
      <trkpt lat="62.641981709465" lon="17.885993582424">
        <ele>5.2</ele>
        <time>2018-01-09T11:46:45Z</time>
      </trkpt>
      <trkpt lat="62.641969890986" lon="17.885977321538">
        <ele>5.4</ele>
        <time>2018-01-09T11:46:46Z</time>
      </trkpt>
      <trkpt lat="62.641950025883" lon="17.885937675151">
        <ele>5.4</ele>
        <time>2018-01-09T11:46:47Z</time>
      </trkpt>
      <trkpt lat="62.641935609015" lon="17.885911523623">
        <ele>5.4</ele>
        <time>2018-01-09T11:46:48Z</time>
      </trkpt>
      <trkpt lat="62.64192261707" lon="17.885889563045">
        <ele>5.6</ele>
        <time>2018-01-09T11:46:49Z</time>
      </trkpt>
      <trkpt lat="62.641905517994" lon="17.885860561671">
        <ele>5.8</ele>
        <time>2018-01-09T11:46:50Z</time>
      </trkpt>
      <trkpt lat="62.641893699515" lon="17.885840948025">
        <ele>6</ele>
        <time>2018-01-09T11:46:51Z</time>
      </trkpt>
      <trkpt lat="62.641873750593" lon="17.885797865059">
        <ele>6</ele>
        <time>2018-01-09T11:46:52Z</time>
      </trkpt>
      <trkpt lat="62.641863357037" lon="17.885785543666">
        <ele>6.2</ele>
        <time>2018-01-09T11:46:53Z</time>
      </trkpt>
      <trkpt lat="62.641837876061" lon="17.885740868139">
        <ele>6.4</ele>
        <time>2018-01-09T11:46:54Z</time>
      </trkpt>
      <trkpt lat="62.641820106433" lon="17.885715470982">
        <ele>6.4</ele>
        <time>2018-01-09T11:46:55Z</time>
      </trkpt>
      <trkpt lat="62.641793787267" lon="17.885663000288">
        <ele>6.4</ele>
        <time>2018-01-09T11:46:56Z</time>
      </trkpt>
      <trkpt lat="62.641770737042" lon="17.885624862643">
        <ele>6.2</ele>
        <time>2018-01-09T11:46:57Z</time>
      </trkpt>
      <trkpt lat="62.641759505296" lon="17.885606338644">
        <ele>6.2</ele>
        <time>2018-01-09T11:46:58Z</time>
      </trkpt>
      <trkpt lat="62.641733605225" lon="17.885557807443">
        <ele>6.2</ele>
        <time>2018-01-09T11:46:59Z</time>
      </trkpt>
      <trkpt lat="62.641717009063" lon="17.885528470793">
        <ele>6.2</ele>
        <time>2018-01-09T11:47:00Z</time>
      </trkpt>
      <trkpt lat="62.641701418729" lon="17.885500475247">
        <ele>6</ele>
        <time>2018-01-09T11:47:01Z</time>
      </trkpt>
      <trkpt lat="62.641686163671" lon="17.88547759266">
        <ele>6</ele>
        <time>2018-01-09T11:47:02Z</time>
      </trkpt>
      <trkpt lat="62.641672417355" lon="17.885454626254">
        <ele>6.2</ele>
        <time>2018-01-09T11:47:03Z</time>
      </trkpt>
      <trkpt lat="62.641657916668" lon="17.885431240753">
        <ele>6</ele>
        <time>2018-01-09T11:47:04Z</time>
      </trkpt>
      <trkpt lat="62.641646517284" lon="17.885403329026">
        <ele>6</ele>
        <time>2018-01-09T11:47:05Z</time>
      </trkpt>
      <trkpt lat="62.641633609158" lon="17.885378853878">
        <ele>6.2</ele>
        <time>2018-01-09T11:47:06Z</time>
      </trkpt>
      <trkpt lat="62.641619024652" lon="17.88535521692">
        <ele>6.4</ele>
        <time>2018-01-09T11:47:07Z</time>
      </trkpt>
      <trkpt lat="62.641607792906" lon="17.885331663781">
        <ele>6.4</ele>
        <time>2018-01-09T11:47:08Z</time>
      </trkpt>
      <trkpt lat="62.64159404659" lon="17.885302830045">
        <ele>6.8</ele>
        <time>2018-01-09T11:47:09Z</time>
      </trkpt>
      <trkpt lat="62.641581306102" lon="17.88527726525">
        <ele>7</ele>
        <time>2018-01-09T11:47:10Z</time>
      </trkpt>
      <trkpt lat="62.641567895062" lon="17.885253041559">
        <ele>7.4</ele>
        <time>2018-01-09T11:47:11Z</time>
      </trkpt>
      <trkpt lat="62.641553729651" lon="17.885230913343">
        <ele>7.6</ele>
        <time>2018-01-09T11:47:12Z</time>
      </trkpt>
      <trkpt lat="62.641541156801" lon="17.885207108747">
        <ele>7.8</ele>
        <time>2018-01-09T11:47:13Z</time>
      </trkpt>
      <trkpt lat="62.641527578123" lon="17.885183052694">
        <ele>8</ele>
        <time>2018-01-09T11:47:14Z</time>
      </trkpt>
      <trkpt lat="62.641514334721" lon="17.885161092116">
        <ele>8</ele>
        <time>2018-01-09T11:47:15Z</time>
      </trkpt>
      <trkpt lat="62.641503354432" lon="17.885139885909">
        <ele>8.2</ele>
        <time>2018-01-09T11:47:16Z</time>
      </trkpt>
      <trkpt lat="62.641491284496" lon="17.88511633277">
        <ele>8.4</ele>
        <time>2018-01-09T11:47:17Z</time>
      </trkpt>
      <trkpt lat="62.641478208732" lon="17.885091354708">
        <ele>8.6</ele>
        <time>2018-01-09T11:47:18Z</time>
      </trkpt>
      <trkpt lat="62.641463791864" lon="17.885067382474">
        <ele>8.8</ele>
        <time>2018-01-09T11:47:19Z</time>
      </trkpt>
      <trkpt lat="62.641449374996" lon="17.885038213462">
        <ele>9.2</ele>
        <time>2018-01-09T11:47:20Z</time>
      </trkpt>
      <trkpt lat="62.641434622852" lon="17.885010804649">
        <ele>9.2</ele>
        <time>2018-01-09T11:47:21Z</time>
      </trkpt>
      <trkpt lat="62.641432359739" lon="17.885008625355">
        <ele>9.4</ele>
        <time>2018-01-09T11:47:22Z</time>
      </trkpt>
      <trkpt lat="62.641411069713" lon="17.884968224597">
        <ele>9.4</ele>
        <time>2018-01-09T11:47:23Z</time>
      </trkpt>
      <trkpt lat="62.641392964809" lon="17.884937965938">
        <ele>9.6</ele>
        <time>2018-01-09T11:47:24Z</time>
      </trkpt>
      <trkpt lat="62.641377625932" lon="17.88490678527">
        <ele>9.6</ele>
        <time>2018-01-09T11:47:25Z</time>
      </trkpt>
      <trkpt lat="62.641358682838" lon="17.88487828681">
        <ele>9.8</ele>
        <time>2018-01-09T11:47:26Z</time>
      </trkpt>
      <trkpt lat="62.641347534911" lon="17.884858840802">
        <ele>9.8</ele>
        <time>2018-01-09T11:47:27Z</time>
      </trkpt>
      <trkpt lat="62.641334375328" lon="17.88483470093">
        <ele>10</ele>
        <time>2018-01-09T11:47:28Z</time>
      </trkpt>
      <trkpt lat="62.641311492741" lon="17.884795389819">
        <ele>10</ele>
        <time>2018-01-09T11:47:29Z</time>
      </trkpt>
      <trkpt lat="62.641299171348" lon="17.884776949639">
        <ele>10.2</ele>
        <time>2018-01-09T11:47:30Z</time>
      </trkpt>
      <trkpt lat="62.641282742824" lon="17.88475255831">
        <ele>10.4</ele>
        <time>2018-01-09T11:47:31Z</time>
      </trkpt>
      <trkpt lat="62.641268493594" lon="17.884722551108">
        <ele>10.6</ele>
        <time>2018-01-09T11:47:32Z</time>
      </trkpt>
      <trkpt lat="62.641253070898" lon="17.884690113155">
        <ele>10.8</ele>
        <time>2018-01-09T11:47:33Z</time>
      </trkpt>
      <trkpt lat="62.641241000962" lon="17.884663458713">
        <ele>11</ele>
        <time>2018-01-09T11:47:34Z</time>
      </trkpt>
      <trkpt lat="62.641225829723" lon="17.884637307185">
        <ele>11.2</ele>
        <time>2018-01-09T11:47:35Z</time>
      </trkpt>
      <trkpt lat="62.64121015557" lon="17.884614927512">
        <ele>11.4</ele>
        <time>2018-01-09T11:47:36Z</time>
      </trkpt>
      <trkpt lat="62.641196912168" lon="17.884589865631">
        <ele>11.6</ele>
        <time>2018-01-09T11:47:37Z</time>
      </trkpt>
      <trkpt lat="62.64118500987" lon="17.884564887569">
        <ele>11.8</ele>
        <time>2018-01-09T11:47:38Z</time>
      </trkpt>
      <trkpt lat="62.641171515011" lon="17.884539155136">
        <ele>11.8</ele>
        <time>2018-01-09T11:47:39Z</time>
      </trkpt>
      <trkpt lat="62.64115818779" lon="17.884515853454">
        <ele>12</ele>
        <time>2018-01-09T11:47:40Z</time>
      </trkpt>
      <trkpt lat="62.641139496153" lon="17.884475201239">
        <ele>12.4</ele>
        <time>2018-01-09T11:47:41Z</time>
      </trkpt>
      <trkpt lat="62.641123822" lon="17.884441170725">
        <ele>12.6</ele>
        <time>2018-01-09T11:47:42Z</time>
      </trkpt>
      <trkpt lat="62.641114518091" lon="17.884420551251">
        <ele>12.6</ele>
        <time>2018-01-09T11:47:43Z</time>
      </trkpt>
      <trkpt lat="62.641092641332" lon="17.884375875724">
        <ele>12.8</ele>
        <time>2018-01-09T11:47:44Z</time>
      </trkpt>
      <trkpt lat="62.641077637731" lon="17.884339498278">
        <ele>13</ele>
        <time>2018-01-09T11:47:45Z</time>
      </trkpt>
      <trkpt lat="62.641070345478" lon="17.884335307328">
        <ele>13</ele>
        <time>2018-01-09T11:47:46Z</time>
      </trkpt>
      <trkpt lat="62.641047714348" lon="17.884280070607">
        <ele>13.2</ele>
        <time>2018-01-09T11:47:47Z</time>
      </trkpt>
      <trkpt lat="62.6410316211" lon="17.884238077288">
        <ele>13.2</ele>
        <time>2018-01-09T11:47:48Z</time>
      </trkpt>
      <trkpt lat="62.641020137897" lon="17.884217038719">
        <ele>13.4</ele>
        <time>2018-01-09T11:47:49Z</time>
      </trkpt>
      <trkpt lat="62.64100228445" lon="17.884162137274">
        <ele>13.4</ele>
        <time>2018-01-09T11:47:50Z</time>
      </trkpt>
      <trkpt lat="62.640992477627" lon="17.884130537511">
        <ele>13.4</ele>
        <time>2018-01-09T11:47:51Z</time>
      </trkpt>
      <trkpt lat="62.640979066587" lon="17.884114863358">
        <ele>13.6</ele>
        <time>2018-01-09T11:47:52Z</time>
      </trkpt>
      <trkpt lat="62.640968337755" lon="17.884060129551">
        <ele>13.6</ele>
        <time>2018-01-09T11:47:53Z</time>
      </trkpt>
      <trkpt lat="62.640955764905" lon="17.884024422657">
        <ele>13.6</ele>
        <time>2018-01-09T11:47:54Z</time>
      </trkpt>
      <trkpt lat="62.640945455168" lon="17.883994331636">
        <ele>13.8</ele>
        <time>2018-01-09T11:47:55Z</time>
      </trkpt>
      <trkpt lat="62.640931289757" lon="17.883957702733">
        <ele>14</ele>
        <time>2018-01-09T11:47:56Z</time>
      </trkpt>
      <trkpt lat="62.640918633088" lon="17.883926605884">
        <ele>14</ele>
        <time>2018-01-09T11:47:57Z</time>
      </trkpt>
      <trkpt lat="62.640903210392" lon="17.883889893162">
        <ele>14.2</ele>
        <time>2018-01-09T11:47:58Z</time>
      </trkpt>
      <trkpt lat="62.640891140456" lon="17.883837087192">
        <ele>14.4</ele>
        <time>2018-01-09T11:47:59Z</time>
      </trkpt>
      <trkpt lat="62.640886949506" lon="17.883800206832">
        <ele>14.4</ele>
        <time>2018-01-09T11:48:00Z</time>
      </trkpt>
      <trkpt lat="62.64088326147" lon="17.883757291504">
        <ele>14.6</ele>
        <time>2018-01-09T11:48:01Z</time>
      </trkpt>
      <trkpt lat="62.640881417452" lon="17.883731307614">
        <ele>14.6</ele>
        <time>2018-01-09T11:48:02Z</time>
      </trkpt>
      <trkpt lat="62.640877310321" lon="17.883691828865">
        <ele>14.8</ele>
        <time>2018-01-09T11:48:03Z</time>
      </trkpt>
      <trkpt lat="62.640873706104" lon="17.883658217446">
        <ele>14.8</ele>
        <time>2018-01-09T11:48:04Z</time>
      </trkpt>
      <trkpt lat="62.640873119371" lon="17.883625108941">
        <ele>15</ele>
        <time>2018-01-09T11:48:05Z</time>
      </trkpt>
      <trkpt lat="62.640870353344" lon="17.883589234409">
        <ele>15.2</ele>
        <time>2018-01-09T11:48:06Z</time>
      </trkpt>
      <trkpt lat="62.640867587317" lon="17.883555539171">
        <ele>15.4</ele>
        <time>2018-01-09T11:48:07Z</time>
      </trkpt>
      <trkpt lat="62.640866832946" lon="17.88352293358">
        <ele>15.6</ele>
        <time>2018-01-09T11:48:08Z</time>
      </trkpt>
      <trkpt lat="62.640864988928" lon="17.883480353528">
        <ele>15.6</ele>
        <time>2018-01-09T11:48:09Z</time>
      </trkpt>
      <trkpt lat="62.640861384711" lon="17.883467110126">
        <ele>15.8</ele>
        <time>2018-01-09T11:48:10Z</time>
      </trkpt>
      <trkpt lat="62.640854427734" lon="17.883417908373">
        <ele>16</ele>
        <time>2018-01-09T11:48:11Z</time>
      </trkpt>
      <trkpt lat="62.64085141025" lon="17.883386979162">
        <ele>16.2</ele>
        <time>2018-01-09T11:48:12Z</time>
      </trkpt>
      <trkpt lat="62.640849482413" lon="17.88334859006">
        <ele>16.2</ele>
        <time>2018-01-09T11:48:13Z</time>
      </trkpt>
      <trkpt lat="62.640846632567" lon="17.883302405791">
        <ele>16.4</ele>
        <time>2018-01-09T11:48:14Z</time>
      </trkpt>
      <trkpt lat="62.640847303119" lon="17.883267956182">
        <ele>16.8</ele>
        <time>2018-01-09T11:48:15Z</time>
      </trkpt>
      <trkpt lat="62.640842441617" lon="17.883240212093">
        <ele>16.8</ele>
        <time>2018-01-09T11:48:16Z</time>
      </trkpt>
      <trkpt lat="62.640839424133" lon="17.883196626213">
        <ele>17.2</ele>
        <time>2018-01-09T11:48:17Z</time>
      </trkpt>
      <trkpt lat="62.640833556803" lon="17.883157734197">
        <ele>17.6</ele>
        <time>2018-01-09T11:48:18Z</time>
      </trkpt>
      <trkpt lat="62.640830958414" lon="17.88311641143">
        <ele>17.8</ele>
        <time>2018-01-09T11:48:19Z</time>
      </trkpt>
      <trkpt lat="62.640830204043" lon="17.883082129459">
        <ele>18</ele>
        <time>2018-01-09T11:48:20Z</time>
      </trkpt>
      <trkpt lat="62.640826683645" lon="17.883051116429">
        <ele>18.4</ele>
        <time>2018-01-09T11:48:21Z</time>
      </trkpt>
      <trkpt lat="62.640827689473" lon="17.883017337372">
        <ele>18.6</ele>
        <time>2018-01-09T11:48:22Z</time>
      </trkpt>
      <trkpt lat="62.640828946758" lon="17.882977607166">
        <ele>18.8</ele>
        <time>2018-01-09T11:48:23Z</time>
      </trkpt>
      <trkpt lat="62.640825258722" lon="17.882926309938">
        <ele>19</ele>
        <time>2018-01-09T11:48:24Z</time>
      </trkpt>
      <trkpt lat="62.640831126052" lon="17.882892363243">
        <ele>19.2</ele>
        <time>2018-01-09T11:48:25Z</time>
      </trkpt>
      <trkpt lat="62.640835317002" lon="17.882853638865">
        <ele>19.4</ele>
        <time>2018-01-09T11:48:26Z</time>
      </trkpt>
      <trkpt lat="62.640838669762" lon="17.882818686342">
        <ele>19.6</ele>
        <time>2018-01-09T11:48:27Z</time>
      </trkpt>
      <trkpt lat="62.640844034178" lon="17.882789936425">
        <ele>19.6</ele>
        <time>2018-01-09T11:48:28Z</time>
      </trkpt>
      <trkpt lat="62.640858786322" lon="17.882736795179">
        <ele>19.8</ele>
        <time>2018-01-09T11:48:29Z</time>
      </trkpt>
      <trkpt lat="62.640867168222" lon="17.882692706385">
        <ele>19.8</ele>
        <time>2018-01-09T11:48:30Z</time>
      </trkpt>
      <trkpt lat="62.640884686393" lon="17.88263612856">
        <ele>20</ele>
        <time>2018-01-09T11:48:31Z</time>
      </trkpt>
      <trkpt lat="62.640900192908" lon="17.882581310934">
        <ele>20.2</ele>
        <time>2018-01-09T11:48:32Z</time>
      </trkpt>
      <trkpt lat="62.640898265071" lon="17.882526074213">
        <ele>20.2</ele>
        <time>2018-01-09T11:48:33Z</time>
      </trkpt>
      <trkpt lat="62.640907820437" lon="17.882444266869">
        <ele>20.2</ele>
        <time>2018-01-09T11:48:34Z</time>
      </trkpt>
      <trkpt lat="62.640901031098" lon="17.882378720411">
        <ele>20.2</ele>
        <time>2018-01-09T11:48:35Z</time>
      </trkpt>
      <trkpt lat="62.640902707478" lon="17.882337062368">
        <ele>20.2</ele>
        <time>2018-01-09T11:48:36Z</time>
      </trkpt>
      <trkpt lat="62.640895666682" lon="17.882286687149">
        <ele>20</ele>
        <time>2018-01-09T11:48:37Z</time>
      </trkpt>
      <trkpt lat="62.640892313922" lon="17.882244777649">
        <ele>19.8</ele>
        <time>2018-01-09T11:48:38Z</time>
      </trkpt>
      <trkpt lat="62.640892649198" lon="17.88219859338">
        <ele>19.8</ele>
        <time>2018-01-09T11:48:39Z</time>
      </trkpt>
      <trkpt lat="62.640889380257" lon="17.882172441852">
        <ele>19.8</ele>
        <time>2018-01-09T11:48:40Z</time>
      </trkpt>
      <trkpt lat="62.640885105488" lon="17.88212483266">
        <ele>20</ele>
        <time>2018-01-09T11:48:41Z</time>
      </trkpt>
      <trkpt lat="62.640882926194" lon="17.88207873221">
        <ele>20</ele>
        <time>2018-01-09T11:48:42Z</time>
      </trkpt>
      <trkpt lat="62.640874628113" lon="17.882049144103">
        <ele>20</ele>
        <time>2018-01-09T11:48:43Z</time>
      </trkpt>
      <trkpt lat="62.64086901224" lon="17.88200580968">
        <ele>20.4</ele>
        <time>2018-01-09T11:48:44Z</time>
      </trkpt>
      <trkpt lat="62.640858367227" lon="17.881970773338">
        <ele>20.4</ele>
        <time>2018-01-09T11:48:45Z</time>
      </trkpt>
      <trkpt lat="62.640858534865" lon="17.881924253793">
        <ele>20.6</ele>
        <time>2018-01-09T11:48:46Z</time>
      </trkpt>
      <trkpt lat="62.640847554576" lon="17.881888127804">
        <ele>20.6</ele>
        <time>2018-01-09T11:48:47Z</time>
      </trkpt>
      <trkpt lat="62.640836239011" lon="17.881855438394">
        <ele>20.8</ele>
        <time>2018-01-09T11:48:48Z</time>
      </trkpt>
      <trkpt lat="62.640829198215" lon="17.881819480043">
        <ele>20.8</ele>
        <time>2018-01-09T11:48:49Z</time>
      </trkpt>
      <trkpt lat="62.640822744152" lon="17.881778827828">
        <ele>21</ele>
        <time>2018-01-09T11:48:50Z</time>
      </trkpt>
      <trkpt lat="62.640816793003" lon="17.881758627449">
        <ele>21.2</ele>
        <time>2018-01-09T11:48:51Z</time>
      </trkpt>
      <trkpt lat="62.640805142162" lon="17.881723507288">
        <ele>21.4</ele>
        <time>2018-01-09T11:48:52Z</time>
      </trkpt>
      <trkpt lat="62.640804052515" lon="17.881686794566">
        <ele>21.4</ele>
        <time>2018-01-09T11:48:53Z</time>
      </trkpt>
      <trkpt lat="62.640789635647" lon="17.881643627781">
        <ele>21.6</ele>
        <time>2018-01-09T11:48:54Z</time>
      </trkpt>
      <trkpt lat="62.640780667014" lon="17.881608256163">
        <ele>21.8</ele>
        <time>2018-01-09T11:48:55Z</time>
      </trkpt>
      <trkpt lat="62.640766333965" lon="17.881576991676">
        <ele>22</ele>
        <time>2018-01-09T11:48:56Z</time>
      </trkpt>
      <trkpt lat="62.640755940409" lon="17.881561652799">
        <ele>22.2</ele>
        <time>2018-01-09T11:48:57Z</time>
      </trkpt>
      <trkpt lat="62.640745630672" lon="17.881521671136">
        <ele>22.4</ele>
        <time>2018-01-09T11:48:58Z</time>
      </trkpt>
      <trkpt lat="62.640730962347" lon="17.881488227355">
        <ele>22.6</ele>
        <time>2018-01-09T11:48:59Z</time>
      </trkpt>
      <trkpt lat="62.640725178836" lon="17.881456208497">
        <ele>22.8</ele>
        <time>2018-01-09T11:49:00Z</time>
      </trkpt>
      <trkpt lat="62.640710761968" lon="17.881407006744">
        <ele>23</ele>
        <time>2018-01-09T11:49:01Z</time>
      </trkpt>
      <trkpt lat="62.640699781679" lon="17.881365516339">
        <ele>23.2</ele>
        <time>2018-01-09T11:49:02Z</time>
      </trkpt>
      <trkpt lat="62.640691818874" lon="17.881336598784">
        <ele>23.4</ele>
        <time>2018-01-09T11:49:03Z</time>
      </trkpt>
      <trkpt lat="62.640682766422" lon="17.881292593809">
        <ele>23.4</ele>
        <time>2018-01-09T11:49:04Z</time>
      </trkpt>
      <trkpt lat="62.640672959599" lon="17.881250181395">
        <ele>23.4</ele>
        <time>2018-01-09T11:49:05Z</time>
      </trkpt>
      <trkpt lat="62.640665164432" lon="17.88121707289">
        <ele>23.6</ele>
        <time>2018-01-09T11:49:06Z</time>
      </trkpt>
      <trkpt lat="62.640655692885" lon="17.881156807029">
        <ele>23.6</ele>
        <time>2018-01-09T11:49:07Z</time>
      </trkpt>
      <trkpt lat="62.640648735908" lon="17.881116070995">
        <ele>23.8</ele>
        <time>2018-01-09T11:49:08Z</time>
      </trkpt>
      <trkpt lat="62.640645383148" lon="17.881077262798">
        <ele>24</ele>
        <time>2018-01-09T11:49:09Z</time>
      </trkpt>
      <trkpt lat="62.640640605465" lon="17.881034682746">
        <ele>24</ele>
        <time>2018-01-09T11:49:10Z</time>
      </trkpt>
      <trkpt lat="62.640639431999" lon="17.88097232141">
        <ele>24</ele>
        <time>2018-01-09T11:49:11Z</time>
      </trkpt>
      <trkpt lat="62.640640689284" lon="17.880935776326">
        <ele>24.2</ele>
        <time>2018-01-09T11:49:12Z</time>
      </trkpt>
      <trkpt lat="62.6406376718" lon="17.88090107526">
        <ele>24.2</ele>
        <time>2018-01-09T11:49:13Z</time>
      </trkpt>
      <trkpt lat="62.640638426171" lon="17.880850029489">
        <ele>24.4</ele>
        <time>2018-01-09T11:49:14Z</time>
      </trkpt>
      <trkpt lat="62.640644544958" lon="17.880799905727">
        <ele>24.4</ele>
        <time>2018-01-09T11:49:15Z</time>
      </trkpt>
      <trkpt lat="62.640651166659" lon="17.880765959032">
        <ele>24.6</ele>
        <time>2018-01-09T11:49:16Z</time>
      </trkpt>
      <trkpt lat="62.64065695017" lon="17.880728994853">
        <ele>24.6</ele>
        <time>2018-01-09T11:49:17Z</time>
      </trkpt>
      <trkpt lat="62.64067036121" lon="17.880673590494">
        <ele>24.8</ele>
        <time>2018-01-09T11:49:18Z</time>
      </trkpt>
      <trkpt lat="62.640678994567" lon="17.880631597175">
        <ele>25</ele>
        <time>2018-01-09T11:49:19Z</time>
      </trkpt>
      <trkpt lat="62.6406879632" lon="17.880597566661">
        <ele>25</ele>
        <time>2018-01-09T11:49:20Z</time>
      </trkpt>
      <trkpt lat="62.640697602385" lon="17.880566721269">
        <ele>25.2</ele>
        <time>2018-01-09T11:49:21Z</time>
      </trkpt>
      <trkpt lat="62.640706822475" lon="17.880532942212">
        <ele>25.2</ele>
        <time>2018-01-09T11:49:22Z</time>
      </trkpt>
      <trkpt lat="62.640717635126" lon="17.880496313309">
        <ele>25.4</ele>
        <time>2018-01-09T11:49:23Z</time>
      </trkpt>
      <trkpt lat="62.640729202148" lon="17.880461696062">
        <ele>25.4</ele>
        <time>2018-01-09T11:49:24Z</time>
      </trkpt>
      <trkpt lat="62.640746887957" lon="17.880422384951">
        <ele>25.6</ele>
        <time>2018-01-09T11:49:25Z</time>
      </trkpt>
      <trkpt lat="62.640757868246" lon="17.880389695541">
        <ele>25.6</ele>
        <time>2018-01-09T11:49:26Z</time>
      </trkpt>
      <trkpt lat="62.640767004517" lon="17.88035708995">
        <ele>25.8</ele>
        <time>2018-01-09T11:49:27Z</time>
      </trkpt>
      <trkpt lat="62.640784941783" lon="17.880317527382">
        <ele>26</ele>
        <time>2018-01-09T11:49:28Z</time>
      </trkpt>
      <trkpt lat="62.640794078054" lon="17.880274192959">
        <ele>26</ele>
        <time>2018-01-09T11:49:29Z</time>
      </trkpt>
      <trkpt lat="62.640807656732" lon="17.880242593196">
        <ele>26.4</ele>
        <time>2018-01-09T11:49:30Z</time>
      </trkpt>
      <trkpt lat="62.640821654505" lon="17.880205293741">
        <ele>26.4</ele>
        <time>2018-01-09T11:49:31Z</time>
      </trkpt>
      <trkpt lat="62.640826516007" lon="17.88017184996">
        <ele>26.6</ele>
        <time>2018-01-09T11:49:32Z</time>
      </trkpt>
      <trkpt lat="62.640836490468" lon="17.880134634324">
        <ele>26.6</ele>
        <time>2018-01-09T11:49:33Z</time>
      </trkpt>
      <trkpt lat="62.640848644223" lon="17.880098005421">
        <ele>26.6</ele>
        <time>2018-01-09T11:49:34Z</time>
      </trkpt>
      <trkpt lat="62.640865072747" lon="17.880047127288">
        <ele>26.8</ele>
        <time>2018-01-09T11:49:35Z</time>
      </trkpt>
      <trkpt lat="62.640876472131" lon="17.880008905824">
        <ele>26.8</ele>
        <time>2018-01-09T11:49:36Z</time>
      </trkpt>
      <trkpt lat="62.640888206791" lon="17.879969091799">
        <ele>27</ele>
        <time>2018-01-09T11:49:37Z</time>
      </trkpt>
      <trkpt lat="62.640906646971" lon="17.879916369648">
        <ele>27</ele>
        <time>2018-01-09T11:49:38Z</time>
      </trkpt>
      <trkpt lat="62.640912933396" lon="17.879889463749">
        <ele>26.8</ele>
        <time>2018-01-09T11:49:39Z</time>
      </trkpt>
      <trkpt lat="62.640930535386" lon="17.879839507625">
        <ele>27</ele>
        <time>2018-01-09T11:49:40Z</time>
      </trkpt>
      <trkpt lat="62.640947215367" lon="17.879784103266">
        <ele>27</ele>
        <time>2018-01-09T11:49:41Z</time>
      </trkpt>
      <trkpt lat="62.640951825412" lon="17.879758706109">
        <ele>27</ele>
        <time>2018-01-09T11:49:42Z</time>
      </trkpt>
      <trkpt lat="62.640965571728" lon="17.879715623143">
        <ele>26.8</ele>
        <time>2018-01-09T11:49:43Z</time>
      </trkpt>
      <trkpt lat="62.640985101555" lon="17.879655860196">
        <ele>26.8</ele>
        <time>2018-01-09T11:49:44Z</time>
      </trkpt>
      <trkpt lat="62.640990465971" lon="17.879628367564">
        <ele>27</ele>
        <time>2018-01-09T11:49:45Z</time>
      </trkpt>
      <trkpt lat="62.641007565047" lon="17.879580758372">
        <ele>27</ele>
        <time>2018-01-09T11:49:46Z</time>
      </trkpt>
      <trkpt lat="62.641019215888" lon="17.879538681234">
        <ele>27.2</ele>
        <time>2018-01-09T11:49:47Z</time>
      </trkpt>
      <trkpt lat="62.641027262512" lon="17.879506075643">
        <ele>27.4</ele>
        <time>2018-01-09T11:49:48Z</time>
      </trkpt>
      <trkpt lat="62.641041930837" lon="17.879458969365">
        <ele>27.4</ele>
        <time>2018-01-09T11:49:49Z</time>
      </trkpt>
      <trkpt lat="62.641054587506" lon="17.879411863087">
        <ele>27.6</ele>
        <time>2018-01-09T11:49:50Z</time>
      </trkpt>
      <trkpt lat="62.641061293026" lon="17.879383364627">
        <ele>27.6</ele>
        <time>2018-01-09T11:49:51Z</time>
      </trkpt>
      <trkpt lat="62.641073446781" lon="17.879341790403">
        <ele>27.6</ele>
        <time>2018-01-09T11:49:52Z</time>
      </trkpt>
      <trkpt lat="62.641086187269" lon="17.879298791256">
        <ele>27.8</ele>
        <time>2018-01-09T11:49:53Z</time>
      </trkpt>
      <trkpt lat="62.6410986763" lon="17.879248751313">
        <ele>27.8</ele>
        <time>2018-01-09T11:49:54Z</time>
      </trkpt>
      <trkpt lat="62.641107142019" lon="17.879220755767">
        <ele>28</ele>
        <time>2018-01-09T11:49:55Z</time>
      </trkpt>
      <trkpt lat="62.641116026833" lon="17.879185635606">
        <ele>28</ele>
        <time>2018-01-09T11:49:56Z</time>
      </trkpt>
      <trkpt lat="62.641122564715" lon="17.879143307011">
        <ele>28</ele>
        <time>2018-01-09T11:49:57Z</time>
      </trkpt>
      <trkpt lat="62.641132958271" lon="17.87911573056">
        <ele>28.2</ele>
        <time>2018-01-09T11:49:58Z</time>
      </trkpt>
      <trkpt lat="62.64114310037" lon="17.879076754725">
        <ele>28.4</ele>
        <time>2018-01-09T11:49:59Z</time>
      </trkpt>
      <trkpt lat="62.641152739555" lon="17.879047418075">
        <ele>28.6</ele>
        <time>2018-01-09T11:50:00Z</time>
      </trkpt>
      <trkpt lat="62.64116321693" lon="17.879013974294">
        <ele>28.8</ele>
        <time>2018-01-09T11:50:01Z</time>
      </trkpt>
      <trkpt lat="62.641181154196" lon="17.87897407645">
        <ele>29</ele>
        <time>2018-01-09T11:50:02Z</time>
      </trkpt>
      <trkpt lat="62.641188530268" lon="17.878940297393">
        <ele>29.2</ele>
        <time>2018-01-09T11:50:03Z</time>
      </trkpt>
      <trkpt lat="62.641201689851" lon="17.878892017649">
        <ele>29</ele>
        <time>2018-01-09T11:50:04Z</time>
      </trkpt>
      <trkpt lat="62.641218034556" lon="17.878854550556">
        <ele>29</ele>
        <time>2018-01-09T11:50:05Z</time>
      </trkpt>
      <trkpt lat="62.641234379261" lon="17.87880727664">
        <ele>29.2</ele>
        <time>2018-01-09T11:50:06Z</time>
      </trkpt>
      <trkpt lat="62.641249801957" lon="17.878757488154">
        <ele>29.4</ele>
        <time>2018-01-09T11:50:07Z</time>
      </trkpt>
      <trkpt lat="62.64125960878" lon="17.878722367993">
        <ele>29.4</ele>
        <time>2018-01-09T11:50:08Z</time>
      </trkpt>
      <trkpt lat="62.64126799068" lon="17.878685906728">
        <ele>29.6</ele>
        <time>2018-01-09T11:50:09Z</time>
      </trkpt>
      <trkpt lat="62.641283664833" lon="17.878634860957">
        <ele>29.8</ele>
        <time>2018-01-09T11:50:10Z</time>
      </trkpt>
      <trkpt lat="62.641300596271" lon="17.878592616181">
        <ele>30</ele>
        <time>2018-01-09T11:50:11Z</time>
      </trkpt>
      <trkpt lat="62.64130403285" lon="17.8785591724">
        <ele>30</ele>
        <time>2018-01-09T11:50:12Z</time>
      </trkpt>
      <trkpt lat="62.641312163293" lon="17.878534361976">
        <ele>30</ele>
        <time>2018-01-09T11:50:13Z</time>
      </trkpt>
      <trkpt lat="62.641327669808" lon="17.878491530467">
        <ele>30.2</ele>
        <time>2018-01-09T11:50:14Z</time>
      </trkpt>
      <trkpt lat="62.641340158839" lon="17.878463199645">
        <ele>30.2</ele>
        <time>2018-01-09T11:50:15Z</time>
      </trkpt>
      <trkpt lat="62.641348121644" lon="17.878440903791">
        <ele>30.4</ele>
        <time>2018-01-09T11:50:16Z</time>
      </trkpt>
      <trkpt lat="62.641367902928" lon="17.878392456409">
        <ele>30.4</ele>
        <time>2018-01-09T11:50:17Z</time>
      </trkpt>
      <trkpt lat="62.641380056683" lon="17.878363538854">
        <ele>30.4</ele>
        <time>2018-01-09T11:50:18Z</time>
      </trkpt>
      <trkpt lat="62.641393886818" lon="17.87832950834">
        <ele>30.6</ele>
        <time>2018-01-09T11:50:19Z</time>
      </trkpt>
      <trkpt lat="62.641414003378" lon="17.878285838641">
        <ele>30.6</ele>
        <time>2018-01-09T11:50:20Z</time>
      </trkpt>
      <trkpt lat="62.641418278147" lon="17.878265889719">
        <ele>30.8</ele>
        <time>2018-01-09T11:50:21Z</time>
      </trkpt>
      <trkpt lat="62.641441747467" lon="17.878207551695">
        <ele>30.8</ele>
        <time>2018-01-09T11:50:22Z</time>
      </trkpt>
      <trkpt lat="62.641445100227" lon="17.87818366328">
        <ele>30.8</ele>
        <time>2018-01-09T11:50:23Z</time>
      </trkpt>
      <trkpt lat="62.641465552063" lon="17.87814343016">
        <ele>30.8</ele>
        <time>2018-01-09T11:50:24Z</time>
      </trkpt>
      <trkpt lat="62.641486842089" lon="17.878099173728">
        <ele>30.8</ele>
        <time>2018-01-09T11:50:25Z</time>
      </trkpt>
      <trkpt lat="62.641498073835" lon="17.878070675268">
        <ele>31</ele>
        <time>2018-01-09T11:50:26Z</time>
      </trkpt>
      <trkpt lat="62.641515340549" lon="17.878029352501">
        <ele>31</ele>
        <time>2018-01-09T11:50:27Z</time>
      </trkpt>
      <trkpt lat="62.641524057725" lon="17.877998004195">
        <ele>31.2</ele>
        <time>2018-01-09T11:50:28Z</time>
      </trkpt>
      <trkpt lat="62.641530847064" lon="17.877971014477">
        <ele>31.2</ele>
        <time>2018-01-09T11:50:29Z</time>
      </trkpt>
      <trkpt lat="62.641544425742" lon="17.877943018931">
        <ele>31.6</ele>
        <time>2018-01-09T11:50:30Z</time>
      </trkpt>
      <trkpt lat="62.641560016076" lon="17.877907479675">
        <ele>31.8</ele>
        <time>2018-01-09T11:50:31Z</time>
      </trkpt>
      <trkpt lat="62.641572505107" lon="17.877878897396">
        <ele>32</ele>
        <time>2018-01-09T11:50:32Z</time>
      </trkpt>
      <trkpt lat="62.641578875351" lon="17.877856098628">
        <ele>32</ele>
        <time>2018-01-09T11:50:33Z</time>
      </trkpt>
      <trkpt lat="62.641599494825" lon="17.877809998178">
        <ele>32.2</ele>
        <time>2018-01-09T11:50:34Z</time>
      </trkpt>
      <trkpt lat="62.641612654408" lon="17.87777295018">
        <ele>32.2</ele>
        <time>2018-01-09T11:50:35Z</time>
      </trkpt>
      <trkpt lat="62.641623047964" lon="17.877745038453">
        <ele>32.2</ele>
        <time>2018-01-09T11:50:36Z</time>
      </trkpt>
      <trkpt lat="62.64163260333" lon="17.877721485314">
        <ele>32.4</ele>
        <time>2018-01-09T11:50:37Z</time>
      </trkpt>
      <trkpt lat="62.641642410153" lon="17.877699440917">
        <ele>32.4</ele>
        <time>2018-01-09T11:50:38Z</time>
      </trkpt>
      <trkpt lat="62.641655569736" lon="17.877670188086">
        <ele>32.4</ele>
        <time>2018-01-09T11:50:39Z</time>
      </trkpt>
      <trkpt lat="62.641670489518" lon="17.877634984106">
        <ele>32.4</ele>
        <time>2018-01-09T11:50:40Z</time>
      </trkpt>
      <trkpt lat="62.641683062368" lon="17.877610006044">
        <ele>32.6</ele>
        <time>2018-01-09T11:50:41Z</time>
      </trkpt>
      <trkpt lat="62.641691779544" lon="17.877576646082">
        <ele>32.6</ele>
        <time>2018-01-09T11:50:42Z</time>
      </trkpt>
      <trkpt lat="62.641701670186" lon="17.877550326916">
        <ele>32.8</ele>
        <time>2018-01-09T11:50:43Z</time>
      </trkpt>
      <trkpt lat="62.641712482837" lon="17.877525265035">
        <ele>33</ele>
        <time>2018-01-09T11:50:44Z</time>
      </trkpt>
      <trkpt lat="62.641721200013" lon="17.877499532602">
        <ele>33.2</ele>
        <time>2018-01-09T11:50:45Z</time>
      </trkpt>
      <trkpt lat="62.641732264121" lon="17.877465585907">
        <ele>33.6</ele>
        <time>2018-01-09T11:50:46Z</time>
      </trkpt>
      <trkpt lat="62.641744836971" lon="17.877432561221">
        <ele>34</ele>
        <time>2018-01-09T11:50:47Z</time>
      </trkpt>
      <trkpt lat="62.641754895251" lon="17.877403392209">
        <ele>34.2</ele>
        <time>2018-01-09T11:50:48Z</time>
      </trkpt>
      <trkpt lat="62.641765372626" lon="17.877372965912">
        <ele>34.4</ele>
        <time>2018-01-09T11:50:49Z</time>
      </trkpt>
      <trkpt lat="62.641774173621" lon="17.87734714966">
        <ele>34.4</ele>
        <time>2018-01-09T11:50:50Z</time>
      </trkpt>
      <trkpt lat="62.641793871086" lon="17.877301635943">
        <ele>34.4</ele>
        <time>2018-01-09T11:50:51Z</time>
      </trkpt>
      <trkpt lat="62.641799822235" lon="17.877265761411">
        <ele>34.6</ele>
        <time>2018-01-09T11:50:52Z</time>
      </trkpt>
      <trkpt lat="62.641806192479" lon="17.877240280435">
        <ele>34.6</ele>
        <time>2018-01-09T11:50:53Z</time>
      </trkpt>
      <trkpt lat="62.641824297383" lon="17.877203902989">
        <ele>34.6</ele>
        <time>2018-01-09T11:50:54Z</time>
      </trkpt>
      <trkpt lat="62.641837289328" lon="17.877165765344">
        <ele>34.8</ele>
        <time>2018-01-09T11:50:55Z</time>
      </trkpt>
      <trkpt lat="62.641842653744" lon="17.877146486974">
        <ele>35</ele>
        <time>2018-01-09T11:50:56Z</time>
      </trkpt>
      <trkpt lat="62.641861177743" lon="17.877102146723">
        <ele>35</ele>
        <time>2018-01-09T11:50:57Z</time>
      </trkpt>
      <trkpt lat="62.641873834412" lon="17.877061159232">
        <ele>35.2</ele>
        <time>2018-01-09T11:50:58Z</time>
      </trkpt>
      <trkpt lat="62.641890095298" lon="17.877034085695">
        <ele>35.2</ele>
        <time>2018-01-09T11:50:59Z</time>
      </trkpt>
      <trkpt lat="62.641898561017" lon="17.877004497588">
        <ele>35.2</ele>
        <time>2018-01-09T11:51:00Z</time>
      </trkpt>
      <trkpt lat="62.641908870754" lon="17.87697918425">
        <ele>35.4</ele>
        <time>2018-01-09T11:51:01Z</time>
      </trkpt>
      <trkpt lat="62.641919348129" lon="17.876949596143">
        <ele>35.4</ele>
        <time>2018-01-09T11:51:02Z</time>
      </trkpt>
      <trkpt lat="62.641935357558" lon="17.876924785719">
        <ele>35.4</ele>
        <time>2018-01-09T11:51:03Z</time>
      </trkpt>
      <trkpt lat="62.641951031711" lon="17.876888911187">
        <ele>35.6</ele>
        <time>2018-01-09T11:51:04Z</time>
      </trkpt>
      <trkpt lat="62.64195698286" lon="17.876862172926">
        <ele>35.8</ele>
        <time>2018-01-09T11:51:05Z</time>
      </trkpt>
      <trkpt lat="62.641979194895" lon="17.876818922322">
        <ele>36</ele>
        <time>2018-01-09T11:51:06Z</time>
      </trkpt>
      <trkpt lat="62.641991013374" lon="17.876787574016">
        <ele>36.2</ele>
        <time>2018-01-09T11:51:07Z</time>
      </trkpt>
      <trkpt lat="62.641995371962" lon="17.8767570639">
        <ele>36.2</ele>
        <time>2018-01-09T11:51:08Z</time>
      </trkpt>
      <trkpt lat="62.642020014748" lon="17.876713310382">
        <ele>36.4</ele>
        <time>2018-01-09T11:51:09Z</time>
      </trkpt>
      <trkpt lat="62.642024540974" lon="17.876691098347">
        <ele>36.6</ele>
        <time>2018-01-09T11:51:10Z</time>
      </trkpt>
      <trkpt lat="62.642034850711" lon="17.876656229643">
        <ele>36.6</ele>
        <time>2018-01-09T11:51:11Z</time>
      </trkpt>
      <trkpt lat="62.642052787977" lon="17.876601914931">
        <ele>36.6</ele>
        <time>2018-01-09T11:51:12Z</time>
      </trkpt>
      <trkpt lat="62.642055386366" lon="17.876585151131">
        <ele>36.8</ele>
        <time>2018-01-09T11:51:13Z</time>
      </trkpt>
      <trkpt lat="62.64207516765" lon="17.87652153251">
        <ele>36.8</ele>
        <time>2018-01-09T11:51:14Z</time>
      </trkpt>
      <trkpt lat="62.642084555378" lon="17.876489848928">
        <ele>37</ele>
        <time>2018-01-09T11:51:15Z</time>
      </trkpt>
      <trkpt lat="62.64209444602" lon="17.876455064043">
        <ele>37</ele>
        <time>2018-01-09T11:51:16Z</time>
      </trkpt>
      <trkpt lat="62.642104839576" lon="17.876416004389">
        <ele>37</ele>
        <time>2018-01-09T11:51:17Z</time>
      </trkpt>
      <trkpt lat="62.642116909512" lon="17.876384823721">
        <ele>37</ele>
        <time>2018-01-09T11:51:18Z</time>
      </trkpt>
      <trkpt lat="62.642124285584" lon="17.876342662764">
        <ele>37</ele>
        <time>2018-01-09T11:51:19Z</time>
      </trkpt>
      <trkpt lat="62.642134427683" lon="17.876306788232">
        <ele>37</ele>
        <time>2018-01-09T11:51:20Z</time>
      </trkpt>
      <trkpt lat="62.642141636117" lon="17.876263705266">
        <ele>37.2</ele>
        <time>2018-01-09T11:51:21Z</time>
      </trkpt>
      <trkpt lat="62.642154041329" lon="17.876226992544">
        <ele>37.4</ele>
        <time>2018-01-09T11:51:22Z</time>
      </trkpt>
      <trkpt lat="62.642166362722" lon="17.876204864328">
        <ele>37.6</ele>
        <time>2018-01-09T11:51:23Z</time>
      </trkpt>
      <trkpt lat="62.642179522305" lon="17.876172929289">
        <ele>37.8</ele>
        <time>2018-01-09T11:51:24Z</time>
      </trkpt>
      <trkpt lat="62.642201818159" lon="17.876131438884">
        <ele>38</ele>
        <time>2018-01-09T11:51:25Z</time>
      </trkpt>
      <trkpt lat="62.642212295534" lon="17.876103359519">
        <ele>38.2</ele>
        <time>2018-01-09T11:51:26Z</time>
      </trkpt>
      <trkpt lat="62.642232663551" lon="17.876076621258">
        <ele>38.4</ele>
        <time>2018-01-09T11:51:27Z</time>
      </trkpt>
      <trkpt lat="62.642249930265" lon="17.876045189133">
        <ele>38.6</ele>
        <time>2018-01-09T11:51:28Z</time>
      </trkpt>
      <trkpt lat="62.642257390156" lon="17.876025994582">
        <ele>38.6</ele>
        <time>2018-01-09T11:51:29Z</time>
      </trkpt>
      <trkpt lat="62.64228555334" lon="17.875992047887">
        <ele>38.6</ele>
        <time>2018-01-09T11:51:30Z</time>
      </trkpt>
      <trkpt lat="62.642295360163" lon="17.875968913843">
        <ele>38.8</ele>
        <time>2018-01-09T11:51:31Z</time>
      </trkpt>
      <trkpt lat="62.6423140518" lon="17.875946366532">
        <ele>38.6</ele>
        <time>2018-01-09T11:51:32Z</time>
      </trkpt>
      <trkpt lat="62.642340706242" lon="17.875911665466">
        <ele>38.6</ele>
        <time>2018-01-09T11:51:33Z</time>
      </trkpt>
      <trkpt lat="62.6423475794" lon="17.875890123983">
        <ele>38.6</ele>
        <time>2018-01-09T11:51:34Z</time>
      </trkpt>
      <trkpt lat="62.642371803091" lon="17.875851567243">
        <ele>38.8</ele>
        <time>2018-01-09T11:51:35Z</time>
      </trkpt>
      <trkpt lat="62.642393176936" lon="17.87582415843">
        <ele>38.8</ele>
        <time>2018-01-09T11:51:36Z</time>
      </trkpt>
      <trkpt lat="62.642405079234" lon="17.875798845092">
        <ele>38.8</ele>
        <time>2018-01-09T11:51:37Z</time>
      </trkpt>
      <trkpt lat="62.642428464735" lon="17.875765233673">
        <ele>39</ele>
        <time>2018-01-09T11:51:38Z</time>
      </trkpt>
      <trkpt lat="62.642438606834" lon="17.875726844571">
        <ele>39</ele>
        <time>2018-01-09T11:51:39Z</time>
      </trkpt>
      <trkpt lat="62.642472553529" lon="17.875688874564">
        <ele>39</ele>
        <time>2018-01-09T11:51:40Z</time>
      </trkpt>
      <trkpt lat="62.642489401148" lon="17.875663309769">
        <ele>39</ele>
        <time>2018-01-09T11:51:41Z</time>
      </trkpt>
      <trkpt lat="62.642528041707" lon="17.875610336161">
        <ele>39</ele>
        <time>2018-01-09T11:51:42Z</time>
      </trkpt>
      <trkpt lat="62.642561150212" lon="17.875563313702">
        <ele>38.8</ele>
        <time>2018-01-09T11:51:43Z</time>
      </trkpt>
      <trkpt lat="62.642599204038" lon="17.875515620691">
        <ele>39</ele>
        <time>2018-01-09T11:51:44Z</time>
      </trkpt>
      <trkpt lat="62.642634324199" lon="17.875471028983">
        <ele>38.6</ele>
        <time>2018-01-09T11:51:45Z</time>
      </trkpt>
      <trkpt lat="62.64266692979" lon="17.875432388424">
        <ele>38.4</ele>
        <time>2018-01-09T11:51:46Z</time>
      </trkpt>
      <trkpt lat="62.642695847345" lon="17.875388467268">
        <ele>38</ele>
        <time>2018-01-09T11:51:47Z</time>
      </trkpt>
      <trkpt lat="62.642730967506" lon="17.875343707922">
        <ele>37.2</ele>
        <time>2018-01-09T11:51:48Z</time>
      </trkpt>
      <trkpt lat="62.642753682455" lon="17.875309006856">
        <ele>37.2</ele>
        <time>2018-01-09T11:51:49Z</time>
      </trkpt>
      <trkpt lat="62.642783270562" lon="17.875258044904">
        <ele>37</ele>
        <time>2018-01-09T11:51:50Z</time>
      </trkpt>
      <trkpt lat="62.642803638579" lon="17.875229378806">
        <ele>37.2</ele>
        <time>2018-01-09T11:51:51Z</time>
      </trkpt>
      <trkpt lat="62.642837166179" lon="17.87517707575">
        <ele>37.4</ele>
        <time>2018-01-09T11:51:52Z</time>
      </trkpt>
      <trkpt lat="62.642859881128" lon="17.875126029979">
        <ele>37.8</ele>
        <time>2018-01-09T11:51:53Z</time>
      </trkpt>
      <trkpt lat="62.642889301597" lon="17.875085461583">
        <ele>37.6</ele>
        <time>2018-01-09T11:51:54Z</time>
      </trkpt>
      <trkpt lat="62.642927774518" lon="17.875029889586">
        <ele>37.6</ele>
        <time>2018-01-09T11:51:55Z</time>
      </trkpt>
      <trkpt lat="62.642958284634" lon="17.874984794964">
        <ele>37.4</ele>
        <time>2018-01-09T11:51:56Z</time>
      </trkpt>
      <trkpt lat="62.6429929857" lon="17.874930228795">
        <ele>37.2</ele>
        <time>2018-01-09T11:51:57Z</time>
      </trkpt>
      <trkpt lat="62.643026094205" lon="17.8748795183">
        <ele>36.8</ele>
        <time>2018-01-09T11:51:58Z</time>
      </trkpt>
      <trkpt lat="62.643071021189" lon="17.874815312946">
        <ele>36.2</ele>
        <time>2018-01-09T11:51:59Z</time>
      </trkpt>
      <trkpt lat="62.643116702544" lon="17.874748676841">
        <ele>35.6</ele>
        <time>2018-01-09T11:52:00Z</time>
      </trkpt>
      <trkpt lat="62.643161713347" lon="17.874678520338">
        <ele>35</ele>
        <time>2018-01-09T11:52:01Z</time>
      </trkpt>
      <trkpt lat="62.643203790485" lon="17.87461381207">
        <ele>34.4</ele>
        <time>2018-01-09T11:52:02Z</time>
      </trkpt>
      <trkpt lat="62.643246538175" lon="17.874545331947">
        <ele>33.6</ele>
        <time>2018-01-09T11:52:03Z</time>
      </trkpt>
      <trkpt lat="62.643283334716" lon="17.874492023063">
        <ele>33.2</ele>
        <time>2018-01-09T11:52:04Z</time>
      </trkpt>
      <trkpt lat="62.643318287239" lon="17.874429242632">
        <ele>32.8</ele>
        <time>2018-01-09T11:52:05Z</time>
      </trkpt>
      <trkpt lat="62.643356257246" lon="17.874373167721">
        <ele>32.4</ele>
        <time>2018-01-09T11:52:06Z</time>
      </trkpt>
      <trkpt lat="62.64338777319" lon="17.874323546873">
        <ele>32</ele>
        <time>2018-01-09T11:52:07Z</time>
      </trkpt>
      <trkpt lat="62.643416523107" lon="17.874259509157">
        <ele>31.6</ele>
        <time>2018-01-09T11:52:08Z</time>
      </trkpt>
      <trkpt lat="62.643438232228" lon="17.874220617141">
        <ele>31.6</ele>
        <time>2018-01-09T11:52:09Z</time>
      </trkpt>
      <trkpt lat="62.643469329077" lon="17.874170325741">
        <ele>31.8</ele>
        <time>2018-01-09T11:52:10Z</time>
      </trkpt>
      <trkpt lat="62.643491205836" lon="17.874122716549">
        <ele>32.2</ele>
        <time>2018-01-09T11:52:11Z</time>
      </trkpt>
      <trkpt lat="62.64352355997" lon="17.874078879212">
        <ele>32.6</ele>
        <time>2018-01-09T11:52:12Z</time>
      </trkpt>
      <trkpt lat="62.64354702929" lon="17.87402707907">
        <ele>33</ele>
        <time>2018-01-09T11:52:13Z</time>
      </trkpt>
      <trkpt lat="62.643566475298" lon="17.874002017189">
        <ele>33</ele>
        <time>2018-01-09T11:52:14Z</time>
      </trkpt>
      <trkpt lat="62.643596901595" lon="17.873949714133">
        <ele>33.2</ele>
        <time>2018-01-09T11:52:15Z</time>
      </trkpt>
      <trkpt lat="62.643612911024" lon="17.873917779094">
        <ele>33.2</ele>
        <time>2018-01-09T11:52:16Z</time>
      </trkpt>
      <trkpt lat="62.643636464163" lon="17.873886346969">
        <ele>33</ele>
        <time>2018-01-09T11:52:17Z</time>
      </trkpt>
      <trkpt lat="62.643656664542" lon="17.873847790229">
        <ele>33.2</ele>
        <time>2018-01-09T11:52:18Z</time>
      </trkpt>
      <trkpt lat="62.643669488849" lon="17.873819459407">
        <ele>33.2</ele>
        <time>2018-01-09T11:52:19Z</time>
      </trkpt>
      <trkpt lat="62.643700250422" lon="17.873775873527">
        <ele>33.4</ele>
        <time>2018-01-09T11:52:20Z</time>
      </trkpt>
      <trkpt lat="62.643711565987" lon="17.873740753366">
        <ele>33.4</ele>
        <time>2018-01-09T11:52:21Z</time>
      </trkpt>
      <trkpt lat="62.643732017823" lon="17.873698340952">
        <ele>33.4</ele>
        <time>2018-01-09T11:52:22Z</time>
      </trkpt>
      <trkpt lat="62.643757163523" lon="17.87364486443">
        <ele>33.4</ele>
        <time>2018-01-09T11:52:23Z</time>
      </trkpt>
      <trkpt lat="62.643773592047" lon="17.873609325174">
        <ele>33.6</ele>
        <time>2018-01-09T11:52:24Z</time>
      </trkpt>
      <trkpt lat="62.643781973947" lon="17.87359038208">
        <ele>33.6</ele>
        <time>2018-01-09T11:52:25Z</time>
      </trkpt>
      <trkpt lat="62.643805610905" lon="17.873534642445">
        <ele>33.6</ele>
        <time>2018-01-09T11:52:26Z</time>
      </trkpt>
      <trkpt lat="62.643819189583" lon="17.873488206719">
        <ele>33.6</ele>
        <time>2018-01-09T11:52:27Z</time>
      </trkpt>
      <trkpt lat="62.643827403845" lon="17.873468090159">
        <ele>33.6</ele>
        <time>2018-01-09T11:52:28Z</time>
      </trkpt>
      <trkpt lat="62.643844754378" lon="17.873415032732">
        <ele>33.8</ele>
        <time>2018-01-09T11:52:29Z</time>
      </trkpt>
      <trkpt lat="62.643860763807" lon="17.873366920626">
        <ele>34</ele>
        <time>2018-01-09T11:52:30Z</time>
      </trkpt>
      <trkpt lat="62.643867972241" lon="17.873343535125">
        <ele>34</ele>
        <time>2018-01-09T11:52:31Z</time>
      </trkpt>
      <trkpt lat="62.643880545091" lon="17.873299697788">
        <ele>34.2</ele>
        <time>2018-01-09T11:52:32Z</time>
      </trkpt>
      <trkpt lat="62.643898985271" lon="17.873250579854">
        <ele>34.2</ele>
        <time>2018-01-09T11:52:33Z</time>
      </trkpt>
      <trkpt lat="62.643909462646" lon="17.873218560996">
        <ele>34.4</ele>
        <time>2018-01-09T11:52:34Z</time>
      </trkpt>
      <trkpt lat="62.643927735188" lon="17.873192828563">
        <ele>34.6</ele>
        <time>2018-01-09T11:52:35Z</time>
      </trkpt>
      <trkpt lat="62.643945420997" lon="17.873133903806">
        <ele>34.8</ele>
        <time>2018-01-09T11:52:36Z</time>
      </trkpt>
      <trkpt lat="62.643954305811" lon="17.873101801129">
        <ele>35</ele>
        <time>2018-01-09T11:52:37Z</time>
      </trkpt>
      <trkpt lat="62.643962352435" lon="17.873064334036">
        <ele>35.2</ele>
        <time>2018-01-09T11:52:38Z</time>
      </trkpt>
      <trkpt lat="62.64397450619" lon="17.873027453676">
        <ele>35.2</ele>
        <time>2018-01-09T11:52:39Z</time>
      </trkpt>
      <trkpt lat="62.643987749592" lon="17.872985460357">
        <ele>35.4</ele>
        <time>2018-01-09T11:52:40Z</time>
      </trkpt>
      <trkpt lat="62.6439988137" lon="17.872945562513">
        <ele>35.4</ele>
        <time>2018-01-09T11:52:41Z</time>
      </trkpt>
      <trkpt lat="62.644010799817" lon="17.872906838135">
        <ele>35.6</ele>
        <time>2018-01-09T11:52:42Z</time>
      </trkpt>
      <trkpt lat="62.644016248052" lon="17.872877836761">
        <ele>35.6</ele>
        <time>2018-01-09T11:52:43Z</time>
      </trkpt>
      <trkpt lat="62.64401976845" lon="17.87283936384">
        <ele>35.6</ele>
        <time>2018-01-09T11:52:44Z</time>
      </trkpt>
      <trkpt lat="62.644029659092" lon="17.872791922286">
        <ele>35.6</ele>
        <time>2018-01-09T11:52:45Z</time>
      </trkpt>
      <trkpt lat="62.644035945517" lon="17.872751856804">
        <ele>36</ele>
        <time>2018-01-09T11:52:46Z</time>
      </trkpt>
      <trkpt lat="62.644043824503" lon="17.872700140481">
        <ele>36</ele>
        <time>2018-01-09T11:52:47Z</time>
      </trkpt>
      <trkpt lat="62.644053128412" lon="17.872661164646">
        <ele>36.2</ele>
        <time>2018-01-09T11:52:48Z</time>
      </trkpt>
      <trkpt lat="62.644059666294" lon="17.87260969978">
        <ele>36</ele>
        <time>2018-01-09T11:52:49Z</time>
      </trkpt>
      <trkpt lat="62.644064527796" lon="17.872565527167">
        <ele>36.2</ele>
        <time>2018-01-09T11:52:50Z</time>
      </trkpt>
      <trkpt lat="62.644066455633" lon="17.872529820273">
        <ele>36.4</ele>
        <time>2018-01-09T11:52:51Z</time>
      </trkpt>
      <trkpt lat="62.644067042366" lon="17.872492939913">
        <ele>36.6</ele>
        <time>2018-01-09T11:52:52Z</time>
      </trkpt>
      <trkpt lat="62.644072909696" lon="17.872451114232">
        <ele>36.6</ele>
        <time>2018-01-09T11:52:53Z</time>
      </trkpt>
      <trkpt lat="62.644077016827" lon="17.872394787864">
        <ele>37</ele>
        <time>2018-01-09T11:52:54Z</time>
      </trkpt>
      <trkpt lat="62.644075843361" lon="17.872366289404">
        <ele>37.2</ele>
        <time>2018-01-09T11:52:55Z</time>
      </trkpt>
      <trkpt lat="62.644079531397" lon="17.872297809281">
        <ele>37.4</ele>
        <time>2018-01-09T11:52:56Z</time>
      </trkpt>
      <trkpt lat="62.644073664067" lon="17.872263946405">
        <ele>37.4</ele>
        <time>2018-01-09T11:52:57Z</time>
      </trkpt>
      <trkpt lat="62.644076597732" lon="17.872204183458">
        <ele>37.4</ele>
        <time>2018-01-09T11:52:58Z</time>
      </trkpt>
      <trkpt lat="62.644073161153" lon="17.872142073579">
        <ele>37.6</ele>
        <time>2018-01-09T11:52:59Z</time>
      </trkpt>
      <trkpt lat="62.644067377642" lon="17.872116173508">
        <ele>37.6</ele>
        <time>2018-01-09T11:53:00Z</time>
      </trkpt>
      <trkpt lat="62.644064276339" lon="17.87203889239">
        <ele>37.6</ele>
        <time>2018-01-09T11:53:01Z</time>
      </trkpt>
      <trkpt lat="62.644060755941" lon="17.871993462492">
        <ele>37.6</ele>
        <time>2018-01-09T11:53:02Z</time>
      </trkpt>
      <trkpt lat="62.64405078148" lon="17.871914672632">
        <ele>37.6</ele>
        <time>2018-01-09T11:53:03Z</time>
      </trkpt>
      <trkpt lat="62.644039214458" lon="17.871858178626">
        <ele>37.8</ele>
        <time>2018-01-09T11:53:04Z</time>
      </trkpt>
      <trkpt lat="62.644032844214" lon="17.871770755409">
        <ele>37.6</ele>
        <time>2018-01-09T11:53:05Z</time>
      </trkpt>
      <trkpt lat="62.644014487853" lon="17.871739826198">
        <ele>37.8</ele>
        <time>2018-01-09T11:53:06Z</time>
      </trkpt>
      <trkpt lat="62.644006860324" lon="17.871661790709">
        <ele>37.8</ele>
        <time>2018-01-09T11:53:07Z</time>
      </trkpt>
      <trkpt lat="62.643987749592" lon="17.871628598385">
        <ele>37.8</ele>
        <time>2018-01-09T11:53:08Z</time>
      </trkpt>
      <trkpt lat="62.643982217538" lon="17.871560453538">
        <ele>37.6</ele>
        <time>2018-01-09T11:53:09Z</time>
      </trkpt>
      <trkpt lat="62.643966291928" lon="17.871508904853">
        <ele>37.6</ele>
        <time>2018-01-09T11:53:10Z</time>
      </trkpt>
      <trkpt lat="62.643955898372" lon="17.871476215443">
        <ele>37.6</ele>
        <time>2018-01-09T11:53:11Z</time>
      </trkpt>
      <trkpt lat="62.643940308038" lon="17.8714010298">
        <ele>37.6</ele>
        <time>2018-01-09T11:53:12Z</time>
      </trkpt>
      <trkpt lat="62.643923208962" lon="17.871360880499">
        <ele>37.6</ele>
        <time>2018-01-09T11:53:13Z</time>
      </trkpt>
      <trkpt lat="62.643912144854" lon="17.871301788104">
        <ele>37.6</ele>
        <time>2018-01-09T11:53:14Z</time>
      </trkpt>
      <trkpt lat="62.64389739271" lon="17.871238840035">
        <ele>37.6</ele>
        <time>2018-01-09T11:53:15Z</time>
      </trkpt>
      <trkpt lat="62.643881048005" lon="17.871210928308">
        <ele>37.4</ele>
        <time>2018-01-09T11:53:16Z</time>
      </trkpt>
      <trkpt lat="62.643864535662" lon="17.871135826484">
        <ele>37.2</ele>
        <time>2018-01-09T11:53:17Z</time>
      </trkpt>
      <trkpt lat="62.643859171246" lon="17.87110850149">
        <ele>37.2</ele>
        <time>2018-01-09T11:53:18Z</time>
      </trkpt>
      <trkpt lat="62.643846179301" lon="17.871038261168">
        <ele>37.2</ele>
        <time>2018-01-09T11:53:19Z</time>
      </trkpt>
      <trkpt lat="62.643837462125" lon="17.870988221225">
        <ele>37.2</ele>
        <time>2018-01-09T11:53:20Z</time>
      </trkpt>
      <trkpt lat="62.643828577311" lon="17.870942707508">
        <ele>37.2</ele>
        <time>2018-01-09T11:53:21Z</time>
      </trkpt>
      <trkpt lat="62.643819860135" lon="17.870882776923">
        <ele>37.2</ele>
        <time>2018-01-09T11:53:22Z</time>
      </trkpt>
      <trkpt lat="62.643799575937" lon="17.870858553232">
        <ele>37</ele>
        <time>2018-01-09T11:53:23Z</time>
      </trkpt>
      <trkpt lat="62.643792199865" lon="17.870755791138">
        <ele>37.2</ele>
        <time>2018-01-09T11:53:24Z</time>
      </trkpt>
      <trkpt lat="62.643780465205" lon="17.870723604642">
        <ele>37</ele>
        <time>2018-01-09T11:53:25Z</time>
      </trkpt>
      <trkpt lat="62.643771328934" lon="17.870653699596">
        <ele>37.2</ele>
        <time>2018-01-09T11:53:26Z</time>
      </trkpt>
      <trkpt lat="62.64376244412" lon="17.870590583889">
        <ele>37</ele>
        <time>2018-01-09T11:53:27Z</time>
      </trkpt>
      <trkpt lat="62.6437557386" lon="17.870536604453">
        <ele>37.2</ele>
        <time>2018-01-09T11:53:28Z</time>
      </trkpt>
      <trkpt lat="62.643748111071" lon="17.870458233688">
        <ele>37.2</ele>
        <time>2018-01-09T11:53:29Z</time>
      </trkpt>
      <trkpt lat="62.643739058619" lon="17.870417246197">
        <ele>37.2</ele>
        <time>2018-01-09T11:53:30Z</time>
      </trkpt>
      <trkpt lat="62.643732185461" lon="17.870353543757">
        <ele>37.2</ele>
        <time>2018-01-09T11:53:31Z</time>
      </trkpt>
      <trkpt lat="62.643731263452" lon="17.87030216271">
        <ele>37</ele>
        <time>2018-01-09T11:53:32Z</time>
      </trkpt>
      <trkpt lat="62.643730341443" lon="17.870231503293">
        <ele>37</ele>
        <time>2018-01-09T11:53:33Z</time>
      </trkpt>
      <trkpt lat="62.643722546276" lon="17.87016972869">
        <ele>37</ele>
        <time>2018-01-09T11:53:34Z</time>
      </trkpt>
      <trkpt lat="62.643713912919" lon="17.870122203317">
        <ele>37</ele>
        <time>2018-01-09T11:53:35Z</time>
      </trkpt>
      <trkpt lat="62.643712907091" lon="17.870037881403">
        <ele>37</ele>
        <time>2018-01-09T11:53:36Z</time>
      </trkpt>
      <trkpt lat="62.643710895435" lon="17.869991026582">
        <ele>37</ele>
        <time>2018-01-09T11:53:37Z</time>
      </trkpt>
      <trkpt lat="62.643716176032" lon="17.869939561716">
        <ele>37</ele>
        <time>2018-01-09T11:53:38Z</time>
      </trkpt>
      <trkpt lat="62.643721205172" lon="17.869879882588">
        <ele>37</ele>
        <time>2018-01-09T11:53:39Z</time>
      </trkpt>
      <trkpt lat="62.643719780249" lon="17.869835877613">
        <ele>37</ele>
        <time>2018-01-09T11:53:40Z</time>
      </trkpt>
      <trkpt lat="62.643727323959" lon="17.869767146033">
        <ele>37</ele>
        <time>2018-01-09T11:53:41Z</time>
      </trkpt>
      <trkpt lat="62.643727323959" lon="17.869723057239">
        <ele>37</ele>
        <time>2018-01-09T11:53:42Z</time>
      </trkpt>
      <trkpt lat="62.643742411379" lon="17.869643429189">
        <ele>37.2</ele>
        <time>2018-01-09T11:53:43Z</time>
      </trkpt>
      <trkpt lat="62.643744506854" lon="17.86956455551">
        <ele>37.2</ele>
        <time>2018-01-09T11:53:44Z</time>
      </trkpt>
      <trkpt lat="62.643745931777" lon="17.869511665721">
        <ele>37.2</ele>
        <time>2018-01-09T11:53:45Z</time>
      </trkpt>
      <trkpt lat="62.643754565134" lon="17.869446286901">
        <ele>37.4</ele>
        <time>2018-01-09T11:53:46Z</time>
      </trkpt>
      <trkpt lat="62.643756325333" lon="17.869405215591">
        <ele>37.4</ele>
        <time>2018-01-09T11:53:47Z</time>
      </trkpt>
      <trkpt lat="62.643753978401" lon="17.869325168446">
        <ele>37.4</ele>
        <time>2018-01-09T11:53:48Z</time>
      </trkpt>
      <trkpt lat="62.643753810763" lon="17.869269680268">
        <ele>37.2</ele>
        <time>2018-01-09T11:53:49Z</time>
      </trkpt>
      <trkpt lat="62.643752972573" lon="17.86921503028">
        <ele>37.2</ele>
        <time>2018-01-09T11:53:50Z</time>
      </trkpt>
      <trkpt lat="62.643749955089" lon="17.869160967025">
        <ele>37.2</ele>
        <time>2018-01-09T11:53:51Z</time>
      </trkpt>
      <trkpt lat="62.643754565134" lon="17.869119644258">
        <ele>37.2</ele>
        <time>2018-01-09T11:53:52Z</time>
      </trkpt>
      <trkpt lat="62.643756995885" lon="17.869048565746">
        <ele>37.2</ele>
        <time>2018-01-09T11:53:53Z</time>
      </trkpt>
      <trkpt lat="62.64375909136" lon="17.868993580482">
        <ele>37.4</ele>
        <time>2018-01-09T11:53:54Z</time>
      </trkpt>
      <trkpt lat="62.643756409152" lon="17.868934320449">
        <ele>37.4</ele>
        <time>2018-01-09T11:53:55Z</time>
      </trkpt>
      <trkpt lat="62.643755403324" lon="17.86889819446">
        <ele>37.6</ele>
        <time>2018-01-09T11:53:56Z</time>
      </trkpt>
      <trkpt lat="62.643750960917" lon="17.868812279985">
        <ele>37.6</ele>
        <time>2018-01-09T11:53:57Z</time>
      </trkpt>
      <trkpt lat="62.643751296193" lon="17.868783194792">
        <ele>37.6</ele>
        <time>2018-01-09T11:53:58Z</time>
      </trkpt>
      <trkpt lat="62.64374484213" lon="17.868677834309">
        <ele>37.6</ele>
        <time>2018-01-09T11:53:59Z</time>
      </trkpt>
      <trkpt lat="62.643730509081" lon="17.868627207633">
        <ele>37.8</ele>
        <time>2018-01-09T11:54:00Z</time>
      </trkpt>
      <trkpt lat="62.643727910692" lon="17.868574066387">
        <ele>37.8</ele>
        <time>2018-01-09T11:54:01Z</time>
      </trkpt>
      <trkpt lat="62.643712739453" lon="17.868473315949">
        <ele>37.8</ele>
        <time>2018-01-09T11:54:02Z</time>
      </trkpt>
      <trkpt lat="62.643695891834" lon="17.868392849709">
        <ele>37.8</ele>
        <time>2018-01-09T11:54:03Z</time>
      </trkpt>
      <trkpt lat="62.643684240993" lon="17.868313724573">
        <ele>37.6</ele>
        <time>2018-01-09T11:54:04Z</time>
      </trkpt>
      <trkpt lat="62.643680217681" lon="17.868238371292">
        <ele>37.6</ele>
        <time>2018-01-09T11:54:05Z</time>
      </trkpt>
      <trkpt lat="62.643676278188" lon="17.868154468473">
        <ele>37.4</ele>
        <time>2018-01-09T11:54:06Z</time>
      </trkpt>
      <trkpt lat="62.643673679799" lon="17.868116414647">
        <ele>37.4</ele>
        <time>2018-01-09T11:54:07Z</time>
      </trkpt>
      <trkpt lat="62.64366689046" lon="17.868037289511">
        <ele>37.2</ele>
        <time>2018-01-09T11:54:08Z</time>
      </trkpt>
      <trkpt lat="62.643648534099" lon="17.86797786184">
        <ele>37</ele>
        <time>2018-01-09T11:54:09Z</time>
      </trkpt>
      <trkpt lat="62.643640319837" lon="17.867920278187">
        <ele>37.2</ele>
        <time>2018-01-09T11:54:10Z</time>
      </trkpt>
      <trkpt lat="62.643624561865" lon="17.867845344001">
        <ele>36.8</ele>
        <time>2018-01-09T11:54:11Z</time>
      </trkpt>
      <trkpt lat="62.643611486101" lon="17.867810475297">
        <ele>36.8</ele>
        <time>2018-01-09T11:54:12Z</time>
      </trkpt>
      <trkpt lat="62.643592543007" lon="17.867727997401">
        <ele>36.6</ele>
        <time>2018-01-09T11:54:13Z</time>
      </trkpt>
      <trkpt lat="62.64356798404" lon="17.867683824788">
        <ele>36.6</ele>
        <time>2018-01-09T11:54:14Z</time>
      </trkpt>
      <trkpt lat="62.643547699842" lon="17.867597658856">
        <ele>36.4</ele>
        <time>2018-01-09T11:54:15Z</time>
      </trkpt>
      <trkpt lat="62.643533199155" lon="17.86755541408">
        <ele>36.4</ele>
        <time>2018-01-09T11:54:16Z</time>
      </trkpt>
      <trkpt lat="62.643518698468" lon="17.867495315857">
        <ele>36.2</ele>
        <time>2018-01-09T11:54:17Z</time>
      </trkpt>
      <trkpt lat="62.643513669328" lon="17.867447706665">
        <ele>36.2</ele>
        <time>2018-01-09T11:54:18Z</time>
      </trkpt>
      <trkpt lat="62.643524314341" lon="17.867353829385">
        <ele>36.2</ele>
        <time>2018-01-09T11:54:19Z</time>
      </trkpt>
      <trkpt lat="62.643534037345" lon="17.867291300411">
        <ele>36</ele>
        <time>2018-01-09T11:54:20Z</time>
      </trkpt>
      <trkpt lat="62.643552393706" lon="17.867198261321">
        <ele>36</ele>
        <time>2018-01-09T11:54:21Z</time>
      </trkpt>
      <trkpt lat="62.643580808347" lon="17.867115531968">
        <ele>35.8</ele>
        <time>2018-01-09T11:54:22Z</time>
      </trkpt>
      <trkpt lat="62.643611905196" lon="17.867024755991">
        <ele>35.8</ele>
        <time>2018-01-09T11:54:23Z</time>
      </trkpt>
      <trkpt lat="62.643657921827" lon="17.866936326946">
        <ele>35.8</ele>
        <time>2018-01-09T11:54:24Z</time>
      </trkpt>
      <trkpt lat="62.643696143291" lon="17.866859045828">
        <ele>35.4</ele>
        <time>2018-01-09T11:54:25Z</time>
      </trkpt>
      <trkpt lat="62.643734364755" lon="17.866781094158">
        <ele>35.2</ele>
        <time>2018-01-09T11:54:26Z</time>
      </trkpt>
      <trkpt lat="62.643761773568" lon="17.866717307899">
        <ele>34.6</ele>
        <time>2018-01-09T11:54:27Z</time>
      </trkpt>
      <trkpt lat="62.643780632843" lon="17.866668692879">
        <ele>34</ele>
        <time>2018-01-09T11:54:28Z</time>
      </trkpt>
      <trkpt lat="62.643794127702" lon="17.866609851941">
        <ele>33.2</ele>
        <time>2018-01-09T11:54:29Z</time>
      </trkpt>
      <trkpt lat="62.643811394416" lon="17.866576994893">
        <ele>33</ele>
        <time>2018-01-09T11:54:30Z</time>
      </trkpt>
      <trkpt lat="62.64381860285" lon="17.866562913301">
        <ele>33</ele>
        <time>2018-01-09T11:54:31Z</time>
      </trkpt>
      <trkpt lat="62.643834193184" lon="17.866535420669">
        <ele>33.2</ele>
        <time>2018-01-09T11:54:32Z</time>
      </trkpt>
      <trkpt lat="62.643845508749" lon="17.866517315765">
        <ele>33.6</ele>
        <time>2018-01-09T11:54:33Z</time>
      </trkpt>
      <trkpt lat="62.643853555373" lon="17.866505413467">
        <ele>34.2</ele>
        <time>2018-01-09T11:54:34Z</time>
      </trkpt>
      <trkpt lat="62.643868475155" lon="17.866470293306">
        <ele>34.4</ele>
        <time>2018-01-09T11:54:35Z</time>
      </trkpt>
      <trkpt lat="62.643879455444" lon="17.866451098755">
        <ele>34.8</ele>
        <time>2018-01-09T11:54:36Z</time>
      </trkpt>
      <trkpt lat="62.643895800149" lon="17.866425785417">
        <ele>35</ele>
        <time>2018-01-09T11:54:37Z</time>
      </trkpt>
      <trkpt lat="62.643905606972" lon="17.866405752676">
        <ele>35.4</ele>
        <time>2018-01-09T11:54:38Z</time>
      </trkpt>
      <trkpt lat="62.643917593089" lon="17.866380690795">
        <ele>35.6</ele>
        <time>2018-01-09T11:54:39Z</time>
      </trkpt>
      <trkpt lat="62.643926980817" lon="17.866354203991">
        <ele>35.6</ele>
        <time>2018-01-09T11:54:40Z</time>
      </trkpt>
      <trkpt lat="62.64393427307" lon="17.866331824318">
        <ele>35.8</ele>
        <time>2018-01-09T11:54:41Z</time>
      </trkpt>
      <trkpt lat="62.64394600773" lon="17.866304164048">
        <ele>35.8</ele>
        <time>2018-01-09T11:54:42Z</time>
      </trkpt>
      <trkpt lat="62.643953886716" lon="17.866286981153">
        <ele>36</ele>
        <time>2018-01-09T11:54:43Z</time>
      </trkpt>
      <trkpt lat="62.643962184797" lon="17.866273151018">
        <ele>36</ele>
        <time>2018-01-09T11:54:44Z</time>
      </trkpt>
      <trkpt lat="62.643975176742" lon="17.866245909843">
        <ele>36</ele>
        <time>2018-01-09T11:54:45Z</time>
      </trkpt>
      <trkpt lat="62.643980457339" lon="17.866221769971">
        <ele>36.2</ele>
        <time>2018-01-09T11:54:46Z</time>
      </trkpt>
      <trkpt lat="62.643989425972" lon="17.866207017827">
        <ele>36.4</ele>
        <time>2018-01-09T11:54:47Z</time>
      </trkpt>
      <trkpt lat="62.64399629913" lon="17.866173825503">
        <ele>36.8</ele>
        <time>2018-01-09T11:54:48Z</time>
      </trkpt>
      <trkpt lat="62.644002082641" lon="17.866146835785">
        <ele>37.2</ele>
        <time>2018-01-09T11:54:49Z</time>
      </trkpt>
      <trkpt lat="62.644009207256" lon="17.866116074212">
        <ele>37.4</ele>
        <time>2018-01-09T11:54:50Z</time>
      </trkpt>
      <trkpt lat="62.644014990767" lon="17.86607600873">
        <ele>37.8</ele>
        <time>2018-01-09T11:54:51Z</time>
      </trkpt>
      <trkpt lat="62.644020103726" lon="17.866036529981">
        <ele>38</ele>
        <time>2018-01-09T11:54:52Z</time>
      </trkpt>
      <trkpt lat="62.64401976845" lon="17.866002499467">
        <ele>38.4</ele>
        <time>2018-01-09T11:54:53Z</time>
      </trkpt>
      <trkpt lat="62.644032173662" lon="17.865951872791">
        <ele>38.8</ele>
        <time>2018-01-09T11:54:54Z</time>
      </trkpt>
      <trkpt lat="62.644040639381" lon="17.86593519281">
        <ele>39</ele>
        <time>2018-01-09T11:54:55Z</time>
      </trkpt>
      <trkpt lat="62.644053631326" lon="17.865884733772">
        <ele>39.2</ele>
        <time>2018-01-09T11:54:56Z</time>
      </trkpt>
      <trkpt lat="62.644061929407" lon="17.865828910318">
        <ele>39.4</ele>
        <time>2018-01-09T11:54:57Z</time>
      </trkpt>
      <trkpt lat="62.644072658239" lon="17.865793119605">
        <ele>39.4</ele>
        <time>2018-01-09T11:54:58Z</time>
      </trkpt>
      <trkpt lat="62.644081543053" lon="17.865753389399">
        <ele>39.4</ele>
        <time>2018-01-09T11:54:59Z</time>
      </trkpt>
      <trkpt lat="62.644095624645" lon="17.865688513493">
        <ele>39.4</ele>
        <time>2018-01-09T11:55:00Z</time>
      </trkpt>
      <trkpt lat="62.644114232463" lon="17.865669151304">
        <ele>39.4</ele>
        <time>2018-01-09T11:55:01Z</time>
      </trkpt>
      <trkpt lat="62.644119932155" lon="17.865638892645">
        <ele>39.4</ele>
        <time>2018-01-09T11:55:02Z</time>
      </trkpt>
      <trkpt lat="62.644140132534" lon="17.865594971489">
        <ele>39.4</ele>
        <time>2018-01-09T11:55:03Z</time>
      </trkpt>
      <trkpt lat="62.644157147791" lon="17.865572424178">
        <ele>39.4</ele>
        <time>2018-01-09T11:55:04Z</time>
      </trkpt>
      <trkpt lat="62.644168295718" lon="17.865545015365">
        <ele>39.6</ele>
        <time>2018-01-09T11:55:05Z</time>
      </trkpt>
      <trkpt lat="62.644194698703" lon="17.865495310698">
        <ele>39.6</ele>
        <time>2018-01-09T11:55:06Z</time>
      </trkpt>
      <trkpt lat="62.644215485815" lon="17.865462537469">
        <ele>39.8</ele>
        <time>2018-01-09T11:55:07Z</time>
      </trkpt>
      <trkpt lat="62.644236272927" lon="17.865431105344">
        <ele>39.8</ele>
        <time>2018-01-09T11:55:08Z</time>
      </trkpt>
      <trkpt lat="62.644262089179" lon="17.865403612712">
        <ele>40</ele>
        <time>2018-01-09T11:55:09Z</time>
      </trkpt>
      <trkpt lat="62.644280613178" lon="17.865386094541">
        <ele>40</ele>
        <time>2018-01-09T11:55:10Z</time>
      </trkpt>
      <trkpt lat="62.644296538788" lon="17.865345023231">
        <ele>40.2</ele>
        <time>2018-01-09T11:55:11Z</time>
      </trkpt>
      <trkpt lat="62.644320427203" lon="17.865282326619">
        <ele>40.2</ele>
        <time>2018-01-09T11:55:12Z</time>
      </trkpt>
      <trkpt lat="62.644336268994" lon="17.865240668576">
        <ele>40.2</ele>
        <time>2018-01-09T11:55:13Z</time>
      </trkpt>
      <trkpt lat="62.644354038622" lon="17.865195657773">
        <ele>40.2</ele>
        <time>2018-01-09T11:55:14Z</time>
      </trkpt>
      <trkpt lat="62.644370634784" lon="17.865164980019">
        <ele>40.4</ele>
        <time>2018-01-09T11:55:15Z</time>
      </trkpt>
      <trkpt lat="62.644375496286" lon="17.865112341687">
        <ele>40.4</ele>
        <time>2018-01-09T11:55:16Z</time>
      </trkpt>
      <trkpt lat="62.644379268141" lon="17.86506179883">
        <ele>40.6</ele>
        <time>2018-01-09T11:55:17Z</time>
      </trkpt>
      <trkpt lat="62.644374155182" lon="17.865006394471">
        <ele>40.6</ele>
        <time>2018-01-09T11:55:18Z</time>
      </trkpt>
      <trkpt lat="62.644370718603" lon="17.864940764194">
        <ele>41</ele>
        <time>2018-01-09T11:55:19Z</time>
      </trkpt>
      <trkpt lat="62.644366946748" lon="17.864883599636">
        <ele>41.2</ele>
        <time>2018-01-09T11:55:20Z</time>
      </trkpt>
      <trkpt lat="62.644353703346" lon="17.864850239674">
        <ele>41.2</ele>
        <time>2018-01-09T11:55:21Z</time>
      </trkpt>
      <trkpt lat="62.644348003654" lon="17.864782933017">
        <ele>41.2</ele>
        <time>2018-01-09T11:55:22Z</time>
      </trkpt>
      <trkpt lat="62.644336771908" lon="17.864735575282">
        <ele>41.2</ele>
        <time>2018-01-09T11:55:23Z</time>
      </trkpt>
      <trkpt lat="62.644328809103" lon="17.864668268625">
        <ele>41.2</ele>
        <time>2018-01-09T11:55:24Z</time>
      </trkpt>
      <trkpt lat="62.644317493538" lon="17.864629963342">
        <ele>41.2</ele>
        <time>2018-01-09T11:55:25Z</time>
      </trkpt>
      <trkpt lat="62.644311207113" lon="17.864578498476">
        <ele>41.2</ele>
        <time>2018-01-09T11:55:26Z</time>
      </trkpt>
      <trkpt lat="62.644309530733" lon="17.86451529895">
        <ele>41</ele>
        <time>2018-01-09T11:55:27Z</time>
      </trkpt>
      <trkpt lat="62.644311710027" lon="17.86446584574">
        <ele>40.8</ele>
        <time>2018-01-09T11:55:28Z</time>
      </trkpt>
      <trkpt lat="62.644314224597" lon="17.864431060855">
        <ele>40.8</ele>
        <time>2018-01-09T11:55:29Z</time>
      </trkpt>
      <trkpt lat="62.644328054732" lon="17.864392168839">
        <ele>40.8</ele>
        <time>2018-01-09T11:55:30Z</time>
      </trkpt>
      <trkpt lat="62.644339873211" lon="17.86437113027">
        <ele>40.8</ele>
        <time>2018-01-09T11:55:31Z</time>
      </trkpt>
      <trkpt lat="62.644350266767" lon="17.864330813331">
        <ele>41</ele>
        <time>2018-01-09T11:55:32Z</time>
      </trkpt>
      <trkpt lat="62.644363845445" lon="17.864315474454">
        <ele>41.2</ele>
        <time>2018-01-09T11:55:33Z</time>
      </trkpt>
      <trkpt lat="62.644373233173" lon="17.864288400917">
        <ele>41.2</ele>
        <time>2018-01-09T11:55:34Z</time>
      </trkpt>
      <trkpt lat="62.644397121588" lon="17.864250095634">
        <ele>41.4</ele>
        <time>2018-01-09T11:55:35Z</time>
      </trkpt>
      <trkpt lat="62.644411119361" lon="17.864229979074">
        <ele>41.6</ele>
        <time>2018-01-09T11:55:36Z</time>
      </trkpt>
      <trkpt lat="62.644424865677" lon="17.864212460903">
        <ele>41.6</ele>
        <time>2018-01-09T11:55:37Z</time>
      </trkpt>
      <trkpt lat="62.644434421043" lon="17.8641925958">
        <ele>41.8</ele>
        <time>2018-01-09T11:55:38Z</time>
      </trkpt>
      <trkpt lat="62.644444144047" lon="17.864181028778">
        <ele>42</ele>
        <time>2018-01-09T11:55:39Z</time>
      </trkpt>
      <trkpt lat="62.644452442128" lon="17.864179939131">
        <ele>42</ele>
        <time>2018-01-09T11:55:40Z</time>
      </trkpt>
      <trkpt lat="62.644460488752" lon="17.864176502552">
        <ele>42.4</ele>
        <time>2018-01-09T11:55:41Z</time>
      </trkpt>
      <trkpt lat="62.644471469041" lon="17.864161247494">
        <ele>42.6</ele>
        <time>2018-01-09T11:55:42Z</time>
      </trkpt>
      <trkpt lat="62.644481443502" lon="17.864155883078">
        <ele>42.6</ele>
        <time>2018-01-09T11:55:43Z</time>
      </trkpt>
      <trkpt lat="62.644492088515" lon="17.864145070427">
        <ele>42.8</ele>
        <time>2018-01-09T11:55:44Z</time>
      </trkpt>
      <trkpt lat="62.644508684677" lon="17.86413308431">
        <ele>43</ele>
        <time>2018-01-09T11:55:45Z</time>
      </trkpt>
      <trkpt lat="62.644519497328" lon="17.864130234464">
        <ele>43.2</ele>
        <time>2018-01-09T11:55:46Z</time>
      </trkpt>
      <trkpt lat="62.644530561436" lon="17.864116655786">
        <ele>43.2</ele>
        <time>2018-01-09T11:55:47Z</time>
      </trkpt>
      <trkpt lat="62.64454112263" lon="17.864107268058">
        <ele>43.4</ele>
        <time>2018-01-09T11:55:48Z</time>
      </trkpt>
      <trkpt lat="62.644546067951" lon="17.864102406556">
        <ele>43.4</ele>
        <time>2018-01-09T11:55:49Z</time>
      </trkpt>
      <trkpt lat="62.644555036584" lon="17.864097125959">
        <ele>43.6</ele>
        <time>2018-01-09T11:55:50Z</time>
      </trkpt>
      <trkpt lat="62.644564843407" lon="17.864089079335">
        <ele>43.8</ele>
        <time>2018-01-09T11:55:51Z</time>
      </trkpt>
      <trkpt lat="62.644573141488" lon="17.864078937236">
        <ele>44</ele>
        <time>2018-01-09T11:55:52Z</time>
      </trkpt>
      <trkpt lat="62.644586049614" lon="17.864067202576">
        <ele>44.4</ele>
        <time>2018-01-09T11:55:53Z</time>
      </trkpt>
      <trkpt lat="62.64459644317" lon="17.864054713545">
        <ele>44.6</ele>
        <time>2018-01-09T11:55:54Z</time>
      </trkpt>
      <trkpt lat="62.644608848382" lon="17.864048259482">
        <ele>45</ele>
        <time>2018-01-09T11:55:55Z</time>
      </trkpt>
      <trkpt lat="62.644616978825" lon="17.864048594758">
        <ele>45.4</ele>
        <time>2018-01-09T11:55:56Z</time>
      </trkpt>
      <trkpt lat="62.644629803132" lon="17.864035602813">
        <ele>45.6</ele>
        <time>2018-01-09T11:55:57Z</time>
      </trkpt>
      <trkpt lat="62.64464170543" lon="17.864029903121">
        <ele>46</ele>
        <time>2018-01-09T11:55:58Z</time>
      </trkpt>
      <trkpt lat="62.644659139782" lon="17.864016408262">
        <ele>46.2</ele>
        <time>2018-01-09T11:55:59Z</time>
      </trkpt>
      <trkpt lat="62.644673640469" lon="17.864010960027">
        <ele>46.4</ele>
        <time>2018-01-09T11:56:00Z</time>
      </trkpt>
      <trkpt lat="62.644682525283" lon="17.864000231195">
        <ele>46.6</ele>
        <time>2018-01-09T11:56:01Z</time>
      </trkpt>
      <trkpt lat="62.64469534959" lon="17.863984473223">
        <ele>46.8</ele>
        <time>2018-01-09T11:56:02Z</time>
      </trkpt>
      <trkpt lat="62.644711191381" lon="17.863971146002">
        <ele>47</ele>
        <time>2018-01-09T11:56:03Z</time>
      </trkpt>
      <trkpt lat="62.64472468624" lon="17.8639662845">
        <ele>47.2</ele>
        <time>2018-01-09T11:56:04Z</time>
      </trkpt>
      <trkpt lat="62.644737426728" lon="17.863959495161">
        <ele>47.4</ele>
        <time>2018-01-09T11:56:05Z</time>
      </trkpt>
      <trkpt lat="62.64475150832" lon="17.863949855976">
        <ele>47.6</ele>
        <time>2018-01-09T11:56:06Z</time>
      </trkpt>
      <trkpt lat="62.644760225496" lon="17.863941557895">
        <ele>48</ele>
        <time>2018-01-09T11:56:07Z</time>
      </trkpt>
      <trkpt lat="62.644771038147" lon="17.863939881515">
        <ele>48</ele>
        <time>2018-01-09T11:56:08Z</time>
      </trkpt>
      <trkpt lat="62.644784365368" lon="17.863934265642">
        <ele>48.2</ele>
        <time>2018-01-09T11:56:09Z</time>
      </trkpt>
      <trkpt lat="62.644797441132" lon="17.86392353681">
        <ele>48.4</ele>
        <time>2018-01-09T11:56:10Z</time>
      </trkpt>
      <trkpt lat="62.644808169964" lon="17.863923788267">
        <ele>48.6</ele>
        <time>2018-01-09T11:56:11Z</time>
      </trkpt>
      <trkpt lat="62.644823005927" lon="17.863919178222">
        <ele>48.8</ele>
        <time>2018-01-09T11:56:12Z</time>
      </trkpt>
      <trkpt lat="62.644832896569" lon="17.86390593482">
        <ele>49</ele>
        <time>2018-01-09T11:56:13Z</time>
      </trkpt>
      <trkpt lat="62.644844882686" lon="17.863893529608">
        <ele>49.2</ele>
        <time>2018-01-09T11:56:14Z</time>
      </trkpt>
      <trkpt lat="62.644859215735" lon="17.863887662278">
        <ele>49.4</ele>
        <time>2018-01-09T11:56:15Z</time>
      </trkpt>
      <trkpt lat="62.644872710594" lon="17.863877855455">
        <ele>49.4</ele>
        <time>2018-01-09T11:56:16Z</time>
      </trkpt>
      <trkpt lat="62.644881595408" lon="17.863862432759">
        <ele>49.8</ele>
        <time>2018-01-09T11:56:17Z</time>
      </trkpt>
      <trkpt lat="62.644897940113" lon="17.86385396704">
        <ele>50</ele>
        <time>2018-01-09T11:56:18Z</time>
      </trkpt>
      <trkpt lat="62.644913865723" lon="17.863841813285">
        <ele>50.2</ele>
        <time>2018-01-09T11:56:19Z</time>
      </trkpt>
      <trkpt lat="62.644929288419" lon="17.863840136905">
        <ele>50.4</ele>
        <time>2018-01-09T11:56:20Z</time>
      </trkpt>
      <trkpt lat="62.644942950916" lon="17.863839466353">
        <ele>50.8</ele>
        <time>2018-01-09T11:56:21Z</time>
      </trkpt>
      <trkpt lat="62.644958122155" lon="17.863838711982">
        <ele>51</ele>
        <time>2018-01-09T11:56:22Z</time>
      </trkpt>
      <trkpt lat="62.644972119928" lon="17.863829575711">
        <ele>51</ele>
        <time>2018-01-09T11:56:23Z</time>
      </trkpt>
      <trkpt lat="62.644989135185" lon="17.863827815512">
        <ele>51.4</ele>
        <time>2018-01-09T11:56:24Z</time>
      </trkpt>
      <trkpt lat="62.645001624216" lon="17.863816835223">
        <ele>51.6</ele>
        <time>2018-01-09T11:56:25Z</time>
      </trkpt>
      <trkpt lat="62.645013945609" lon="17.863808369504">
        <ele>52</ele>
        <time>2018-01-09T11:56:26Z</time>
      </trkpt>
      <trkpt lat="62.645022076052" lon="17.8637818827">
        <ele>52.2</ele>
        <time>2018-01-09T11:56:27Z</time>
      </trkpt>
      <trkpt lat="62.645032050513" lon="17.863771740601">
        <ele>52.4</ele>
        <time>2018-01-09T11:56:28Z</time>
      </trkpt>
      <trkpt lat="62.645042108793" lon="17.86376092795">
        <ele>52.6</ele>
        <time>2018-01-09T11:56:29Z</time>
      </trkpt>
      <trkpt lat="62.645052502349" lon="17.86375338424">
        <ele>52.6</ele>
        <time>2018-01-09T11:56:30Z</time>
      </trkpt>
      <trkpt lat="62.645062895905" lon="17.863744834702">
        <ele>52.8</ele>
        <time>2018-01-09T11:56:31Z</time>
      </trkpt>
      <trkpt lat="62.645067673588" lon="17.863733602956">
        <ele>53</ele>
        <time>2018-01-09T11:56:32Z</time>
      </trkpt>
      <trkpt lat="62.645079659705" lon="17.863727232712">
        <ele>53</ele>
        <time>2018-01-09T11:56:33Z</time>
      </trkpt>
      <trkpt lat="62.645091897279" lon="17.863714240767">
        <ele>53.2</ele>
        <time>2018-01-09T11:56:34Z</time>
      </trkpt>
      <trkpt lat="62.645103464301" lon="17.863704098668">
        <ele>53.2</ele>
        <time>2018-01-09T11:56:35Z</time>
      </trkpt>
      <trkpt lat="62.645106565604" lon="17.863698482795">
        <ele>53.4</ele>
        <time>2018-01-09T11:56:36Z</time>
      </trkpt>
      <trkpt lat="62.645121820662" lon="17.863702003193">
        <ele>53.8</ele>
        <time>2018-01-09T11:56:37Z</time>
      </trkpt>
      <trkpt lat="62.645135483159" lon="17.863694878578">
        <ele>54.2</ele>
        <time>2018-01-09T11:56:38Z</time>
      </trkpt>
      <trkpt lat="62.645152582235" lon="17.863688089239">
        <ele>54.6</ele>
        <time>2018-01-09T11:56:39Z</time>
      </trkpt>
      <trkpt lat="62.645172698795" lon="17.863673504733">
        <ele>55.2</ele>
        <time>2018-01-09T11:56:40Z</time>
      </trkpt>
      <trkpt lat="62.645188372948" lon="17.863667805041">
        <ele>55.4</ele>
        <time>2018-01-09T11:56:41Z</time>
      </trkpt>
      <trkpt lat="62.645203711825" lon="17.863661518616">
        <ele>55.6</ele>
        <time>2018-01-09T11:56:42Z</time>
      </trkpt>
      <trkpt lat="62.645220140349" lon="17.863660596607">
        <ele>55.8</ele>
        <time>2018-01-09T11:56:43Z</time>
      </trkpt>
      <trkpt lat="62.645234892493" lon="17.863647437024">
        <ele>55.8</ele>
        <time>2018-01-09T11:56:44Z</time>
      </trkpt>
      <trkpt lat="62.645250147551" lon="17.863638719848">
        <ele>55.8</ele>
        <time>2018-01-09T11:56:45Z</time>
      </trkpt>
      <trkpt lat="62.645267246627" lon="17.863626566093">
        <ele>56</ele>
        <time>2018-01-09T11:56:46Z</time>
      </trkpt>
      <trkpt lat="62.645281495857" lon="17.86361927384">
        <ele>56</ele>
        <time>2018-01-09T11:56:47Z</time>
      </trkpt>
      <trkpt lat="62.645295242173" lon="17.863604437877">
        <ele>56</ele>
        <time>2018-01-09T11:56:48Z</time>
      </trkpt>
      <trkpt lat="62.645317118932" lon="17.86359496633">
        <ele>56.2</ele>
        <time>2018-01-09T11:56:49Z</time>
      </trkpt>
      <trkpt lat="62.64533572675" lon="17.86358490805">
        <ele>56.4</ele>
        <time>2018-01-09T11:56:50Z</time>
      </trkpt>
      <trkpt lat="62.645347293772" lon="17.863567389879">
        <ele>56.6</ele>
        <time>2018-01-09T11:56:51Z</time>
      </trkpt>
      <trkpt lat="62.645365733952" lon="17.863539226695">
        <ele>56.8</ele>
        <time>2018-01-09T11:56:52Z</time>
      </trkpt>
      <trkpt lat="62.645380905191" lon="17.863516427927">
        <ele>57</ele>
        <time>2018-01-09T11:56:53Z</time>
      </trkpt>
      <trkpt lat="62.645394567688" lon="17.863489857304">
        <ele>57.2</ele>
        <time>2018-01-09T11:56:54Z</time>
      </trkpt>
      <trkpt lat="62.645403284864" lon="17.863463621957">
        <ele>57.4</ele>
        <time>2018-01-09T11:56:55Z</time>
      </trkpt>
      <trkpt lat="62.645416025352" lon="17.863427244511">
        <ele>57.4</ele>
        <time>2018-01-09T11:56:56Z</time>
      </trkpt>
      <trkpt lat="62.645426335089" lon="17.863393046359">
        <ele>57.6</ele>
        <time>2018-01-09T11:56:57Z</time>
      </trkpt>
      <trkpt lat="62.645429436392" lon="17.863368152116">
        <ele>58</ele>
        <time>2018-01-09T11:56:58Z</time>
      </trkpt>
      <trkpt lat="62.645443350346" lon="17.863308808264">
        <ele>58.2</ele>
        <time>2018-01-09T11:56:59Z</time>
      </trkpt>
      <trkpt lat="62.645449217676" lon="17.863261953443">
        <ele>58.2</ele>
        <time>2018-01-09T11:57:00Z</time>
      </trkpt>
      <trkpt lat="62.645448966219" lon="17.863215685355">
        <ele>58.4</ele>
        <time>2018-01-09T11:57:01Z</time>
      </trkpt>
      <trkpt lat="62.645456342291" lon="17.86314150554">
        <ele>58.4</ele>
        <time>2018-01-09T11:57:02Z</time>
      </trkpt>
      <trkpt lat="62.645460114146" lon="17.863094147805">
        <ele>58.4</ele>
        <time>2018-01-09T11:57:03Z</time>
      </trkpt>
      <trkpt lat="62.645465562381" lon="17.863048634088">
        <ele>58.4</ele>
        <time>2018-01-09T11:57:04Z</time>
      </trkpt>
      <trkpt lat="62.645480063068" lon="17.862976298291">
        <ele>58.2</ele>
        <time>2018-01-09T11:57:05Z</time>
      </trkpt>
      <trkpt lat="62.645492049185" lon="17.862933718239">
        <ele>58.2</ele>
        <time>2018-01-09T11:57:06Z</time>
      </trkpt>
      <trkpt lat="62.645511830469" lon="17.862877056595">
        <ele>58.4</ele>
        <time>2018-01-09T11:57:07Z</time>
      </trkpt>
      <trkpt lat="62.645531695572" lon="17.862840260054">
        <ele>58.2</ele>
        <time>2018-01-09T11:57:08Z</time>
      </trkpt>
      <trkpt lat="62.645545860983" lon="17.862807319187">
        <ele>58.2</ele>
        <time>2018-01-09T11:57:09Z</time>
      </trkpt>
      <trkpt lat="62.64555617072" lon="17.862789549559">
        <ele>58.4</ele>
        <time>2018-01-09T11:57:10Z</time>
      </trkpt>
      <trkpt lat="62.645568240656" lon="17.86276012909">
        <ele>58.4</ele>
        <time>2018-01-09T11:57:11Z</time>
      </trkpt>
      <trkpt lat="62.645582406067" lon="17.862740515444">
        <ele>58.4</ele>
        <time>2018-01-09T11:57:12Z</time>
      </trkpt>
      <trkpt lat="62.645596571478" lon="17.862713358088">
        <ele>58.4</ele>
        <time>2018-01-09T11:57:13Z</time>
      </trkpt>
      <trkpt lat="62.645612664726" lon="17.862681003954">
        <ele>58.6</ele>
        <time>2018-01-09T11:57:14Z</time>
      </trkpt>
      <trkpt lat="62.645632865105" lon="17.862652505494">
        <ele>58.6</ele>
        <time>2018-01-09T11:57:15Z</time>
      </trkpt>
      <trkpt lat="62.645642085195" lon="17.862617050057">
        <ele>58.8</ele>
        <time>2018-01-09T11:57:16Z</time>
      </trkpt>
      <trkpt lat="62.64565256257" lon="17.862579750602">
        <ele>58.8</ele>
        <time>2018-01-09T11:57:17Z</time>
      </trkpt>
      <trkpt lat="62.645661866479" lon="17.862531806134">
        <ele>59</ele>
        <time>2018-01-09T11:57:18Z</time>
      </trkpt>
      <trkpt lat="62.645665554515" lon="17.862481514734">
        <ele>59</ele>
        <time>2018-01-09T11:57:19Z</time>
      </trkpt>
      <trkpt lat="62.645668152904" lon="17.862431726248">
        <ele>59</ele>
        <time>2018-01-09T11:57:20Z</time>
      </trkpt>
      <trkpt lat="62.645672511492" lon="17.86239384006">
        <ele>59.2</ele>
        <time>2018-01-09T11:57:21Z</time>
      </trkpt>
      <trkpt lat="62.645678378822" lon="17.862336591683">
        <ele>59.4</ele>
        <time>2018-01-09T11:57:22Z</time>
      </trkpt>
      <trkpt lat="62.645679719926" lon="17.862296274744">
        <ele>59.8</ele>
        <time>2018-01-09T11:57:23Z</time>
      </trkpt>
      <trkpt lat="62.645679049374" lon="17.862250928665">
        <ele>59.8</ele>
        <time>2018-01-09T11:57:24Z</time>
      </trkpt>
      <trkpt lat="62.645680641935" lon="17.862205582586">
        <ele>60</ele>
        <time>2018-01-09T11:57:25Z</time>
      </trkpt>
      <trkpt lat="62.645679636107" lon="17.862159314498">
        <ele>60.2</ele>
        <time>2018-01-09T11:57:26Z</time>
      </trkpt>
      <trkpt lat="62.645692628052" lon="17.862127798554">
        <ele>60.4</ele>
        <time>2018-01-09T11:57:27Z</time>
      </trkpt>
      <trkpt lat="62.64571039768" lon="17.86208790071">
        <ele>60.4</ele>
        <time>2018-01-09T11:57:28Z</time>
      </trkpt>
      <trkpt lat="62.645738393226" lon="17.862059988983">
        <ele>60.6</ele>
        <time>2018-01-09T11:57:29Z</time>
      </trkpt>
      <trkpt lat="62.645759934709" lon="17.862045069201">
        <ele>60.6</ele>
        <time>2018-01-09T11:57:30Z</time>
      </trkpt>
      <trkpt lat="62.645780973278" lon="17.862026126107">
        <ele>60.8</ele>
        <time>2018-01-09T11:57:31Z</time>
      </trkpt>
      <trkpt lat="62.645801676571" lon="17.862020510234">
        <ele>60.8</ele>
        <time>2018-01-09T11:57:32Z</time>
      </trkpt>
      <trkpt lat="62.645822128407" lon="17.86202336008">
        <ele>61</ele>
        <time>2018-01-09T11:57:33Z</time>
      </trkpt>
      <trkpt lat="62.645842999338" lon="17.862016319284">
        <ele>61</ele>
        <time>2018-01-09T11:57:34Z</time>
      </trkpt>
      <trkpt lat="62.645863032079" lon="17.862003327339">
        <ele>61</ele>
        <time>2018-01-09T11:57:35Z</time>
      </trkpt>
      <trkpt lat="62.645890273254" lon="17.861996454181">
        <ele>61.2</ele>
        <time>2018-01-09T11:57:36Z</time>
      </trkpt>
      <trkpt lat="62.645909216348" lon="17.861964519142">
        <ele>61.4</ele>
        <time>2018-01-09T11:57:37Z</time>
      </trkpt>
      <trkpt lat="62.645932098935" lon="17.861949431722">
        <ele>61.4</ele>
        <time>2018-01-09T11:57:38Z</time>
      </trkpt>
      <trkpt lat="62.64595263459" lon="17.861928309334">
        <ele>61.6</ele>
        <time>2018-01-09T11:57:39Z</time>
      </trkpt>
      <trkpt lat="62.645961687042" lon="17.861893775906">
        <ele>61.6</ele>
        <time>2018-01-09T11:57:40Z</time>
      </trkpt>
      <trkpt lat="62.645981216869" lon="17.861859326297">
        <ele>61.8</ele>
        <time>2018-01-09T11:57:41Z</time>
      </trkpt>
      <trkpt lat="62.645987168018" lon="17.861846753447">
        <ele>62</ele>
        <time>2018-01-09T11:57:42Z</time>
      </trkpt>
      <trkpt lat="62.646007200759" lon="17.861802245558">
        <ele>61.8</ele>
        <time>2018-01-09T11:57:43Z</time>
      </trkpt>
      <trkpt lat="62.646004937646" lon="17.861777518953">
        <ele>62</ele>
        <time>2018-01-09T11:57:44Z</time>
      </trkpt>
      <trkpt lat="62.646020779437" lon="17.861736866738">
        <ele>62</ele>
        <time>2018-01-09T11:57:45Z</time>
      </trkpt>
      <trkpt lat="62.646047769155" lon="17.861685904786">
        <ele>62</ele>
        <time>2018-01-09T11:57:46Z</time>
      </trkpt>
      <trkpt lat="62.646054139399" lon="17.861654388842">
        <ele>62</ele>
        <time>2018-01-09T11:57:47Z</time>
      </trkpt>
      <trkpt lat="62.64607501033" lon="17.861599152121">
        <ele>62</ele>
        <time>2018-01-09T11:57:48Z</time>
      </trkpt>
      <trkpt lat="62.646089427198" lon="17.861546597608">
        <ele>61.8</ele>
        <time>2018-01-09T11:57:49Z</time>
      </trkpt>
      <trkpt lat="62.646102167686" lon="17.861503430823">
        <ele>62</ele>
        <time>2018-01-09T11:57:50Z</time>
      </trkpt>
      <trkpt lat="62.646119015305" lon="17.861458922934">
        <ele>61.8</ele>
        <time>2018-01-09T11:57:51Z</time>
      </trkpt>
      <trkpt lat="62.646133767449" lon="17.861425898248">
        <ele>61.8</ele>
        <time>2018-01-09T11:57:52Z</time>
      </trkpt>
      <trkpt lat="62.646160086615" lon="17.861395639589">
        <ele>61.8</ele>
        <time>2018-01-09T11:57:53Z</time>
      </trkpt>
      <trkpt lat="62.646173246198" lon="17.861358507772">
        <ele>61.8</ele>
        <time>2018-01-09T11:57:54Z</time>
      </trkpt>
      <trkpt lat="62.646189339446" lon="17.861319951032">
        <ele>62</ele>
        <time>2018-01-09T11:57:55Z</time>
      </trkpt>
      <trkpt lat="62.646201409382" lon="17.861290279106">
        <ele>62.2</ele>
        <time>2018-01-09T11:57:56Z</time>
      </trkpt>
      <trkpt lat="62.646229656385" lon="17.861245016846">
        <ele>62.4</ele>
        <time>2018-01-09T11:57:57Z</time>
      </trkpt>
      <trkpt lat="62.646244995262" lon="17.861208471762">
        <ele>62.4</ele>
        <time>2018-01-09T11:57:58Z</time>
      </trkpt>
      <trkpt lat="62.646267458754" lon="17.861164634425">
        <ele>62.8</ele>
        <time>2018-01-09T11:57:59Z</time>
      </trkpt>
      <trkpt lat="62.646306769865" lon="17.861105793487">
        <ele>62.8</ele>
        <time>2018-01-09T11:58:00Z</time>
      </trkpt>
      <trkpt lat="62.646330239185" lon="17.861039492658">
        <ele>62.8</ele>
        <time>2018-01-09T11:58:01Z</time>
      </trkpt>
      <trkpt lat="62.646375417626" lon="17.860987943973">
        <ele>62.8</ele>
        <time>2018-01-09T11:58:02Z</time>
      </trkpt>
      <trkpt lat="62.646418165316" lon="17.860956763305">
        <ele>62.6</ele>
        <time>2018-01-09T11:58:03Z</time>
      </trkpt>
      <trkpt lat="62.646456219142" lon="17.860914769986">
        <ele>62</ele>
        <time>2018-01-09T11:58:04Z</time>
      </trkpt>
      <trkpt lat="62.646498128642" lon="17.860872692848">
        <ele>61.6</ele>
        <time>2018-01-09T11:58:05Z</time>
      </trkpt>
      <trkpt lat="62.646508019284" lon="17.860804464182">
        <ele>61.2</ele>
        <time>2018-01-09T11:58:06Z</time>
      </trkpt>
      <trkpt lat="62.646546156929" lon="17.860773870247">
        <ele>61</ele>
        <time>2018-01-09T11:58:07Z</time>
      </trkpt>
      <trkpt lat="62.646576750864" lon="17.860734307679">
        <ele>60.6</ele>
        <time>2018-01-09T11:58:08Z</time>
      </trkpt>
      <trkpt lat="62.646633747784" lon="17.860689213057">
        <ele>61</ele>
        <time>2018-01-09T11:58:09Z</time>
      </trkpt>
      <trkpt lat="62.646672136886" lon="17.860644872806">
        <ele>60.8</ele>
        <time>2018-01-09T11:58:10Z</time>
      </trkpt>
      <trkpt lat="62.646703736649" lon="17.86060681898">
        <ele>60.8</ele>
        <time>2018-01-09T11:58:11Z</time>
      </trkpt>
      <trkpt lat="62.64673634224" lon="17.860568513697">
        <ele>60.6</ele>
        <time>2018-01-09T11:58:12Z</time>
      </trkpt>
      <trkpt lat="62.646771378582" lon="17.860519144306">
        <ele>60.6</ele>
        <time>2018-01-09T11:58:13Z</time>
      </trkpt>
      <trkpt lat="62.646799709404" lon="17.860480084652">
        <ele>60.6</ele>
        <time>2018-01-09T11:58:14Z</time>
      </trkpt>
      <trkpt lat="62.646831812081" lon="17.860445383586">
        <ele>60.6</ele>
        <time>2018-01-09T11:58:15Z</time>
      </trkpt>
      <trkpt lat="62.646851341908" lon="17.860416130755">
        <ele>60.6</ele>
        <time>2018-01-09T11:58:16Z</time>
      </trkpt>
      <trkpt lat="62.646875733237" lon="17.860392577616">
        <ele>60.6</ele>
        <time>2018-01-09T11:58:17Z</time>
      </trkpt>
      <trkpt lat="62.646904902249" lon="17.860366845183">
        <ele>60.6</ele>
        <time>2018-01-09T11:58:18Z</time>
      </trkpt>
      <trkpt lat="62.646927030465" lon="17.86034614189">
        <ele>60.6</ele>
        <time>2018-01-09T11:58:19Z</time>
      </trkpt>
      <trkpt lat="62.646960558065" lon="17.860318146344">
        <ele>60.8</ele>
        <time>2018-01-09T11:58:20Z</time>
      </trkpt>
      <trkpt lat="62.64698863743" lon="17.860282271812">
        <ele>60.8</ele>
        <time>2018-01-09T11:58:21Z</time>
      </trkpt>
      <trkpt lat="62.647013280216" lon="17.860252683705">
        <ele>61</ele>
        <time>2018-01-09T11:58:22Z</time>
      </trkpt>
      <trkpt lat="62.647046891635" lon="17.860205409789">
        <ele>61</ele>
        <time>2018-01-09T11:58:23Z</time>
      </trkpt>
      <trkpt lat="62.647077150294" lon="17.860157213864">
        <ele>61</ele>
        <time>2018-01-09T11:58:24Z</time>
      </trkpt>
      <trkpt lat="62.647110091161" lon="17.860104156437">
        <ele>61.2</ele>
        <time>2018-01-09T11:58:25Z</time>
      </trkpt>
      <trkpt lat="62.647137332336" lon="17.860054200313">
        <ele>61.2</ele>
        <time>2018-01-09T11:58:26Z</time>
      </trkpt>
      <trkpt lat="62.647158957638" lon="17.860009776243">
        <ele>61</ele>
        <time>2018-01-09T11:58:27Z</time>
      </trkpt>
      <trkpt lat="62.64718309751" lon="17.859950683848">
        <ele>60.8</ele>
        <time>2018-01-09T11:58:28Z</time>
      </trkpt>
      <trkpt lat="62.647202711156" lon="17.85990273938">
        <ele>60.8</ele>
        <time>2018-01-09T11:58:29Z</time>
      </trkpt>
      <trkpt lat="62.64722081606" lon="17.859863009174">
        <ele>60.6</ele>
        <time>2018-01-09T11:58:30Z</time>
      </trkpt>
      <trkpt lat="62.647239842973" lon="17.859820345303">
        <ele>60.6</ele>
        <time>2018-01-09T11:58:31Z</time>
      </trkpt>
      <trkpt lat="62.647252415823" lon="17.859765024763">
        <ele>60.6</ele>
        <time>2018-01-09T11:58:32Z</time>
      </trkpt>
      <trkpt lat="62.647272867659" lon="17.859699813581">
        <ele>60.8</ele>
        <time>2018-01-09T11:58:33Z</time>
      </trkpt>
      <trkpt lat="62.647291559296" lon="17.859646420878">
        <ele>60.8</ele>
        <time>2018-01-09T11:58:34Z</time>
      </trkpt>
      <trkpt lat="62.64731217877" lon="17.859583137533">
        <ele>60.8</ele>
        <time>2018-01-09T11:58:35Z</time>
      </trkpt>
      <trkpt lat="62.647331289502" lon="17.859512310478">
        <ele>60.8</ele>
        <time>2018-01-09T11:58:36Z</time>
      </trkpt>
      <trkpt lat="62.647339922859" lon="17.859450368237">
        <ele>60.8</ele>
        <time>2018-01-09T11:58:37Z</time>
      </trkpt>
      <trkpt lat="62.647355932288" lon="17.859379541182">
        <ele>60.8</ele>
        <time>2018-01-09T11:58:38Z</time>
      </trkpt>
      <trkpt lat="62.647362302532" lon="17.859299494037">
        <ele>61</ele>
        <time>2018-01-09T11:58:39Z</time>
      </trkpt>
      <trkpt lat="62.647374623925" lon="17.859220536539">
        <ele>60.8</ele>
        <time>2018-01-09T11:58:40Z</time>
      </trkpt>
      <trkpt lat="62.647383508739" lon="17.859148116923">
        <ele>60.8</ele>
        <time>2018-01-09T11:58:41Z</time>
      </trkpt>
      <trkpt lat="62.647387364413" lon="17.859085420311">
        <ele>60.6</ele>
        <time>2018-01-09T11:58:42Z</time>
      </trkpt>
      <trkpt lat="62.647397338874" lon="17.859004367338">
        <ele>60.6</ele>
        <time>2018-01-09T11:58:43Z</time>
      </trkpt>
      <trkpt lat="62.647409073534" lon="17.858926164211">
        <ele>60.4</ele>
        <time>2018-01-09T11:58:44Z</time>
      </trkpt>
      <trkpt lat="62.647421311108" lon="17.858852319672">
        <ele>60.2</ele>
        <time>2018-01-09T11:58:45Z</time>
      </trkpt>
      <trkpt lat="62.647430698836" lon="17.858787024671">
        <ele>60.2</ele>
        <time>2018-01-09T11:58:46Z</time>
      </trkpt>
      <trkpt lat="62.647432459035" lon="17.858717873996">
        <ele>60</ele>
        <time>2018-01-09T11:58:47Z</time>
      </trkpt>
      <trkpt lat="62.647435225062" lon="17.858635647557">
        <ele>59.8</ele>
        <time>2018-01-09T11:58:48Z</time>
      </trkpt>
      <trkpt lat="62.647436566166" lon="17.858577896266">
        <ele>59.8</ele>
        <time>2018-01-09T11:58:49Z</time>
      </trkpt>
      <trkpt lat="62.647433213406" lon="17.858519977337">
        <ele>59.8</ele>
        <time>2018-01-09T11:58:50Z</time>
      </trkpt>
      <trkpt lat="62.6474353927" lon="17.858443618228">
        <ele>59.8</ele>
        <time>2018-01-09T11:58:51Z</time>
      </trkpt>
      <trkpt lat="62.647431537026" lon="17.858377317399">
        <ele>59.8</ele>
        <time>2018-01-09T11:58:52Z</time>
      </trkpt>
      <trkpt lat="62.647433883958" lon="17.858297437892">
        <ele>59.6</ele>
        <time>2018-01-09T11:58:53Z</time>
      </trkpt>
      <trkpt lat="62.647438242546" lon="17.858221497878">
        <ele>59.6</ele>
        <time>2018-01-09T11:58:54Z</time>
      </trkpt>
      <trkpt lat="62.647444026057" lon="17.858152011927">
        <ele>59.6</ele>
        <time>2018-01-09T11:58:55Z</time>
      </trkpt>
      <trkpt lat="62.647452827052" lon="17.858081268691">
        <ele>59.6</ele>
        <time>2018-01-09T11:58:56Z</time>
      </trkpt>
      <trkpt lat="62.647457101821" lon="17.858007759428">
        <ele>59.6</ele>
        <time>2018-01-09T11:58:57Z</time>
      </trkpt>
      <trkpt lat="62.647466238092" lon="17.857919246564">
        <ele>59.6</ele>
        <time>2018-01-09T11:58:58Z</time>
      </trkpt>
      <trkpt lat="62.647466657187" lon="17.857840456704">
        <ele>59.6</ele>
        <time>2018-01-09T11:58:59Z</time>
      </trkpt>
      <trkpt lat="62.647471686327" lon="17.857769713468">
        <ele>59.6</ele>
        <time>2018-01-09T11:59:00Z</time>
      </trkpt>
      <trkpt lat="62.647479481494" lon="17.85769913787">
        <ele>59.6</ele>
        <time>2018-01-09T11:59:01Z</time>
      </trkpt>
      <trkpt lat="62.647478475666" lon="17.857620096553">
        <ele>59.4</ele>
        <time>2018-01-09T11:59:02Z</time>
      </trkpt>
      <trkpt lat="62.647485181186" lon="17.857539630313">
        <ele>59.4</ele>
        <time>2018-01-09T11:59:03Z</time>
      </trkpt>
      <trkpt lat="62.64749574238" lon="17.85747282657">
        <ele>59.4</ele>
        <time>2018-01-09T11:59:04Z</time>
      </trkpt>
      <trkpt lat="62.647504878651" lon="17.857408705035">
        <ele>59.2</ele>
        <time>2018-01-09T11:59:05Z</time>
      </trkpt>
      <trkpt lat="62.647515272207" lon="17.857335447229">
        <ele>59.2</ele>
        <time>2018-01-09T11:59:06Z</time>
      </trkpt>
      <trkpt lat="62.647524492297" lon="17.857259674853">
        <ele>59.2</ele>
        <time>2018-01-09T11:59:07Z</time>
      </trkpt>
      <trkpt lat="62.647536646052" lon="17.857190524178">
        <ele>59.2</ele>
        <time>2018-01-09T11:59:08Z</time>
      </trkpt>
      <trkpt lat="62.647549051264" lon="17.857134365448">
        <ele>59.2</ele>
        <time>2018-01-09T11:59:09Z</time>
      </trkpt>
      <trkpt lat="62.647558355173" lon="17.857089857559">
        <ele>59</ele>
        <time>2018-01-09T11:59:10Z</time>
      </trkpt>
      <trkpt lat="62.647568329634" lon="17.857041074901">
        <ele>59</ele>
        <time>2018-01-09T11:59:11Z</time>
      </trkpt>
      <trkpt lat="62.647574951335" lon="17.856979719393">
        <ele>59.2</ele>
        <time>2018-01-09T11:59:12Z</time>
      </trkpt>
      <trkpt lat="62.647580986303" lon="17.856921549007">
        <ele>59.2</ele>
        <time>2018-01-09T11:59:13Z</time>
      </trkpt>
      <trkpt lat="62.647588865289" lon="17.856866731381">
        <ele>59.2</ele>
        <time>2018-01-09T11:59:14Z</time>
      </trkpt>
      <trkpt lat="62.647599594121" lon="17.85681568561">
        <ele>59.2</ele>
        <time>2018-01-09T11:59:15Z</time>
      </trkpt>
      <trkpt lat="62.647605126175" lon="17.856768160237">
        <ele>59.4</ele>
        <time>2018-01-09T11:59:16Z</time>
      </trkpt>
      <trkpt lat="62.647607556926" lon="17.856718707027">
        <ele>59.2</ele>
        <time>2018-01-09T11:59:17Z</time>
      </trkpt>
      <trkpt lat="62.647611161143" lon="17.856670846378">
        <ele>59.4</ele>
        <time>2018-01-09T11:59:18Z</time>
      </trkpt>
      <trkpt lat="62.64761392717" lon="17.85661871096">
        <ele>59.6</ele>
        <time>2018-01-09T11:59:19Z</time>
      </trkpt>
      <trkpt lat="62.647618537215" lon="17.856571353225">
        <ele>59.6</ele>
        <time>2018-01-09T11:59:20Z</time>
      </trkpt>
      <trkpt lat="62.647620465052" lon="17.85651142264">
        <ele>59.8</ele>
        <time>2018-01-09T11:59:21Z</time>
      </trkpt>
      <trkpt lat="62.647622057613" lon="17.856458700489">
        <ele>59.8</ele>
        <time>2018-01-09T11:59:22Z</time>
      </trkpt>
      <trkpt lat="62.647629685142" lon="17.856389801271">
        <ele>59.8</ele>
        <time>2018-01-09T11:59:23Z</time>
      </trkpt>
      <trkpt lat="62.647635636291" lon="17.856317465474">
        <ele>59.8</ele>
        <time>2018-01-09T11:59:24Z</time>
      </trkpt>
      <trkpt lat="62.647647790046" lon="17.856241357822">
        <ele>59.8</ele>
        <time>2018-01-09T11:59:25Z</time>
      </trkpt>
      <trkpt lat="62.647664470027" lon="17.856159634297">
        <ele>60</ele>
        <time>2018-01-09T11:59:26Z</time>
      </trkpt>
      <trkpt lat="62.647681233827" lon="17.85608226936">
        <ele>59.6</ele>
        <time>2018-01-09T11:59:27Z</time>
      </trkpt>
      <trkpt lat="62.647702523853" lon="17.8559950976">
        <ele>59.2</ele>
        <time>2018-01-09T11:59:28Z</time>
      </trkpt>
      <trkpt lat="62.647726579906" lon="17.855907674383">
        <ele>58.6</ele>
        <time>2018-01-09T11:59:29Z</time>
      </trkpt>
      <trkpt lat="62.647750887416" lon="17.855831147636">
        <ele>58.2</ele>
        <time>2018-01-09T11:59:30Z</time>
      </trkpt>
      <trkpt lat="62.64777737422" lon="17.85575537526">
        <ele>57.6</ele>
        <time>2018-01-09T11:59:31Z</time>
      </trkpt>
      <trkpt lat="62.647809560716" lon="17.85567407083">
        <ele>56.8</ele>
        <time>2018-01-09T11:59:32Z</time>
      </trkpt>
      <trkpt lat="62.647844680877" lon="17.855599974834">
        <ele>56.2</ele>
        <time>2018-01-09T11:59:33Z</time>
      </trkpt>
      <trkpt lat="62.647886003644" lon="17.85552738758">
        <ele>55.8</ele>
        <time>2018-01-09T11:59:34Z</time>
      </trkpt>
      <trkpt lat="62.647935373035" lon="17.855451279928">
        <ele>55.4</ele>
        <time>2018-01-09T11:59:35Z</time>
      </trkpt>
      <trkpt lat="62.647988346643" lon="17.855399563605">
        <ele>54.8</ele>
        <time>2018-01-09T11:59:36Z</time>
      </trkpt>
      <trkpt lat="62.648043415726" lon="17.855379447045">
        <ele>54.2</ele>
        <time>2018-01-09T11:59:37Z</time>
      </trkpt>
      <trkpt lat="62.648103597768" lon="17.855378860312">
        <ele>53.6</ele>
        <time>2018-01-09T11:59:38Z</time>
      </trkpt>
      <trkpt lat="62.648155817005" lon="17.855382129253">
        <ele>53</ele>
        <time>2018-01-09T11:59:39Z</time>
      </trkpt>
      <trkpt lat="62.6482065275" lon="17.855391516981">
        <ele>52.6</ele>
        <time>2018-01-09T11:59:40Z</time>
      </trkpt>
      <trkpt lat="62.648254891063" lon="17.855386823117">
        <ele>52.2</ele>
        <time>2018-01-09T11:59:41Z</time>
      </trkpt>
      <trkpt lat="62.648297135839" lon="17.855366706557">
        <ele>52.4</ele>
        <time>2018-01-09T11:59:42Z</time>
      </trkpt>
      <trkpt lat="62.648340889357" lon="17.855324461781">
        <ele>52.6</ele>
        <time>2018-01-09T11:59:43Z</time>
      </trkpt>
      <trkpt lat="62.648368968722" lon="17.855299818995">
        <ele>53</ele>
        <time>2018-01-09T11:59:44Z</time>
      </trkpt>
      <trkpt lat="62.64841272224" lon="17.855263190092">
        <ele>53.4</ele>
        <time>2018-01-09T11:59:45Z</time>
      </trkpt>
      <trkpt lat="62.648446920392" lon="17.855233015252">
        <ele>53.8</ele>
        <time>2018-01-09T11:59:46Z</time>
      </trkpt>
      <trkpt lat="62.648473491015" lon="17.855201080213">
        <ele>54</ele>
        <time>2018-01-09T11:59:47Z</time>
      </trkpt>
      <trkpt lat="62.648508527357" lon="17.855173419943">
        <ele>54.2</ele>
        <time>2018-01-09T11:59:48Z</time>
      </trkpt>
      <trkpt lat="62.648539624206" lon="17.85515104027">
        <ele>54.2</ele>
        <time>2018-01-09T11:59:49Z</time>
      </trkpt>
      <trkpt lat="62.648570134322" lon="17.855129582606">
        <ele>54.2</ele>
        <time>2018-01-09T11:59:50Z</time>
      </trkpt>
      <trkpt lat="62.648599470972" lon="17.855109717503">
        <ele>54.2</ele>
        <time>2018-01-09T11:59:51Z</time>
      </trkpt>
      <trkpt lat="62.648631908925" lon="17.855087840744">
        <ele>54.2</ele>
        <time>2018-01-09T11:59:52Z</time>
      </trkpt>
      <trkpt lat="62.648658479548" lon="17.855056492438">
        <ele>54.2</ele>
        <time>2018-01-09T11:59:53Z</time>
      </trkpt>
      <trkpt lat="62.648674572796" lon="17.855031011462">
        <ele>54.2</ele>
        <time>2018-01-09T11:59:54Z</time>
      </trkpt>
      <trkpt lat="62.648695695184" lon="17.854983737546">
        <ele>54.2</ele>
        <time>2018-01-09T11:59:55Z</time>
      </trkpt>
      <trkpt lat="62.648707429844" lon="17.854950377584">
        <ele>54.2</ele>
        <time>2018-01-09T11:59:56Z</time>
      </trkpt>
      <trkpt lat="62.648721343798" lon="17.854904360953">
        <ele>54.4</ele>
        <time>2018-01-09T11:59:57Z</time>
      </trkpt>
      <trkpt lat="62.648735257752" lon="17.854831606061">
        <ele>54.2</ele>
        <time>2018-01-09T11:59:58Z</time>
      </trkpt>
      <trkpt lat="62.648745986584" lon="17.85474367993">
        <ele>54.4</ele>
        <time>2018-01-09T11:59:59Z</time>
      </trkpt>
      <trkpt lat="62.648749171706" lon="17.854636894524">
        <ele>54.4</ele>
        <time>2018-01-09T12:00:00Z</time>
      </trkpt>
      <trkpt lat="62.648749087887" lon="17.854524241788">
        <ele>54</ele>
        <time>2018-01-09T12:00:01Z</time>
      </trkpt>
      <trkpt lat="62.648754284665" lon="17.854398848564">
        <ele>53.8</ele>
        <time>2018-01-09T12:00:02Z</time>
      </trkpt>
      <trkpt lat="62.648765348773" lon="17.854316705944">
        <ele>53.6</ele>
        <time>2018-01-09T12:00:03Z</time>
      </trkpt>
      <trkpt lat="62.648803821694" lon="17.854200365172">
        <ele>52.6</ele>
        <time>2018-01-09T12:00:04Z</time>
      </trkpt>
      <trkpt lat="62.648846988479" lon="17.85416113788">
        <ele>51.8</ele>
        <time>2018-01-09T12:00:05Z</time>
      </trkpt>
      <trkpt lat="62.648892586015" lon="17.854172201988">
        <ele>51.2</ele>
        <time>2018-01-09T12:00:06Z</time>
      </trkpt>
      <trkpt lat="62.648931478031" lon="17.854206567778">
        <ele>51</ele>
        <time>2018-01-09T12:00:07Z</time>
      </trkpt>
      <trkpt lat="62.648965005631" lon="17.85427094077">
        <ele>50.6</ele>
        <time>2018-01-09T12:00:08Z</time>
      </trkpt>
      <trkpt lat="62.648989145503" lon="17.854340678178">
        <ele>50.4</ele>
        <time>2018-01-09T12:00:09Z</time>
      </trkpt>
      <trkpt lat="62.649012363366" lon="17.854424161902">
        <ele>50.8</ele>
        <time>2018-01-09T12:00:10Z</time>
      </trkpt>
      <trkpt lat="62.649032731383" lon="17.854508567635">
        <ele>50.6</ele>
        <time>2018-01-09T12:00:11Z</time>
      </trkpt>
      <trkpt lat="62.649058715273" lon="17.854577299215">
        <ele>50.6</ele>
        <time>2018-01-09T12:00:12Z</time>
      </trkpt>
      <trkpt lat="62.649080508213" lon="17.854640414922">
        <ele>50.6</ele>
        <time>2018-01-09T12:00:13Z</time>
      </trkpt>
      <trkpt lat="62.649105989189" lon="17.85472356337">
        <ele>50.4</ele>
        <time>2018-01-09T12:00:14Z</time>
      </trkpt>
      <trkpt lat="62.649132392174" lon="17.85478558943">
        <ele>50.4</ele>
        <time>2018-01-09T12:00:15Z</time>
      </trkpt>
      <trkpt lat="62.64915619677" lon="17.854844011273">
        <ele>49.8</ele>
        <time>2018-01-09T12:00:16Z</time>
      </trkpt>
      <trkpt lat="62.649185365782" lon="17.854914083957">
        <ele>49.8</ele>
        <time>2018-01-09T12:00:17Z</time>
      </trkpt>
      <trkpt lat="62.649216127355" lon="17.854960184407">
        <ele>49.6</ele>
        <time>2018-01-09T12:00:18Z</time>
      </trkpt>
      <trkpt lat="62.649253762086" lon="17.855010811083">
        <ele>49.2</ele>
        <time>2018-01-09T12:00:19Z</time>
      </trkpt>
      <trkpt lat="62.649291396817" lon="17.855040650647">
        <ele>48.8</ele>
        <time>2018-01-09T12:00:20Z</time>
      </trkpt>
      <trkpt lat="62.649334144507" lon="17.855049703099">
        <ele>48.4</ele>
        <time>2018-01-09T12:00:21Z</time>
      </trkpt>
      <trkpt lat="62.649375551093" lon="17.855046601796">
        <ele>48</ele>
        <time>2018-01-09T12:00:22Z</time>
      </trkpt>
      <trkpt lat="62.649422489733" lon="17.855015421128">
        <ele>47.6</ele>
        <time>2018-01-09T12:00:23Z</time>
      </trkpt>
      <trkpt lat="62.649463896319" lon="17.854985162469">
        <ele>47.2</ele>
        <time>2018-01-09T12:00:24Z</time>
      </trkpt>
      <trkpt lat="62.649504632353" lon="17.854952724516">
        <ele>46.6</ele>
        <time>2018-01-09T12:00:25Z</time>
      </trkpt>
      <trkpt lat="62.649547966776" lon="17.854921962943">
        <ele>46.4</ele>
        <time>2018-01-09T12:00:26Z</time>
      </trkpt>
      <trkpt lat="62.649586774973" lon="17.854896481967">
        <ele>46.2</ele>
        <time>2018-01-09T12:00:27Z</time>
      </trkpt>
      <trkpt lat="62.64963899421" lon="17.854861780901">
        <ele>45.8</ele>
        <time>2018-01-09T12:00:28Z</time>
      </trkpt>
      <trkpt lat="62.649693979474" lon="17.854834707364">
        <ele>45.4</ele>
        <time>2018-01-09T12:00:29Z</time>
      </trkpt>
      <trkpt lat="62.64975466443" lon="17.854818697935">
        <ele>44.8</ele>
        <time>2018-01-09T12:00:30Z</time>
      </trkpt>
      <trkpt lat="62.649807721857" lon="17.854808974931">
        <ele>44.2</ele>
        <time>2018-01-09T12:00:31Z</time>
      </trkpt>
      <trkpt lat="62.649863545311" lon="17.854803107601">
        <ele>43.8</ele>
        <time>2018-01-09T12:00:32Z</time>
      </trkpt>
      <trkpt lat="62.649919117308" lon="17.854796066805">
        <ele>42.8</ele>
        <time>2018-01-09T12:00:33Z</time>
      </trkpt>
      <trkpt lat="62.649978628798" lon="17.854784667421">
        <ele>42</ele>
        <time>2018-01-09T12:00:34Z</time>
      </trkpt>
      <trkpt lat="62.650040403401" lon="17.85475206183">
        <ele>41.6</ele>
        <time>2018-01-09T12:00:35Z</time>
      </trkpt>
      <trkpt lat="62.650094718113" lon="17.854681989146">
        <ele>41.2</ele>
        <time>2018-01-09T12:00:36Z</time>
      </trkpt>
      <trkpt lat="62.650131766111" lon="17.854596409947">
        <ele>41</ele>
        <time>2018-01-09T12:00:37Z</time>
      </trkpt>
      <trkpt lat="62.65016286296" lon="17.854485685048">
        <ele>40.8</ele>
        <time>2018-01-09T12:00:38Z</time>
      </trkpt>
      <trkpt lat="62.650182728063" lon="17.854381246574">
        <ele>40.4</ele>
        <time>2018-01-09T12:00:39Z</time>
      </trkpt>
      <trkpt lat="62.650204185727" lon="17.854277478652">
        <ele>39.6</ele>
        <time>2018-01-09T12:00:40Z</time>
      </trkpt>
      <trkpt lat="62.650221955355" lon="17.854176057662">
        <ele>38.8</ele>
        <time>2018-01-09T12:00:41Z</time>
      </trkpt>
      <trkpt lat="62.65023327092" lon="17.854105649702">
        <ele>38.8</ele>
        <time>2018-01-09T12:00:42Z</time>
      </trkpt>
      <trkpt lat="62.650247352512" lon="17.854038929778">
        <ele>38.8</ele>
        <time>2018-01-09T12:00:43Z</time>
      </trkpt>
      <trkpt lat="62.65026093119" lon="17.853995343898">
        <ele>39</ele>
        <time>2018-01-09T12:00:44Z</time>
      </trkpt>
      <trkpt lat="62.650272582031" lon="17.85395913409">
        <ele>39.4</ele>
        <time>2018-01-09T12:00:45Z</time>
      </trkpt>
      <trkpt lat="62.650284065234" lon="17.853927618146">
        <ele>40</ele>
        <time>2018-01-09T12:00:46Z</time>
      </trkpt>
      <trkpt lat="62.650298565921" lon="17.853896772754">
        <ele>40</ele>
        <time>2018-01-09T12:00:47Z</time>
      </trkpt>
      <trkpt lat="62.65031206078" lon="17.853852013408">
        <ele>40.4</ele>
        <time>2018-01-09T12:00:48Z</time>
      </trkpt>
      <trkpt lat="62.650322789612" lon="17.853818988722">
        <ele>40.6</ele>
        <time>2018-01-09T12:00:49Z</time>
      </trkpt>
      <trkpt lat="62.650340726878" lon="17.853775402842">
        <ele>41</ele>
        <time>2018-01-09T12:00:50Z</time>
      </trkpt>
      <trkpt lat="62.650350282244" lon="17.85372276451">
        <ele>41</ele>
        <time>2018-01-09T12:00:51Z</time>
      </trkpt>
      <trkpt lat="62.650368387148" lon="17.853674317128">
        <ele>41.2</ele>
        <time>2018-01-09T12:00:52Z</time>
      </trkpt>
      <trkpt lat="62.650400741282" lon="17.853618158398">
        <ele>41.4</ele>
        <time>2018-01-09T12:00:53Z</time>
      </trkpt>
      <trkpt lat="62.650416666892" lon="17.853577590002">
        <ele>41.2</ele>
        <time>2018-01-09T12:00:54Z</time>
      </trkpt>
      <trkpt lat="62.650436531995" lon="17.853548085714">
        <ele>41.4</ele>
        <time>2018-01-09T12:00:55Z</time>
      </trkpt>
      <trkpt lat="62.650457822021" lon="17.853518916702">
        <ele>41.4</ele>
        <time>2018-01-09T12:00:56Z</time>
      </trkpt>
      <trkpt lat="62.650473747631" lon="17.853495028287">
        <ele>41.4</ele>
        <time>2018-01-09T12:00:57Z</time>
      </trkpt>
      <trkpt lat="62.650504676842" lon="17.85345957285">
        <ele>41.4</ele>
        <time>2018-01-09T12:00:58Z</time>
      </trkpt>
      <trkpt lat="62.650530576913" lon="17.853428476001">
        <ele>41.4</ele>
        <time>2018-01-09T12:00:59Z</time>
      </trkpt>
      <trkpt lat="62.650549939102" lon="17.853399558446">
        <ele>41.6</ele>
        <time>2018-01-09T12:01:00Z</time>
      </trkpt>
      <trkpt lat="62.650566619083" lon="17.853373490737">
        <ele>41.6</ele>
        <time>2018-01-09T12:01:01Z</time>
      </trkpt>
      <trkpt lat="62.650588076747" lon="17.853344237906">
        <ele>41.8</ele>
        <time>2018-01-09T12:01:02Z</time>
      </trkpt>
      <trkpt lat="62.650610791696" lon="17.853313476333">
        <ele>41.8</ele>
        <time>2018-01-09T12:01:03Z</time>
      </trkpt>
      <trkpt lat="62.65062805841" lon="17.853287240986">
        <ele>41.8</ele>
        <time>2018-01-09T12:01:04Z</time>
      </trkpt>
      <trkpt lat="62.650640966536" lon="17.853253461929">
        <ele>42</ele>
        <time>2018-01-09T12:01:05Z</time>
      </trkpt>
      <trkpt lat="62.650655551042" lon="17.853223957641">
        <ele>42</ele>
        <time>2018-01-09T12:01:06Z</time>
      </trkpt>
      <trkpt lat="62.65066829153" lon="17.853198225208">
        <ele>42.2</ele>
        <time>2018-01-09T12:01:07Z</time>
      </trkpt>
      <trkpt lat="62.650681283475" lon="17.85316955911">
        <ele>42.6</ele>
        <time>2018-01-09T12:01:08Z</time>
      </trkpt>
      <trkpt lat="62.650692012307" lon="17.853138629899">
        <ele>42.8</ele>
        <time>2018-01-09T12:01:09Z</time>
      </trkpt>
      <trkpt lat="62.650709446659" lon="17.853098145322">
        <ele>43</ele>
        <time>2018-01-09T12:01:10Z</time>
      </trkpt>
      <trkpt lat="62.650725456088" lon="17.853059085668">
        <ele>43.2</ele>
        <time>2018-01-09T12:01:11Z</time>
      </trkpt>
      <trkpt lat="62.650734424721" lon="17.85303544871">
        <ele>43.4</ele>
        <time>2018-01-09T12:01:12Z</time>
      </trkpt>
      <trkpt lat="62.65075294872" lon="17.852998652169">
        <ele>43.4</ele>
        <time>2018-01-09T12:01:13Z</time>
      </trkpt>
      <trkpt lat="62.650771053624" lon="17.852958838144">
        <ele>43.6</ele>
        <time>2018-01-09T12:01:14Z</time>
      </trkpt>
      <trkpt lat="62.650780189895" lon="17.852931345512">
        <ele>43.6</ele>
        <time>2018-01-09T12:01:15Z</time>
      </trkpt>
      <trkpt lat="62.650797791885" lon="17.852893878419">
        <ele>43.8</ele>
        <time>2018-01-09T12:01:16Z</time>
      </trkpt>
      <trkpt lat="62.650815645332" lon="17.852857165697">
        <ele>43.8</ele>
        <time>2018-01-09T12:01:17Z</time>
      </trkpt>
      <trkpt lat="62.650827212354" lon="17.852825230658">
        <ele>43.8</ele>
        <time>2018-01-09T12:01:18Z</time>
      </trkpt>
      <trkpt lat="62.650849089113" lon="17.852794217628">
        <ele>44</ele>
        <time>2018-01-09T12:01:19Z</time>
      </trkpt>
      <trkpt lat="62.650864344171" lon="17.852767898462">
        <ele>44.2</ele>
        <time>2018-01-09T12:01:20Z</time>
      </trkpt>
      <trkpt lat="62.650889908966" lon="17.852738561812">
        <ele>44.4</ele>
        <time>2018-01-09T12:01:21Z</time>
      </trkpt>
      <trkpt lat="62.650912623915" lon="17.852703106375">
        <ele>44.4</ele>
        <time>2018-01-09T12:01:22Z</time>
      </trkpt>
      <trkpt lat="62.650944307497" lon="17.852678798865">
        <ele>44.6</ele>
        <time>2018-01-09T12:01:23Z</time>
      </trkpt>
      <trkpt lat="62.650976410174" lon="17.852658933762">
        <ele>44.6</ele>
        <time>2018-01-09T12:01:24Z</time>
      </trkpt>
      <trkpt lat="62.651005411548" lon="17.852639403935">
        <ele>44.6</ele>
        <time>2018-01-09T12:01:25Z</time>
      </trkpt>
      <trkpt lat="62.651041705175" lon="17.852625825257">
        <ele>44.4</ele>
        <time>2018-01-09T12:01:26Z</time>
      </trkpt>
      <trkpt lat="62.651072466748" lon="17.852620963755">
        <ele>44.4</ele>
        <time>2018-01-09T12:01:27Z</time>
      </trkpt>
      <trkpt lat="62.651101887217" lon="17.85262473561">
        <ele>44.4</ele>
        <time>2018-01-09T12:01:28Z</time>
      </trkpt>
      <trkpt lat="62.651129631306" lon="17.852627669275">
        <ele>44.4</ele>
        <time>2018-01-09T12:01:29Z</time>
      </trkpt>
      <trkpt lat="62.651149915504" lon="17.852637559917">
        <ele>44.6</ele>
        <time>2018-01-09T12:01:30Z</time>
      </trkpt>
      <trkpt lat="62.651183694561" lon="17.852649546034">
        <ele>44.4</ele>
        <time>2018-01-09T12:01:31Z</time>
      </trkpt>
      <trkpt lat="62.651207750614" lon="17.852655078088">
        <ele>44.6</ele>
        <time>2018-01-09T12:01:32Z</time>
      </trkpt>
      <trkpt lat="62.651228537726" lon="17.85266161597">
        <ele>44.6</ele>
        <time>2018-01-09T12:01:33Z</time>
      </trkpt>
      <trkpt lat="62.651257958195" lon="17.852665723101">
        <ele>44.4</ele>
        <time>2018-01-09T12:01:34Z</time>
      </trkpt>
      <trkpt lat="62.65127849385" lon="17.852648288749">
        <ele>44.4</ele>
        <time>2018-01-09T12:01:35Z</time>
      </trkpt>
      <trkpt lat="62.65129525765" lon="17.85264652855">
        <ele>44.6</ele>
        <time>2018-01-09T12:01:36Z</time>
      </trkpt>
      <trkpt lat="62.651323169377" lon="17.85263563208">
        <ele>44.6</ele>
        <time>2018-01-09T12:01:37Z</time>
      </trkpt>
      <trkpt lat="62.651349069448" lon="17.852613922959">
        <ele>44.6</ele>
        <time>2018-01-09T12:01:38Z</time>
      </trkpt>
      <trkpt lat="62.651364324506" lon="17.852599254634">
        <ele>44.8</ele>
        <time>2018-01-09T12:01:39Z</time>
      </trkpt>
      <trkpt lat="62.651394247889" lon="17.852579389531">
        <ele>45</ele>
        <time>2018-01-09T12:01:40Z</time>
      </trkpt>
      <trkpt lat="62.651414448268" lon="17.852553657098">
        <ele>45.2</ele>
        <time>2018-01-09T12:01:41Z</time>
      </trkpt>
      <trkpt lat="62.651433475181" lon="17.852535552194">
        <ele>45.4</ele>
        <time>2018-01-09T12:01:42Z</time>
      </trkpt>
      <trkpt lat="62.651460129623" lon="17.852515603272">
        <ele>45.4</ele>
        <time>2018-01-09T12:01:43Z</time>
      </trkpt>
      <trkpt lat="62.651475300862" lon="17.852495319074">
        <ele>45.2</ele>
        <time>2018-01-09T12:01:44Z</time>
      </trkpt>
      <trkpt lat="62.651497931992" lon="17.852473693772">
        <ele>45.2</ele>
        <time>2018-01-09T12:01:45Z</time>
      </trkpt>
      <trkpt lat="62.651520311665" lon="17.85245458304">
        <ele>45.2</ele>
        <time>2018-01-09T12:01:46Z</time>
      </trkpt>
      <trkpt lat="62.651536824008" lon="17.852434298842">
        <ele>45.2</ele>
        <time>2018-01-09T12:01:47Z</time>
      </trkpt>
      <trkpt lat="62.651557527301" lon="17.852412924997">
        <ele>45.2</ele>
        <time>2018-01-09T12:01:48Z</time>
      </trkpt>
      <trkpt lat="62.65157856587" lon="17.852393227532">
        <ele>45.4</ele>
        <time>2018-01-09T12:01:49Z</time>
      </trkpt>
      <trkpt lat="62.651598514792" lon="17.852375290266">
        <ele>45.6</ele>
        <time>2018-01-09T12:01:50Z</time>
      </trkpt>
      <trkpt lat="62.651616200601" lon="17.852360873398">
        <ele>45.8</ele>
        <time>2018-01-09T12:01:51Z</time>
      </trkpt>
      <trkpt lat="62.651631288021" lon="17.852349641652">
        <ele>45.8</ele>
        <time>2018-01-09T12:01:52Z</time>
      </trkpt>
      <trkpt lat="62.651657942463" lon="17.852338242268">
        <ele>46</ele>
        <time>2018-01-09T12:01:53Z</time>
      </trkpt>
      <trkpt lat="62.651679483946" lon="17.852318209527">
        <ele>46.2</ele>
        <time>2018-01-09T12:01:54Z</time>
      </trkpt>
      <trkpt lat="62.65169591247" lon="17.852309995265">
        <ele>46.4</ele>
        <time>2018-01-09T12:01:55Z</time>
      </trkpt>
      <trkpt lat="62.651715693754" lon="17.852306391048">
        <ele>46.4</ele>
        <time>2018-01-09T12:01:56Z</time>
      </trkpt>
      <trkpt lat="62.651739833626" lon="17.852298009148">
        <ele>46.4</ele>
        <time>2018-01-09T12:01:57Z</time>
      </trkpt>
      <trkpt lat="62.651759866367" lon="17.85227856314">
        <ele>46.4</ele>
        <time>2018-01-09T12:01:58Z</time>
      </trkpt>
      <trkpt lat="62.651799177478" lon="17.852272276715">
        <ele>46.4</ele>
        <time>2018-01-09T12:01:59Z</time>
      </trkpt>
      <trkpt lat="62.651820718961" lon="17.852255177639">
        <ele>46.6</ele>
        <time>2018-01-09T12:02:00Z</time>
      </trkpt>
      <trkpt lat="62.651840416426" lon="17.852250651413">
        <ele>46.6</ele>
        <time>2018-01-09T12:02:01Z</time>
      </trkpt>
      <trkpt lat="62.651860616805" lon="17.852239084391">
        <ele>46.6</ele>
        <time>2018-01-09T12:02:02Z</time>
      </trkpt>
      <trkpt lat="62.651884169944" lon="17.852232295052">
        <ele>46.8</ele>
        <time>2018-01-09T12:02:03Z</time>
      </trkpt>
      <trkpt lat="62.6519113273" lon="17.852228523197">
        <ele>46.8</ele>
        <time>2018-01-09T12:02:04Z</time>
      </trkpt>
      <trkpt lat="62.651933874611" lon="17.852218548736">
        <ele>47</ele>
        <time>2018-01-09T12:02:05Z</time>
      </trkpt>
      <trkpt lat="62.651953907352" lon="17.852199689461">
        <ele>47.2</ele>
        <time>2018-01-09T12:02:06Z</time>
      </trkpt>
      <trkpt lat="62.651971006428" lon="17.852182925661">
        <ele>47.4</ele>
        <time>2018-01-09T12:02:07Z</time>
      </trkpt>
      <trkpt lat="62.651998666698" lon="17.852169766078">
        <ele>47.4</ele>
        <time>2018-01-09T12:02:08Z</time>
      </trkpt>
      <trkpt lat="62.652015430498" lon="17.852160881264">
        <ele>47.6</ele>
        <time>2018-01-09T12:02:09Z</time>
      </trkpt>
      <trkpt lat="62.652034457411" lon="17.852132801899">
        <ele>47.8</ele>
        <time>2018-01-09T12:02:10Z</time>
      </trkpt>
      <trkpt lat="62.65205214322" lon="17.852119642316">
        <ele>48</ele>
        <time>2018-01-09T12:02:11Z</time>
      </trkpt>
      <trkpt lat="62.652067985011" lon="17.852099777213">
        <ele>48.2</ele>
        <time>2018-01-09T12:02:12Z</time>
      </trkpt>
      <trkpt lat="62.652080474042" lon="17.85207991211">
        <ele>48.6</ele>
        <time>2018-01-09T12:02:13Z</time>
      </trkpt>
      <trkpt lat="62.652108134312" lon="17.852046468329">
        <ele>48.6</ele>
        <time>2018-01-09T12:02:14Z</time>
      </trkpt>
      <trkpt lat="62.652124981931" lon="17.852026687045">
        <ele>48.8</ele>
        <time>2018-01-09T12:02:15Z</time>
      </trkpt>
      <trkpt lat="62.652140236989" lon="17.85201285691">
        <ele>49</ele>
        <time>2018-01-09T12:02:16Z</time>
      </trkpt>
      <trkpt lat="62.652159934454" lon="17.851995506377">
        <ele>49</ele>
        <time>2018-01-09T12:02:17Z</time>
      </trkpt>
      <trkpt lat="62.652179045186" lon="17.851969103392">
        <ele>49</ele>
        <time>2018-01-09T12:02:18Z</time>
      </trkpt>
      <trkpt lat="62.65219128276" lon="17.851950998488">
        <ele>49</ele>
        <time>2018-01-09T12:02:19Z</time>
      </trkpt>
      <trkpt lat="62.652206705456" lon="17.851931049566">
        <ele>49.2</ele>
        <time>2018-01-09T12:02:20Z</time>
      </trkpt>
      <trkpt lat="62.65222732493" lon="17.851908502255">
        <ele>49.2</ele>
        <time>2018-01-09T12:02:21Z</time>
      </trkpt>
      <trkpt lat="62.652243166721" lon="17.851879500881">
        <ele>49.4</ele>
        <time>2018-01-09T12:02:22Z</time>
      </trkpt>
      <trkpt lat="62.652255236657" lon="17.851848823127">
        <ele>49.6</ele>
        <time>2018-01-09T12:02:23Z</time>
      </trkpt>
      <trkpt lat="62.652273341561" lon="17.851830299128">
        <ele>49.8</ele>
        <time>2018-01-09T12:02:24Z</time>
      </trkpt>
      <trkpt lat="62.652285746773" lon="17.851813619147">
        <ele>50</ele>
        <time>2018-01-09T12:02:25Z</time>
      </trkpt>
      <trkpt lat="62.652298990175" lon="17.85178989837">
        <ele>50</ele>
        <time>2018-01-09T12:02:26Z</time>
      </trkpt>
      <trkpt lat="62.652313071767" lon="17.851767015783">
        <ele>50.2</ele>
        <time>2018-01-09T12:02:27Z</time>
      </trkpt>
      <trkpt lat="62.652327153359" lon="17.851750587259">
        <ele>50.4</ele>
        <time>2018-01-09T12:02:28Z</time>
      </trkpt>
      <trkpt lat="62.652339726209" lon="17.85172787231">
        <ele>50.6</ele>
        <time>2018-01-09T12:02:29Z</time>
      </trkpt>
      <trkpt lat="62.652353807801" lon="17.851708761578">
        <ele>50.8</ele>
        <time>2018-01-09T12:02:30Z</time>
      </trkpt>
      <trkpt lat="62.652363363167" lon="17.85169434471">
        <ele>51</ele>
        <time>2018-01-09T12:02:31Z</time>
      </trkpt>
      <trkpt lat="62.652378366768" lon="17.851679760204">
        <ele>51.4</ele>
        <time>2018-01-09T12:02:32Z</time>
      </trkpt>
      <trkpt lat="62.652389849971" lon="17.851657631988">
        <ele>51.6</ele>
        <time>2018-01-09T12:02:33Z</time>
      </trkpt>
      <trkpt lat="62.652400411165" lon="17.851637431609">
        <ele>51.6</ele>
        <time>2018-01-09T12:02:34Z</time>
      </trkpt>
      <trkpt lat="62.652417174965" lon="17.851619913438">
        <ele>52</ele>
        <time>2018-01-09T12:02:35Z</time>
      </trkpt>
      <trkpt lat="62.65242849053" lon="17.85159543829">
        <ele>52.2</ele>
        <time>2018-01-09T12:02:36Z</time>
      </trkpt>
      <trkpt lat="62.652440560466" lon="17.851573980626">
        <ele>52.4</ele>
        <time>2018-01-09T12:02:37Z</time>
      </trkpt>
      <trkpt lat="62.65245363623" lon="17.851551349496">
        <ele>52.8</ele>
        <time>2018-01-09T12:02:38Z</time>
      </trkpt>
      <trkpt lat="62.652464197424" lon="17.851528299271">
        <ele>52.8</ele>
        <time>2018-01-09T12:02:39Z</time>
      </trkpt>
      <trkpt lat="62.652475680627" lon="17.851501980105">
        <ele>53</ele>
        <time>2018-01-09T12:02:40Z</time>
      </trkpt>
      <trkpt lat="62.652495629549" lon="17.851479181337">
        <ele>53</ele>
        <time>2018-01-09T12:02:41Z</time>
      </trkpt>
      <trkpt lat="62.652514656462" lon="17.851451856343">
        <ele>53.2</ele>
        <time>2018-01-09T12:02:42Z</time>
      </trkpt>
      <trkpt lat="62.652529995339" lon="17.85142193296">
        <ele>53.4</ele>
        <time>2018-01-09T12:02:43Z</time>
      </trkpt>
      <trkpt lat="62.652546256225" lon="17.85139594907">
        <ele>53.4</ele>
        <time>2018-01-09T12:02:44Z</time>
      </trkpt>
      <trkpt lat="62.652560756912" lon="17.851373234121">
        <ele>53.6</ele>
        <time>2018-01-09T12:02:45Z</time>
      </trkpt>
      <trkpt lat="62.652574670866" lon="17.851348339878">
        <ele>53.8</ele>
        <time>2018-01-09T12:02:46Z</time>
      </trkpt>
      <trkpt lat="62.652589590648" lon="17.851318919409">
        <ele>54.2</ele>
        <time>2018-01-09T12:02:47Z</time>
      </trkpt>
      <trkpt lat="62.65260953957" lon="17.851283547791">
        <ele>54.2</ele>
        <time>2018-01-09T12:02:48Z</time>
      </trkpt>
      <trkpt lat="62.652620855135" lon="17.851260329928">
        <ele>54.4</ele>
        <time>2018-01-09T12:02:49Z</time>
      </trkpt>
      <trkpt lat="62.652641474609" lon="17.851232837296">
        <ele>54.6</ele>
        <time>2018-01-09T12:02:50Z</time>
      </trkpt>
      <trkpt lat="62.652660836798" lon="17.851197633316">
        <ele>54.8</ele>
        <time>2018-01-09T12:02:51Z</time>
      </trkpt>
      <trkpt lat="62.652675505123" lon="17.851171062693">
        <ele>54.8</ele>
        <time>2018-01-09T12:02:52Z</time>
      </trkpt>
      <trkpt lat="62.652694364398" lon="17.851146000812">
        <ele>55</ele>
        <time>2018-01-09T12:02:53Z</time>
      </trkpt>
      <trkpt lat="62.652715822062" lon="17.851131835401">
        <ele>55</ele>
        <time>2018-01-09T12:02:54Z</time>
      </trkpt>
      <trkpt lat="62.652735100432" lon="17.851105264778">
        <ele>55</ele>
        <time>2018-01-09T12:02:55Z</time>
      </trkpt>
      <trkpt lat="62.652750690766" lon="17.851096044688">
        <ele>55</ele>
        <time>2018-01-09T12:02:56Z</time>
      </trkpt>
      <trkpt lat="62.652760581408" lon="17.851086908417">
        <ele>55</ele>
        <time>2018-01-09T12:02:57Z</time>
      </trkpt>
      <trkpt lat="62.652771561697" lon="17.851072994463">
        <ele>55.2</ele>
        <time>2018-01-09T12:02:58Z</time>
      </trkpt>
      <trkpt lat="62.652783128719" lon="17.85105648212">
        <ele>55.4</ele>
        <time>2018-01-09T12:02:59Z</time>
      </trkpt>
      <trkpt lat="62.652801820356" lon="17.851037622845">
        <ele>55.6</ele>
        <time>2018-01-09T12:03:00Z</time>
      </trkpt>
      <trkpt lat="62.652816488681" lon="17.851021948692">
        <ele>55.8</ele>
        <time>2018-01-09T12:03:01Z</time>
      </trkpt>
      <trkpt lat="62.652830989368" lon="17.851000993942">
        <ele>56</ele>
        <time>2018-01-09T12:03:02Z</time>
      </trkpt>
      <trkpt lat="62.652841885838" lon="17.850980793563">
        <ele>56.2</ele>
        <time>2018-01-09T12:03:03Z</time>
      </trkpt>
      <trkpt lat="62.652849681005" lon="17.85095589932">
        <ele>56.2</ele>
        <time>2018-01-09T12:03:04Z</time>
      </trkpt>
      <trkpt lat="62.652864265511" lon="17.850908709223">
        <ele>56.2</ele>
        <time>2018-01-09T12:03:05Z</time>
      </trkpt>
      <trkpt lat="62.652869881384" lon="17.850861519126">
        <ele>56.4</ele>
        <time>2018-01-09T12:03:06Z</time>
      </trkpt>
      <trkpt lat="62.652879688207" lon="17.850812820287">
        <ele>56.4</ele>
        <time>2018-01-09T12:03:07Z</time>
      </trkpt>
      <trkpt lat="62.652887148098" lon="17.85076982114">
        <ele>56.6</ele>
        <time>2018-01-09T12:03:08Z</time>
      </trkpt>
      <trkpt lat="62.652893602161" lon="17.850733443694">
        <ele>56.6</ele>
        <time>2018-01-09T12:03:09Z</time>
      </trkpt>
      <trkpt lat="62.65289871512" lon="17.850683822846">
        <ele>56.8</ele>
        <time>2018-01-09T12:03:10Z</time>
      </trkpt>
      <trkpt lat="62.652897374016" lon="17.8506306816">
        <ele>56.8</ele>
        <time>2018-01-09T12:03:11Z</time>
      </trkpt>
      <trkpt lat="62.652902486975" lon="17.850578127087">
        <ele>56.8</ele>
        <time>2018-01-09T12:03:12Z</time>
      </trkpt>
      <trkpt lat="62.652901481147" lon="17.85051165862">
        <ele>56.8</ele>
        <time>2018-01-09T12:03:13Z</time>
      </trkpt>
      <trkpt lat="62.652905253002" lon="17.850453991148">
        <ele>56.6</ele>
        <time>2018-01-09T12:03:14Z</time>
      </trkpt>
      <trkpt lat="62.652909863047" lon="17.850377464401">
        <ele>56.6</ele>
        <time>2018-01-09T12:03:15Z</time>
      </trkpt>
      <trkpt lat="62.652910198323" lon="17.850333375607">
        <ele>56.6</ele>
        <time>2018-01-09T12:03:16Z</time>
      </trkpt>
      <trkpt lat="62.652911790884" lon="17.85025768705">
        <ele>56.6</ele>
        <time>2018-01-09T12:03:17Z</time>
      </trkpt>
      <trkpt lat="62.652916400929" lon="17.850196163904">
        <ele>56.4</ele>
        <time>2018-01-09T12:03:18Z</time>
      </trkpt>
      <trkpt lat="62.652925118105" lon="17.850119888614">
        <ele>56.4</ele>
        <time>2018-01-09T12:03:19Z</time>
      </trkpt>
      <trkpt lat="62.652931823625" lon="17.850049648292">
        <ele>56.2</ele>
        <time>2018-01-09T12:03:20Z</time>
      </trkpt>
      <trkpt lat="62.652938696783" lon="17.849979575608">
        <ele>56.2</ele>
        <time>2018-01-09T12:03:21Z</time>
      </trkpt>
      <trkpt lat="62.652947581597" lon="17.849922913964">
        <ele>56</ele>
        <time>2018-01-09T12:03:22Z</time>
      </trkpt>
      <trkpt lat="62.652958310429" lon="17.849861306999">
        <ele>55.8</ele>
        <time>2018-01-09T12:03:23Z</time>
      </trkpt>
      <trkpt lat="62.652965351225" lon="17.849815290368">
        <ele>55.8</ele>
        <time>2018-01-09T12:03:24Z</time>
      </trkpt>
      <trkpt lat="62.652978510808" lon="17.849761562389">
        <ele>55.8</ele>
        <time>2018-01-09T12:03:25Z</time>
      </trkpt>
      <trkpt lat="62.652984042862" lon="17.849714288473">
        <ele>55.8</ele>
        <time>2018-01-09T12:03:26Z</time>
      </trkpt>
      <trkpt lat="62.652994101142" lon="17.84965251387">
        <ele>55.8</ele>
        <time>2018-01-09T12:03:27Z</time>
      </trkpt>
      <trkpt lat="62.653004662336" lon="17.849574226924">
        <ele>55.8</ele>
        <time>2018-01-09T12:03:28Z</time>
      </trkpt>
      <trkpt lat="62.653011451675" lon="17.849526701551">
        <ele>56</ele>
        <time>2018-01-09T12:03:29Z</time>
      </trkpt>
      <trkpt lat="62.653024192163" lon="17.849466770966">
        <ele>56</ele>
        <time>2018-01-09T12:03:30Z</time>
      </trkpt>
      <trkpt lat="62.653035172452" lon="17.849416311928">
        <ele>56</ele>
        <time>2018-01-09T12:03:31Z</time>
      </trkpt>
      <trkpt lat="62.653044224904" lon="17.849372055496">
        <ele>56</ele>
        <time>2018-01-09T12:03:32Z</time>
      </trkpt>
      <trkpt lat="62.653056546297" lon="17.849317908422">
        <ele>56</ele>
        <time>2018-01-09T12:03:33Z</time>
      </trkpt>
      <trkpt lat="62.65306551493" lon="17.849258396932">
        <ele>56</ele>
        <time>2018-01-09T12:03:34Z</time>
      </trkpt>
      <trkpt lat="62.653073813011" lon="17.849212380301">
        <ele>56.2</ele>
        <time>2018-01-09T12:03:35Z</time>
      </trkpt>
      <trkpt lat="62.653079177427" lon="17.849163765281">
        <ele>56.2</ele>
        <time>2018-01-09T12:03:36Z</time>
      </trkpt>
      <trkpt lat="62.653085799128" lon="17.849097212995">
        <ele>56</ele>
        <time>2018-01-09T12:03:37Z</time>
      </trkpt>
      <trkpt lat="62.653089068069" lon="17.849045831948">
        <ele>56.2</ele>
        <time>2018-01-09T12:03:38Z</time>
      </trkpt>
      <trkpt lat="62.653092085553" lon="17.848987326286">
        <ele>56.2</ele>
        <time>2018-01-09T12:03:39Z</time>
      </trkpt>
      <trkpt lat="62.653096108865" lon="17.848919684353">
        <ele>56</ele>
        <time>2018-01-09T12:03:40Z</time>
      </trkpt>
      <trkpt lat="62.653098958711" lon="17.848863106528">
        <ele>56</ele>
        <time>2018-01-09T12:03:41Z</time>
      </trkpt>
      <trkpt lat="62.653097030874" lon="17.848797979165">
        <ele>56</ele>
        <time>2018-01-09T12:03:42Z</time>
      </trkpt>
      <trkpt lat="62.653093845752" lon="17.848731426879">
        <ele>56.2</ele>
        <time>2018-01-09T12:03:43Z</time>
      </trkpt>
      <trkpt lat="62.653095270675" lon="17.848650709182">
        <ele>56</ele>
        <time>2018-01-09T12:03:44Z</time>
      </trkpt>
      <trkpt lat="62.653087894603" lon="17.848596729746">
        <ele>56</ele>
        <time>2018-01-09T12:03:45Z</time>
      </trkpt>
      <trkpt lat="62.653086721137" lon="17.848527159976">
        <ele>56</ele>
        <time>2018-01-09T12:03:46Z</time>
      </trkpt>
      <trkpt lat="62.653080518531" lon="17.848444598261">
        <ele>56</ele>
        <time>2018-01-09T12:03:47Z</time>
      </trkpt>
      <trkpt lat="62.653079093608" lon="17.848359605795">
        <ele>56</ele>
        <time>2018-01-09T12:03:48Z</time>
      </trkpt>
      <trkpt lat="62.653076998133" lon="17.848279474831">
        <ele>56</ele>
        <time>2018-01-09T12:03:49Z</time>
      </trkpt>
      <trkpt lat="62.653074148287" lon="17.848196410202">
        <ele>55.8</ele>
        <time>2018-01-09T12:03:50Z</time>
      </trkpt>
      <trkpt lat="62.653066604577" lon="17.848112842659">
        <ele>55.6</ele>
        <time>2018-01-09T12:03:51Z</time>
      </trkpt>
      <trkpt lat="62.653060737247" lon="17.848023323967">
        <ele>55</ele>
        <time>2018-01-09T12:03:52Z</time>
      </trkpt>
      <trkpt lat="62.653050930424" lon="17.847919053131">
        <ele>54.4</ele>
        <time>2018-01-09T12:03:53Z</time>
      </trkpt>
      <trkpt lat="62.653039111945" lon="17.847820984901">
        <ele>53.8</ele>
        <time>2018-01-09T12:03:54Z</time>
      </trkpt>
      <trkpt lat="62.653026455276" lon="17.847707493975">
        <ele>53</ele>
        <time>2018-01-09T12:03:55Z</time>
      </trkpt>
      <trkpt lat="62.65301522353" lon="17.847593416316">
        <ele>52.6</ele>
        <time>2018-01-09T12:03:56Z</time>
      </trkpt>
      <trkpt lat="62.653008769467" lon="17.847497192104">
        <ele>52.2</ele>
        <time>2018-01-09T12:03:57Z</time>
      </trkpt>
      <trkpt lat="62.653003740327" lon="17.847389987603">
        <ele>51.8</ele>
        <time>2018-01-09T12:03:58Z</time>
      </trkpt>
      <trkpt lat="62.653004075603" lon="17.847272305727">
        <ele>51.4</ele>
        <time>2018-01-09T12:03:59Z</time>
      </trkpt>
      <trkpt lat="62.653001644852" lon="17.847170298004">
        <ele>51.2</ele>
        <time>2018-01-09T12:04:00Z</time>
      </trkpt>
      <trkpt lat="62.652999465558" lon="17.84710441627">
        <ele>51.2</ele>
        <time>2018-01-09T12:04:01Z</time>
      </trkpt>
      <trkpt lat="62.652989574916" lon="17.84702143546">
        <ele>51.6</ele>
        <time>2018-01-09T12:04:02Z</time>
      </trkpt>
      <trkpt lat="62.652989491097" lon="17.846944741075">
        <ele>51.6</ele>
        <time>2018-01-09T12:04:03Z</time>
      </trkpt>
      <trkpt lat="62.65298840145" lon="17.846877853513">
        <ele>52.2</ele>
        <time>2018-01-09T12:04:04Z</time>
      </trkpt>
      <trkpt lat="62.652996950988" lon="17.846809038114">
        <ele>52.2</ele>
        <time>2018-01-09T12:04:05Z</time>
      </trkpt>
      <trkpt lat="62.653009020924" lon="17.846733601014">
        <ele>52.2</ele>
        <time>2018-01-09T12:04:06Z</time>
      </trkpt>
      <trkpt lat="62.653026287638" lon="17.84668196851">
        <ele>52.2</ele>
        <time>2018-01-09T12:04:07Z</time>
      </trkpt>
      <trkpt lat="62.653042632343" lon="17.846630419825">
        <ele>52.4</ele>
        <time>2018-01-09T12:04:08Z</time>
      </trkpt>
      <trkpt lat="62.653051852433" lon="17.846590019067">
        <ele>52.6</ele>
        <time>2018-01-09T12:04:09Z</time>
      </trkpt>
      <trkpt lat="62.653071549898" lon="17.846536374907">
        <ele>52.6</ele>
        <time>2018-01-09T12:04:10Z</time>
      </trkpt>
      <trkpt lat="62.653090744449" lon="17.846479042711">
        <ele>52.8</ele>
        <time>2018-01-09T12:04:11Z</time>
      </trkpt>
      <trkpt lat="62.653110022819" lon="17.846421878153">
        <ele>52.8</ele>
        <time>2018-01-09T12:04:12Z</time>
      </trkpt>
      <trkpt lat="62.653130390836" lon="17.846355744962">
        <ele>52.6</ele>
        <time>2018-01-09T12:04:13Z</time>
      </trkpt>
      <trkpt lat="62.653147238455" lon="17.846286091373">
        <ele>52.6</ele>
        <time>2018-01-09T12:04:14Z</time>
      </trkpt>
      <trkpt lat="62.653173054707" lon="17.846220293458">
        <ele>52.4</ele>
        <time>2018-01-09T12:04:15Z</time>
      </trkpt>
      <trkpt lat="62.653197446036" lon="17.846157932122">
        <ele>52.4</ele>
        <time>2018-01-09T12:04:16Z</time>
      </trkpt>
      <trkpt lat="62.653214964207" lon="17.846105880523">
        <ele>52.2</ele>
        <time>2018-01-09T12:04:17Z</time>
      </trkpt>
      <trkpt lat="62.653241702468" lon="17.84603991497">
        <ele>52.2</ele>
        <time>2018-01-09T12:04:18Z</time>
      </trkpt>
      <trkpt lat="62.653258550087" lon="17.845991719045">
        <ele>52.2</ele>
        <time>2018-01-09T12:04:19Z</time>
      </trkpt>
      <trkpt lat="62.65328428252" lon="17.845938913075">
        <ele>52.4</ele>
        <time>2018-01-09T12:04:20Z</time>
      </trkpt>
      <trkpt lat="62.653302052148" lon="17.845879569223">
        <ele>52.4</ele>
        <time>2018-01-09T12:04:21Z</time>
      </trkpt>
      <trkpt lat="62.653332646083" lon="17.84582114738">
        <ele>52.4</ele>
        <time>2018-01-09T12:04:22Z</time>
      </trkpt>
      <trkpt lat="62.653353433195" lon="17.845767335582">
        <ele>52.4</ele>
        <time>2018-01-09T12:04:23Z</time>
      </trkpt>
      <trkpt lat="62.653381428741" lon="17.845714026698">
        <ele>52.2</ele>
        <time>2018-01-09T12:04:24Z</time>
      </trkpt>
      <trkpt lat="62.653412357952" lon="17.845661304547">
        <ele>52</ele>
        <time>2018-01-09T12:04:25Z</time>
      </trkpt>
      <trkpt lat="62.653444544448" lon="17.845611935156">
        <ele>52</ele>
        <time>2018-01-09T12:04:26Z</time>
      </trkpt>
      <trkpt lat="62.653481424808" lon="17.845563571593">
        <ele>51.8</ele>
        <time>2018-01-09T12:04:27Z</time>
      </trkpt>
      <trkpt lat="62.653522999032" lon="17.845507831958">
        <ele>51.6</ele>
        <time>2018-01-09T12:04:28Z</time>
      </trkpt>
      <trkpt lat="62.653565579084" lon="17.845452511418">
        <ele>51.6</ele>
        <time>2018-01-09T12:04:29Z</time>
      </trkpt>
      <trkpt lat="62.653605560747" lon="17.845387551693">
        <ele>51.4</ele>
        <time>2018-01-09T12:04:30Z</time>
      </trkpt>
      <trkpt lat="62.653640932365" lon="17.845298787372">
        <ele>51.2</ele>
        <time>2018-01-09T12:04:31Z</time>
      </trkpt>
      <trkpt lat="62.653675801069" lon="17.845194432717">
        <ele>50.8</ele>
        <time>2018-01-09T12:04:32Z</time>
      </trkpt>
      <trkpt lat="62.653702455511" lon="17.845077253755">
        <ele>50.2</ele>
        <time>2018-01-09T12:04:33Z</time>
      </trkpt>
      <trkpt lat="62.653728942315" lon="17.844974826937">
        <ele>49.8</ele>
        <time>2018-01-09T12:04:34Z</time>
      </trkpt>
      <trkpt lat="62.653758614241" lon="17.844866700427">
        <ele>49.2</ele>
        <time>2018-01-09T12:04:35Z</time>
      </trkpt>
      <trkpt lat="62.653785855416" lon="17.844772823147">
        <ele>48.4</ele>
        <time>2018-01-09T12:04:36Z</time>
      </trkpt>
      <trkpt lat="62.653814689152" lon="17.84469378183">
        <ele>47.8</ele>
        <time>2018-01-09T12:04:37Z</time>
      </trkpt>
      <trkpt lat="62.653838745205" lon="17.844625469345">
        <ele>47.4</ele>
        <time>2018-01-09T12:04:38Z</time>
      </trkpt>
      <trkpt lat="62.653861879249" lon="17.844565790217">
        <ele>46.8</ele>
        <time>2018-01-09T12:04:39Z</time>
      </trkpt>
      <trkpt lat="62.653886354397" lon="17.844505859632">
        <ele>46.6</ele>
        <time>2018-01-09T12:04:40Z</time>
      </trkpt>
      <trkpt lat="62.653910494269" lon="17.844451125825">
        <ele>46.2</ele>
        <time>2018-01-09T12:04:41Z</time>
      </trkpt>
      <trkpt lat="62.653934382684" lon="17.844397649303">
        <ele>45.8</ele>
        <time>2018-01-09T12:04:42Z</time>
      </trkpt>
      <trkpt lat="62.653963048782" lon="17.844338976003">
        <ele>45.6</ele>
        <time>2018-01-09T12:04:43Z</time>
      </trkpt>
      <trkpt lat="62.653989870862" lon="17.844278542504">
        <ele>45.4</ele>
        <time>2018-01-09T12:04:44Z</time>
      </trkpt>
      <trkpt lat="62.65401602239" lon="17.844229256932">
        <ele>45</ele>
        <time>2018-01-09T12:04:45Z</time>
      </trkpt>
      <trkpt lat="62.65404200628" lon="17.844188604717">
        <ele>44.6</ele>
        <time>2018-01-09T12:04:46Z</time>
      </trkpt>
      <trkpt lat="62.654071594387" lon="17.844151221443">
        <ele>44.2</ele>
        <time>2018-01-09T12:04:47Z</time>
      </trkpt>
      <trkpt lat="62.654103780883" lon="17.844120627508">
        <ele>43.8</ele>
        <time>2018-01-09T12:04:48Z</time>
      </trkpt>
      <trkpt lat="62.65413588356" lon="17.844093470152">
        <ele>43.4</ele>
        <time>2018-01-09T12:04:49Z</time>
      </trkpt>
      <trkpt lat="62.654172847739" lon="17.844066899529">
        <ele>43</ele>
        <time>2018-01-09T12:04:50Z</time>
      </trkpt>
      <trkpt lat="62.654208470814" lon="17.844048794625">
        <ele>42.4</ele>
        <time>2018-01-09T12:04:51Z</time>
      </trkpt>
      <trkpt lat="62.654247949563" lon="17.844028845703">
        <ele>41.8</ele>
        <time>2018-01-09T12:04:52Z</time>
      </trkpt>
      <trkpt lat="62.654291535443" lon="17.844011998084">
        <ele>41.2</ele>
        <time>2018-01-09T12:04:53Z</time>
      </trkpt>
      <trkpt lat="62.654335624237" lon="17.843992971171">
        <ele>40.6</ele>
        <time>2018-01-09T12:04:54Z</time>
      </trkpt>
      <trkpt lat="62.654377366099" lon="17.843979224855">
        <ele>39.8</ele>
        <time>2018-01-09T12:04:55Z</time>
      </trkpt>
      <trkpt lat="62.654414917011" lon="17.843975704457">
        <ele>39</ele>
        <time>2018-01-09T12:04:56Z</time>
      </trkpt>
      <trkpt lat="62.654455150131" lon="17.843968915118">
        <ele>38.2</ele>
        <time>2018-01-09T12:04:57Z</time>
      </trkpt>
      <trkpt lat="62.654499574201" lon="17.843962293417">
        <ele>37.6</ele>
        <time>2018-01-09T12:04:58Z</time>
      </trkpt>
      <trkpt lat="62.654568557238" lon="17.843950139662">
        <ele>36.8</ele>
        <time>2018-01-09T12:04:59Z</time>
      </trkpt>
      <trkpt lat="62.654621614665" lon="17.843945613436">
        <ele>35.6</ele>
        <time>2018-01-09T12:05:00Z</time>
      </trkpt>
      <trkpt lat="62.654671906065" lon="17.84393521988">
        <ele>34.4</ele>
        <time>2018-01-09T12:05:01Z</time>
      </trkpt>
      <trkpt lat="62.654721526913" lon="17.843924155772">
        <ele>33.2</ele>
        <time>2018-01-09T12:05:02Z</time>
      </trkpt>
      <trkpt lat="62.654771985951" lon="17.843908816895">
        <ele>32</ele>
        <time>2018-01-09T12:05:03Z</time>
      </trkpt>
      <trkpt lat="62.654809536863" lon="17.843893142742">
        <ele>31</ele>
        <time>2018-01-09T12:05:04Z</time>
      </trkpt>
      <trkpt lat="62.654854882942" lon="17.843877552408">
        <ele>30.4</ele>
        <time>2018-01-09T12:05:05Z</time>
      </trkpt>
      <trkpt lat="62.654898971736" lon="17.843861878255">
        <ele>30</ele>
        <time>2018-01-09T12:05:06Z</time>
      </trkpt>
      <trkpt lat="62.654949179317" lon="17.843843521894">
        <ele>29.6</ele>
        <time>2018-01-09T12:05:07Z</time>
      </trkpt>
      <trkpt lat="62.655003829305" lon="17.843815693986">
        <ele>29.2</ele>
        <time>2018-01-09T12:05:08Z</time>
      </trkpt>
      <trkpt lat="62.655048253375" lon="17.843783256033">
        <ele>29</ele>
        <time>2018-01-09T12:05:09Z</time>
      </trkpt>
      <trkpt lat="62.65509812568" lon="17.843756936867">
        <ele>28.8</ele>
        <time>2018-01-09T12:05:10Z</time>
      </trkpt>
      <trkpt lat="62.655144729044" lon="17.843734724832">
        <ele>28.4</ele>
        <time>2018-01-09T12:05:11Z</time>
      </trkpt>
      <trkpt lat="62.655188147286" lon="17.843719050679">
        <ele>28</ele>
        <time>2018-01-09T12:05:12Z</time>
      </trkpt>
      <trkpt lat="62.655236846125" lon="17.843708824761">
        <ele>27.4</ele>
        <time>2018-01-09T12:05:13Z</time>
      </trkpt>
      <trkpt lat="62.655280264367" lon="17.843714356815">
        <ele>26.8</ele>
        <time>2018-01-09T12:05:14Z</time>
      </trkpt>
      <trkpt lat="62.655319826935" lon="17.843725085647">
        <ele>26.2</ele>
        <time>2018-01-09T12:05:15Z</time>
      </trkpt>
      <trkpt lat="62.655363245177" lon="17.843747297682">
        <ele>25.8</ele>
        <time>2018-01-09T12:05:16Z</time>
      </trkpt>
      <trkpt lat="62.655406663419" lon="17.843774706495">
        <ele>25.6</ele>
        <time>2018-01-09T12:05:17Z</time>
      </trkpt>
      <trkpt lat="62.655457793009" lon="17.843804713697">
        <ele>25.4</ele>
        <time>2018-01-09T12:05:18Z</time>
      </trkpt>
      <trkpt lat="62.655506408029" lon="17.843841426419">
        <ele>25.2</ele>
        <time>2018-01-09T12:05:19Z</time>
      </trkpt>
      <trkpt lat="62.655561477112" lon="17.843887945964">
        <ele>25</ele>
        <time>2018-01-09T12:05:20Z</time>
      </trkpt>
      <trkpt lat="62.655615540367" lon="17.843941422486">
        <ele>24.4</ele>
        <time>2018-01-09T12:05:21Z</time>
      </trkpt>
      <trkpt lat="62.655674968038" lon="17.844007890953">
        <ele>23.6</ele>
        <time>2018-01-09T12:05:22Z</time>
      </trkpt>
      <trkpt lat="62.655739760125" lon="17.844089111564">
        <ele>22.4</ele>
        <time>2018-01-09T12:05:23Z</time>
      </trkpt>
      <trkpt lat="62.655798768701" lon="17.844172511469">
        <ele>21.4</ele>
        <time>2018-01-09T12:05:24Z</time>
      </trkpt>
      <trkpt lat="62.655855597983" lon="17.844262533075">
        <ele>20.4</ele>
        <time>2018-01-09T12:05:25Z</time>
      </trkpt>
      <trkpt lat="62.655911253799" lon="17.844356158898">
        <ele>19.4</ele>
        <time>2018-01-09T12:05:26Z</time>
      </trkpt>
      <trkpt lat="62.655958862991" lon="17.844434278206">
        <ele>18.8</ele>
        <time>2018-01-09T12:05:27Z</time>
      </trkpt>
      <trkpt lat="62.656013177703" lon="17.844523796898">
        <ele>18.2</ele>
        <time>2018-01-09T12:05:28Z</time>
      </trkpt>
      <trkpt lat="62.656060032524" lon="17.844599736912">
        <ele>17.8</ele>
        <time>2018-01-09T12:05:29Z</time>
      </trkpt>
      <trkpt lat="62.656100014187" lon="17.844664948094">
        <ele>17.8</ele>
        <time>2018-01-09T12:05:30Z</time>
      </trkpt>
      <trkpt lat="62.656141420773" lon="17.844729488724">
        <ele>17.6</ele>
        <time>2018-01-09T12:05:31Z</time>
      </trkpt>
      <trkpt lat="62.656183833187" lon="17.844796711562">
        <ele>17.4</ele>
        <time>2018-01-09T12:05:32Z</time>
      </trkpt>
      <trkpt lat="62.656225323592" lon="17.844862425658">
        <ele>17.4</ele>
        <time>2018-01-09T12:05:33Z</time>
      </trkpt>
      <trkpt lat="62.65626740073" lon="17.844927720659">
        <ele>17.4</ele>
        <time>2018-01-09T12:05:34Z</time>
      </trkpt>
      <trkpt lat="62.656303023805" lon="17.844985807226">
        <ele>17.4</ele>
        <time>2018-01-09T12:05:35Z</time>
      </trkpt>
      <trkpt lat="62.656342502554" lon="17.845054622625">
        <ele>17.2</ele>
        <time>2018-01-09T12:05:36Z</time>
      </trkpt>
      <trkpt lat="62.656381813665" lon="17.845107093319">
        <ele>17.4</ele>
        <time>2018-01-09T12:05:37Z</time>
      </trkpt>
      <trkpt lat="62.656425148088" lon="17.845164760791">
        <ele>17.6</ele>
        <time>2018-01-09T12:05:38Z</time>
      </trkpt>
      <trkpt lat="62.656459094783" lon="17.845208933404">
        <ele>17.8</ele>
        <time>2018-01-09T12:05:39Z</time>
      </trkpt>
      <trkpt lat="62.656503518853" lon="17.845261823193">
        <ele>18</ele>
        <time>2018-01-09T12:05:40Z</time>
      </trkpt>
      <trkpt lat="62.65653729791" lon="17.845290405472">
        <ele>18.2</ele>
        <time>2018-01-09T12:05:41Z</time>
      </trkpt>
      <trkpt lat="62.656575687012" lon="17.845340277777">
        <ele>18.2</ele>
        <time>2018-01-09T12:05:42Z</time>
      </trkpt>
      <trkpt lat="62.656618769978" lon="17.845383025467">
        <ele>18</ele>
        <time>2018-01-09T12:05:43Z</time>
      </trkpt>
      <trkpt lat="62.656655985614" lon="17.845425354062">
        <ele>17.8</ele>
        <time>2018-01-09T12:05:44Z</time>
      </trkpt>
      <trkpt lat="62.656690435223" lon="17.845478746765">
        <ele>17.4</ele>
        <time>2018-01-09T12:05:45Z</time>
      </trkpt>
      <trkpt lat="62.656719771873" lon="17.845526355957">
        <ele>17.2</ele>
        <time>2018-01-09T12:05:46Z</time>
      </trkpt>
      <trkpt lat="62.656752880378" lon="17.845587627646">
        <ele>17</ele>
        <time>2018-01-09T12:05:47Z</time>
      </trkpt>
      <trkpt lat="62.656792694403" lon="17.84565267119">
        <ele>16.8</ele>
        <time>2018-01-09T12:05:48Z</time>
      </trkpt>
      <trkpt lat="62.656827395469" lon="17.845703130228">
        <ele>16.6</ele>
        <time>2018-01-09T12:05:49Z</time>
      </trkpt>
      <trkpt lat="62.656861845078" lon="17.845743866262">
        <ele>16.6</ele>
        <time>2018-01-09T12:05:50Z</time>
      </trkpt>
      <trkpt lat="62.656897049058" lon="17.845769514876">
        <ele>16.6</ele>
        <time>2018-01-09T12:05:51Z</time>
      </trkpt>
      <trkpt lat="62.656929738468" lon="17.845785859581">
        <ele>16.8</ele>
        <time>2018-01-09T12:05:52Z</time>
      </trkpt>
      <trkpt lat="62.656974078719" lon="17.845800611725">
        <ele>16.8</ele>
        <time>2018-01-09T12:05:53Z</time>
      </trkpt>
      <trkpt lat="62.657010456165" lon="17.845810334729">
        <ele>16.8</ele>
        <time>2018-01-09T12:05:54Z</time>
      </trkpt>
      <trkpt lat="62.657044989593" lon="17.845812094928">
        <ele>16.8</ele>
        <time>2018-01-09T12:05:55Z</time>
      </trkpt>
      <trkpt lat="62.657086731455" lon="17.845816285878">
        <ele>16.8</ele>
        <time>2018-01-09T12:05:56Z</time>
      </trkpt>
      <trkpt lat="62.657116654838" lon="17.845807065788">
        <ele>16.8</ele>
        <time>2018-01-09T12:05:57Z</time>
      </trkpt>
      <trkpt lat="62.657156385044" lon="17.845833217316">
        <ele>16.8</ele>
        <time>2018-01-09T12:05:58Z</time>
      </trkpt>
      <trkpt lat="62.657191002291" lon="17.845862553966">
        <ele>16.8</ele>
        <time>2018-01-09T12:05:59Z</time>
      </trkpt>
      <trkpt lat="62.657211705584" lon="17.845871941694">
        <ele>16.8</ele>
        <time>2018-01-09T12:06:00Z</time>
      </trkpt>
      <trkpt lat="62.657238108569" lon="17.845902367991">
        <ele>16.8</ele>
        <time>2018-01-09T12:06:01Z</time>
      </trkpt>
      <trkpt lat="62.657265852658" lon="17.845935057401">
        <ele>16.8</ele>
        <time>2018-01-09T12:06:02Z</time>
      </trkpt>
      <trkpt lat="62.657291082177" lon="17.845977469815">
        <ele>17</ele>
        <time>2018-01-09T12:06:03Z</time>
      </trkpt>
      <trkpt lat="62.657318071895" lon="17.846022648256">
        <ele>17.2</ele>
        <time>2018-01-09T12:06:04Z</time>
      </trkpt>
      <trkpt lat="62.65734447488" lon="17.84606589886">
        <ele>17.2</ele>
        <time>2018-01-09T12:06:05Z</time>
      </trkpt>
      <trkpt lat="62.657367776562" lon="17.84611032293">
        <ele>17.2</ele>
        <time>2018-01-09T12:06:06Z</time>
      </trkpt>
      <trkpt lat="62.657384456543" lon="17.84615558519">
        <ele>17.2</ele>
        <time>2018-01-09T12:06:07Z</time>
      </trkpt>
      <trkpt lat="62.657407674406" lon="17.846222053657">
        <ele>17.4</ele>
        <time>2018-01-09T12:06:08Z</time>
      </trkpt>
      <trkpt lat="62.657424605844" lon="17.84627628455">
        <ele>17.4</ele>
        <time>2018-01-09T12:06:09Z</time>
      </trkpt>
      <trkpt lat="62.657433490658" lon="17.846377118807">
        <ele>17.6</ele>
        <time>2018-01-09T12:06:10Z</time>
      </trkpt>
      <trkpt lat="62.657446482603" lon="17.846454064649">
        <ele>17.6</ele>
        <time>2018-01-09T12:06:11Z</time>
      </trkpt>
      <trkpt lat="62.657465258059" lon="17.846531010491">
        <ele>17.6</ele>
        <time>2018-01-09T12:06:12Z</time>
      </trkpt>
      <trkpt lat="62.657483865877" lon="17.846601921365">
        <ele>17.6</ele>
        <time>2018-01-09T12:06:13Z</time>
      </trkpt>
      <trkpt lat="62.65750456917" lon="17.846667635461">
        <ele>17.6</ele>
        <time>2018-01-09T12:06:14Z</time>
      </trkpt>
      <trkpt lat="62.657525691558" lon="17.846745838588">
        <ele>17.4</ele>
        <time>2018-01-09T12:06:15Z</time>
      </trkpt>
      <trkpt lat="62.657549412335" lon="17.846802919327">
        <ele>17.2</ele>
        <time>2018-01-09T12:06:16Z</time>
      </trkpt>
      <trkpt lat="62.657571875827" lon="17.846899394996">
        <ele>17.2</ele>
        <time>2018-01-09T12:06:17Z</time>
      </trkpt>
      <trkpt lat="62.657599871373" lon="17.84695689483">
        <ele>17.2</ele>
        <time>2018-01-09T12:06:18Z</time>
      </trkpt>
      <trkpt lat="62.657622586322" lon="17.847051107386">
        <ele>17</ele>
        <time>2018-01-09T12:06:19Z</time>
      </trkpt>
      <trkpt lat="62.657647229108" lon="17.847132495635">
        <ele>16.6</ele>
        <time>2018-01-09T12:06:20Z</time>
      </trkpt>
      <trkpt lat="62.657663657632" lon="17.847220002671">
        <ele>16.6</ele>
        <time>2018-01-09T12:06:21Z</time>
      </trkpt>
      <trkpt lat="62.657682097812" lon="17.847306252422">
        <ele>16.2</ele>
        <time>2018-01-09T12:06:22Z</time>
      </trkpt>
      <trkpt lat="62.657700370354" lon="17.847379929323">
        <ele>16</ele>
        <time>2018-01-09T12:06:23Z</time>
      </trkpt>
      <trkpt lat="62.657718391439" lon="17.847452851853">
        <ele>16</ele>
        <time>2018-01-09T12:06:24Z</time>
      </trkpt>
      <trkpt lat="62.65773842418" lon="17.847518398311">
        <ele>16</ele>
        <time>2018-01-09T12:06:25Z</time>
      </trkpt>
      <trkpt lat="62.657754265971" lon="17.847595847067">
        <ele>15.8</ele>
        <time>2018-01-09T12:06:26Z</time>
      </trkpt>
      <trkpt lat="62.657770694495" lon="17.847662483172">
        <ele>15.8</ele>
        <time>2018-01-09T12:06:27Z</time>
      </trkpt>
      <trkpt lat="62.657789218494" lon="17.847725179784">
        <ele>15.8</ele>
        <time>2018-01-09T12:06:28Z</time>
      </trkpt>
      <trkpt lat="62.657808664502" lon="17.847801035979">
        <ele>15.8</ele>
        <time>2018-01-09T12:06:29Z</time>
      </trkpt>
      <trkpt lat="62.65783062508" lon="17.847868510274">
        <ele>15.8</ele>
        <time>2018-01-09T12:06:30Z</time>
      </trkpt>
      <trkpt lat="62.657852166563" lon="17.847942857727">
        <ele>16</ele>
        <time>2018-01-09T12:06:31Z</time>
      </trkpt>
      <trkpt lat="62.657876138797" lon="17.848003123588">
        <ele>15.8</ele>
        <time>2018-01-09T12:06:32Z</time>
      </trkpt>
      <trkpt lat="62.657898183194" lon="17.848070430245">
        <ele>15.8</ele>
        <time>2018-01-09T12:06:33Z</time>
      </trkpt>
      <trkpt lat="62.657921401057" lon="17.848140502929">
        <ele>15.4</ele>
        <time>2018-01-09T12:06:34Z</time>
      </trkpt>
      <trkpt lat="62.657954593381" lon="17.848193644175">
        <ele>15.4</ele>
        <time>2018-01-09T12:06:35Z</time>
      </trkpt>
      <trkpt lat="62.657982421289" lon="17.84826279485">
        <ele>15.2</ele>
        <time>2018-01-09T12:06:36Z</time>
      </trkpt>
      <trkpt lat="62.658003711315" lon="17.848315097906">
        <ele>15</ele>
        <time>2018-01-09T12:06:37Z</time>
      </trkpt>
      <trkpt lat="62.658029192291" lon="17.848373687387">
        <ele>15</ele>
        <time>2018-01-09T12:06:38Z</time>
      </trkpt>
      <trkpt lat="62.658052493973" lon="17.848419955475">
        <ele>15</ele>
        <time>2018-01-09T12:06:39Z</time>
      </trkpt>
      <trkpt lat="62.658081076252" lon="17.848467899943">
        <ele>15</ele>
        <time>2018-01-09T12:06:40Z</time>
      </trkpt>
      <trkpt lat="62.658104629391" lon="17.848535793333">
        <ele>15.2</ele>
        <time>2018-01-09T12:06:41Z</time>
      </trkpt>
      <trkpt lat="62.658129942729" lon="17.848586252371">
        <ele>15</ele>
        <time>2018-01-09T12:06:42Z</time>
      </trkpt>
      <trkpt lat="62.658160285207" lon="17.848658336711">
        <ele>14.8</ele>
        <time>2018-01-09T12:06:43Z</time>
      </trkpt>
      <trkpt lat="62.658188951305" lon="17.84872966668">
        <ele>14.2</ele>
        <time>2018-01-09T12:06:44Z</time>
      </trkpt>
      <trkpt lat="62.658216443937" lon="17.848798984993">
        <ele>13.8</ele>
        <time>2018-01-09T12:06:45Z</time>
      </trkpt>
      <trkpt lat="62.658242930741" lon="17.84885120423">
        <ele>13.4</ele>
        <time>2018-01-09T12:06:46Z</time>
      </trkpt>
      <trkpt lat="62.658269585183" lon="17.848915241946">
        <ele>13.2</ele>
        <time>2018-01-09T12:06:47Z</time>
      </trkpt>
      <trkpt lat="62.658295233797" lon="17.848983051517">
        <ele>13.2</ele>
        <time>2018-01-09T12:06:48Z</time>
      </trkpt>
      <trkpt lat="62.658314009253" lon="17.849024625741">
        <ele>13.6</ele>
        <time>2018-01-09T12:06:49Z</time>
      </trkpt>
      <trkpt lat="62.658338149125" lon="17.849090256018">
        <ele>13.6</ele>
        <time>2018-01-09T12:06:50Z</time>
      </trkpt>
      <trkpt lat="62.658351308708" lon="17.849132668432">
        <ele>13.6</ele>
        <time>2018-01-09T12:06:51Z</time>
      </trkpt>
      <trkpt lat="62.658375532399" lon="17.849185390583">
        <ele>13.8</ele>
        <time>2018-01-09T12:06:52Z</time>
      </trkpt>
      <trkpt lat="62.658395397502" lon="17.849258480751">
        <ele>13.6</ele>
        <time>2018-01-09T12:06:53Z</time>
      </trkpt>
      <trkpt lat="62.658411658388" lon="17.849309945617">
        <ele>13.6</ele>
        <time>2018-01-09T12:06:54Z</time>
      </trkpt>
      <trkpt lat="62.658431104396" lon="17.849370546754">
        <ele>13.6</ele>
        <time>2018-01-09T12:06:55Z</time>
      </trkpt>
      <trkpt lat="62.658449879852" lon="17.849429639149">
        <ele>13.6</ele>
        <time>2018-01-09T12:06:56Z</time>
      </trkpt>
      <trkpt lat="62.658466895109" lon="17.849479511454">
        <ele>13.6</ele>
        <time>2018-01-09T12:06:57Z</time>
      </trkpt>
      <trkpt lat="62.658483155995" lon="17.849569952155">
        <ele>13.4</ele>
        <time>2018-01-09T12:06:58Z</time>
      </trkpt>
      <trkpt lat="62.658483407452" lon="17.849667349833">
        <ele>13.2</ele>
        <time>2018-01-09T12:06:59Z</time>
      </trkpt>
      <trkpt lat="62.658464715815" lon="17.849755946516">
        <ele>13</ele>
        <time>2018-01-09T12:07:00Z</time>
      </trkpt>
      <trkpt lat="62.658439486296" lon="17.849816380015">
        <ele>12.8</ele>
        <time>2018-01-09T12:07:01Z</time>
      </trkpt>
      <trkpt lat="62.658413753863" lon="17.849858205696">
        <ele>12.6</ele>
        <time>2018-01-09T12:07:02Z</time>
      </trkpt>
      <trkpt lat="62.658388691982" lon="17.849870778546">
        <ele>12.6</ele>
        <time>2018-01-09T12:07:03Z</time>
      </trkpt>
      <trkpt lat="62.658364803567" lon="17.84987128146">
        <ele>12.6</ele>
        <time>2018-01-09T12:07:04Z</time>
      </trkpt>
      <trkpt lat="62.658339909324" lon="17.849873963668">
        <ele>13</ele>
        <time>2018-01-09T12:07:05Z</time>
      </trkpt>
      <trkpt lat="62.658319625126" lon="17.849878406075">
        <ele>13.4</ele>
        <time>2018-01-09T12:07:06Z</time>
      </trkpt>
      <trkpt lat="62.658300765851" lon="17.849885111595">
        <ele>13.6</ele>
        <time>2018-01-09T12:07:07Z</time>
      </trkpt>
      <trkpt lat="62.658277296531" lon="17.849889554002">
        <ele>13.8</ele>
        <time>2018-01-09T12:07:08Z</time>
      </trkpt>
      <trkpt lat="62.658260113636" lon="17.8498846925">
        <ele>13.8</ele>
        <time>2018-01-09T12:07:09Z</time>
      </trkpt>
      <trkpt lat="62.658241421999" lon="17.849886955613">
        <ele>13.8</ele>
        <time>2018-01-09T12:07:10Z</time>
      </trkpt>
      <trkpt lat="62.65821954524" lon="17.849887877622">
        <ele>14</ele>
        <time>2018-01-09T12:07:11Z</time>
      </trkpt>
      <trkpt lat="62.65820194325" lon="17.849886620337">
        <ele>14</ele>
        <time>2018-01-09T12:07:12Z</time>
      </trkpt>
      <trkpt lat="62.658183754527" lon="17.849891314201">
        <ele>14</ele>
        <time>2018-01-09T12:07:13Z</time>
      </trkpt>
      <trkpt lat="62.658161458673" lon="17.849894331685">
        <ele>14.2</ele>
        <time>2018-01-09T12:07:14Z</time>
      </trkpt>
      <trkpt lat="62.658138073172" lon="17.849898774092">
        <ele>14.2</ele>
        <time>2018-01-09T12:07:15Z</time>
      </trkpt>
      <trkpt lat="62.65811477149" lon="17.849908916191">
        <ele>14.2</ele>
        <time>2018-01-09T12:07:16Z</time>
      </trkpt>
      <trkpt lat="62.658093062369" lon="17.849913945331">
        <ele>14.2</ele>
        <time>2018-01-09T12:07:17Z</time>
      </trkpt>
      <trkpt lat="62.658064899185" lon="17.849915789349">
        <ele>14.4</ele>
        <time>2018-01-09T12:07:18Z</time>
      </trkpt>
      <trkpt lat="62.65804771629" lon="17.849926769638">
        <ele>14.4</ele>
        <time>2018-01-09T12:07:19Z</time>
      </trkpt>
      <trkpt lat="62.658023324961" lon="17.849930290036">
        <ele>14.4</ele>
        <time>2018-01-09T12:07:20Z</time>
      </trkpt>
      <trkpt lat="62.657998598356" lon="17.849930960588">
        <ele>14.4</ele>
        <time>2018-01-09T12:07:21Z</time>
      </trkpt>
      <trkpt lat="62.65797814652" lon="17.849932804606">
        <ele>14.4</ele>
        <time>2018-01-09T12:07:22Z</time>
      </trkpt>
      <trkpt lat="62.657943613092" lon="17.849928529837">
        <ele>14.4</ele>
        <time>2018-01-09T12:07:23Z</time>
      </trkpt>
      <trkpt lat="62.657913857347" lon="17.849932720787">
        <ele>14.6</ele>
        <time>2018-01-09T12:07:24Z</time>
      </trkpt>
      <trkpt lat="62.657888041095" lon="17.84992911657">
        <ele>14.4</ele>
        <time>2018-01-09T12:07:25Z</time>
      </trkpt>
      <trkpt lat="62.657866751069" lon="17.849924171249">
        <ele>14.4</ele>
        <time>2018-01-09T12:07:26Z</time>
      </trkpt>
      <trkpt lat="62.657851998925" lon="17.849917214272">
        <ele>14.4</ele>
        <time>2018-01-09T12:07:27Z</time>
      </trkpt>
      <trkpt lat="62.657836995324" lon="17.849909083829">
        <ele>14.8</ele>
        <time>2018-01-09T12:07:28Z</time>
      </trkpt>
      <trkpt lat="62.657819477153" lon="17.849903635594">
        <ele>15</ele>
        <time>2018-01-09T12:07:29Z</time>
      </trkpt>
      <trkpt lat="62.657804138276" lon="17.849900534291">
        <ele>15.2</ele>
        <time>2018-01-09T12:07:30Z</time>
      </trkpt>
      <trkpt lat="62.657788799399" lon="17.849898019721">
        <ele>15.6</ele>
        <time>2018-01-09T12:07:31Z</time>
      </trkpt>
      <trkpt lat="62.657773963436" lon="17.849891146563">
        <ele>15.8</ele>
        <time>2018-01-09T12:07:32Z</time>
      </trkpt>
      <trkpt lat="62.65775854074" lon="17.849885111595">
        <ele>16.2</ele>
        <time>2018-01-09T12:07:33Z</time>
      </trkpt>
      <trkpt lat="62.657742531311" lon="17.849878908989">
        <ele>16.4</ele>
        <time>2018-01-09T12:07:34Z</time>
      </trkpt>
      <trkpt lat="62.657722917665" lon="17.849874298944">
        <ele>16.6</ele>
        <time>2018-01-09T12:07:35Z</time>
      </trkpt>
      <trkpt lat="62.657708584616" lon="17.849868263976">
        <ele>17</ele>
        <time>2018-01-09T12:07:36Z</time>
      </trkpt>
      <trkpt lat="62.657677068672" lon="17.849869018347">
        <ele>17</ele>
        <time>2018-01-09T12:07:37Z</time>
      </trkpt>
      <trkpt lat="62.65765125242" lon="17.849871449098">
        <ele>17</ele>
        <time>2018-01-09T12:07:38Z</time>
      </trkpt>
      <trkpt lat="62.657633734249" lon="17.84987295784">
        <ele>17.2</ele>
        <time>2018-01-09T12:07:39Z</time>
      </trkpt>
      <trkpt lat="62.657612444223" lon="17.849873628392">
        <ele>17</ele>
        <time>2018-01-09T12:07:40Z</time>
      </trkpt>
      <trkpt lat="62.657589393998" lon="17.849879998636">
        <ele>17</ele>
        <time>2018-01-09T12:07:41Z</time>
      </trkpt>
      <trkpt lat="62.657566930506" lon="17.8498846925">
        <ele>17</ele>
        <time>2018-01-09T12:07:42Z</time>
      </trkpt>
      <trkpt lat="62.657547735955" lon="17.84989391259">
        <ele>17</ele>
        <time>2018-01-09T12:07:43Z</time>
      </trkpt>
      <trkpt lat="62.657524769549" lon="17.849903048861">
        <ele>17</ele>
        <time>2018-01-09T12:07:44Z</time>
      </trkpt>
      <trkpt lat="62.657507251378" lon="17.849909586743">
        <ele>17</ele>
        <time>2018-01-09T12:07:45Z</time>
      </trkpt>
      <trkpt lat="62.657491074311" lon="17.849917633367">
        <ele>17.2</ele>
        <time>2018-01-09T12:07:46Z</time>
      </trkpt>
      <trkpt lat="62.657474310511" lon="17.849925847629">
        <ele>17.4</ele>
        <time>2018-01-09T12:07:47Z</time>
      </trkpt>
      <trkpt lat="62.657459223091" lon="17.849942862886">
        <ele>17.6</ele>
        <time>2018-01-09T12:07:48Z</time>
      </trkpt>
      <trkpt lat="62.657451930838" lon="17.849959039953">
        <ele>18</ele>
        <time>2018-01-09T12:07:49Z</time>
      </trkpt>
      <trkpt lat="62.657438938893" lon="17.849972367174">
        <ele>18.4</ele>
        <time>2018-01-09T12:07:50Z</time>
      </trkpt>
      <trkpt lat="62.65742997026" lon="17.849980497617">
        <ele>18.6</ele>
        <time>2018-01-09T12:07:51Z</time>
      </trkpt>
      <trkpt lat="62.657423348559" lon="17.849983179825">
        <ele>18.8</ele>
        <time>2018-01-09T12:07:52Z</time>
      </trkpt>
      <trkpt lat="62.657415888668" lon="17.849982509273">
        <ele>19</ele>
        <time>2018-01-09T12:07:53Z</time>
      </trkpt>
      <trkpt lat="62.657406081845" lon="17.849987286956">
        <ele>19.2</ele>
        <time>2018-01-09T12:07:54Z</time>
      </trkpt>
      <trkpt lat="62.657397448488" lon="17.849988711879">
        <ele>19.4</ele>
        <time>2018-01-09T12:07:55Z</time>
      </trkpt>
      <trkpt lat="62.657387725484" lon="17.849986867861">
        <ele>19.6</ele>
        <time>2018-01-09T12:07:56Z</time>
      </trkpt>
      <trkpt lat="62.657379343584" lon="17.84999030444">
        <ele>19.8</ele>
        <time>2018-01-09T12:07:57Z</time>
      </trkpt>
      <trkpt lat="62.65736878239" lon="17.849996674684">
        <ele>20.2</ele>
        <time>2018-01-09T12:07:58Z</time>
      </trkpt>
      <trkpt lat="62.657353024418" lon="17.850007319697">
        <ele>20.4</ele>
        <time>2018-01-09T12:07:59Z</time>
      </trkpt>
      <trkpt lat="62.657340703025" lon="17.850012516475">
        <ele>20.6</ele>
        <time>2018-01-09T12:08:00Z</time>
      </trkpt>
      <trkpt lat="62.657328884546" lon="17.85001796471">
        <ele>20.8</ele>
        <time>2018-01-09T12:08:01Z</time>
      </trkpt>
      <trkpt lat="62.657315557325" lon="17.850023329126">
        <ele>20.8</ele>
        <time>2018-01-09T12:08:02Z</time>
      </trkpt>
      <trkpt lat="62.657304660855" lon="17.850026849524">
        <ele>20.8</ele>
        <time>2018-01-09T12:08:03Z</time>
      </trkpt>
      <trkpt lat="62.657292926195" lon="17.85002969937">
        <ele>21</ele>
        <time>2018-01-09T12:08:04Z</time>
      </trkpt>
      <trkpt lat="62.657282532639" lon="17.850033135949">
        <ele>21</ele>
        <time>2018-01-09T12:08:05Z</time>
      </trkpt>
      <trkpt lat="62.657273396368" lon="17.850039170917">
        <ele>21.2</ele>
        <time>2018-01-09T12:08:06Z</time>
      </trkpt>
      <trkpt lat="62.657265517382" lon="17.850044367695">
        <ele>21.4</ele>
        <time>2018-01-09T12:08:07Z</time>
      </trkpt>
      <trkpt lat="62.65725814131" lon="17.850051576129">
        <ele>21.6</ele>
        <time>2018-01-09T12:08:08Z</time>
      </trkpt>
      <trkpt lat="62.657249927048" lon="17.85005903602">
        <ele>22</ele>
        <time>2018-01-09T12:08:09Z</time>
      </trkpt>
      <trkpt lat="62.657236767465" lon="17.850066412092">
        <ele>22.2</ele>
        <time>2018-01-09T12:08:10Z</time>
      </trkpt>
      <trkpt lat="62.657224948986" lon="17.850070519223">
        <ele>22.6</ele>
        <time>2018-01-09T12:08:11Z</time>
      </trkpt>
      <trkpt lat="62.657212962869" lon="17.850077560019">
        <ele>22.8</ele>
        <time>2018-01-09T12:08:12Z</time>
      </trkpt>
      <trkpt lat="62.65720114439" lon="17.850084600815">
        <ele>23</ele>
        <time>2018-01-09T12:08:13Z</time>
      </trkpt>
      <trkpt lat="62.65719108611" lon="17.850093820905">
        <ele>23.2</ele>
        <time>2018-01-09T12:08:14Z</time>
      </trkpt>
      <trkpt lat="62.657181530744" lon="17.850105639384">
        <ele>23.4</ele>
        <time>2018-01-09T12:08:15Z</time>
      </trkpt>
      <trkpt lat="62.657171221007" lon="17.850117625501">
        <ele>23.4</ele>
        <time>2018-01-09T12:08:16Z</time>
      </trkpt>
      <trkpt lat="62.657160492175" lon="17.850129276342">
        <ele>23.8</ele>
        <time>2018-01-09T12:08:17Z</time>
      </trkpt>
      <trkpt lat="62.657149008972" lon="17.850135143672">
        <ele>24</ele>
        <time>2018-01-09T12:08:18Z</time>
      </trkpt>
      <trkpt lat="62.657139202149" lon="17.850143190296">
        <ele>24.2</ele>
        <time>2018-01-09T12:08:19Z</time>
      </trkpt>
      <trkpt lat="62.657131071706" lon="17.850148554712">
        <ele>24.4</ele>
        <time>2018-01-09T12:08:20Z</time>
      </trkpt>
      <trkpt lat="62.65712319272" lon="17.850152829481">
        <ele>24.6</ele>
        <time>2018-01-09T12:08:21Z</time>
      </trkpt>
      <trkpt lat="62.657114307906" lon="17.850159367363">
        <ele>24.8</ele>
        <time>2018-01-09T12:08:22Z</time>
      </trkpt>
      <trkpt lat="62.657103411436" lon="17.850166240521">
        <ele>24.8</ele>
        <time>2018-01-09T12:08:23Z</time>
      </trkpt>
      <trkpt lat="62.657089916577" lon="17.850175209154">
        <ele>25</ele>
        <time>2018-01-09T12:08:24Z</time>
      </trkpt>
      <trkpt lat="62.657080947944" lon="17.850184596882">
        <ele>25</ele>
        <time>2018-01-09T12:08:25Z</time>
      </trkpt>
      <trkpt lat="62.657071308759" lon="17.850191805316">
        <ele>25.2</ele>
        <time>2018-01-09T12:08:26Z</time>
      </trkpt>
      <trkpt lat="62.657062759221" lon="17.850197756465">
        <ele>25.4</ele>
        <time>2018-01-09T12:08:27Z</time>
      </trkpt>
      <trkpt lat="62.657050018733" lon="17.850205132537">
        <ele>25.8</ele>
        <time>2018-01-09T12:08:28Z</time>
      </trkpt>
      <trkpt lat="62.657038870806" lon="17.85020907203">
        <ele>26</ele>
        <time>2018-01-09T12:08:29Z</time>
      </trkpt>
      <trkpt lat="62.657025543585" lon="17.850212927704">
        <ele>26.4</ele>
        <time>2018-01-09T12:08:30Z</time>
      </trkpt>
      <trkpt lat="62.657012132545" lon="17.850214855541">
        <ele>26.6</ele>
        <time>2018-01-09T12:08:31Z</time>
      </trkpt>
      <trkpt lat="62.656998386229" lon="17.850211754238">
        <ele>27</ele>
        <time>2018-01-09T12:08:32Z</time>
      </trkpt>
      <trkpt lat="62.656985645741" lon="17.850205216356">
        <ele>27.4</ele>
        <time>2018-01-09T12:08:33Z</time>
      </trkpt>
      <trkpt lat="62.656972653796" lon="17.850204294347">
        <ele>27.6</ele>
        <time>2018-01-09T12:08:34Z</time>
      </trkpt>
      <trkpt lat="62.656958739842" lon="17.850204294347">
        <ele>27.8</ele>
        <time>2018-01-09T12:08:35Z</time>
      </trkpt>
      <trkpt lat="62.656945831716" lon="17.850203372338">
        <ele>28</ele>
        <time>2018-01-09T12:08:36Z</time>
      </trkpt>
      <trkpt lat="62.656934180875" lon="17.850204461985">
        <ele>28</ele>
        <time>2018-01-09T12:08:37Z</time>
      </trkpt>
      <trkpt lat="62.656918506722" lon="17.850203707614">
        <ele>28</ele>
        <time>2018-01-09T12:08:38Z</time>
      </trkpt>
      <trkpt lat="62.656900485637" lon="17.850198762293">
        <ele>28.2</ele>
        <time>2018-01-09T12:08:39Z</time>
      </trkpt>
      <trkpt lat="62.656880788172" lon="17.850193062601">
        <ele>28.2</ele>
        <time>2018-01-09T12:08:40Z</time>
      </trkpt>
      <trkpt lat="62.656865114019" lon="17.850184932158">
        <ele>28.2</ele>
        <time>2018-01-09T12:08:41Z</time>
      </trkpt>
      <trkpt lat="62.65685078097" lon="17.850181076484">
        <ele>28.4</ele>
        <time>2018-01-09T12:08:42Z</time>
      </trkpt>
      <trkpt lat="62.656837118473" lon="17.850171521118">
        <ele>28.4</ele>
        <time>2018-01-09T12:08:43Z</time>
      </trkpt>
      <trkpt lat="62.656823539795" lon="17.850163390675">
        <ele>28.4</ele>
        <time>2018-01-09T12:08:44Z</time>
      </trkpt>
      <trkpt lat="62.656807698004" lon="17.850158277716">
        <ele>28.6</ele>
        <time>2018-01-09T12:08:45Z</time>
      </trkpt>
      <trkpt lat="62.656791604756" lon="17.850146459237">
        <ele>28.8</ele>
        <time>2018-01-09T12:08:46Z</time>
      </trkpt>
      <trkpt lat="62.656773835128" lon="17.850136317138">
        <ele>28.8</ele>
        <time>2018-01-09T12:08:47Z</time>
      </trkpt>
      <trkpt lat="62.656757322785" lon="17.850129108704">
        <ele>28.8</ele>
        <time>2018-01-09T12:08:48Z</time>
      </trkpt>
      <trkpt lat="62.656746174858" lon="17.850128354333">
        <ele>29</ele>
        <time>2018-01-09T12:08:49Z</time>
      </trkpt>
      <trkpt lat="62.656722789357" lon="17.85012357665">
        <ele>29</ele>
        <time>2018-01-09T12:08:50Z</time>
      </trkpt>
      <trkpt lat="62.656701834607" lon="17.85012944398">
        <ele>29.2</ele>
        <time>2018-01-09T12:08:51Z</time>
      </trkpt>
      <trkpt lat="62.656684316436" lon="17.850131707093">
        <ele>29.4</ele>
        <time>2018-01-09T12:08:52Z</time>
      </trkpt>
      <trkpt lat="62.656661098573" lon="17.850133132016">
        <ele>29.6</ele>
        <time>2018-01-09T12:08:53Z</time>
      </trkpt>
      <trkpt lat="62.656640562918" lon="17.850129108704">
        <ele>29.6</ele>
        <time>2018-01-09T12:08:54Z</time>
      </trkpt>
      <trkpt lat="62.656621871281" lon="17.850129527799">
        <ele>29.8</ele>
        <time>2018-01-09T12:08:55Z</time>
      </trkpt>
      <trkpt lat="62.656605023662" lon="17.850132545283">
        <ele>29.8</ele>
        <time>2018-01-09T12:08:56Z</time>
      </trkpt>
      <trkpt lat="62.656590774432" lon="17.850134808396">
        <ele>29.6</ele>
        <time>2018-01-09T12:08:57Z</time>
      </trkpt>
      <trkpt lat="62.656572166614" lon="17.850137239147">
        <ele>29.8</ele>
        <time>2018-01-09T12:08:58Z</time>
      </trkpt>
      <trkpt lat="62.656547523828" lon="17.850142519744">
        <ele>30</ele>
        <time>2018-01-09T12:08:59Z</time>
      </trkpt>
      <trkpt lat="62.656532604046" lon="17.850151823653">
        <ele>30.2</ele>
        <time>2018-01-09T12:09:00Z</time>
      </trkpt>
      <trkpt lat="62.656507542165" lon="17.850159367363">
        <ele>30.2</ele>
        <time>2018-01-09T12:09:01Z</time>
      </trkpt>
      <trkpt lat="62.65648449194" lon="17.850176969353">
        <ele>30.4</ele>
        <time>2018-01-09T12:09:02Z</time>
      </trkpt>
      <trkpt lat="62.656456580213" lon="17.850190128936">
        <ele>30.6</ele>
        <time>2018-01-09T12:09:03Z</time>
      </trkpt>
      <trkpt lat="62.656434954911" lon="17.850204797261">
        <ele>30.6</ele>
        <time>2018-01-09T12:09:04Z</time>
      </trkpt>
      <trkpt lat="62.65641576036" lon="17.85021745393">
        <ele>30.6</ele>
        <time>2018-01-09T12:09:05Z</time>
      </trkpt>
      <trkpt lat="62.65639815837" lon="17.850232708988">
        <ele>30.6</ele>
        <time>2018-01-09T12:09:06Z</time>
      </trkpt>
      <trkpt lat="62.656378712362" lon="17.850247796408">
        <ele>30.6</ele>
        <time>2018-01-09T12:09:07Z</time>
      </trkpt>
      <trkpt lat="62.656358009069" lon="17.850268667339">
        <ele>30.6</ele>
        <time>2018-01-09T12:09:08Z</time>
      </trkpt>
      <trkpt lat="62.656341915821" lon="17.850286604605">
        <ele>30.6</ele>
        <time>2018-01-09T12:09:09Z</time>
      </trkpt>
      <trkpt lat="62.656330684075" lon="17.850303955138">
        <ele>30.8</ele>
        <time>2018-01-09T12:09:10Z</time>
      </trkpt>
      <trkpt lat="62.656319200872" lon="17.850321724766">
        <ele>30.8</ele>
        <time>2018-01-09T12:09:11Z</time>
      </trkpt>
      <trkpt lat="62.656310316058" lon="17.850334632892">
        <ele>31</ele>
        <time>2018-01-09T12:09:12Z</time>
      </trkpt>
      <trkpt lat="62.656300006321" lon="17.850346702828">
        <ele>31.2</ele>
        <time>2018-01-09T12:09:13Z</time>
      </trkpt>
      <trkpt lat="62.656289780403" lon="17.850359778592">
        <ele>31.4</ele>
        <time>2018-01-09T12:09:14Z</time>
      </trkpt>
      <trkpt lat="62.656281147046" lon="17.850366232655">
        <ele>31.6</ele>
        <time>2018-01-09T12:09:15Z</time>
      </trkpt>
      <trkpt lat="62.656271088766" lon="17.850378889324">
        <ele>32</ele>
        <time>2018-01-09T12:09:16Z</time>
      </trkpt>
      <trkpt lat="62.656263545056" lon="17.850382325903">
        <ele>32.2</ele>
        <time>2018-01-09T12:09:17Z</time>
      </trkpt>
      <trkpt lat="62.656254324966" lon="17.850387941776">
        <ele>32.4</ele>
        <time>2018-01-09T12:09:18Z</time>
      </trkpt>
      <trkpt lat="62.656246110704" lon="17.85039515021">
        <ele>32.6</ele>
        <time>2018-01-09T12:09:19Z</time>
      </trkpt>
      <trkpt lat="62.656237896442" lon="17.850402358644">
        <ele>33</ele>
        <time>2018-01-09T12:09:20Z</time>
      </trkpt>
      <trkpt lat="62.65622716761" lon="17.850415182951">
        <ele>33.2</ele>
        <time>2018-01-09T12:09:21Z</time>
      </trkpt>
      <trkpt lat="62.656215600588" lon="17.85042532505">
        <ele>33.4</ele>
        <time>2018-01-09T12:09:22Z</time>
      </trkpt>
      <trkpt lat="62.656205793765" lon="17.850435299511">
        <ele>33.6</ele>
        <time>2018-01-09T12:09:23Z</time>
      </trkpt>
      <trkpt lat="62.656195484028" lon="17.850453488234">
        <ele>33.6</ele>
        <time>2018-01-09T12:09:24Z</time>
      </trkpt>
      <trkpt lat="62.656182911178" lon="17.850467569826">
        <ele>33.8</ele>
        <time>2018-01-09T12:09:25Z</time>
      </trkpt>
      <trkpt lat="62.656171595613" lon="17.850479053029">
        <ele>33.8</ele>
        <time>2018-01-09T12:09:26Z</time>
      </trkpt>
      <trkpt lat="62.656160280048" lon="17.850489614223">
        <ele>34</ele>
        <time>2018-01-09T12:09:27Z</time>
      </trkpt>
      <trkpt lat="62.656148461569" lon="17.850500426874">
        <ele>34.2</ele>
        <time>2018-01-09T12:09:28Z</time>
      </trkpt>
      <trkpt lat="62.656133709425" lon="17.850516436303">
        <ele>34.4</ele>
        <time>2018-01-09T12:09:29Z</time>
      </trkpt>
      <trkpt lat="62.656121471851" lon="17.850528338601">
        <ele>34.4</ele>
        <time>2018-01-09T12:09:30Z</time>
      </trkpt>
      <trkpt lat="62.656109737191" lon="17.850539486528">
        <ele>34.8</ele>
        <time>2018-01-09T12:09:31Z</time>
      </trkpt>
      <trkpt lat="62.656097164341" lon="17.850550634455">
        <ele>34.8</ele>
        <time>2018-01-09T12:09:32Z</time>
      </trkpt>
      <trkpt lat="62.656086938423" lon="17.85055692088">
        <ele>35.2</ele>
        <time>2018-01-09T12:09:33Z</time>
      </trkpt>
      <trkpt lat="62.656070845175" lon="17.850578546182">
        <ele>35.4</ele>
        <time>2018-01-09T12:09:34Z</time>
      </trkpt>
      <trkpt lat="62.656056260669" lon="17.850594807068">
        <ele>35.6</ele>
        <time>2018-01-09T12:09:35Z</time>
      </trkpt>
      <trkpt lat="62.656045783294" lon="17.850610732678">
        <ele>35.8</ele>
        <time>2018-01-09T12:09:36Z</time>
      </trkpt>
      <trkpt lat="62.656035054462" lon="17.850619030759">
        <ele>35.8</ele>
        <time>2018-01-09T12:09:37Z</time>
      </trkpt>
      <trkpt lat="62.656021391965" lon="17.850626909745">
        <ele>36</ele>
        <time>2018-01-09T12:09:38Z</time>
      </trkpt>
      <trkpt lat="62.656012255694" lon="17.850639566414">
        <ele>36.2</ele>
        <time>2018-01-09T12:09:39Z</time>
      </trkpt>
      <trkpt lat="62.655998090283" lon="17.850660437345">
        <ele>36.4</ele>
        <time>2018-01-09T12:09:40Z</time>
      </trkpt>
      <trkpt lat="62.655984595424" lon="17.850679883353">
        <ele>36.6</ele>
        <time>2018-01-09T12:09:41Z</time>
      </trkpt>
      <trkpt lat="62.655973615135" lon="17.850694970773">
        <ele>36.8</ele>
        <time>2018-01-09T12:09:42Z</time>
      </trkpt>
      <trkpt lat="62.655960036457" lon="17.85071533879">
        <ele>37</ele>
        <time>2018-01-09T12:09:43Z</time>
      </trkpt>
      <trkpt lat="62.65594805034" lon="17.850736042083">
        <ele>37.2</ele>
        <time>2018-01-09T12:09:44Z</time>
      </trkpt>
      <trkpt lat="62.655936902413" lon="17.850757583566">
        <ele>37.4</ele>
        <time>2018-01-09T12:09:45Z</time>
      </trkpt>
      <trkpt lat="62.655924832477" lon="17.850774598823">
        <ele>37.4</ele>
        <time>2018-01-09T12:09:46Z</time>
      </trkpt>
      <trkpt lat="62.655911840532" lon="17.850784657103">
        <ele>37.6</ele>
        <time>2018-01-09T12:09:47Z</time>
      </trkpt>
      <trkpt lat="62.65589692075" lon="17.850804270749">
        <ele>37.6</ele>
        <time>2018-01-09T12:09:48Z</time>
      </trkpt>
      <trkpt lat="62.65588686247" lon="17.850819358169">
        <ele>37.6</ele>
        <time>2018-01-09T12:09:49Z</time>
      </trkpt>
      <trkpt lat="62.655878061475" lon="17.850834110313">
        <ele>37.8</ele>
        <time>2018-01-09T12:09:50Z</time>
      </trkpt>
      <trkpt lat="62.655867332643" lon="17.850850119742">
        <ele>37.8</ele>
        <time>2018-01-09T12:09:51Z</time>
      </trkpt>
      <trkpt lat="62.655858615467" lon="17.850868979017">
        <ele>38</ele>
        <time>2018-01-09T12:09:52Z</time>
      </trkpt>
      <trkpt lat="62.655849814472" lon="17.850881635686">
        <ele>38.2</ele>
        <time>2018-01-09T12:09:53Z</time>
      </trkpt>
      <trkpt lat="62.655839420916" lon="17.850896220192">
        <ele>38.6</ele>
        <time>2018-01-09T12:09:54Z</time>
      </trkpt>
      <trkpt lat="62.655826009876" lon="17.850924467195">
        <ele>38.8</ele>
        <time>2018-01-09T12:09:55Z</time>
      </trkpt>
      <trkpt lat="62.655814023759" lon="17.850945086669">
        <ele>39.2</ele>
        <time>2018-01-09T12:09:56Z</time>
      </trkpt>
      <trkpt lat="62.65580471985" lon="17.850958581528">
        <ele>39.6</ele>
        <time>2018-01-09T12:09:57Z</time>
      </trkpt>
      <trkpt lat="62.655789883887" lon="17.850975345328">
        <ele>39.8</ele>
        <time>2018-01-09T12:09:58Z</time>
      </trkpt>
      <trkpt lat="62.655777813951" lon="17.85098942692">
        <ele>40</ele>
        <time>2018-01-09T12:09:59Z</time>
      </trkpt>
      <trkpt lat="62.65576281035" lon="17.851004681978">
        <ele>40.2</ele>
        <time>2018-01-09T12:10:00Z</time>
      </trkpt>
      <trkpt lat="62.655753506441" lon="17.85101205805">
        <ele>40.4</ele>
        <time>2018-01-09T12:10:01Z</time>
      </trkpt>
      <trkpt lat="62.65574688474" lon="17.851024211805">
        <ele>40.6</ele>
        <time>2018-01-09T12:10:02Z</time>
      </trkpt>
      <trkpt lat="62.655739089573" lon="17.85103385099">
        <ele>40.8</ele>
        <time>2018-01-09T12:10:03Z</time>
      </trkpt>
      <trkpt lat="62.655724505067" lon="17.851050530971">
        <ele>41</ele>
        <time>2018-01-09T12:10:04Z</time>
      </trkpt>
      <trkpt lat="62.655715536434" lon="17.851066121305">
        <ele>41.2</ele>
        <time>2018-01-09T12:10:05Z</time>
      </trkpt>
      <trkpt lat="62.655695419874" lon="17.851087411331">
        <ele>41.6</ele>
        <time>2018-01-09T12:10:06Z</time>
      </trkpt>
      <trkpt lat="62.655683098481" lon="17.851102247294">
        <ele>41.8</ele>
        <time>2018-01-09T12:10:07Z</time>
      </trkpt>
      <trkpt lat="62.655669938898" lon="17.851119681646">
        <ele>41.8</ele>
        <time>2018-01-09T12:10:08Z</time>
      </trkpt>
      <trkpt lat="62.655649487062" lon="17.851139630568">
        <ele>41.8</ele>
        <time>2018-01-09T12:10:09Z</time>
      </trkpt>
      <trkpt lat="62.655634148185" lon="17.851168883399">
        <ele>41.8</ele>
        <time>2018-01-09T12:10:10Z</time>
      </trkpt>
      <trkpt lat="62.655610511227" lon="17.851195286384">
        <ele>42</ele>
        <time>2018-01-09T12:10:11Z</time>
      </trkpt>
      <trkpt lat="62.655589724115" lon="17.851232334382">
        <ele>42</ele>
        <time>2018-01-09T12:10:12Z</time>
      </trkpt>
      <trkpt lat="62.655573714686" lon="17.85125597134">
        <ele>42</ele>
        <time>2018-01-09T12:10:13Z</time>
      </trkpt>
      <trkpt lat="62.655554184859" lon="17.851288576931">
        <ele>41.8</ele>
        <time>2018-01-09T12:10:14Z</time>
      </trkpt>
      <trkpt lat="62.65553817543" lon="17.851307520025">
        <ele>41.8</ele>
        <time>2018-01-09T12:10:15Z</time>
      </trkpt>
      <trkpt lat="62.655517723594" lon="17.851341969634">
        <ele>42</ele>
        <time>2018-01-09T12:10:16Z</time>
      </trkpt>
      <trkpt lat="62.655501127432" lon="17.851371893017">
        <ele>42</ele>
        <time>2018-01-09T12:10:17Z</time>
      </trkpt>
      <trkpt lat="62.655482519614" lon="17.851401648762">
        <ele>42.4</ele>
        <time>2018-01-09T12:10:18Z</time>
      </trkpt>
      <trkpt lat="62.655465001443" lon="17.851428303204">
        <ele>42.4</ele>
        <time>2018-01-09T12:10:19Z</time>
      </trkpt>
      <trkpt lat="62.655447064177" lon="17.851455125284">
        <ele>42.6</ele>
        <time>2018-01-09T12:10:20Z</time>
      </trkpt>
      <trkpt lat="62.65543340168" lon="17.851482701735">
        <ele>42.8</ele>
        <time>2018-01-09T12:10:21Z</time>
      </trkpt>
      <trkpt lat="62.655417727527" lon="17.851504997589">
        <ele>43</ele>
        <time>2018-01-09T12:10:22Z</time>
      </trkpt>
      <trkpt lat="62.655401131365" lon="17.851532238764">
        <ele>43.2</ele>
        <time>2018-01-09T12:10:23Z</time>
      </trkpt>
      <trkpt lat="62.655387971782" lon="17.851554786075">
        <ele>43.4</ele>
        <time>2018-01-09T12:10:24Z</time>
      </trkpt>
      <trkpt lat="62.655374896018" lon="17.85158035087">
        <ele>43.6</ele>
        <time>2018-01-09T12:10:25Z</time>
      </trkpt>
      <trkpt lat="62.655365173014" lon="17.851599796878">
        <ele>43.6</ele>
        <time>2018-01-09T12:10:26Z</time>
      </trkpt>
      <trkpt lat="62.655357461666" lon="17.851613962289">
        <ele>43.8</ele>
        <time>2018-01-09T12:10:27Z</time>
      </trkpt>
      <trkpt lat="62.655342374246" lon="17.851639610903">
        <ele>44</ele>
        <time>2018-01-09T12:10:28Z</time>
      </trkpt>
      <trkpt lat="62.655324101704" lon="17.851674479607">
        <ele>44.2</ele>
        <time>2018-01-09T12:10:29Z</time>
      </trkpt>
      <trkpt lat="62.655310523026" lon="17.851710773234">
        <ele>44.2</ele>
        <time>2018-01-09T12:10:30Z</time>
      </trkpt>
      <trkpt lat="62.655289819733" lon="17.851755951675">
        <ele>44.4</ele>
        <time>2018-01-09T12:10:31Z</time>
      </trkpt>
      <trkpt lat="62.655274648494" lon="17.851782270841">
        <ele>44.4</ele>
        <time>2018-01-09T12:10:32Z</time>
      </trkpt>
      <trkpt lat="62.655252771735" lon="17.85182258778">
        <ele>44.6</ele>
        <time>2018-01-09T12:10:33Z</time>
      </trkpt>
      <trkpt lat="62.655233996279" lon="17.851865167832">
        <ele>44.6</ele>
        <time>2018-01-09T12:10:34Z</time>
      </trkpt>
      <trkpt lat="62.655208850579" lon="17.851912609386">
        <ele>44.6</ele>
        <time>2018-01-09T12:10:35Z</time>
      </trkpt>
      <trkpt lat="62.655197954109" lon="17.851934821421">
        <ele>44.6</ele>
        <time>2018-01-09T12:10:36Z</time>
      </trkpt>
      <trkpt lat="62.655179597748" lon="17.851957955465">
        <ele>44.6</ele>
        <time>2018-01-09T12:10:37Z</time>
      </trkpt>
      <trkpt lat="62.655158894455" lon="17.851997853309">
        <ele>44.4</ele>
        <time>2018-01-09T12:10:38Z</time>
      </trkpt>
      <trkpt lat="62.655144058492" lon="17.852028950158">
        <ele>44.4</ele>
        <time>2018-01-09T12:10:39Z</time>
      </trkpt>
      <trkpt lat="62.655128719615" lon="17.8520639865">
        <ele>44.4</ele>
        <time>2018-01-09T12:10:40Z</time>
      </trkpt>
      <trkpt lat="62.655113799833" lon="17.852109416398">
        <ele>44.4</ele>
        <time>2018-01-09T12:10:41Z</time>
      </trkpt>
      <trkpt lat="62.655106339942" lon="17.852137495763">
        <ele>44.6</ele>
        <time>2018-01-09T12:10:42Z</time>
      </trkpt>
      <trkpt lat="62.655097874223" lon="17.852175884865">
        <ele>44.6</ele>
        <time>2018-01-09T12:10:43Z</time>
      </trkpt>
      <trkpt lat="62.655087899762" lon="17.852222655867">
        <ele>44.6</ele>
        <time>2018-01-09T12:10:44Z</time>
      </trkpt>
      <trkpt lat="62.65508471464" lon="17.852260542055">
        <ele>44.6</ele>
        <time>2018-01-09T12:10:45Z</time>
      </trkpt>
      <trkpt lat="62.655076835654" lon="17.852333464585">
        <ele>44.6</ele>
        <time>2018-01-09T12:10:46Z</time>
      </trkpt>
      <trkpt lat="62.655073985808" lon="17.852387024926">
        <ele>44.8</ele>
        <time>2018-01-09T12:10:47Z</time>
      </trkpt>
      <trkpt lat="62.655067783202" lon="17.852464054587">
        <ele>44.8</ele>
        <time>2018-01-09T12:10:48Z</time>
      </trkpt>
      <trkpt lat="62.655061999691" lon="17.852524907181">
        <ele>44.8</ele>
        <time>2018-01-09T12:10:49Z</time>
      </trkpt>
      <trkpt lat="62.655057389646" lon="17.852583161386">
        <ele>44.8</ele>
        <time>2018-01-09T12:10:50Z</time>
      </trkpt>
      <trkpt lat="62.655053366334" lon="17.852652982613">
        <ele>44.8</ele>
        <time>2018-01-09T12:10:51Z</time>
      </trkpt>
      <trkpt lat="62.655049678298" lon="17.852723139116">
        <ele>44.6</ele>
        <time>2018-01-09T12:10:52Z</time>
      </trkpt>
      <trkpt lat="62.655055461809" lon="17.852791116325">
        <ele>44.2</ele>
        <time>2018-01-09T12:10:53Z</time>
      </trkpt>
      <trkpt lat="62.655051773773" lon="17.852876779343">
        <ele>44</ele>
        <time>2018-01-09T12:10:54Z</time>
      </trkpt>
      <trkpt lat="62.65504448152" lon="17.852953641366">
        <ele>43.8</ele>
        <time>2018-01-09T12:10:55Z</time>
      </trkpt>
      <trkpt lat="62.655036853991" lon="17.85301533215">
        <ele>43.6</ele>
        <time>2018-01-09T12:10:56Z</time>
      </trkpt>
      <trkpt lat="62.655027969177" lon="17.853077861124">
        <ele>43.6</ele>
        <time>2018-01-09T12:10:57Z</time>
      </trkpt>
      <trkpt lat="62.655023023856" lon="17.853137624071">
        <ele>43.6</ele>
        <time>2018-01-09T12:10:58Z</time>
      </trkpt>
      <trkpt lat="62.655012881757" lon="17.853174336793">
        <ele>43.8</ele>
        <time>2018-01-09T12:10:59Z</time>
      </trkpt>
      <trkpt lat="62.655002320563" lon="17.853212725895">
        <ele>44</ele>
        <time>2018-01-09T12:11:00Z</time>
      </trkpt>
      <trkpt lat="62.65499083736" lon="17.853244241839">
        <ele>44.2</ele>
        <time>2018-01-09T12:11:01Z</time>
      </trkpt>
      <trkpt lat="62.654981868727" lon="17.85328020019">
        <ele>44.2</ele>
        <time>2018-01-09T12:11:02Z</time>
      </trkpt>
      <trkpt lat="62.65497491175" lon="17.853312135229">
        <ele>44.4</ele>
        <time>2018-01-09T12:11:03Z</time>
      </trkpt>
      <trkpt lat="62.654965775479" lon="17.853357565127">
        <ele>44.6</ele>
        <time>2018-01-09T12:11:04Z</time>
      </trkpt>
      <trkpt lat="62.654953537905" lon="17.853399809903">
        <ele>44.8</ele>
        <time>2018-01-09T12:11:05Z</time>
      </trkpt>
      <trkpt lat="62.654942138521" lon="17.853443479602">
        <ele>45.2</ele>
        <time>2018-01-09T12:11:06Z</time>
      </trkpt>
      <trkpt lat="62.654935433001" lon="17.853465188723">
        <ele>45.2</ele>
        <time>2018-01-09T12:11:07Z</time>
      </trkpt>
      <trkpt lat="62.654922357237" lon="17.853497626676">
        <ele>45.4</ele>
        <time>2018-01-09T12:11:08Z</time>
      </trkpt>
      <trkpt lat="62.654910203482" lon="17.853533501208">
        <ele>45.4</ele>
        <time>2018-01-09T12:11:09Z</time>
      </trkpt>
      <trkpt lat="62.654899390831" lon="17.853571806491">
        <ele>45.6</ele>
        <time>2018-01-09T12:11:10Z</time>
      </trkpt>
      <trkpt lat="62.65488606361" lon="17.853616146742">
        <ele>45.6</ele>
        <time>2018-01-09T12:11:11Z</time>
      </trkpt>
      <trkpt lat="62.654872233475" lon="17.853656379862">
        <ele>45.6</ele>
        <time>2018-01-09T12:11:12Z</time>
      </trkpt>
      <trkpt lat="62.654862091376" lon="17.853703402321">
        <ele>45.8</ele>
        <time>2018-01-09T12:11:13Z</time>
      </trkpt>
      <trkpt lat="62.654841723359" lon="17.853770625159">
        <ele>45.8</ele>
        <time>2018-01-09T12:11:14Z</time>
      </trkpt>
      <trkpt lat="62.654828982871" lon="17.85382670007">
        <ele>45.8</ele>
        <time>2018-01-09T12:11:15Z</time>
      </trkpt>
      <trkpt lat="62.654824456645" lon="17.853861317317">
        <ele>45.8</ele>
        <time>2018-01-09T12:11:16Z</time>
      </trkpt>
      <trkpt lat="62.654811297062" lon="17.853922086092">
        <ele>45.8</ele>
        <time>2018-01-09T12:11:17Z</time>
      </trkpt>
      <trkpt lat="62.654798137479" lon="17.853980759392">
        <ele>45.8</ele>
        <time>2018-01-09T12:11:18Z</time>
      </trkpt>
      <trkpt lat="62.65479050995" lon="17.854020908693">
        <ele>45.8</ele>
        <time>2018-01-09T12:11:19Z</time>
      </trkpt>
      <trkpt lat="62.654770058114" lon="17.854084694952">
        <ele>45.8</ele>
        <time>2018-01-09T12:11:20Z</time>
      </trkpt>
      <trkpt lat="62.654758574911" lon="17.854115791801">
        <ele>45.8</ele>
        <time>2018-01-09T12:11:21Z</time>
      </trkpt>
      <trkpt lat="62.654749187183" lon="17.854145128451">
        <ele>46</ele>
        <time>2018-01-09T12:11:22Z</time>
      </trkpt>
      <trkpt lat="62.654729657356" lon="17.854184774838">
        <ele>46.2</ele>
        <time>2018-01-09T12:11:23Z</time>
      </trkpt>
      <trkpt lat="62.654714402298" lon="17.854219224447">
        <ele>46.2</ele>
        <time>2018-01-09T12:11:24Z</time>
      </trkpt>
      <trkpt lat="62.654701158896" lon="17.854246717079">
        <ele>46.4</ele>
        <time>2018-01-09T12:11:25Z</time>
      </trkpt>
      <trkpt lat="62.65467986887" lon="17.854272700969">
        <ele>46.6</ele>
        <time>2018-01-09T12:11:26Z</time>
      </trkpt>
      <trkpt lat="62.654656567188" lon="17.854299858325">
        <ele>46.6</ele>
        <time>2018-01-09T12:11:27Z</time>
      </trkpt>
      <trkpt lat="62.654631505307" lon="17.854327183319">
        <ele>46.6</ele>
        <time>2018-01-09T12:11:28Z</time>
      </trkpt>
      <trkpt lat="62.654609963824" lon="17.854355765598">
        <ele>46.8</ele>
        <time>2018-01-09T12:11:29Z</time>
      </trkpt>
      <trkpt lat="62.654591607463" lon="17.854386024257">
        <ele>46.8</ele>
        <time>2018-01-09T12:11:30Z</time>
      </trkpt>
      <trkpt lat="62.654568724876" lon="17.854418126934">
        <ele>46.8</ele>
        <time>2018-01-09T12:11:31Z</time>
      </trkpt>
      <trkpt lat="62.654537795665" lon="17.854473447474">
        <ele>46.8</ele>
        <time>2018-01-09T12:11:32Z</time>
      </trkpt>
      <trkpt lat="62.654505692988" lon="17.854520889028">
        <ele>46.8</ele>
        <time>2018-01-09T12:11:33Z</time>
      </trkpt>
      <trkpt lat="62.654480966383" lon="17.854559194311">
        <ele>46.8</ele>
        <time>2018-01-09T12:11:34Z</time>
      </trkpt>
      <trkpt lat="62.654457916158" lon="17.854594817386">
        <ele>46.8</ele>
        <time>2018-01-09T12:11:35Z</time>
      </trkpt>
      <trkpt lat="62.654436207037" lon="17.854632619755">
        <ele>46.8</ele>
        <time>2018-01-09T12:11:36Z</time>
      </trkpt>
      <trkpt lat="62.654415671382" lon="17.854665057708">
        <ele>46.8</ele>
        <time>2018-01-09T12:11:37Z</time>
      </trkpt>
      <trkpt lat="62.654386250913" lon="17.854701854249">
        <ele>46.8</ele>
        <time>2018-01-09T12:11:38Z</time>
      </trkpt>
      <trkpt lat="62.654370995855" lon="17.854739656618">
        <ele>46.8</ele>
        <time>2018-01-09T12:11:39Z</time>
      </trkpt>
      <trkpt lat="62.654343000309" lon="17.854779219186">
        <ele>47</ele>
        <time>2018-01-09T12:11:40Z</time>
      </trkpt>
      <trkpt lat="62.654329253993" lon="17.854826409283">
        <ele>47</ele>
        <time>2018-01-09T12:11:41Z</time>
      </trkpt>
      <trkpt lat="62.654304108293" lon="17.854870833353">
        <ele>47</ele>
        <time>2018-01-09T12:11:42Z</time>
      </trkpt>
      <trkpt lat="62.654277118575" lon="17.854920957115">
        <ele>46.8</ele>
        <time>2018-01-09T12:11:43Z</time>
      </trkpt>
      <trkpt lat="62.654259432766" lon="17.854947611557">
        <ele>46.8</ele>
        <time>2018-01-09T12:11:44Z</time>
      </trkpt>
      <trkpt lat="62.65423646636" lon="17.854977199664">
        <ele>46.8</ele>
        <time>2018-01-09T12:11:45Z</time>
      </trkpt>
      <trkpt lat="62.654215595429" lon="17.855013744748">
        <ele>46.6</ele>
        <time>2018-01-09T12:11:46Z</time>
      </trkpt>
      <trkpt lat="62.654188773349" lon="17.85505716299">
        <ele>46.6</ele>
        <time>2018-01-09T12:11:47Z</time>
      </trkpt>
      <trkpt lat="62.654164214382" lon="17.855093875712">
        <ele>46.4</ele>
        <time>2018-01-09T12:11:48Z</time>
      </trkpt>
      <trkpt lat="62.65414175089" lon="17.855120949249">
        <ele>46.4</ele>
        <time>2018-01-09T12:11:49Z</time>
      </trkpt>
      <trkpt lat="62.654111743688" lon="17.85515187846">
        <ele>46.4</ele>
        <time>2018-01-09T12:11:50Z</time>
      </trkpt>
      <trkpt lat="62.654082826133" lon="17.855186663345">
        <ele>46.6</ele>
        <time>2018-01-09T12:11:51Z</time>
      </trkpt>
      <trkpt lat="62.654062206659" lon="17.855216083814">
        <ele>46.8</ele>
        <time>2018-01-09T12:11:52Z</time>
      </trkpt>
      <trkpt lat="62.654038737339" lon="17.855237290021">
        <ele>46.8</ele>
        <time>2018-01-09T12:11:53Z</time>
      </trkpt>
      <trkpt lat="62.654015100381" lon="17.855265369386">
        <ele>46.8</ele>
        <time>2018-01-09T12:11:54Z</time>
      </trkpt>
      <trkpt lat="62.653989619405" lon="17.855291688552">
        <ele>47</ele>
        <time>2018-01-09T12:11:55Z</time>
      </trkpt>
      <trkpt lat="62.65396321642" lon="17.855324629419">
        <ele>47</ele>
        <time>2018-01-09T12:11:56Z</time>
      </trkpt>
      <trkpt lat="62.653944105688" lon="17.855351116223">
        <ele>47</ele>
        <time>2018-01-09T12:11:57Z</time>
      </trkpt>
      <trkpt lat="62.653925833146" lon="17.855376094285">
        <ele>47</ele>
        <time>2018-01-09T12:11:58Z</time>
      </trkpt>
      <trkpt lat="62.653914349943" lon="17.855394366827">
        <ele>47.2</ele>
        <time>2018-01-09T12:11:59Z</time>
      </trkpt>
      <trkpt lat="62.653899094885" lon="17.855417919966">
        <ele>47.4</ele>
        <time>2018-01-09T12:12:00Z</time>
      </trkpt>
      <trkpt lat="62.653884091284" lon="17.855445496417">
        <ele>47.8</ele>
        <time>2018-01-09T12:12:01Z</time>
      </trkpt>
      <trkpt lat="62.65386263362" lon="17.855475335981">
        <ele>48.2</ele>
        <time>2018-01-09T12:12:02Z</time>
      </trkpt>
      <trkpt lat="62.65384503163" lon="17.855500146405">
        <ele>48.6</ele>
        <time>2018-01-09T12:12:03Z</time>
      </trkpt>
      <trkpt lat="62.653832542599" lon="17.855530824159">
        <ele>48.8</ele>
        <time>2018-01-09T12:12:04Z</time>
      </trkpt>
      <trkpt lat="62.653808905641" lon="17.855565357587">
        <ele>49</ele>
        <time>2018-01-09T12:12:05Z</time>
      </trkpt>
      <trkpt lat="62.653785939235" lon="17.855585138871">
        <ele>49</ele>
        <time>2018-01-09T12:12:06Z</time>
      </trkpt>
      <trkpt lat="62.653763391924" lon="17.855614056426">
        <ele>49</ele>
        <time>2018-01-09T12:12:07Z</time>
      </trkpt>
      <trkpt lat="62.653744197373" lon="17.85563886685">
        <ele>49.2</ele>
        <time>2018-01-09T12:12:08Z</time>
      </trkpt>
      <trkpt lat="62.653725673374" lon="17.855668538776">
        <ele>49.2</ele>
        <time>2018-01-09T12:12:09Z</time>
      </trkpt>
      <trkpt lat="62.653707233194" lon="17.855693852114">
        <ele>49.4</ele>
        <time>2018-01-09T12:12:10Z</time>
      </trkpt>
      <trkpt lat="62.653693486878" lon="17.855709610086">
        <ele>49.6</ele>
        <time>2018-01-09T12:12:11Z</time>
      </trkpt>
      <trkpt lat="62.653672951223" lon="17.855729139913">
        <ele>49.6</ele>
        <time>2018-01-09T12:12:12Z</time>
      </trkpt>
      <trkpt lat="62.653654091948" lon="17.855748837378">
        <ele>49.6</ele>
        <time>2018-01-09T12:12:13Z</time>
      </trkpt>
      <trkpt lat="62.653633640112" lon="17.855768451024">
        <ele>49.8</ele>
        <time>2018-01-09T12:12:14Z</time>
      </trkpt>
      <trkpt lat="62.65361536757" lon="17.855788819041">
        <ele>50</ele>
        <time>2018-01-09T12:12:15Z</time>
      </trkpt>
      <trkpt lat="62.653597933218" lon="17.855803655004">
        <ele>50.2</ele>
        <time>2018-01-09T12:12:16Z</time>
      </trkpt>
      <trkpt lat="62.65357513445" lon="17.855818658605">
        <ele>50.2</ele>
        <time>2018-01-09T12:12:17Z</time>
      </trkpt>
      <trkpt lat="62.653553928243" lon="17.855825699401">
        <ele>50.4</ele>
        <time>2018-01-09T12:12:18Z</time>
      </trkpt>
      <trkpt lat="62.653533141131" lon="17.855828549247">
        <ele>50.6</ele>
        <time>2018-01-09T12:12:19Z</time>
      </trkpt>
      <trkpt lat="62.65351143201" lon="17.855833578387">
        <ele>50.8</ele>
        <time>2018-01-09T12:12:20Z</time>
      </trkpt>
      <trkpt lat="62.653489136156" lon="17.855838104613">
        <ele>50.8</ele>
        <time>2018-01-09T12:12:21Z</time>
      </trkpt>
      <trkpt lat="62.653466253569" lon="17.855841038278">
        <ele>51</ele>
        <time>2018-01-09T12:12:22Z</time>
      </trkpt>
      <trkpt lat="62.653446556104" lon="17.855835757681">
        <ele>51.2</ele>
        <time>2018-01-09T12:12:23Z</time>
      </trkpt>
      <trkpt lat="62.653428535019" lon="17.855832740197">
        <ele>51.4</ele>
        <time>2018-01-09T12:12:24Z</time>
      </trkpt>
      <trkpt lat="62.653409927201" lon="17.855826789048">
        <ele>51.6</ele>
        <time>2018-01-09T12:12:25Z</time>
      </trkpt>
      <trkpt lat="62.653393666315" lon="17.855819664433">
        <ele>51.8</ele>
        <time>2018-01-09T12:12:26Z</time>
      </trkpt>
      <trkpt lat="62.653379668542" lon="17.855814383836">
        <ele>52</ele>
        <time>2018-01-09T12:12:27Z</time>
      </trkpt>
      <trkpt lat="62.653353349376" lon="17.855806169574">
        <ele>52.4</ele>
        <time>2018-01-09T12:12:28Z</time>
      </trkpt>
      <trkpt lat="62.653330634427" lon="17.855783622263">
        <ele>52.4</ele>
        <time>2018-01-09T12:12:29Z</time>
      </trkpt>
      <trkpt lat="62.653317223387" lon="17.855755123803">
        <ele>52.8</ele>
        <time>2018-01-09T12:12:30Z</time>
      </trkpt>
      <trkpt lat="62.653297861198" lon="17.855741796582">
        <ele>52.8</ele>
        <time>2018-01-09T12:12:31Z</time>
      </trkpt>
      <trkpt lat="62.653275230068" lon="17.855720674194">
        <ele>53</ele>
        <time>2018-01-09T12:12:32Z</time>
      </trkpt>
      <trkpt lat="62.653256454612" lon="17.855697707788">
        <ele>53</ele>
        <time>2018-01-09T12:12:33Z</time>
      </trkpt>
      <trkpt lat="62.653238014432" lon="17.855698545978">
        <ele>53.2</ele>
        <time>2018-01-09T12:12:34Z</time>
      </trkpt>
      <trkpt lat="62.653221082994" lon="17.855698210702">
        <ele>53.2</ele>
        <time>2018-01-09T12:12:35Z</time>
      </trkpt>
      <trkpt lat="62.653213204008" lon="17.855679519065">
        <ele>53.4</ele>
        <time>2018-01-09T12:12:36Z</time>
      </trkpt>
      <trkpt lat="62.653196188751" lon="17.855669209328">
        <ele>53.6</ele>
        <time>2018-01-09T12:12:37Z</time>
      </trkpt>
      <trkpt lat="62.653180011684" lon="17.855656217383">
        <ele>53.6</ele>
        <time>2018-01-09T12:12:38Z</time>
      </trkpt>
      <trkpt lat="62.65316609773" lon="17.855651774976">
        <ele>54</ele>
        <time>2018-01-09T12:12:39Z</time>
      </trkpt>
      <trkpt lat="62.653152351414" lon="17.855645153275">
        <ele>54.2</ele>
        <time>2018-01-09T12:12:40Z</time>
      </trkpt>
      <trkpt lat="62.653141035849" lon="17.855636687556">
        <ele>54.2</ele>
        <time>2018-01-09T12:12:41Z</time>
      </trkpt>
      <trkpt lat="62.653132234854" lon="17.855628557113">
        <ele>54.4</ele>
        <time>2018-01-09T12:12:42Z</time>
      </trkpt>
      <trkpt lat="62.653119662004" lon="17.855617995919">
        <ele>54.8</ele>
        <time>2018-01-09T12:12:43Z</time>
      </trkpt>
      <trkpt lat="62.653110022819" lon="17.855611709494">
        <ele>55</ele>
        <time>2018-01-09T12:12:44Z</time>
      </trkpt>
      <trkpt lat="62.653100970367" lon="17.855602573223">
        <ele>55.4</ele>
        <time>2018-01-09T12:12:45Z</time>
      </trkpt>
      <trkpt lat="62.653091415001" lon="17.855596454436">
        <ele>55.8</ele>
        <time>2018-01-09T12:12:46Z</time>
      </trkpt>
      <trkpt lat="62.653083284558" lon="17.855590838563">
        <ele>56</ele>
        <time>2018-01-09T12:12:47Z</time>
      </trkpt>
      <trkpt lat="62.65307557321" lon="17.855580109731">
        <ele>56.4</ele>
        <time>2018-01-09T12:12:48Z</time>
      </trkpt>
      <trkpt lat="62.653065682568" lon="17.855569799994">
        <ele>56.6</ele>
        <time>2018-01-09T12:12:49Z</time>
      </trkpt>
      <trkpt lat="62.653051600976" lon="17.855569045623">
        <ele>56.8</ele>
        <time>2018-01-09T12:12:50Z</time>
      </trkpt>
      <trkpt lat="62.653040955963" lon="17.855557143325">
        <ele>57</ele>
        <time>2018-01-09T12:12:51Z</time>
      </trkpt>
      <trkpt lat="62.653032741701" lon="17.8555508569">
        <ele>57</ele>
        <time>2018-01-09T12:12:52Z</time>
      </trkpt>
      <trkpt lat="62.653027712561" lon="17.855543648466">
        <ele>57.2</ele>
        <time>2018-01-09T12:12:53Z</time>
      </trkpt>
      <trkpt lat="62.653022264326" lon="17.855537697317">
        <ele>57.2</ele>
        <time>2018-01-09T12:12:54Z</time>
      </trkpt>
      <trkpt lat="62.653011116399" lon="17.855533925462">
        <ele>57.4</ele>
        <time>2018-01-09T12:12:55Z</time>
      </trkpt>
      <trkpt lat="62.653000722843" lon="17.8555340931">
        <ele>57.6</ele>
        <time>2018-01-09T12:12:56Z</time>
      </trkpt>
      <trkpt lat="62.652988317631" lon="17.855535685661">
        <ele>57.6</ele>
        <time>2018-01-09T12:12:57Z</time>
      </trkpt>
      <trkpt lat="62.652976247695" lon="17.855521939345">
        <ele>57.8</ele>
        <time>2018-01-09T12:12:58Z</time>
      </trkpt>
      <trkpt lat="62.652967530519" lon="17.855507941572">
        <ele>58</ele>
        <time>2018-01-09T12:12:59Z</time>
      </trkpt>
      <trkpt lat="62.652957220782" lon="17.855497967111">
        <ele>58</ele>
        <time>2018-01-09T12:13:00Z</time>
      </trkpt>
      <trkpt lat="62.652946911045" lon="17.855491764505">
        <ele>58.2</ele>
        <time>2018-01-09T12:13:01Z</time>
      </trkpt>
      <trkpt lat="62.652933164729" lon="17.855480784216">
        <ele>58.4</ele>
        <time>2018-01-09T12:13:02Z</time>
      </trkpt>
      <trkpt lat="62.65291883168" lon="17.855465780615">
        <ele>58.8</ele>
        <time>2018-01-09T12:13:03Z</time>
      </trkpt>
      <trkpt lat="62.652902319337" lon="17.855448513901">
        <ele>58.8</ele>
        <time>2018-01-09T12:13:04Z</time>
      </trkpt>
      <trkpt lat="62.652884801166" lon="17.855437030698">
        <ele>59</ele>
        <time>2018-01-09T12:13:05Z</time>
      </trkpt>
      <trkpt lat="62.652865774253" lon="17.855426720961">
        <ele>59.4</ele>
        <time>2018-01-09T12:13:06Z</time>
      </trkpt>
      <trkpt lat="62.65284088001" lon="17.855433175024">
        <ele>59.4</ele>
        <time>2018-01-09T12:13:07Z</time>
      </trkpt>
      <trkpt lat="62.652817075414" lon="17.855434767585">
        <ele>59.6</ele>
        <time>2018-01-09T12:13:08Z</time>
      </trkpt>
      <trkpt lat="62.652799389605" lon="17.855432755929">
        <ele>60</ele>
        <time>2018-01-09T12:13:09Z</time>
      </trkpt>
      <trkpt lat="62.652779859778" lon="17.855427894427">
        <ele>60.2</ele>
        <time>2018-01-09T12:13:10Z</time>
      </trkpt>
      <trkpt lat="62.652762341607" lon="17.855428229703">
        <ele>60.2</ele>
        <time>2018-01-09T12:13:11Z</time>
      </trkpt>
      <trkpt lat="62.652744236703" lon="17.855419931622">
        <ele>60.4</ele>
        <time>2018-01-09T12:13:12Z</time>
      </trkpt>
      <trkpt lat="62.652719007184" lon="17.855413477559">
        <ele>60.6</ele>
        <time>2018-01-09T12:13:13Z</time>
      </trkpt>
      <trkpt lat="62.652698220072" lon="17.855422278554">
        <ele>60.6</ele>
        <time>2018-01-09T12:13:14Z</time>
      </trkpt>
      <trkpt lat="62.652676343313" lon="17.855421859459">
        <ele>60.6</ele>
        <time>2018-01-09T12:13:15Z</time>
      </trkpt>
      <trkpt lat="62.652657232581" lon="17.855415153939">
        <ele>60.6</ele>
        <time>2018-01-09T12:13:16Z</time>
      </trkpt>
      <trkpt lat="62.652633260347" lon="17.855420266898">
        <ele>60.6</ele>
        <time>2018-01-09T12:13:17Z</time>
      </trkpt>
      <trkpt lat="62.652612473235" lon="17.85542345202">
        <ele>60.6</ele>
        <time>2018-01-09T12:13:18Z</time>
      </trkpt>
      <trkpt lat="62.652586824621" lon="17.855418087604">
        <ele>60.6</ele>
        <time>2018-01-09T12:13:19Z</time>
      </trkpt>
      <trkpt lat="62.65256679188" lon="17.855413226102">
        <ele>60.8</ele>
        <time>2018-01-09T12:13:20Z</time>
      </trkpt>
      <trkpt lat="62.652546004768" lon="17.855407861686">
        <ele>60.8</ele>
        <time>2018-01-09T12:13:21Z</time>
      </trkpt>
      <trkpt lat="62.652517506308" lon="17.855431582463">
        <ele>60.8</ele>
        <time>2018-01-09T12:13:22Z</time>
      </trkpt>
      <trkpt lat="62.652483224337" lon="17.855449519729">
        <ele>60.8</ele>
        <time>2018-01-09T12:13:23Z</time>
      </trkpt>
      <trkpt lat="62.652471154401" lon="17.855450525557">
        <ele>61.2</ele>
        <time>2018-01-09T12:13:24Z</time>
      </trkpt>
      <trkpt lat="62.652450870203" lon="17.855459075095">
        <ele>61.2</ele>
        <time>2018-01-09T12:13:25Z</time>
      </trkpt>
      <trkpt lat="62.652429663996" lon="17.855481957682">
        <ele>61.4</ele>
        <time>2018-01-09T12:13:26Z</time>
      </trkpt>
      <trkpt lat="62.652418599888" lon="17.855506600468">
        <ele>61.6</ele>
        <time>2018-01-09T12:13:27Z</time>
      </trkpt>
      <trkpt lat="62.652399237699" lon="17.85553912224">
        <ele>61.8</ele>
        <time>2018-01-09T12:13:28Z</time>
      </trkpt>
      <trkpt lat="62.652384820831" lon="17.855575080591">
        <ele>61.8</ele>
        <time>2018-01-09T12:13:29Z</time>
      </trkpt>
      <trkpt lat="62.652371828886" lon="17.855617241548">
        <ele>61.8</ele>
        <time>2018-01-09T12:13:30Z</time>
      </trkpt>
      <trkpt lat="62.652358334027" lon="17.855663006722">
        <ele>61.8</ele>
        <time>2018-01-09T12:13:31Z</time>
      </trkpt>
      <trkpt lat="62.652346096453" lon="17.855701060548">
        <ele>61.8</ele>
        <time>2018-01-09T12:13:32Z</time>
      </trkpt>
      <trkpt lat="62.652334361793" lon="17.855744730247">
        <ele>62</ele>
        <time>2018-01-09T12:13:33Z</time>
      </trkpt>
      <trkpt lat="62.652324052056" lon="17.85580734304">
        <ele>62</ele>
        <time>2018-01-09T12:13:34Z</time>
      </trkpt>
      <trkpt lat="62.652308294084" lon="17.855877834819">
        <ele>62.2</ele>
        <time>2018-01-09T12:13:35Z</time>
      </trkpt>
      <trkpt lat="62.652287590791" lon="17.85592971878">
        <ele>62.2</ele>
        <time>2018-01-09T12:13:36Z</time>
      </trkpt>
      <trkpt lat="62.652277783968" lon="17.855968359339">
        <ele>62</ele>
        <time>2018-01-09T12:13:37Z</time>
      </trkpt>
      <trkpt lat="62.652255488114" lon="17.856024937164">
        <ele>62</ele>
        <time>2018-01-09T12:13:38Z</time>
      </trkpt>
      <trkpt lat="62.652242579988" lon="17.856066595207">
        <ele>62</ele>
        <time>2018-01-09T12:13:39Z</time>
      </trkpt>
      <trkpt lat="62.652231767337" lon="17.856099619893">
        <ele>62</ele>
        <time>2018-01-09T12:13:40Z</time>
      </trkpt>
      <trkpt lat="62.65221810484" lon="17.856128621267">
        <ele>62</ele>
        <time>2018-01-09T12:13:41Z</time>
      </trkpt>
      <trkpt lat="62.652202263049" lon="17.856160388668">
        <ele>62</ele>
        <time>2018-01-09T12:13:42Z</time>
      </trkpt>
      <trkpt lat="62.652183236136" lon="17.856189641499">
        <ele>62</ele>
        <time>2018-01-09T12:13:43Z</time>
      </trkpt>
      <trkpt lat="62.652168316354" lon="17.856210847706">
        <ele>62.2</ele>
        <time>2018-01-09T12:13:44Z</time>
      </trkpt>
      <trkpt lat="62.652158174255" lon="17.856232808284">
        <ele>62.4</ele>
        <time>2018-01-09T12:13:45Z</time>
      </trkpt>
      <trkpt lat="62.652146607233" lon="17.85625242193">
        <ele>62.6</ele>
        <time>2018-01-09T12:13:46Z</time>
      </trkpt>
      <trkpt lat="62.652129508157" lon="17.856276310345">
        <ele>62.8</ele>
        <time>2018-01-09T12:13:47Z</time>
      </trkpt>
      <trkpt lat="62.65210494919" lon="17.856294582887">
        <ele>63</ele>
        <time>2018-01-09T12:13:48Z</time>
      </trkpt>
      <trkpt lat="62.652069661391" lon="17.856320902053">
        <ele>63.2</ele>
        <time>2018-01-09T12:13:49Z</time>
      </trkpt>
      <trkpt lat="62.652030937013" lon="17.856332385256">
        <ele>63.2</ele>
        <time>2018-01-09T12:13:50Z</time>
      </trkpt>
      <trkpt lat="62.651993721377" lon="17.856351831264">
        <ele>63.2</ele>
        <time>2018-01-09T12:13:51Z</time>
      </trkpt>
      <trkpt lat="62.651956170465" lon="17.856382592837">
        <ele>62.8</ele>
        <time>2018-01-09T12:13:52Z</time>
      </trkpt>
      <trkpt lat="62.651924067788" lon="17.856427184545">
        <ele>62.4</ele>
        <time>2018-01-09T12:13:53Z</time>
      </trkpt>
      <trkpt lat="62.651887522704" lon="17.856499017428">
        <ele>61.8</ele>
        <time>2018-01-09T12:13:54Z</time>
      </trkpt>
      <trkpt lat="62.651847205765" lon="17.856597504753">
        <ele>61.4</ele>
        <time>2018-01-09T12:13:55Z</time>
      </trkpt>
      <trkpt lat="62.651814013441" lon="17.856697836096">
        <ele>60.8</ele>
        <time>2018-01-09T12:13:56Z</time>
      </trkpt>
      <trkpt lat="62.651789119198" lon="17.856792970661">
        <ele>60.4</ele>
        <time>2018-01-09T12:13:57Z</time>
      </trkpt>
      <trkpt lat="62.651766152792" lon="17.856897325316">
        <ele>59.8</ele>
        <time>2018-01-09T12:13:58Z</time>
      </trkpt>
      <trkpt lat="62.651746539146" lon="17.856970583122">
        <ele>59.2</ele>
        <time>2018-01-09T12:13:59Z</time>
      </trkpt>
      <trkpt lat="62.651722650731" lon="17.857052306647">
        <ele>58.8</ele>
        <time>2018-01-09T12:14:00Z</time>
      </trkpt>
      <trkpt lat="62.651698091764" lon="17.857117014915">
        <ele>58.6</ele>
        <time>2018-01-09T12:14:01Z</time>
      </trkpt>
      <trkpt lat="62.651662301051" lon="17.857169485609">
        <ele>58.6</ele>
        <time>2018-01-09T12:14:02Z</time>
      </trkpt>
      <trkpt lat="62.65164226831" lon="17.857227823633">
        <ele>58.6</ele>
        <time>2018-01-09T12:14:03Z</time>
      </trkpt>
      <trkpt lat="62.651620894465" lon="17.857294459738">
        <ele>58.8</ele>
        <time>2018-01-09T12:14:04Z</time>
      </trkpt>
      <trkpt lat="62.651599772077" lon="17.857355815246">
        <ele>59.2</ele>
        <time>2018-01-09T12:14:05Z</time>
      </trkpt>
      <trkpt lat="62.651566160658" lon="17.857436952038">
        <ele>59.2</ele>
        <time>2018-01-09T12:14:06Z</time>
      </trkpt>
      <trkpt lat="62.651540344406" lon="17.857501744125">
        <ele>59.6</ele>
        <time>2018-01-09T12:14:07Z</time>
      </trkpt>
      <trkpt lat="62.651506984444" lon="17.857578773786">
        <ele>59.2</ele>
        <time>2018-01-09T12:14:08Z</time>
      </trkpt>
      <trkpt lat="62.651480246183" lon="17.857638369095">
        <ele>58.8</ele>
        <time>2018-01-09T12:14:09Z</time>
      </trkpt>
      <trkpt lat="62.651448897877" lon="17.85771087253">
        <ele>58.6</ele>
        <time>2018-01-09T12:14:10Z</time>
      </trkpt>
      <trkpt lat="62.651424674186" lon="17.857773150047">
        <ele>58.4</ele>
        <time>2018-01-09T12:14:11Z</time>
      </trkpt>
      <trkpt lat="62.651397433011" lon="17.857833332089">
        <ele>58.4</ele>
        <time>2018-01-09T12:14:12Z</time>
      </trkpt>
      <trkpt lat="62.651369772741" lon="17.857896531615">
        <ele>58.4</ele>
        <time>2018-01-09T12:14:13Z</time>
      </trkpt>
      <trkpt lat="62.651341441919" lon="17.857963335358">
        <ele>58.4</ele>
        <time>2018-01-09T12:14:14Z</time>
      </trkpt>
      <trkpt lat="62.651305902663" lon="17.858027875988">
        <ele>58.4</ele>
        <time>2018-01-09T12:14:15Z</time>
      </trkpt>
      <trkpt lat="62.651278410031" lon="17.858082693614">
        <ele>58.2</ele>
        <time>2018-01-09T12:14:16Z</time>
      </trkpt>
      <trkpt lat="62.651255359806" lon="17.858133068833">
        <ele>58</ele>
        <time>2018-01-09T12:14:17Z</time>
      </trkpt>
      <trkpt lat="62.651223927681" lon="17.858192245047">
        <ele>58</ele>
        <time>2018-01-09T12:14:18Z</time>
      </trkpt>
      <trkpt lat="62.651186376769" lon="17.858258126781">
        <ele>58</ele>
        <time>2018-01-09T12:14:19Z</time>
      </trkpt>
      <trkpt lat="62.651151005151" lon="17.8583168839">
        <ele>58</ele>
        <time>2018-01-09T12:14:20Z</time>
      </trkpt>
      <trkpt lat="62.651126110908" lon="17.858357619934">
        <ele>58</ele>
        <time>2018-01-09T12:14:21Z</time>
      </trkpt>
      <trkpt lat="62.651097193353" lon="17.858411012637">
        <ele>57.8</ele>
        <time>2018-01-09T12:14:22Z</time>
      </trkpt>
      <trkpt lat="62.651067521427" lon="17.85846943448">
        <ele>57.6</ele>
        <time>2018-01-09T12:14:23Z</time>
      </trkpt>
      <trkpt lat="62.65103290418" lon="17.858515451111">
        <ele>57.6</ele>
        <time>2018-01-09T12:14:24Z</time>
      </trkpt>
      <trkpt lat="62.650989821214" lon="17.858558114982">
        <ele>57.6</ele>
        <time>2018-01-09T12:14:25Z</time>
      </trkpt>
      <trkpt lat="62.650948330809" lon="17.858579153551">
        <ele>57.4</ele>
        <time>2018-01-09T12:14:26Z</time>
      </trkpt>
      <trkpt lat="62.650915306123" lon="17.858588206003">
        <ele>57.2</ele>
        <time>2018-01-09T12:14:27Z</time>
      </trkpt>
      <trkpt lat="62.650884963645" lon="17.858582673949">
        <ele>56.8</ele>
        <time>2018-01-09T12:14:28Z</time>
      </trkpt>
      <trkpt lat="62.650867445474" lon="17.858579991741">
        <ele>56.6</ele>
        <time>2018-01-09T12:14:29Z</time>
      </trkpt>
      <trkpt lat="62.650850514036" lon="17.858573621497">
        <ele>56.4</ele>
        <time>2018-01-09T12:14:30Z</time>
      </trkpt>
      <trkpt lat="62.650827044716" lon="17.858569765823">
        <ele>56.2</ele>
        <time>2018-01-09T12:14:31Z</time>
      </trkpt>
      <trkpt lat="62.650804581224" lon="17.858564904321">
        <ele>56.4</ele>
        <time>2018-01-09T12:14:32Z</time>
      </trkpt>
      <trkpt lat="62.650780525171" lon="17.858556522421">
        <ele>56.4</ele>
        <time>2018-01-09T12:14:33Z</time>
      </trkpt>
      <trkpt lat="62.650760157154" lon="17.858538668974">
        <ele>56.2</ele>
        <time>2018-01-09T12:14:34Z</time>
      </trkpt>
      <trkpt lat="62.650739370042" lon="17.858510589609">
        <ele>56</ele>
        <time>2018-01-09T12:14:35Z</time>
      </trkpt>
      <trkpt lat="62.650718331473" lon="17.858480582407">
        <ele>55.8</ele>
        <time>2018-01-09T12:14:36Z</time>
      </trkpt>
      <trkpt lat="62.650694107782" lon="17.858439427278">
        <ele>55.8</ele>
        <time>2018-01-09T12:14:37Z</time>
      </trkpt>
      <trkpt lat="62.650663932942" lon="17.858383771462">
        <ele>55.6</ele>
        <time>2018-01-09T12:14:38Z</time>
      </trkpt>
      <trkpt lat="62.650639709251" lon="17.858314788425">
        <ele>55.4</ele>
        <time>2018-01-09T12:14:39Z</time>
      </trkpt>
      <trkpt lat="62.650615401741" lon="17.858220156774">
        <ele>55</ele>
        <time>2018-01-09T12:14:40Z</time>
      </trkpt>
      <trkpt lat="62.650596877742" lon="17.858127872055">
        <ele>54.6</ele>
        <time>2018-01-09T12:14:41Z</time>
      </trkpt>
      <trkpt lat="62.650585059263" lon="17.858032905128">
        <ele>54.2</ele>
        <time>2018-01-09T12:14:42Z</time>
      </trkpt>
      <trkpt lat="62.65056938511" lon="17.857913127777">
        <ele>53.6</ele>
        <time>2018-01-09T12:14:43Z</time>
      </trkpt>
      <trkpt lat="62.650551364025" lon="17.857785555259">
        <ele>53.4</ele>
        <time>2018-01-09T12:14:44Z</time>
      </trkpt>
      <trkpt lat="62.650531582741" lon="17.857673405437">
        <ele>52.4</ele>
        <time>2018-01-09T12:14:45Z</time>
      </trkpt>
      <trkpt lat="62.650507442869" lon="17.857545330005">
        <ele>51.8</ele>
        <time>2018-01-09T12:14:46Z</time>
      </trkpt>
      <trkpt lat="62.650477519486" lon="17.857411051967">
        <ele>51.2</ele>
        <time>2018-01-09T12:14:47Z</time>
      </trkpt>
      <trkpt lat="62.650441728773" lon="17.857264871631">
        <ele>50.6</ele>
        <time>2018-01-09T12:14:48Z</time>
      </trkpt>
      <trkpt lat="62.650402669119" lon="17.85713671238">
        <ele>50</ele>
        <time>2018-01-09T12:14:49Z</time>
      </trkpt>
      <trkpt lat="62.65035983761" lon="17.857017270305">
        <ele>49</ele>
        <time>2018-01-09T12:14:50Z</time>
      </trkpt>
      <trkpt lat="62.65031792811" lon="17.856915011125">
        <ele>47.6</ele>
        <time>2018-01-09T12:14:51Z</time>
      </trkpt>
      <trkpt lat="62.650270486556" lon="17.856808728633">
        <ele>46.4</ele>
        <time>2018-01-09T12:14:52Z</time>
      </trkpt>
      <trkpt lat="62.650216674758" lon="17.856719712855">
        <ele>45.8</ele>
        <time>2018-01-09T12:14:53Z</time>
      </trkpt>
      <trkpt lat="62.650162946779" lon="17.856650226904">
        <ele>45.2</ele>
        <time>2018-01-09T12:14:54Z</time>
      </trkpt>
      <trkpt lat="62.650105949859" lon="17.856600438418">
        <ele>44.6</ele>
        <time>2018-01-09T12:14:55Z</time>
      </trkpt>
      <trkpt lat="62.650049372034" lon="17.856562300773">
        <ele>44.4</ele>
        <time>2018-01-09T12:14:56Z</time>
      </trkpt>
      <trkpt lat="62.650006708163" lon="17.85654495024">
        <ele>44.2</ele>
        <time>2018-01-09T12:14:57Z</time>
      </trkpt>
      <trkpt lat="62.649953399279" lon="17.856522989662">
        <ele>44</ele>
        <time>2018-01-09T12:14:58Z</time>
      </trkpt>
      <trkpt lat="62.649918279118" lon="17.856519469264">
        <ele>44</ele>
        <time>2018-01-09T12:14:59Z</time>
      </trkpt>
      <trkpt lat="62.649890535029" lon="17.856509997717">
        <ele>44.4</ele>
        <time>2018-01-09T12:15:00Z</time>
      </trkpt>
      <trkpt lat="62.649863042397" lon="17.856500945265">
        <ele>44.8</ele>
        <time>2018-01-09T12:15:01Z</time>
      </trkpt>
      <trkpt lat="62.649833789566" lon="17.856494323564">
        <ele>45.2</ele>
        <time>2018-01-09T12:15:02Z</time>
      </trkpt>
      <trkpt lat="62.64981417592" lon="17.856492814822">
        <ele>45.6</ele>
        <time>2018-01-09T12:15:03Z</time>
      </trkpt>
      <trkpt lat="62.649787689116" lon="17.856485354931">
        <ele>46.2</ele>
        <time>2018-01-09T12:15:04Z</time>
      </trkpt>
      <trkpt lat="62.649759525932" lon="17.856490803166">
        <ele>46.6</ele>
        <time>2018-01-09T12:15:05Z</time>
      </trkpt>
      <trkpt lat="62.6497404152" lon="17.856496167582">
        <ele>46.8</ele>
        <time>2018-01-09T12:15:06Z</time>
      </trkpt>
      <trkpt lat="62.649723986676" lon="17.856495664668">
        <ele>46.8</ele>
        <time>2018-01-09T12:15:07Z</time>
      </trkpt>
      <trkpt lat="62.649704708306" lon="17.856494910297">
        <ele>47</ele>
        <time>2018-01-09T12:15:08Z</time>
      </trkpt>
      <trkpt lat="62.649687022497" lon="17.856493066279">
        <ele>47</ele>
        <time>2018-01-09T12:15:09Z</time>
      </trkpt>
      <trkpt lat="62.649666486842" lon="17.856496167582">
        <ele>47.2</ele>
        <time>2018-01-09T12:15:10Z</time>
      </trkpt>
      <trkpt lat="62.649645112997" lon="17.856499436523">
        <ele>47.4</ele>
        <time>2018-01-09T12:15:11Z</time>
      </trkpt>
      <trkpt lat="62.649626169903" lon="17.856500777627">
        <ele>47.6</ele>
        <time>2018-01-09T12:15:12Z</time>
      </trkpt>
      <trkpt lat="62.649606807714" lon="17.856500190894">
        <ele>47.8</ele>
        <time>2018-01-09T12:15:13Z</time>
      </trkpt>
      <trkpt lat="62.649590798285" lon="17.856503711292">
        <ele>48.4</ele>
        <time>2018-01-09T12:15:14Z</time>
      </trkpt>
      <trkpt lat="62.649573950666" lon="17.856502621645">
        <ele>48.6</ele>
        <time>2018-01-09T12:15:15Z</time>
      </trkpt>
      <trkpt lat="62.649557522142" lon="17.856506644957">
        <ele>48.8</ele>
        <time>2018-01-09T12:15:16Z</time>
      </trkpt>
      <trkpt lat="62.649537992315" lon="17.856508656613">
        <ele>49</ele>
        <time>2018-01-09T12:15:17Z</time>
      </trkpt>
      <trkpt lat="62.649518211031" lon="17.856505387672">
        <ele>49.4</ele>
        <time>2018-01-09T12:15:18Z</time>
      </trkpt>
      <trkpt lat="62.649493316788" lon="17.856500861446">
        <ele>49.6</ele>
        <time>2018-01-09T12:15:19Z</time>
      </trkpt>
      <trkpt lat="62.649470937115" lon="17.856494491202">
        <ele>49.8</ele>
        <time>2018-01-09T12:15:20Z</time>
      </trkpt>
      <trkpt lat="62.649450820555" lon="17.85649549703">
        <ele>50</ele>
        <time>2018-01-09T12:15:21Z</time>
      </trkpt>
      <trkpt lat="62.649430787814" lon="17.85649633522">
        <ele>50</ele>
        <time>2018-01-09T12:15:22Z</time>
      </trkpt>
      <trkpt lat="62.649408994874" lon="17.856494072107">
        <ele>50.2</ele>
        <time>2018-01-09T12:15:23Z</time>
      </trkpt>
      <trkpt lat="62.649385525554" lon="17.856482169809">
        <ele>50.4</ele>
        <time>2018-01-09T12:15:24Z</time>
      </trkpt>
      <trkpt lat="62.649369767582" lon="17.856464903095">
        <ele>50.4</ele>
        <time>2018-01-09T12:15:25Z</time>
      </trkpt>
      <trkpt lat="62.649345879167" lon="17.85643850011">
        <ele>50.6</ele>
        <time>2018-01-09T12:15:26Z</time>
      </trkpt>
      <trkpt lat="62.649329283005" lon="17.856414024962">
        <ele>50.6</ele>
        <time>2018-01-09T12:15:27Z</time>
      </trkpt>
      <trkpt lat="62.649310759006" lon="17.856382676656">
        <ele>50.8</ele>
        <time>2018-01-09T12:15:28Z</time>
      </trkpt>
      <trkpt lat="62.649289971894" lon="17.856345963934">
        <ele>51</ele>
        <time>2018-01-09T12:15:29Z</time>
      </trkpt>
      <trkpt lat="62.649269855334" lon="17.856315369999">
        <ele>51</ele>
        <time>2018-01-09T12:15:30Z</time>
      </trkpt>
      <trkpt lat="62.649247978575" lon="17.856279830743">
        <ele>51</ele>
        <time>2018-01-09T12:15:31Z</time>
      </trkpt>
      <trkpt lat="62.649227945834" lon="17.856245045858">
        <ele>51.2</ele>
        <time>2018-01-09T12:15:32Z</time>
      </trkpt>
      <trkpt lat="62.64921067912" lon="17.856210177154">
        <ele>51.4</ele>
        <time>2018-01-09T12:15:33Z</time>
      </trkpt>
      <trkpt lat="62.649191652207" lon="17.856173883527">
        <ele>51.4</ele>
        <time>2018-01-09T12:15:34Z</time>
      </trkpt>
      <trkpt lat="62.649176900063" lon="17.856143373411">
        <ele>51.6</ele>
        <time>2018-01-09T12:15:35Z</time>
      </trkpt>
      <trkpt lat="62.649152760191" lon="17.856091740907">
        <ele>51.8</ele>
        <time>2018-01-09T12:15:36Z</time>
      </trkpt>
      <trkpt lat="62.64913021288" lon="17.856060895515">
        <ele>51.8</ele>
        <time>2018-01-09T12:15:37Z</time>
      </trkpt>
      <trkpt lat="62.649109761044" lon="17.856027200277">
        <ele>51.8</ele>
        <time>2018-01-09T12:15:38Z</time>
      </trkpt>
      <trkpt lat="62.649089895941" lon="17.855997947446">
        <ele>51.8</ele>
        <time>2018-01-09T12:15:39Z</time>
      </trkpt>
      <trkpt lat="62.649074221788" lon="17.855969448986">
        <ele>51.8</ele>
        <time>2018-01-09T12:15:40Z</time>
      </trkpt>
      <trkpt lat="62.64905729035" lon="17.855928377676">
        <ele>52</ele>
        <time>2018-01-09T12:15:41Z</time>
      </trkpt>
      <trkpt lat="62.649038514894" lon="17.855895688266">
        <ele>52</ele>
        <time>2018-01-09T12:15:42Z</time>
      </trkpt>
      <trkpt lat="62.649018649791" lon="17.855870374928">
        <ele>52</ele>
        <time>2018-01-09T12:15:43Z</time>
      </trkpt>
      <trkpt lat="62.64900029343" lon="17.855857802078">
        <ele>52</ele>
        <time>2018-01-09T12:15:44Z</time>
      </trkpt>
      <trkpt lat="62.64898269144" lon="17.855833159292">
        <ele>52</ele>
        <time>2018-01-09T12:15:45Z</time>
      </trkpt>
      <trkpt lat="62.648967687839" lon="17.855800469882">
        <ele>52.2</ele>
        <time>2018-01-09T12:15:46Z</time>
      </trkpt>
      <trkpt lat="62.64895000203" lon="17.855774569811">
        <ele>52.2</ele>
        <time>2018-01-09T12:15:47Z</time>
      </trkpt>
      <trkpt lat="62.648932986773" lon="17.855745065523">
        <ele>52.2</ele>
        <time>2018-01-09T12:15:48Z</time>
      </trkpt>
      <trkpt lat="62.648913876041" lon="17.855722015298">
        <ele>52.4</ele>
        <time>2018-01-09T12:15:49Z</time>
      </trkpt>
      <trkpt lat="62.648895687318" lon="17.855702150195">
        <ele>52.4</ele>
        <time>2018-01-09T12:15:50Z</time>
      </trkpt>
      <trkpt lat="62.648875151663" lon="17.855684212929">
        <ele>52.6</ele>
        <time>2018-01-09T12:15:51Z</time>
      </trkpt>
      <trkpt lat="62.648856795302" lon="17.855659486324">
        <ele>52.8</ele>
        <time>2018-01-09T12:15:52Z</time>
      </trkpt>
      <trkpt lat="62.648838019846" lon="17.855627383647">
        <ele>52.8</ele>
        <time>2018-01-09T12:15:53Z</time>
      </trkpt>
      <trkpt lat="62.648821004589" lon="17.855599639558">
        <ele>53.2</ele>
        <time>2018-01-09T12:15:54Z</time>
      </trkpt>
      <trkpt lat="62.648807090635" lon="17.855568794166">
        <ele>53.2</ele>
        <time>2018-01-09T12:15:55Z</time>
      </trkpt>
      <trkpt lat="62.648787979903" lon="17.855542894095">
        <ele>53.4</ele>
        <time>2018-01-09T12:15:56Z</time>
      </trkpt>
      <trkpt lat="62.648780520012" lon="17.855522609897">
        <ele>53.6</ele>
        <time>2018-01-09T12:15:57Z</time>
      </trkpt>
      <trkpt lat="62.648761912194" lon="17.855488579383">
        <ele>53.8</ele>
        <time>2018-01-09T12:15:58Z</time>
      </trkpt>
      <trkpt lat="62.648739783978" lon="17.855450777014">
        <ele>53.8</ele>
        <time>2018-01-09T12:15:59Z</time>
      </trkpt>
      <trkpt lat="62.648716649934" lon="17.855431917739">
        <ele>54</ele>
        <time>2018-01-09T12:16:00Z</time>
      </trkpt>
      <trkpt lat="62.648694186442" lon="17.855405430935">
        <ele>54.2</ele>
        <time>2018-01-09T12:16:01Z</time>
      </trkpt>
      <trkpt lat="62.64867004657" lon="17.855390008239">
        <ele>54.2</ele>
        <time>2018-01-09T12:16:02Z</time>
      </trkpt>
      <trkpt lat="62.648643727404" lon="17.855373076801">
        <ele>54.2</ele>
        <time>2018-01-09T12:16:03Z</time>
      </trkpt>
      <trkpt lat="62.648617827333" lon="17.855374669362">
        <ele>54.2</ele>
        <time>2018-01-09T12:16:04Z</time>
      </trkpt>
      <trkpt lat="62.648586898122" lon="17.855379782321">
        <ele>54.2</ele>
        <time>2018-01-09T12:16:05Z</time>
      </trkpt>
      <trkpt lat="62.64855940549" lon="17.855394199189">
        <ele>54.2</ele>
        <time>2018-01-09T12:16:06Z</time>
      </trkpt>
      <trkpt lat="62.648537361093" lon="17.855406352944">
        <ele>54.2</ele>
        <time>2018-01-09T12:16:07Z</time>
      </trkpt>
      <trkpt lat="62.64850743771" lon="17.855433091205">
        <ele>54.2</ele>
        <time>2018-01-09T12:16:08Z</time>
      </trkpt>
      <trkpt lat="62.64848815934" lon="17.85545446505">
        <ele>54</ele>
        <time>2018-01-09T12:16:09Z</time>
      </trkpt>
      <trkpt lat="62.648458068319" lon="17.855481538587">
        <ele>54</ele>
        <time>2018-01-09T12:16:10Z</time>
      </trkpt>
      <trkpt lat="62.648445160193" lon="17.855504253536">
        <ele>54</ele>
        <time>2018-01-09T12:16:11Z</time>
      </trkpt>
      <trkpt lat="62.648421607054" lon="17.855525375924">
        <ele>54</ele>
        <time>2018-01-09T12:16:12Z</time>
      </trkpt>
      <trkpt lat="62.648394952612" lon="17.855548761425">
        <ele>54</ele>
        <time>2018-01-09T12:16:13Z</time>
      </trkpt>
      <trkpt lat="62.648374919871" lon="17.855581450835">
        <ele>54</ele>
        <time>2018-01-09T12:16:14Z</time>
      </trkpt>
      <trkpt lat="62.648347678696" lon="17.855598214635">
        <ele>53.8</ele>
        <time>2018-01-09T12:16:15Z</time>
      </trkpt>
      <trkpt lat="62.648319934607" lon="17.855615900444">
        <ele>53.8</ele>
        <time>2018-01-09T12:16:16Z</time>
      </trkpt>
      <trkpt lat="62.64829118469" lon="17.855628724751">
        <ele>53.6</ele>
        <time>2018-01-09T12:16:17Z</time>
      </trkpt>
      <trkpt lat="62.648256064529" lon="17.85563635228">
        <ele>53.6</ele>
        <time>2018-01-09T12:16:18Z</time>
      </trkpt>
      <trkpt lat="62.648225135318" lon="17.855652361709">
        <ele>53.6</ele>
        <time>2018-01-09T12:16:19Z</time>
      </trkpt>
      <trkpt lat="62.648198899971" lon="17.855653702813">
        <ele>53.8</ele>
        <time>2018-01-09T12:16:20Z</time>
      </trkpt>
      <trkpt lat="62.648168306036" lon="17.855656385021">
        <ele>53.8</ele>
        <time>2018-01-09T12:16:21Z</time>
      </trkpt>
      <trkpt lat="62.648149195304" lon="17.855648757492">
        <ele>53.8</ele>
        <time>2018-01-09T12:16:22Z</time>
      </trkpt>
      <trkpt lat="62.648126647993" lon="17.855646159103">
        <ele>53.8</ele>
        <time>2018-01-09T12:16:23Z</time>
      </trkpt>
      <trkpt lat="62.648102675759" lon="17.855651355881">
        <ele>53.8</ele>
        <time>2018-01-09T12:16:24Z</time>
      </trkpt>
      <trkpt lat="62.648082140104" lon="17.85565563065">
        <ele>53.8</ele>
        <time>2018-01-09T12:16:25Z</time>
      </trkpt>
      <trkpt lat="62.648063616105" lon="17.855660073057">
        <ele>54</ele>
        <time>2018-01-09T12:16:26Z</time>
      </trkpt>
      <trkpt lat="62.648048361047" lon="17.855666610939">
        <ele>54</ele>
        <time>2018-01-09T12:16:27Z</time>
      </trkpt>
      <trkpt lat="62.648030004686" lon="17.855675076658">
        <ele>54</ele>
        <time>2018-01-09T12:16:28Z</time>
      </trkpt>
      <trkpt lat="62.648013659981" lon="17.855685386395">
        <ele>54.2</ele>
        <time>2018-01-09T12:16:29Z</time>
      </trkpt>
      <trkpt lat="62.647996225629" lon="17.85571262757">
        <ele>54.2</ele>
        <time>2018-01-09T12:16:30Z</time>
      </trkpt>
      <trkpt lat="62.647980886752" lon="17.855736767442">
        <ele>54.4</ele>
        <time>2018-01-09T12:16:31Z</time>
      </trkpt>
      <trkpt lat="62.647965212599" lon="17.855760907314">
        <ele>54.4</ele>
        <time>2018-01-09T12:16:32Z</time>
      </trkpt>
      <trkpt lat="62.647950292817" lon="17.855781107693">
        <ele>54.6</ele>
        <time>2018-01-09T12:16:33Z</time>
      </trkpt>
      <trkpt lat="62.647933361379" lon="17.855793512905">
        <ele>54.8</ele>
        <time>2018-01-09T12:16:34Z</time>
      </trkpt>
      <trkpt lat="62.647921794357" lon="17.855799044959">
        <ele>55</ele>
        <time>2018-01-09T12:16:35Z</time>
      </trkpt>
      <trkpt lat="62.647910227335" lon="17.855810360524">
        <ele>55.4</ele>
        <time>2018-01-09T12:16:36Z</time>
      </trkpt>
      <trkpt lat="62.647899582322" lon="17.855823352469">
        <ele>55.6</ele>
        <time>2018-01-09T12:16:37Z</time>
      </trkpt>
      <trkpt lat="62.647890278413" lon="17.855843049934">
        <ele>56</ele>
        <time>2018-01-09T12:16:38Z</time>
      </trkpt>
      <trkpt lat="62.647881980332" lon="17.855862244485">
        <ele>56.2</ele>
        <time>2018-01-09T12:16:39Z</time>
      </trkpt>
      <trkpt lat="62.647870916224" lon="17.855885713805">
        <ele>56.4</ele>
        <time>2018-01-09T12:16:40Z</time>
      </trkpt>
      <trkpt lat="62.647860522668" lon="17.855910272772">
        <ele>56.6</ele>
        <time>2018-01-09T12:16:41Z</time>
      </trkpt>
      <trkpt lat="62.647853565691" lon="17.855926282201">
        <ele>56.8</ele>
        <time>2018-01-09T12:16:42Z</time>
      </trkpt>
      <trkpt lat="62.647844680877" lon="17.855946734037">
        <ele>56.8</ele>
        <time>2018-01-09T12:16:43Z</time>
      </trkpt>
      <trkpt lat="62.647833449131" lon="17.855968946072">
        <ele>57</ele>
        <time>2018-01-09T12:16:44Z</time>
      </trkpt>
      <trkpt lat="62.647826575973" lon="17.855990739012">
        <ele>57.2</ele>
        <time>2018-01-09T12:16:45Z</time>
      </trkpt>
      <trkpt lat="62.647818194073" lon="17.856024266612">
        <ele>57.2</ele>
        <time>2018-01-09T12:16:46Z</time>
      </trkpt>
      <trkpt lat="62.647809476897" lon="17.856063577723">
        <ele>57.2</ele>
        <time>2018-01-09T12:16:47Z</time>
      </trkpt>
      <trkpt lat="62.647803944843" lon="17.856095764219">
        <ele>57.4</ele>
        <time>2018-01-09T12:16:48Z</time>
      </trkpt>
      <trkpt lat="62.647789611794" lon="17.856145804162">
        <ele>57.6</ele>
        <time>2018-01-09T12:16:49Z</time>
      </trkpt>
      <trkpt lat="62.647781313713" lon="17.856188635671">
        <ele>57.8</ele>
        <time>2018-01-09T12:16:50Z</time>
      </trkpt>
      <trkpt lat="62.647774272917" lon="17.856224510203">
        <ele>57.8</ele>
        <time>2018-01-09T12:16:51Z</time>
      </trkpt>
      <trkpt lat="62.647765388103" lon="17.856264910961">
        <ele>58</ele>
        <time>2018-01-09T12:16:52Z</time>
      </trkpt>
      <trkpt lat="62.647753653443" lon="17.856315118542">
        <ele>58</ele>
        <time>2018-01-09T12:16:53Z</time>
      </trkpt>
      <trkpt lat="62.647744014258" lon="17.856357363318">
        <ele>58.2</ele>
        <time>2018-01-09T12:16:54Z</time>
      </trkpt>
      <trkpt lat="62.647736470548" lon="17.856402877035">
        <ele>58.2</ele>
        <time>2018-01-09T12:16:55Z</time>
      </trkpt>
      <trkpt lat="62.647730100304" lon="17.856441349956">
        <ele>58.4</ele>
        <time>2018-01-09T12:16:56Z</time>
      </trkpt>
      <trkpt lat="62.64772624463" lon="17.856475715746">
        <ele>58.4</ele>
        <time>2018-01-09T12:16:57Z</time>
      </trkpt>
      <trkpt lat="62.647718281825" lon="17.85650974626">
        <ele>58.8</ele>
        <time>2018-01-09T12:16:58Z</time>
      </trkpt>
      <trkpt lat="62.647712582133" lon="17.856537909444">
        <ele>59.2</ele>
        <time>2018-01-09T12:16:59Z</time>
      </trkpt>
      <trkpt lat="62.647708894097" lon="17.856569173931">
        <ele>59.4</ele>
        <time>2018-01-09T12:17:00Z</time>
      </trkpt>
      <trkpt lat="62.647705876613" lon="17.856599600228">
        <ele>59.8</ele>
        <time>2018-01-09T12:17:01Z</time>
      </trkpt>
      <trkpt lat="62.647701266568" lon="17.856639917167">
        <ele>59.8</ele>
        <time>2018-01-09T12:17:02Z</time>
      </trkpt>
      <trkpt lat="62.647700009283" lon="17.856670846378">
        <ele>60</ele>
        <time>2018-01-09T12:17:03Z</time>
      </trkpt>
      <trkpt lat="62.647698835817" lon="17.856730357868">
        <ele>60.2</ele>
        <time>2018-01-09T12:17:04Z</time>
      </trkpt>
      <trkpt lat="62.647696824161" lon="17.856784002028">
        <ele>60.2</ele>
        <time>2018-01-09T12:17:05Z</time>
      </trkpt>
      <trkpt lat="62.647697327075" lon="17.856827168813">
        <ele>60</ele>
        <time>2018-01-09T12:17:06Z</time>
      </trkpt>
      <trkpt lat="62.647693052306" lon="17.856886512665">
        <ele>60</ele>
        <time>2018-01-09T12:17:07Z</time>
      </trkpt>
      <trkpt lat="62.647691711202" lon="17.856928589803">
        <ele>60</ele>
        <time>2018-01-09T12:17:08Z</time>
      </trkpt>
      <trkpt lat="62.64768601151" lon="17.856986844008">
        <ele>60.2</ele>
        <time>2018-01-09T12:17:09Z</time>
      </trkpt>
      <trkpt lat="62.647685257139" lon="17.857047361326">
        <ele>60.2</ele>
        <time>2018-01-09T12:17:10Z</time>
      </trkpt>
      <trkpt lat="62.647675366497" lon="17.857120535313">
        <ele>60.2</ele>
        <time>2018-01-09T12:17:11Z</time>
      </trkpt>
      <trkpt lat="62.64766757133" lon="17.857182561373">
        <ele>60.2</ele>
        <time>2018-01-09T12:17:12Z</time>
      </trkpt>
      <trkpt lat="62.647655166118" lon="17.857253723704">
        <ele>60.2</ele>
        <time>2018-01-09T12:17:13Z</time>
      </trkpt>
      <trkpt lat="62.647647538589" lon="17.857319940714">
        <ele>60.2</ele>
        <time>2018-01-09T12:17:14Z</time>
      </trkpt>
      <trkpt lat="62.647638737594" lon="17.857368974829">
        <ele>60.2</ele>
        <time>2018-01-09T12:17:15Z</time>
      </trkpt>
      <trkpt lat="62.647627757305" lon="17.857438376961">
        <ele>60.2</ele>
        <time>2018-01-09T12:17:16Z</time>
      </trkpt>
      <trkpt lat="62.647617447568" lon="17.857503420505">
        <ele>60</ele>
        <time>2018-01-09T12:17:17Z</time>
      </trkpt>
      <trkpt lat="62.647608395116" lon="17.857576678311">
        <ele>59.6</ele>
        <time>2018-01-09T12:17:18Z</time>
      </trkpt>
      <trkpt lat="62.647601019044" lon="17.85764297914">
        <ele>59.2</ele>
        <time>2018-01-09T12:17:19Z</time>
      </trkpt>
      <trkpt lat="62.647594900257" lon="17.857696874757">
        <ele>59</ele>
        <time>2018-01-09T12:17:20Z</time>
      </trkpt>
      <trkpt lat="62.647585596348" lon="17.857777340997">
        <ele>58.8</ele>
        <time>2018-01-09T12:17:21Z</time>
      </trkpt>
      <trkpt lat="62.647589368203" lon="17.857831404252">
        <ele>59</ele>
        <time>2018-01-09T12:17:22Z</time>
      </trkpt>
      <trkpt lat="62.647582997959" lon="17.857898878547">
        <ele>59</ele>
        <time>2018-01-09T12:17:23Z</time>
      </trkpt>
      <trkpt lat="62.647577298267" lon="17.857965598471">
        <ele>59.4</ele>
        <time>2018-01-09T12:17:24Z</time>
      </trkpt>
      <trkpt lat="62.647575621887" lon="17.858018572079">
        <ele>59.4</ele>
        <time>2018-01-09T12:17:25Z</time>
      </trkpt>
      <trkpt lat="62.647567072349" lon="17.858103480726">
        <ele>59.2</ele>
        <time>2018-01-09T12:17:26Z</time>
      </trkpt>
      <trkpt lat="62.647564725417" lon="17.858166344976">
        <ele>59.2</ele>
        <time>2018-01-09T12:17:27Z</time>
      </trkpt>
      <trkpt lat="62.647547123427" lon="17.858275309676">
        <ele>59.2</ele>
        <time>2018-01-09T12:17:28Z</time>
      </trkpt>
      <trkpt lat="62.647537903337" lon="17.858336497546">
        <ele>59.4</ele>
        <time>2018-01-09T12:17:29Z</time>
      </trkpt>
      <trkpt lat="62.647541507554" lon="17.858378574684">
        <ele>59.4</ele>
        <time>2018-01-09T12:17:30Z</time>
      </trkpt>
      <trkpt lat="62.647536059319" lon="17.858441858029">
        <ele>59.4</ele>
        <time>2018-01-09T12:17:31Z</time>
      </trkpt>
      <trkpt lat="62.647539495898" lon="17.85849038923">
        <ele>59.4</ele>
        <time>2018-01-09T12:17:32Z</time>
      </trkpt>
      <trkpt lat="62.647539747355" lon="17.858563898493">
        <ele>59.6</ele>
        <time>2018-01-09T12:17:33Z</time>
      </trkpt>
      <trkpt lat="62.647542345744" lon="17.858634138815">
        <ele>59.6</ele>
        <time>2018-01-09T12:17:34Z</time>
      </trkpt>
      <trkpt lat="62.647545447047" lon="17.858689375536">
        <ele>59.6</ele>
        <time>2018-01-09T12:17:35Z</time>
      </trkpt>
      <trkpt lat="62.647544525038" lon="17.8587527427">
        <ele>59.6</ele>
        <time>2018-01-09T12:17:36Z</time>
      </trkpt>
      <trkpt lat="62.647550140911" lon="17.858799178426">
        <ele>59.8</ele>
        <time>2018-01-09T12:17:37Z</time>
      </trkpt>
      <trkpt lat="62.647547458703" lon="17.858864641065">
        <ele>59.8</ele>
        <time>2018-01-09T12:17:38Z</time>
      </trkpt>
      <trkpt lat="62.647541926649" lon="17.858925493659">
        <ele>59.8</ele>
        <time>2018-01-09T12:17:39Z</time>
      </trkpt>
      <trkpt lat="62.647541675192" lon="17.858976623249">
        <ele>60</ele>
        <time>2018-01-09T12:17:40Z</time>
      </trkpt>
      <trkpt lat="62.64753513731" lon="17.859041834431">
        <ele>60</ele>
        <time>2018-01-09T12:17:41Z</time>
      </trkpt>
      <trkpt lat="62.64753262274" lon="17.859091203822">
        <ele>60.2</ele>
        <time>2018-01-09T12:17:42Z</time>
      </trkpt>
      <trkpt lat="62.647526839229" lon="17.859156498823">
        <ele>60.2</ele>
        <time>2018-01-09T12:17:43Z</time>
      </trkpt>
      <trkpt lat="62.647522899736" lon="17.85922632005">
        <ele>60.2</ele>
        <time>2018-01-09T12:17:44Z</time>
      </trkpt>
      <trkpt lat="62.647517786777" lon="17.859262529858">
        <ele>60.2</ele>
        <time>2018-01-09T12:17:45Z</time>
      </trkpt>
      <trkpt lat="62.647506890307" lon="17.859330842343">
        <ele>60.2</ele>
        <time>2018-01-09T12:17:46Z</time>
      </trkpt>
      <trkpt lat="62.647506303574" lon="17.859379205906">
        <ele>60.4</ele>
        <time>2018-01-09T12:17:47Z</time>
      </trkpt>
      <trkpt lat="62.647497754036" lon="17.859439136491">
        <ele>60.4</ele>
        <time>2018-01-09T12:17:48Z</time>
      </trkpt>
      <trkpt lat="62.647485265005" lon="17.859504682949">
        <ele>60.2</ele>
        <time>2018-01-09T12:17:49Z</time>
      </trkpt>
      <trkpt lat="62.647478727123" lon="17.859542652956">
        <ele>60.2</ele>
        <time>2018-01-09T12:17:50Z</time>
      </trkpt>
      <trkpt lat="62.647469842309" lon="17.859580371506">
        <ele>60.2</ele>
        <time>2018-01-09T12:17:51Z</time>
      </trkpt>
      <trkpt lat="62.647458526744" lon="17.859626723413">
        <ele>60.2</ele>
        <time>2018-01-09T12:17:52Z</time>
      </trkpt>
      <trkpt lat="62.647442182039" lon="17.859685899627">
        <ele>60.2</ele>
        <time>2018-01-09T12:17:53Z</time>
      </trkpt>
      <trkpt lat="62.647428603361" lon="17.859731161887">
        <ele>60.2</ele>
        <time>2018-01-09T12:17:54Z</time>
      </trkpt>
      <trkpt lat="62.64740940881" lon="17.85978036364">
        <ele>60.4</ele>
        <time>2018-01-09T12:17:55Z</time>
      </trkpt>
      <trkpt lat="62.647389543707" lon="17.859833588705">
        <ele>60.4</ele>
        <time>2018-01-09T12:17:56Z</time>
      </trkpt>
      <trkpt lat="62.647373785735" lon="17.859872648359">
        <ele>60.6</ele>
        <time>2018-01-09T12:17:57Z</time>
      </trkpt>
      <trkpt lat="62.647349394406" lon="17.859927130709">
        <ele>60.6</ele>
        <time>2018-01-09T12:17:58Z</time>
      </trkpt>
      <trkpt lat="62.647333804072" lon="17.859964178707">
        <ele>60.8</ele>
        <time>2018-01-09T12:17:59Z</time>
      </trkpt>
      <trkpt lat="62.647315280073" lon="17.860006842578">
        <ele>60.8</ele>
        <time>2018-01-09T12:18:00Z</time>
      </trkpt>
      <trkpt lat="62.647304132146" lon="17.860046824241">
        <ele>60.8</ele>
        <time>2018-01-09T12:18:01Z</time>
      </trkpt>
      <trkpt lat="62.647286530156" lon="17.860088985198">
        <ele>61</ele>
        <time>2018-01-09T12:18:02Z</time>
      </trkpt>
      <trkpt lat="62.647272280926" lon="17.860128380128">
        <ele>61</ele>
        <time>2018-01-09T12:18:03Z</time>
      </trkpt>
      <trkpt lat="62.64724679995" lon="17.860184119763">
        <ele>61</ele>
        <time>2018-01-09T12:18:04Z</time>
      </trkpt>
      <trkpt lat="62.647229281779" lon="17.860222005951">
        <ele>61</ele>
        <time>2018-01-09T12:18:05Z</time>
      </trkpt>
      <trkpt lat="62.647200448043" lon="17.860276069206">
        <ele>61.2</ele>
        <time>2018-01-09T12:18:06Z</time>
      </trkpt>
      <trkpt lat="62.647168932099" lon="17.860320744733">
        <ele>61.2</ele>
        <time>2018-01-09T12:18:07Z</time>
      </trkpt>
      <trkpt lat="62.647139008716" lon="17.860362654233">
        <ele>61.2</ele>
        <time>2018-01-09T12:18:08Z</time>
      </trkpt>
      <trkpt lat="62.647110426437" lon="17.860398528765">
        <ele>61</ele>
        <time>2018-01-09T12:18:09Z</time>
      </trkpt>
      <trkpt lat="62.647082430891" lon="17.860430715261">
        <ele>60.8</ele>
        <time>2018-01-09T12:18:10Z</time>
      </trkpt>
      <trkpt lat="62.647063990711" lon="17.860447981975">
        <ele>61</ele>
        <time>2018-01-09T12:18:11Z</time>
      </trkpt>
      <trkpt lat="62.647036246622" lon="17.860471199838">
        <ele>61</ele>
        <time>2018-01-09T12:18:12Z</time>
      </trkpt>
      <trkpt lat="62.647015962424" lon="17.860477402444">
        <ele>61</ele>
        <time>2018-01-09T12:18:13Z</time>
      </trkpt>
      <trkpt lat="62.64698696105" lon="17.860508247836">
        <ele>61.2</ele>
        <time>2018-01-09T12:18:14Z</time>
      </trkpt>
      <trkpt lat="62.64696432992" lon="17.860556779037">
        <ele>61.2</ele>
        <time>2018-01-09T12:18:15Z</time>
      </trkpt>
      <trkpt lat="62.646931891967" lon="17.860591061008">
        <ele>61.4</ele>
        <time>2018-01-09T12:18:16Z</time>
      </trkpt>
      <trkpt lat="62.64690146567" lon="17.86063196468">
        <ele>61.4</ele>
        <time>2018-01-09T12:18:17Z</time>
      </trkpt>
      <trkpt lat="62.64687464359" lon="17.860677143121">
        <ele>61.4</ele>
        <time>2018-01-09T12:18:18Z</time>
      </trkpt>
      <trkpt lat="62.646846815682" lon="17.860727769797">
        <ele>61.4</ele>
        <time>2018-01-09T12:18:19Z</time>
      </trkpt>
      <trkpt lat="62.646816137928" lon="17.860766829451">
        <ele>61.4</ele>
        <time>2018-01-09T12:18:20Z</time>
      </trkpt>
      <trkpt lat="62.646778587016" lon="17.860803206897">
        <ele>61.4</ele>
        <time>2018-01-09T12:18:21Z</time>
      </trkpt>
      <trkpt lat="62.646742963941" lon="17.860852492469">
        <ele>61.4</ele>
        <time>2018-01-09T12:18:22Z</time>
      </trkpt>
      <trkpt lat="62.646717147689" lon="17.860879817463">
        <ele>61.2</ele>
        <time>2018-01-09T12:18:23Z</time>
      </trkpt>
      <trkpt lat="62.646684458279" lon="17.86092533118">
        <ele>61.2</ele>
        <time>2018-01-09T12:18:24Z</time>
      </trkpt>
      <trkpt lat="62.646658055294" lon="17.860960199884">
        <ele>61.2</ele>
        <time>2018-01-09T12:18:25Z</time>
      </trkpt>
      <trkpt lat="62.646634669793" lon="17.860988865982">
        <ele>61.2</ele>
        <time>2018-01-09T12:18:26Z</time>
      </trkpt>
      <trkpt lat="62.646606003695" lon="17.861018957003">
        <ele>61.2</ele>
        <time>2018-01-09T12:18:27Z</time>
      </trkpt>
      <trkpt lat="62.646585803316" lon="17.861043935065">
        <ele>61.2</ele>
        <time>2018-01-09T12:18:28Z</time>
      </trkpt>
      <trkpt lat="62.646552610992" lon="17.86108374909">
        <ele>61.4</ele>
        <time>2018-01-09T12:18:29Z</time>
      </trkpt>
      <trkpt lat="62.646534925183" lon="17.861129598083">
        <ele>61.4</ele>
        <time>2018-01-09T12:18:30Z</time>
      </trkpt>
      <trkpt lat="62.646508606017" lon="17.861161868398">
        <ele>61.6</ele>
        <time>2018-01-09T12:18:31Z</time>
      </trkpt>
      <trkpt lat="62.646478934091" lon="17.861205621916">
        <ele>61.6</ele>
        <time>2018-01-09T12:18:32Z</time>
      </trkpt>
      <trkpt lat="62.646455716228" lon="17.861231438168">
        <ele>61.6</ele>
        <time>2018-01-09T12:18:33Z</time>
      </trkpt>
      <trkpt lat="62.646426714854" lon="17.861271587469">
        <ele>61.6</ele>
        <time>2018-01-09T12:18:34Z</time>
      </trkpt>
      <trkpt lat="62.646402994077" lon="17.861299499196">
        <ele>61.8</ele>
        <time>2018-01-09T12:18:35Z</time>
      </trkpt>
      <trkpt lat="62.646381536413" lon="17.861320621584">
        <ele>61.8</ele>
        <time>2018-01-09T12:18:36Z</time>
      </trkpt>
      <trkpt lat="62.646359743473" lon="17.861346689293">
        <ele>61.8</ele>
        <time>2018-01-09T12:18:37Z</time>
      </trkpt>
      <trkpt lat="62.646337196162" lon="17.861377199409">
        <ele>62</ele>
        <time>2018-01-09T12:18:38Z</time>
      </trkpt>
      <trkpt lat="62.646319426534" lon="17.861403015661">
        <ele>62</ele>
        <time>2018-01-09T12:18:39Z</time>
      </trkpt>
      <trkpt lat="62.646302662734" lon="17.861432184673">
        <ele>62.2</ele>
        <time>2018-01-09T12:18:40Z</time>
      </trkpt>
      <trkpt lat="62.646290508979" lon="17.861452217414">
        <ele>62.2</ele>
        <time>2018-01-09T12:18:41Z</time>
      </trkpt>
      <trkpt lat="62.646280115423" lon="17.861474848544">
        <ele>62.4</ele>
        <time>2018-01-09T12:18:42Z</time>
      </trkpt>
      <trkpt lat="62.646263267804" lon="17.861500161882">
        <ele>62.8</ele>
        <time>2018-01-09T12:18:43Z</time>
      </trkpt>
      <trkpt lat="62.646247761289" lon="17.861524469392">
        <ele>63</ele>
        <time>2018-01-09T12:18:44Z</time>
      </trkpt>
      <trkpt lat="62.646221023028" lon="17.861592195144">
        <ele>63.2</ele>
        <time>2018-01-09T12:18:45Z</time>
      </trkpt>
      <trkpt lat="62.646209707463" lon="17.861637541223">
        <ele>63.2</ele>
        <time>2018-01-09T12:18:46Z</time>
      </trkpt>
      <trkpt lat="62.64619151874" lon="17.86166880571">
        <ele>63.4</ele>
        <time>2018-01-09T12:18:47Z</time>
      </trkpt>
      <trkpt lat="62.646169641981" lon="17.86172999358">
        <ele>63.2</ele>
        <time>2018-01-09T12:18:48Z</time>
      </trkpt>
      <trkpt lat="62.646146005023" lon="17.861793947477">
        <ele>62.8</ele>
        <time>2018-01-09T12:18:49Z</time>
      </trkpt>
      <trkpt lat="62.646123709169" lon="17.86184817837">
        <ele>62.4</ele>
        <time>2018-01-09T12:18:50Z</time>
      </trkpt>
      <trkpt lat="62.646097725279" lon="17.861917496683">
        <ele>62.2</ele>
        <time>2018-01-09T12:18:51Z</time>
      </trkpt>
      <trkpt lat="62.646079033642" lon="17.861969129187">
        <ele>62</ele>
        <time>2018-01-09T12:18:52Z</time>
      </trkpt>
      <trkpt lat="62.646047769155" lon="17.862043392821">
        <ele>62</ele>
        <time>2018-01-09T12:18:53Z</time>
      </trkpt>
      <trkpt lat="62.646021533808" lon="17.862096366429">
        <ele>62</ele>
        <time>2018-01-09T12:18:54Z</time>
      </trkpt>
      <trkpt lat="62.645995801375" lon="17.862150094408">
        <ele>62</ele>
        <time>2018-01-09T12:18:55Z</time>
      </trkpt>
      <trkpt lat="62.645968644019" lon="17.862209522079">
        <ele>61.8</ele>
        <time>2018-01-09T12:18:56Z</time>
      </trkpt>
      <trkpt lat="62.64595514916" lon="17.862255371072">
        <ele>61.6</ele>
        <time>2018-01-09T12:18:57Z</time>
      </trkpt>
      <trkpt lat="62.645928913813" lon="17.862324773204">
        <ele>61.6</ele>
        <time>2018-01-09T12:18:58Z</time>
      </trkpt>
      <trkpt lat="62.645919274628" lon="17.862402557236">
        <ele>61.4</ele>
        <time>2018-01-09T12:18:59Z</time>
      </trkpt>
      <trkpt lat="62.645900582991" lon="17.862460392346">
        <ele>61.4</ele>
        <time>2018-01-09T12:19:00Z</time>
      </trkpt>
      <trkpt lat="62.645886920494" lon="17.862523424234">
        <ele>61.4</ele>
        <time>2018-01-09T12:19:01Z</time>
      </trkpt>
      <trkpt lat="62.645871749255" lon="17.862586120846">
        <ele>61.6</ele>
        <time>2018-01-09T12:19:02Z</time>
      </trkpt>
      <trkpt lat="62.645858589672" lon="17.862648817458">
        <ele>61.8</ele>
        <time>2018-01-09T12:19:03Z</time>
      </trkpt>
      <trkpt lat="62.645857583844" lon="17.862702042523">
        <ele>62</ele>
        <time>2018-01-09T12:19:04Z</time>
      </trkpt>
      <trkpt lat="62.645853979627" lon="17.862775384148">
        <ele>62</ele>
        <time>2018-01-09T12:19:05Z</time>
      </trkpt>
      <trkpt lat="62.645851297419" lon="17.862836907294">
        <ele>62</ele>
        <time>2018-01-09T12:19:06Z</time>
      </trkpt>
      <trkpt lat="62.645849872496" lon="17.862895664413">
        <ele>61.8</ele>
        <time>2018-01-09T12:19:07Z</time>
      </trkpt>
      <trkpt lat="62.645847106469" lon="17.862975124825">
        <ele>61.8</ele>
        <time>2018-01-09T12:19:08Z</time>
      </trkpt>
      <trkpt lat="62.645856494197" lon="17.863020722361">
        <ele>61.8</ele>
        <time>2018-01-09T12:19:09Z</time>
      </trkpt>
      <trkpt lat="62.645860936604" lon="17.863101607696">
        <ele>62</ele>
        <time>2018-01-09T12:19:10Z</time>
      </trkpt>
      <trkpt lat="62.645865714287" lon="17.863161370643">
        <ele>62</ele>
        <time>2018-01-09T12:19:11Z</time>
      </trkpt>
      <trkpt lat="62.645878454775" lon="17.863208728378">
        <ele>62</ele>
        <time>2018-01-09T12:19:12Z</time>
      </trkpt>
      <trkpt lat="62.64588390301" lon="17.86327561594">
        <ele>62</ele>
        <time>2018-01-09T12:19:13Z</time>
      </trkpt>
      <trkpt lat="62.645895218575" lon="17.863330685023">
        <ele>62</ele>
        <time>2018-01-09T12:19:14Z</time>
      </trkpt>
      <trkpt lat="62.645903516656" lon="17.863389945056">
        <ele>62</ele>
        <time>2018-01-09T12:19:15Z</time>
      </trkpt>
      <trkpt lat="62.64590653414" lon="17.863465633613">
        <ele>62</ele>
        <time>2018-01-09T12:19:16Z</time>
      </trkpt>
      <trkpt lat="62.64591323966" lon="17.863540735437">
        <ele>62</ele>
        <time>2018-01-09T12:19:17Z</time>
      </trkpt>
      <trkpt lat="62.645917514429" lon="17.863622794238">
        <ele>62</ele>
        <time>2018-01-09T12:19:18Z</time>
      </trkpt>
      <trkpt lat="62.645917514429" lon="17.86368716723">
        <ele>61.8</ele>
        <time>2018-01-09T12:19:19Z</time>
      </trkpt>
      <trkpt lat="62.645922040655" lon="17.863741146666">
        <ele>61.8</ele>
        <time>2018-01-09T12:19:20Z</time>
      </trkpt>
      <trkpt lat="62.645927824166" lon="17.863811303169">
        <ele>61.6</ele>
        <time>2018-01-09T12:19:21Z</time>
      </trkpt>
      <trkpt lat="62.645941319025" lon="17.863875508523">
        <ele>61.8</ele>
        <time>2018-01-09T12:19:22Z</time>
      </trkpt>
      <trkpt lat="62.645959591567" lon="17.863931415796">
        <ele>61.6</ele>
        <time>2018-01-09T12:19:23Z</time>
      </trkpt>
      <trkpt lat="62.645984066715" lon="17.863978941169">
        <ele>61.6</ele>
        <time>2018-01-09T12:19:24Z</time>
      </trkpt>
      <trkpt lat="62.646005859655" lon="17.864006349982">
        <ele>61.6</ele>
        <time>2018-01-09T12:19:25Z</time>
      </trkpt>
      <trkpt lat="62.646027317319" lon="17.864041302505">
        <ele>61.8</ele>
        <time>2018-01-09T12:19:26Z</time>
      </trkpt>
      <trkpt lat="62.646052463019" lon="17.864069130413">
        <ele>61.8</ele>
        <time>2018-01-09T12:19:27Z</time>
      </trkpt>
      <trkpt lat="62.646073166312" lon="17.864080948892">
        <ele>61.8</ele>
        <time>2018-01-09T12:19:28Z</time>
      </trkpt>
      <trkpt lat="62.646096635632" lon="17.864099053796">
        <ele>62</ele>
        <time>2018-01-09T12:19:29Z</time>
      </trkpt>
      <trkpt lat="62.646117674201" lon="17.8641171587">
        <ele>62.2</ele>
        <time>2018-01-09T12:19:30Z</time>
      </trkpt>
      <trkpt lat="62.646135779105" lon="17.864124618591">
        <ele>62.4</ele>
        <time>2018-01-09T12:19:31Z</time>
      </trkpt>
      <trkpt lat="62.646156650036" lon="17.864146076255">
        <ele>62.6</ele>
        <time>2018-01-09T12:19:32Z</time>
      </trkpt>
      <trkpt lat="62.6461781077" lon="17.864155799259">
        <ele>62.8</ele>
        <time>2018-01-09T12:19:33Z</time>
      </trkpt>
      <trkpt lat="62.646202834305" lon="17.864167114824">
        <ele>63</ele>
        <time>2018-01-09T12:19:34Z</time>
      </trkpt>
      <trkpt lat="62.646226890358" lon="17.864186141737">
        <ele>63</ele>
        <time>2018-01-09T12:19:35Z</time>
      </trkpt>
      <trkpt lat="62.64624851566" lon="17.864192176705">
        <ele>63.2</ele>
        <time>2018-01-09T12:19:36Z</time>
      </trkpt>
      <trkpt lat="62.646274248093" lon="17.864208437591">
        <ele>63.2</ele>
        <time>2018-01-09T12:19:37Z</time>
      </trkpt>
      <trkpt lat="62.646299142336" lon="17.864196619112">
        <ele>63.2</ele>
        <time>2018-01-09T12:19:38Z</time>
      </trkpt>
      <trkpt lat="62.646322695475" lon="17.864210784523">
        <ele>63.2</ele>
        <time>2018-01-09T12:19:39Z</time>
      </trkpt>
      <trkpt lat="62.646348344089" lon="17.864213131455">
        <ele>63.4</ele>
        <time>2018-01-09T12:19:40Z</time>
      </trkpt>
      <trkpt lat="62.646369131201" lon="17.86420600684">
        <ele>63.4</ele>
        <time>2018-01-09T12:19:41Z</time>
      </trkpt>
      <trkpt lat="62.646396456195" lon="17.864208605229">
        <ele>63.4</ele>
        <time>2018-01-09T12:19:42Z</time>
      </trkpt>
      <trkpt lat="62.646417159488" lon="17.864179268579">
        <ele>63.6</ele>
        <time>2018-01-09T12:19:43Z</time>
      </trkpt>
      <trkpt lat="62.646444568301" lon="17.864185303547">
        <ele>63.6</ele>
        <time>2018-01-09T12:19:44Z</time>
      </trkpt>
      <trkpt lat="62.64646895963" lon="17.86417164105">
        <ele>63.8</ele>
        <time>2018-01-09T12:19:45Z</time>
      </trkpt>
      <trkpt lat="62.64648907619" lon="17.864187650479">
        <ele>64</ele>
        <time>2018-01-09T12:19:46Z</time>
      </trkpt>
      <trkpt lat="62.646511623501" lon="17.86419175761">
        <ele>64.2</ele>
        <time>2018-01-09T12:19:47Z</time>
      </trkpt>
      <trkpt lat="62.646538697038" lon="17.864198630768">
        <ele>64.2</ele>
        <time>2018-01-09T12:19:48Z</time>
      </trkpt>
      <trkpt lat="62.646567111679" lon="17.86420349227">
        <ele>64.2</ele>
        <time>2018-01-09T12:19:49Z</time>
      </trkpt>
      <trkpt lat="62.646600052546" lon="17.864210868342">
        <ele>64.4</ele>
        <time>2018-01-09T12:19:50Z</time>
      </trkpt>
      <trkpt lat="62.646631903766" lon="17.86422779978">
        <ele>64.2</ele>
        <time>2018-01-09T12:19:51Z</time>
      </trkpt>
      <trkpt lat="62.646666521013" lon="17.864251604376">
        <ele>64</ele>
        <time>2018-01-09T12:19:52Z</time>
      </trkpt>
      <trkpt lat="62.64671371111" lon="17.864280941026">
        <ele>63.6</ele>
        <time>2018-01-09T12:19:53Z</time>
      </trkpt>
      <trkpt lat="62.646747154891" lon="17.864305164717">
        <ele>63</ele>
        <time>2018-01-09T12:19:54Z</time>
      </trkpt>
      <trkpt lat="62.64677908993" lon="17.864323018164">
        <ele>62.4</ele>
        <time>2018-01-09T12:19:55Z</time>
      </trkpt>
      <trkpt lat="62.646817898127" lon="17.864337267394">
        <ele>61.8</ele>
        <time>2018-01-09T12:19:56Z</time>
      </trkpt>
      <trkpt lat="62.646854024116" lon="17.864367945148">
        <ele>61.8</ele>
        <time>2018-01-09T12:19:57Z</time>
      </trkpt>
      <trkpt lat="62.64689308377" lon="17.864396359789">
        <ele>61.4</ele>
        <time>2018-01-09T12:19:58Z</time>
      </trkpt>
      <trkpt lat="62.646932897795" lon="17.864423517145">
        <ele>61</ele>
        <time>2018-01-09T12:19:59Z</time>
      </trkpt>
      <trkpt lat="62.646968017956" lon="17.864452769976">
        <ele>60.6</ele>
        <time>2018-01-09T12:20:00Z</time>
      </trkpt>
      <trkpt lat="62.647003389574" lon="17.864478502409">
        <ele>60.4</ele>
        <time>2018-01-09T12:20:01Z</time>
      </trkpt>
      <trkpt lat="62.647047478368" lon="17.864504318661">
        <ele>60</ele>
        <time>2018-01-09T12:20:02Z</time>
      </trkpt>
      <trkpt lat="62.647092740628" lon="17.864531476017">
        <ele>59.6</ele>
        <time>2018-01-09T12:20:03Z</time>
      </trkpt>
      <trkpt lat="62.647139343992" lon="17.864555196794">
        <ele>59.2</ele>
        <time>2018-01-09T12:20:04Z</time>
      </trkpt>
      <trkpt lat="62.647184019519" lon="17.864582270331">
        <ele>58.8</ele>
        <time>2018-01-09T12:20:05Z</time>
      </trkpt>
      <trkpt lat="62.647230203788" lon="17.864605236737">
        <ele>58.4</ele>
        <time>2018-01-09T12:20:06Z</time>
      </trkpt>
      <trkpt lat="62.647276471876" lon="17.864622335813">
        <ele>57.8</ele>
        <time>2018-01-09T12:20:07Z</time>
      </trkpt>
      <trkpt lat="62.647328607294" lon="17.864641530364">
        <ele>57.2</ele>
        <time>2018-01-09T12:20:08Z</time>
      </trkpt>
      <trkpt lat="62.647373701916" lon="17.864666089331">
        <ele>56.2</ele>
        <time>2018-01-09T12:20:09Z</time>
      </trkpt>
      <trkpt lat="62.64741946709" lon="17.864686122072">
        <ele>55.4</ele>
        <time>2018-01-09T12:20:10Z</time>
      </trkpt>
      <trkpt lat="62.647468249748" lon="17.86470640627">
        <ele>54.6</ele>
        <time>2018-01-09T12:20:11Z</time>
      </trkpt>
      <trkpt lat="62.647516445673" lon="17.864731300513">
        <ele>54</ele>
        <time>2018-01-09T12:20:12Z</time>
      </trkpt>
      <trkpt lat="62.647574196964" lon="17.864764660475">
        <ele>53.6</ele>
        <time>2018-01-09T12:20:13Z</time>
      </trkpt>
      <trkpt lat="62.64762901459" lon="17.864822411766">
        <ele>53.2</ele>
        <time>2018-01-09T12:20:14Z</time>
      </trkpt>
      <trkpt lat="62.647674360669" lon="17.864893657916">
        <ele>52.8</ele>
        <time>2018-01-09T12:20:15Z</time>
      </trkpt>
      <trkpt lat="62.647716102531" lon="17.864981500228">
        <ele>52.4</ele>
        <time>2018-01-09T12:20:16Z</time>
      </trkpt>
      <trkpt lat="62.647755078366" lon="17.865064481038">
        <ele>52</ele>
        <time>2018-01-09T12:20:17Z</time>
      </trkpt>
      <trkpt lat="62.647798245151" lon="17.865140169595">
        <ele>51.8</ele>
        <time>2018-01-09T12:20:18Z</time>
      </trkpt>
      <trkpt lat="62.647835376968" lon="17.865215522876">
        <ele>51.8</ele>
        <time>2018-01-09T12:20:19Z</time>
      </trkpt>
      <trkpt lat="62.647871586776" lon="17.865288026311">
        <ele>51.6</ele>
        <time>2018-01-09T12:20:20Z</time>
      </trkpt>
      <trkpt lat="62.647897403028" lon="17.86535013619">
        <ele>51.8</ele>
        <time>2018-01-09T12:20:21Z</time>
      </trkpt>
      <trkpt lat="62.64792489566" lon="17.865406630196">
        <ele>51.8</ele>
        <time>2018-01-09T12:20:22Z</time>
      </trkpt>
      <trkpt lat="62.647955405776" lon="17.865474272129">
        <ele>51.8</ele>
        <time>2018-01-09T12:20:23Z</time>
      </trkpt>
      <trkpt lat="62.647979545648" lon="17.865515008163">
        <ele>51.8</ele>
        <time>2018-01-09T12:20:24Z</time>
      </trkpt>
      <trkpt lat="62.648010139583" lon="17.865561611527">
        <ele>51.8</ele>
        <time>2018-01-09T12:20:25Z</time>
      </trkpt>
      <trkpt lat="62.648040314423" lon="17.865606538511">
        <ele>51.6</ele>
        <time>2018-01-09T12:20:26Z</time>
      </trkpt>
      <trkpt lat="62.648070153987" lon="17.865633360591">
        <ele>51.6</ele>
        <time>2018-01-09T12:20:27Z</time>
      </trkpt>
      <trkpt lat="62.648111895849" lon="17.865693961728">
        <ele>51.6</ele>
        <time>2018-01-09T12:20:28Z</time>
      </trkpt>
      <trkpt lat="62.648145507268" lon="17.865738301979">
        <ele>51.8</ele>
        <time>2018-01-09T12:20:29Z</time>
      </trkpt>
      <trkpt lat="62.648183225818" lon="17.865790521216">
        <ele>51.8</ele>
        <time>2018-01-09T12:20:30Z</time>
      </trkpt>
      <trkpt lat="62.648213735934" lon="17.865831843983">
        <ele>51.2</ele>
        <time>2018-01-09T12:20:31Z</time>
      </trkpt>
      <trkpt lat="62.648254723425" lon="17.865890014369">
        <ele>50.8</ele>
        <time>2018-01-09T12:20:32Z</time>
      </trkpt>
      <trkpt lat="62.648297806391" lon="17.865948352393">
        <ele>50.8</ele>
        <time>2018-01-09T12:20:33Z</time>
      </trkpt>
      <trkpt lat="62.648341392271" lon="17.86602404095">
        <ele>50.6</ele>
        <time>2018-01-09T12:20:34Z</time>
      </trkpt>
      <trkpt lat="62.648377182984" lon="17.866102160258">
        <ele>50.4</ele>
        <time>2018-01-09T12:20:35Z</time>
      </trkpt>
      <trkpt lat="62.648408028376" lon="17.866188577647">
        <ele>50.2</ele>
        <time>2018-01-09T12:20:36Z</time>
      </trkpt>
      <trkpt lat="62.648433174076" lon="17.8662880708">
        <ele>49.8</ele>
        <time>2018-01-09T12:20:37Z</time>
      </trkpt>
      <trkpt lat="62.648456391939" lon="17.866403908658">
        <ele>49</ele>
        <time>2018-01-09T12:20:38Z</time>
      </trkpt>
      <trkpt lat="62.648475921766" lon="17.866515639385">
        <ele>48.2</ele>
        <time>2018-01-09T12:20:39Z</time>
      </trkpt>
      <trkpt lat="62.648499139629" lon="17.866629130311">
        <ele>47.6</ele>
        <time>2018-01-09T12:20:40Z</time>
      </trkpt>
      <trkpt lat="62.648522441311" lon="17.866754188259">
        <ele>47</ele>
        <time>2018-01-09T12:20:41Z</time>
      </trkpt>
      <trkpt lat="62.648542976966" lon="17.866871618678">
        <ele>46.6</ele>
        <time>2018-01-09T12:20:42Z</time>
      </trkpt>
      <trkpt lat="62.648567284476" lon="17.866994832608">
        <ele>46</ele>
        <time>2018-01-09T12:20:43Z</time>
      </trkpt>
      <trkpt lat="62.648587736312" lon="17.867112682122">
        <ele>45.6</ele>
        <time>2018-01-09T12:20:44Z</time>
      </trkpt>
      <trkpt lat="62.648607349958" lon="17.867219216071">
        <ele>45</ele>
        <time>2018-01-09T12:20:45Z</time>
      </trkpt>
      <trkpt lat="62.648625119586" lon="17.867325833839">
        <ele>44.6</ele>
        <time>2018-01-09T12:20:46Z</time>
      </trkpt>
      <trkpt lat="62.648641212834" lon="17.867435720548">
        <ele>44.4</ele>
        <time>2018-01-09T12:20:47Z</time>
      </trkpt>
      <trkpt lat="62.648653366589" lon="17.867549043836">
        <ele>44</ele>
        <time>2018-01-09T12:20:48Z</time>
      </trkpt>
      <trkpt lat="62.648670298027" lon="17.867625989678">
        <ele>44</ele>
        <time>2018-01-09T12:20:49Z</time>
      </trkpt>
      <trkpt lat="62.648684463438" lon="17.867726656297">
        <ele>44.2</ele>
        <time>2018-01-09T12:20:50Z</time>
      </trkpt>
      <trkpt lat="62.648702819799" lon="17.867785161959">
        <ele>44.2</ele>
        <time>2018-01-09T12:20:51Z</time>
      </trkpt>
      <trkpt lat="62.648724109825" lon="17.86785380972">
        <ele>44.6</ele>
        <time>2018-01-09T12:20:52Z</time>
      </trkpt>
      <trkpt lat="62.648746824774" lon="17.867926983707">
        <ele>45</ele>
        <time>2018-01-09T12:20:53Z</time>
      </trkpt>
      <trkpt lat="62.648764426764" lon="17.868001582617">
        <ele>45.2</ele>
        <time>2018-01-09T12:20:54Z</time>
      </trkpt>
      <trkpt lat="62.648780603831" lon="17.868083306142">
        <ele>45</ele>
        <time>2018-01-09T12:20:55Z</time>
      </trkpt>
      <trkpt lat="62.648803486418" lon="17.868150026066">
        <ele>44.8</ele>
        <time>2018-01-09T12:20:56Z</time>
      </trkpt>
      <trkpt lat="62.648820250218" lon="17.86823602436">
        <ele>44.6</ele>
        <time>2018-01-09T12:20:57Z</time>
      </trkpt>
      <trkpt lat="62.648832906887" lon="17.868331661839">
        <ele>44.6</ele>
        <time>2018-01-09T12:20:58Z</time>
      </trkpt>
      <trkpt lat="62.648852352895" lon="17.868419671789">
        <ele>44.2</ele>
        <time>2018-01-09T12:20:59Z</time>
      </trkpt>
      <trkpt lat="62.648879845527" lon="17.86850005421">
        <ele>44.2</ele>
        <time>2018-01-09T12:21:00Z</time>
      </trkpt>
      <trkpt lat="62.648905829417" lon="17.8685847114">
        <ele>44.4</ele>
        <time>2018-01-09T12:21:01Z</time>
      </trkpt>
      <trkpt lat="62.648929382556" lon="17.868651096048">
        <ele>44.2</ele>
        <time>2018-01-09T12:21:02Z</time>
      </trkpt>
      <trkpt lat="62.648956791369" lon="17.86871546904">
        <ele>44.2</ele>
        <time>2018-01-09T12:21:03Z</time>
      </trkpt>
      <trkpt lat="62.648985792743" lon="17.868790151769">
        <ele>44.4</ele>
        <time>2018-01-09T12:21:04Z</time>
      </trkpt>
      <trkpt lat="62.649010854624" lon="17.868854524761">
        <ele>44.4</ele>
        <time>2018-01-09T12:21:05Z</time>
      </trkpt>
      <trkpt lat="62.649038514894" lon="17.868935326277">
        <ele>44.4</ele>
        <time>2018-01-09T12:21:06Z</time>
      </trkpt>
      <trkpt lat="62.649064163508" lon="17.869007913531">
        <ele>44.4</ele>
        <time>2018-01-09T12:21:07Z</time>
      </trkpt>
      <trkpt lat="62.649088973932" lon="17.869073795265">
        <ele>44.2</ele>
        <time>2018-01-09T12:21:08Z</time>
      </trkpt>
      <trkpt lat="62.649101462963" lon="17.869174378065">
        <ele>43.8</ele>
        <time>2018-01-09T12:21:09Z</time>
      </trkpt>
      <trkpt lat="62.649126441025" lon="17.869268003888">
        <ele>43.6</ele>
        <time>2018-01-09T12:21:10Z</time>
      </trkpt>
      <trkpt lat="62.649156112951" lon="17.869335310545">
        <ele>43.4</ele>
        <time>2018-01-09T12:21:11Z</time>
      </trkpt>
      <trkpt lat="62.649178911719" lon="17.869399180623">
        <ele>43.2</ele>
        <time>2018-01-09T12:21:12Z</time>
      </trkpt>
      <trkpt lat="62.649209338016" lon="17.86947989832">
        <ele>43.2</ele>
        <time>2018-01-09T12:21:13Z</time>
      </trkpt>
      <trkpt lat="62.649232891155" lon="17.869556089791">
        <ele>43</ele>
        <time>2018-01-09T12:21:14Z</time>
      </trkpt>
      <trkpt lat="62.649259629416" lon="17.869621971525">
        <ele>42.8</ele>
        <time>2018-01-09T12:21:15Z</time>
      </trkpt>
      <trkpt lat="62.649291480636" lon="17.869692966218">
        <ele>42.6</ele>
        <time>2018-01-09T12:21:16Z</time>
      </trkpt>
      <trkpt lat="62.64932383477" lon="17.869768068042">
        <ele>42</ele>
        <time>2018-01-09T12:21:17Z</time>
      </trkpt>
      <trkpt lat="62.649360966587" lon="17.869843169866">
        <ele>41.4</ele>
        <time>2018-01-09T12:21:18Z</time>
      </trkpt>
      <trkpt lat="62.649394578006" lon="17.869913913102">
        <ele>40.8</ele>
        <time>2018-01-09T12:21:19Z</time>
      </trkpt>
      <trkpt lat="62.649430452538" lon="17.869984907795">
        <ele>40.4</ele>
        <time>2018-01-09T12:21:20Z</time>
      </trkpt>
      <trkpt lat="62.649463896319" lon="17.870047604407">
        <ele>40.2</ele>
        <time>2018-01-09T12:21:21Z</time>
      </trkpt>
      <trkpt lat="62.649506057276" lon="17.870119102014">
        <ele>40</ele>
        <time>2018-01-09T12:21:22Z</time>
      </trkpt>
      <trkpt lat="62.649548888785" lon="17.870190851078">
        <ele>39.6</ele>
        <time>2018-01-09T12:21:23Z</time>
      </trkpt>
      <trkpt lat="62.649590798285" lon="17.87026444416">
        <ele>39.4</ele>
        <time>2018-01-09T12:21:24Z</time>
      </trkpt>
      <trkpt lat="62.649630025577" lon="17.870334265387">
        <ele>39</ele>
        <time>2018-01-09T12:21:25Z</time>
      </trkpt>
      <trkpt lat="62.649663553177" lon="17.870430070504">
        <ele>38.6</ele>
        <time>2018-01-09T12:21:26Z</time>
      </trkpt>
      <trkpt lat="62.649690459076" lon="17.870504585595">
        <ele>38.4</ele>
        <time>2018-01-09T12:21:27Z</time>
      </trkpt>
      <trkpt lat="62.64971946045" lon="17.870583710731">
        <ele>38.2</ele>
        <time>2018-01-09T12:21:28Z</time>
      </trkpt>
      <trkpt lat="62.64974209158" lon="17.870688484481">
        <ele>38</ele>
        <time>2018-01-09T12:21:29Z</time>
      </trkpt>
      <trkpt lat="62.649766063814" lon="17.870765262685">
        <ele>38</ele>
        <time>2018-01-09T12:21:30Z</time>
      </trkpt>
      <trkpt lat="62.649788108211" lon="17.87084447164">
        <ele>37.8</ele>
        <time>2018-01-09T12:21:31Z</time>
      </trkpt>
      <trkpt lat="62.649810739341" lon="17.870917142713">
        <ele>38</ele>
        <time>2018-01-09T12:21:32Z</time>
      </trkpt>
      <trkpt lat="62.649830185349" lon="17.871004314473">
        <ele>38.2</ele>
        <time>2018-01-09T12:21:33Z</time>
      </trkpt>
      <trkpt lat="62.649853151755" lon="17.871095844821">
        <ele>38.4</ele>
        <time>2018-01-09T12:21:34Z</time>
      </trkpt>
      <trkpt lat="62.649868742089" lon="17.871173461215">
        <ele>38.6</ele>
        <time>2018-01-09T12:21:35Z</time>
      </trkpt>
      <trkpt lat="62.649886930812" lon="17.87125769931">
        <ele>38.6</ele>
        <time>2018-01-09T12:21:36Z</time>
      </trkpt>
      <trkpt lat="62.649899755119" lon="17.871319306275">
        <ele>38.8</ele>
        <time>2018-01-09T12:21:37Z</time>
      </trkpt>
      <trkpt lat="62.649916016005" lon="17.871410417528">
        <ele>38.8</ele>
        <time>2018-01-09T12:21:38Z</time>
      </trkpt>
      <trkpt lat="62.649930935787" lon="17.871498176021">
        <ele>38.6</ele>
        <time>2018-01-09T12:21:39Z</time>
      </trkpt>
      <trkpt lat="62.649946274664" lon="17.871572188198">
        <ele>38.6</ele>
        <time>2018-01-09T12:21:40Z</time>
      </trkpt>
      <trkpt lat="62.649960691532" lon="17.871658102673">
        <ele>38.6</ele>
        <time>2018-01-09T12:21:41Z</time>
      </trkpt>
      <trkpt lat="62.649973683477" lon="17.871718452353">
        <ele>38.4</ele>
        <time>2018-01-09T12:21:42Z</time>
      </trkpt>
      <trkpt lat="62.649991117829" lon="17.871792129254">
        <ele>38.4</ele>
        <time>2018-01-09T12:21:43Z</time>
      </trkpt>
      <trkpt lat="62.650012910769" lon="17.871848120346">
        <ele>38.4</ele>
        <time>2018-01-09T12:21:44Z</time>
      </trkpt>
      <trkpt lat="62.650026321809" lon="17.871898663203">
        <ele>38.4</ele>
        <time>2018-01-09T12:21:45Z</time>
      </trkpt>
      <trkpt lat="62.650036547727" lon="17.871958593788">
        <ele>38.2</ele>
        <time>2018-01-09T12:21:46Z</time>
      </trkpt>
      <trkpt lat="62.650043253247" lon="17.872011399758">
        <ele>38.4</ele>
        <time>2018-01-09T12:21:47Z</time>
      </trkpt>
      <trkpt lat="62.650038391745" lon="17.872067642307">
        <ele>38.4</ele>
        <time>2018-01-09T12:21:48Z</time>
      </trkpt>
      <trkpt lat="62.650021711764" lon="17.8720883456">
        <ele>38.4</ele>
        <time>2018-01-09T12:21:49Z</time>
      </trkpt>
      <trkpt lat="62.650002852489" lon="17.872064624823">
        <ele>38.6</ele>
        <time>2018-01-09T12:21:50Z</time>
      </trkpt>
      <trkpt lat="62.649993213304" lon="17.872037886562">
        <ele>38.8</ele>
        <time>2018-01-09T12:21:51Z</time>
      </trkpt>
      <trkpt lat="62.649977371513" lon="17.871986254058">
        <ele>39</ele>
        <time>2018-01-09T12:21:52Z</time>
      </trkpt>
      <trkpt lat="62.649965804491" lon="17.871924311817">
        <ele>39</ele>
        <time>2018-01-09T12:21:53Z</time>
      </trkpt>
      <trkpt lat="62.649951471442" lon="17.871868572182">
        <ele>39.2</ele>
        <time>2018-01-09T12:21:54Z</time>
      </trkpt>
      <trkpt lat="62.649942838085" lon="17.871816520583">
        <ele>39</ele>
        <time>2018-01-09T12:21:55Z</time>
      </trkpt>
      <trkpt lat="62.649926158104" lon="17.871760110396">
        <ele>39.2</ele>
        <time>2018-01-09T12:21:56Z</time>
      </trkpt>
      <trkpt lat="62.649916938014" lon="17.871715434869">
        <ele>39</ele>
        <time>2018-01-09T12:21:57Z</time>
      </trkpt>
      <trkpt lat="62.649896569997" lon="17.871648882583">
        <ele>38.8</ele>
        <time>2018-01-09T12:21:58Z</time>
      </trkpt>
      <trkpt lat="62.649887852821" lon="17.871597501536">
        <ele>38.8</ele>
        <time>2018-01-09T12:21:59Z</time>
      </trkpt>
      <trkpt lat="62.64987201103" lon="17.871545533756">
        <ele>38.8</ele>
        <time>2018-01-09T12:22:00Z</time>
      </trkpt>
      <trkpt lat="62.649864132044" lon="17.871501193505">
        <ele>38.6</ele>
        <time>2018-01-09T12:22:01Z</time>
      </trkpt>
      <trkpt lat="62.649848709348" lon="17.87144713025">
        <ele>38.6</ele>
        <time>2018-01-09T12:22:02Z</time>
      </trkpt>
      <trkpt lat="62.649840746543" lon="17.871396671212">
        <ele>38.6</ele>
        <time>2018-01-09T12:22:03Z</time>
      </trkpt>
      <trkpt lat="62.649827922236" lon="17.871347134183">
        <ele>38.4</ele>
        <time>2018-01-09T12:22:04Z</time>
      </trkpt>
      <trkpt lat="62.649819121241" lon="17.871300949914">
        <ele>38.4</ele>
        <time>2018-01-09T12:22:05Z</time>
      </trkpt>
      <trkpt lat="62.649807386581" lon="17.87125267017">
        <ele>38.4</ele>
        <time>2018-01-09T12:22:06Z</time>
      </trkpt>
      <trkpt lat="62.649796406292" lon="17.871213526697">
        <ele>38.4</ele>
        <time>2018-01-09T12:22:07Z</time>
      </trkpt>
      <trkpt lat="62.649784671632" lon="17.871157451786">
        <ele>38.4</ele>
        <time>2018-01-09T12:22:08Z</time>
      </trkpt>
      <trkpt lat="62.649769165117" lon="17.871119817055">
        <ele>38.6</ele>
        <time>2018-01-09T12:22:09Z</time>
      </trkpt>
      <trkpt lat="62.649760364122" lon="17.871067765456">
        <ele>38.6</ele>
        <time>2018-01-09T12:22:10Z</time>
      </trkpt>
      <trkpt lat="62.649744270874" lon="17.871026694146">
        <ele>38.8</ele>
        <time>2018-01-09T12:22:11Z</time>
      </trkpt>
      <trkpt lat="62.649735637517" lon="17.870988807958">
        <ele>38.8</ele>
        <time>2018-01-09T12:22:12Z</time>
      </trkpt>
      <trkpt lat="62.649722058839" lon="17.870943797155">
        <ele>39</ele>
        <time>2018-01-09T12:22:13Z</time>
      </trkpt>
      <trkpt lat="62.64971107855" lon="17.870912281211">
        <ele>39</ele>
        <time>2018-01-09T12:22:14Z</time>
      </trkpt>
      <trkpt lat="62.649699846804" lon="17.870866348399">
        <ele>39</ele>
        <time>2018-01-09T12:22:15Z</time>
      </trkpt>
      <trkpt lat="62.649687776868" lon="17.870833072256">
        <ele>39.2</ele>
        <time>2018-01-09T12:22:16Z</time>
      </trkpt>
      <trkpt lat="62.649675204018" lon="17.870788145272">
        <ele>39.2</ele>
        <time>2018-01-09T12:22:17Z</time>
      </trkpt>
      <trkpt lat="62.649664223729" lon="17.870746822505">
        <ele>39.2</ele>
        <time>2018-01-09T12:22:18Z</time>
      </trkpt>
      <trkpt lat="62.649650980327" lon="17.870704326272">
        <ele>39.2</ele>
        <time>2018-01-09T12:22:19Z</time>
      </trkpt>
      <trkpt lat="62.649639413305" lon="17.870661830039">
        <ele>39.4</ele>
        <time>2018-01-09T12:22:20Z</time>
      </trkpt>
      <trkpt lat="62.649628768292" lon="17.870632661027">
        <ele>39.4</ele>
        <time>2018-01-09T12:22:21Z</time>
      </trkpt>
      <trkpt lat="62.649615776347" lon="17.870588488414">
        <ele>39.6</ele>
        <time>2018-01-09T12:22:22Z</time>
      </trkpt>
      <trkpt lat="62.649600856565" lon="17.870549177303">
        <ele>39.6</ele>
        <time>2018-01-09T12:22:23Z</time>
      </trkpt>
      <trkpt lat="62.649586355878" lon="17.870509447097">
        <ele>39.6</ele>
        <time>2018-01-09T12:22:24Z</time>
      </trkpt>
      <trkpt lat="62.6495727772" lon="17.870468208149">
        <ele>39.6</ele>
        <time>2018-01-09T12:22:25Z</time>
      </trkpt>
      <trkpt lat="62.649555007572" lon="17.870431998341">
        <ele>39.8</ele>
        <time>2018-01-09T12:22:26Z</time>
      </trkpt>
      <trkpt lat="62.649537321763" lon="17.87040526008">
        <ele>39.8</ele>
        <time>2018-01-09T12:22:27Z</time>
      </trkpt>
      <trkpt lat="62.649517624298" lon="17.870362009476">
        <ele>40</ele>
        <time>2018-01-09T12:22:28Z</time>
      </trkpt>
      <trkpt lat="62.649502033964" lon="17.870335522672">
        <ele>40</ele>
        <time>2018-01-09T12:22:29Z</time>
      </trkpt>
      <trkpt lat="62.649481163033" lon="17.87030132452">
        <ele>40.2</ele>
        <time>2018-01-09T12:22:30Z</time>
      </trkpt>
      <trkpt lat="62.649464147776" lon="17.870272574603">
        <ele>40.2</ele>
        <time>2018-01-09T12:22:31Z</time>
      </trkpt>
      <trkpt lat="62.649447551614" lon="17.870248183274">
        <ele>40.2</ele>
        <time>2018-01-09T12:22:32Z</time>
      </trkpt>
      <trkpt lat="62.649430871633" lon="17.87021582914">
        <ele>40.4</ele>
        <time>2018-01-09T12:22:33Z</time>
      </trkpt>
      <trkpt lat="62.649417795869" lon="17.870179200237">
        <ele>40.6</ele>
        <time>2018-01-09T12:22:34Z</time>
      </trkpt>
      <trkpt lat="62.649400277698" lon="17.870150534139">
        <ele>40.6</ele>
        <time>2018-01-09T12:22:35Z</time>
      </trkpt>
      <trkpt lat="62.649387788667" lon="17.870117425634">
        <ele>40.6</ele>
        <time>2018-01-09T12:22:36Z</time>
      </trkpt>
      <trkpt lat="62.649373958532" lon="17.870085239138">
        <ele>40.6</ele>
        <time>2018-01-09T12:22:37Z</time>
      </trkpt>
      <trkpt lat="62.649358452017" lon="17.870057075954">
        <ele>40.8</ele>
        <time>2018-01-09T12:22:38Z</time>
      </trkpt>
      <trkpt lat="62.649348477556" lon="17.87003813286">
        <ele>41</ele>
        <time>2018-01-09T12:22:39Z</time>
      </trkpt>
      <trkpt lat="62.649331965213" lon="17.869997732102">
        <ele>41.6</ele>
        <time>2018-01-09T12:22:40Z</time>
      </trkpt>
      <trkpt lat="62.649312519205" lon="17.869959175362">
        <ele>42</ele>
        <time>2018-01-09T12:22:41Z</time>
      </trkpt>
      <trkpt lat="62.649298269975" lon="17.869931179816">
        <ele>42.2</ele>
        <time>2018-01-09T12:22:42Z</time>
      </trkpt>
      <trkpt lat="62.649280667985" lon="17.869901759347">
        <ele>42.6</ele>
        <time>2018-01-09T12:22:43Z</time>
      </trkpt>
      <trkpt lat="62.649259126502" lon="17.869857670553">
        <ele>42.4</ele>
        <time>2018-01-09T12:22:44Z</time>
      </trkpt>
      <trkpt lat="62.649243284711" lon="17.869826154609">
        <ele>42.4</ele>
        <time>2018-01-09T12:22:45Z</time>
      </trkpt>
      <trkpt lat="62.649228448748" lon="17.869799835443">
        <ele>42.2</ele>
        <time>2018-01-09T12:22:46Z</time>
      </trkpt>
      <trkpt lat="62.649210427663" lon="17.869762703626">
        <ele>42.2</ele>
        <time>2018-01-09T12:22:47Z</time>
      </trkpt>
      <trkpt lat="62.649192071302" lon="17.869724985076">
        <ele>42.4</ele>
        <time>2018-01-09T12:22:48Z</time>
      </trkpt>
      <trkpt lat="62.649178576443" lon="17.869696905711">
        <ele>42.4</ele>
        <time>2018-01-09T12:22:49Z</time>
      </trkpt>
      <trkpt lat="62.649164830127" lon="17.869670502726">
        <ele>42.4</ele>
        <time>2018-01-09T12:22:50Z</time>
      </trkpt>
      <trkpt lat="62.649153011648" lon="17.86963161071">
        <ele>42.6</ele>
        <time>2018-01-09T12:22:51Z</time>
      </trkpt>
      <trkpt lat="62.649140103522" lon="17.869595652359">
        <ele>42.4</ele>
        <time>2018-01-09T12:22:52Z</time>
      </trkpt>
      <trkpt lat="62.649126524844" lon="17.869555838334">
        <ele>42.6</ele>
        <time>2018-01-09T12:22:53Z</time>
      </trkpt>
      <trkpt lat="62.649115628374" lon="17.869533458661">
        <ele>42.6</ele>
        <time>2018-01-09T12:22:54Z</time>
      </trkpt>
      <trkpt lat="62.649104396628" lon="17.869495153378">
        <ele>42.6</ele>
        <time>2018-01-09T12:22:55Z</time>
      </trkpt>
      <trkpt lat="62.649085369715" lon="17.869461374321">
        <ele>42.6</ele>
        <time>2018-01-09T12:22:56Z</time>
      </trkpt>
      <trkpt lat="62.649072461589" lon="17.86944301796">
        <ele>42.8</ele>
        <time>2018-01-09T12:22:57Z</time>
      </trkpt>
      <trkpt lat="62.64905645216" lon="17.869402952478">
        <ele>42.8</ele>
        <time>2018-01-09T12:22:58Z</time>
      </trkpt>
      <trkpt lat="62.649034826858" lon="17.869359282779">
        <ele>42.8</ele>
        <time>2018-01-09T12:22:59Z</time>
      </trkpt>
      <trkpt lat="62.649021331999" lon="17.869333717984">
        <ele>43</ele>
        <time>2018-01-09T12:23:00Z</time>
      </trkpt>
      <trkpt lat="62.649005657846" lon="17.869293065769">
        <ele>43</ele>
        <time>2018-01-09T12:23:01Z</time>
      </trkpt>
      <trkpt lat="62.648987469123" lon="17.869250066622">
        <ele>43</ele>
        <time>2018-01-09T12:23:02Z</time>
      </trkpt>
      <trkpt lat="62.648974896273" lon="17.869221400524">
        <ele>43.2</ele>
        <time>2018-01-09T12:23:03Z</time>
      </trkpt>
      <trkpt lat="62.648956372274" lon="17.869180496852">
        <ele>43.2</ele>
        <time>2018-01-09T12:23:04Z</time>
      </trkpt>
      <trkpt lat="62.648935166067" lon="17.86914797508">
        <ele>43.4</ele>
        <time>2018-01-09T12:23:05Z</time>
      </trkpt>
      <trkpt lat="62.64891982719" lon="17.869120147172">
        <ele>43.4</ele>
        <time>2018-01-09T12:23:06Z</time>
      </trkpt>
      <trkpt lat="62.648906919064" lon="17.869088379771">
        <ele>43.6</ele>
        <time>2018-01-09T12:23:07Z</time>
      </trkpt>
      <trkpt lat="62.648891747825" lon="17.869045212986">
        <ele>43.6</ele>
        <time>2018-01-09T12:23:08Z</time>
      </trkpt>
      <trkpt lat="62.648883030649" lon="17.869012607395">
        <ele>43.8</ele>
        <time>2018-01-09T12:23:09Z</time>
      </trkpt>
      <trkpt lat="62.648872469455" lon="17.868977235777">
        <ele>43.8</ele>
        <time>2018-01-09T12:23:10Z</time>
      </trkpt>
      <trkpt lat="62.648853107266" lon="17.86892501654">
        <ele>44</ele>
        <time>2018-01-09T12:23:11Z</time>
      </trkpt>
      <trkpt lat="62.64884187552" lon="17.86889651808">
        <ele>44.2</ele>
        <time>2018-01-09T12:23:12Z</time>
      </trkpt>
      <trkpt lat="62.64882846448" lon="17.868857877521">
        <ele>44.2</ele>
        <time>2018-01-09T12:23:13Z</time>
      </trkpt>
      <trkpt lat="62.648808096463" lon="17.868818063496">
        <ele>44.2</ele>
        <time>2018-01-09T12:23:14Z</time>
      </trkpt>
      <trkpt lat="62.648798122002" lon="17.868788810665">
        <ele>44.4</ele>
        <time>2018-01-09T12:23:15Z</time>
      </trkpt>
      <trkpt lat="62.648786722618" lon="17.868749331916">
        <ele>44.4</ele>
        <time>2018-01-09T12:23:16Z</time>
      </trkpt>
      <trkpt lat="62.64877230575" lon="17.868701135991">
        <ele>44.4</ele>
        <time>2018-01-09T12:23:17Z</time>
      </trkpt>
      <trkpt lat="62.648764175307" lon="17.868662998346">
        <ele>44.4</ele>
        <time>2018-01-09T12:23:18Z</time>
      </trkpt>
      <trkpt lat="62.648753530294" lon="17.868618071362">
        <ele>44.4</ele>
        <time>2018-01-09T12:23:19Z</time>
      </trkpt>
      <trkpt lat="62.648736598856" lon="17.868575156034">
        <ele>44.4</ele>
        <time>2018-01-09T12:23:20Z</time>
      </trkpt>
      <trkpt lat="62.648725953843" lon="17.868536850751">
        <ele>44.6</ele>
        <time>2018-01-09T12:23:21Z</time>
      </trkpt>
      <trkpt lat="62.648713716269" lon="17.868484547695">
        <ele>44.6</ele>
        <time>2018-01-09T12:23:22Z</time>
      </trkpt>
      <trkpt lat="62.648705166731" lon="17.868445236584">
        <ele>44.8</ele>
        <time>2018-01-09T12:23:23Z</time>
      </trkpt>
      <trkpt lat="62.648695108451" lon="17.86838438399">
        <ele>45</ele>
        <time>2018-01-09T12:23:24Z</time>
      </trkpt>
      <trkpt lat="62.648684631076" lon="17.86833828354">
        <ele>45.2</ele>
        <time>2018-01-09T12:23:25Z</time>
      </trkpt>
      <trkpt lat="62.648678847565" lon="17.868300313533">
        <ele>45.2</ele>
        <time>2018-01-09T12:23:26Z</time>
      </trkpt>
      <trkpt lat="62.648672393502" lon="17.868272569444">
        <ele>45.2</ele>
        <time>2018-01-09T12:23:27Z</time>
      </trkpt>
      <trkpt lat="62.648666861448" lon="17.868225798442">
        <ele>45.4</ele>
        <time>2018-01-09T12:23:28Z</time>
      </trkpt>
      <trkpt lat="62.648657892815" lon="17.86817651287">
        <ele>45.4</ele>
        <time>2018-01-09T12:23:29Z</time>
      </trkpt>
      <trkpt lat="62.648650013829" lon="17.868137704673">
        <ele>45.4</ele>
        <time>2018-01-09T12:23:30Z</time>
      </trkpt>
      <trkpt lat="62.648642051024" lon="17.868094705526">
        <ele>45.6</ele>
        <time>2018-01-09T12:23:31Z</time>
      </trkpt>
      <trkpt lat="62.648629897269" lon="17.868035780769">
        <ele>45.6</ele>
        <time>2018-01-09T12:23:32Z</time>
      </trkpt>
      <trkpt lat="62.648623778482" lon="17.867997475486">
        <ele>45.6</ele>
        <time>2018-01-09T12:23:33Z</time>
      </trkpt>
      <trkpt lat="62.64861640241" lon="17.867941400575">
        <ele>45.6</ele>
        <time>2018-01-09T12:23:34Z</time>
      </trkpt>
      <trkpt lat="62.64860382956" lon="17.86789069008">
        <ele>45.6</ele>
        <time>2018-01-09T12:23:35Z</time>
      </trkpt>
      <trkpt lat="62.648598297506" lon="17.867861604887">
        <ele>45.6</ele>
        <time>2018-01-09T12:23:36Z</time>
      </trkpt>
      <trkpt lat="62.648588825959" lon="17.867809050374">
        <ele>45.4</ele>
        <time>2018-01-09T12:23:37Z</time>
      </trkpt>
      <trkpt lat="62.648578264765" lon="17.86775238873">
        <ele>45.4</ele>
        <time>2018-01-09T12:23:38Z</time>
      </trkpt>
      <trkpt lat="62.648572229797" lon="17.867714921637">
        <ele>45.4</ele>
        <time>2018-01-09T12:23:39Z</time>
      </trkpt>
      <trkpt lat="62.648561836241" lon="17.867648788446">
        <ele>45.6</ele>
        <time>2018-01-09T12:23:40Z</time>
      </trkpt>
      <trkpt lat="62.64855353816" lon="17.867606459851">
        <ele>45.6</ele>
        <time>2018-01-09T12:23:41Z</time>
      </trkpt>
      <trkpt lat="62.648546078269" lon="17.867563376885">
        <ele>45.6</ele>
        <time>2018-01-09T12:23:42Z</time>
      </trkpt>
      <trkpt lat="62.648536019989" lon="17.86751015182">
        <ele>45.6</ele>
        <time>2018-01-09T12:23:43Z</time>
      </trkpt>
      <trkpt lat="62.648530739392" lon="17.867466733578">
        <ele>45.6</ele>
        <time>2018-01-09T12:23:44Z</time>
      </trkpt>
      <trkpt lat="62.648517663628" lon="17.867411915952">
        <ele>45.6</ele>
        <time>2018-01-09T12:23:45Z</time>
      </trkpt>
      <trkpt lat="62.648501654199" lon="17.867356008679">
        <ele>45.4</ele>
        <time>2018-01-09T12:23:46Z</time>
      </trkpt>
      <trkpt lat="62.648489248987" lon="17.867312674256">
        <ele>45.4</ele>
        <time>2018-01-09T12:23:47Z</time>
      </trkpt>
      <trkpt lat="62.648478352517" lon="17.867246205789">
        <ele>45.4</ele>
        <time>2018-01-09T12:23:48Z</time>
      </trkpt>
      <trkpt lat="62.648467120771" lon="17.867190298516">
        <ele>45.4</ele>
        <time>2018-01-09T12:23:49Z</time>
      </trkpt>
      <trkpt lat="62.648457313948" lon="17.86716146478">
        <ele>45.6</ele>
        <time>2018-01-09T12:23:50Z</time>
      </trkpt>
      <trkpt lat="62.648446752754" lon="17.867109664638">
        <ele>45.8</ele>
        <time>2018-01-09T12:23:51Z</time>
      </trkpt>
      <trkpt lat="62.648438538492" lon="17.86706339655">
        <ele>45.8</ele>
        <time>2018-01-09T12:23:52Z</time>
      </trkpt>
      <trkpt lat="62.648430156592" lon="17.867020397403">
        <ele>45.8</ele>
        <time>2018-01-09T12:23:53Z</time>
      </trkpt>
      <trkpt lat="62.648425546547" lon="17.866983517043">
        <ele>45.8</ele>
        <time>2018-01-09T12:23:54Z</time>
      </trkpt>
      <trkpt lat="62.648418170475" lon="17.866942613371">
        <ele>45.8</ele>
        <time>2018-01-09T12:23:55Z</time>
      </trkpt>
      <trkpt lat="62.648411716412" lon="17.866899865681">
        <ele>46</ele>
        <time>2018-01-09T12:23:56Z</time>
      </trkpt>
      <trkpt lat="62.648407106367" lon="17.866862985321">
        <ele>46</ele>
        <time>2018-01-09T12:23:57Z</time>
      </trkpt>
      <trkpt lat="62.64840266396" lon="17.866819399441">
        <ele>46</ele>
        <time>2018-01-09T12:23:58Z</time>
      </trkpt>
      <trkpt lat="62.648397718639" lon="17.866782519081">
        <ele>46.2</ele>
        <time>2018-01-09T12:23:59Z</time>
      </trkpt>
      <trkpt lat="62.64839679663" lon="17.86674488435">
        <ele>46.2</ele>
        <time>2018-01-09T12:24:00Z</time>
      </trkpt>
      <trkpt lat="62.648393360051" lon="17.866712111121">
        <ele>46.2</ele>
        <time>2018-01-09T12:24:01Z</time>
      </trkpt>
      <trkpt lat="62.64838925292" lon="17.866676571865">
        <ele>46.4</ele>
        <time>2018-01-09T12:24:02Z</time>
      </trkpt>
      <trkpt lat="62.648384391418" lon="17.866637512211">
        <ele>46.6</ele>
        <time>2018-01-09T12:24:03Z</time>
      </trkpt>
      <trkpt lat="62.648377182984" lon="17.866594177788">
        <ele>46.8</ele>
        <time>2018-01-09T12:24:04Z</time>
      </trkpt>
      <trkpt lat="62.648371818568" lon="17.866551933012">
        <ele>47.2</ele>
        <time>2018-01-09T12:24:05Z</time>
      </trkpt>
      <trkpt lat="62.648367795256" lon="17.866511783711">
        <ele>47.6</ele>
        <time>2018-01-09T12:24:06Z</time>
      </trkpt>
      <trkpt lat="62.648362095564" lon="17.86647917812">
        <ele>47.8</ele>
        <time>2018-01-09T12:24:07Z</time>
      </trkpt>
      <trkpt lat="62.6483574017" lon="17.866444896149">
        <ele>48</ele>
        <time>2018-01-09T12:24:08Z</time>
      </trkpt>
      <trkpt lat="62.648350863818" lon="17.866407009961">
        <ele>48</ele>
        <time>2018-01-09T12:24:09Z</time>
      </trkpt>
      <trkpt lat="62.648344996488" lon="17.866360574235">
        <ele>48.2</ele>
        <time>2018-01-09T12:24:10Z</time>
      </trkpt>
      <trkpt lat="62.648339296796" lon="17.866313970871">
        <ele>48.4</ele>
        <time>2018-01-09T12:24:11Z</time>
      </trkpt>
      <trkpt lat="62.648332172181" lon="17.866284215126">
        <ele>48.6</ele>
        <time>2018-01-09T12:24:12Z</time>
      </trkpt>
      <trkpt lat="62.648322952091" lon="17.866253202096">
        <ele>48.8</ele>
        <time>2018-01-09T12:24:13Z</time>
      </trkpt>
      <trkpt lat="62.648309960146" lon="17.866230487147">
        <ele>49</ele>
        <time>2018-01-09T12:24:14Z</time>
      </trkpt>
      <trkpt lat="62.648300572418" lon="17.866212046967">
        <ele>49.2</ele>
        <time>2018-01-09T12:24:15Z</time>
      </trkpt>
      <trkpt lat="62.648285736455" lon="17.866191511312">
        <ele>49.2</ele>
        <time>2018-01-09T12:24:16Z</time>
      </trkpt>
      <trkpt lat="62.648274085614" lon="17.86616737144">
        <ele>49.2</ele>
        <time>2018-01-09T12:24:17Z</time>
      </trkpt>
      <trkpt lat="62.648260842212" lon="17.86613552022">
        <ele>49.2</ele>
        <time>2018-01-09T12:24:18Z</time>
      </trkpt>
      <trkpt lat="62.648244162231" lon="17.866124456112">
        <ele>49.4</ele>
        <time>2018-01-09T12:24:19Z</time>
      </trkpt>
      <trkpt lat="62.648229829182" lon="17.866113643461">
        <ele>49.4</ele>
        <time>2018-01-09T12:24:20Z</time>
      </trkpt>
      <trkpt lat="62.648214993219" lon="17.866110542158">
        <ele>49.6</ele>
        <time>2018-01-09T12:24:21Z</time>
      </trkpt>
      <trkpt lat="62.648198061781" lon="17.866108781959">
        <ele>49.8</ele>
        <time>2018-01-09T12:24:22Z</time>
      </trkpt>
      <trkpt lat="62.648177107031" lon="17.866111799443">
        <ele>49.8</ele>
        <time>2018-01-09T12:24:23Z</time>
      </trkpt>
      <trkpt lat="62.648158247756" lon="17.866113559642">
        <ele>50</ele>
        <time>2018-01-09T12:24:24Z</time>
      </trkpt>
      <trkpt lat="62.648141903051" lon="17.866120935714">
        <ele>50.2</ele>
        <time>2018-01-09T12:24:25Z</time>
      </trkpt>
      <trkpt lat="62.648125809803" lon="17.866128311786">
        <ele>50.4</ele>
        <time>2018-01-09T12:24:26Z</time>
      </trkpt>
      <trkpt lat="62.648111979668" lon="17.866140214084">
        <ele>50.8</ele>
        <time>2018-01-09T12:24:27Z</time>
      </trkpt>
      <trkpt lat="62.648094377678" lon="17.866151613468">
        <ele>51</ele>
        <time>2018-01-09T12:24:28Z</time>
      </trkpt>
      <trkpt lat="62.648078619706" lon="17.866158235169">
        <ele>51.2</ele>
        <time>2018-01-09T12:24:29Z</time>
      </trkpt>
      <trkpt lat="62.648065208666" lon="17.866170975657">
        <ele>51.2</ele>
        <time>2018-01-09T12:24:30Z</time>
      </trkpt>
      <trkpt lat="62.648056323852" lon="17.866183716145">
        <ele>51.6</ele>
        <time>2018-01-09T12:24:31Z</time>
      </trkpt>
      <trkpt lat="62.648046265572" lon="17.866199138841">
        <ele>51.6</ele>
        <time>2018-01-09T12:24:32Z</time>
      </trkpt>
      <trkpt lat="62.648034447093" lon="17.866211460234">
        <ele>51.8</ele>
        <time>2018-01-09T12:24:33Z</time>
      </trkpt>
      <trkpt lat="62.648021538967" lon="17.866229062224">
        <ele>52</ele>
        <time>2018-01-09T12:24:34Z</time>
      </trkpt>
      <trkpt lat="62.648006367728" lon="17.866244820196">
        <ele>52.4</ele>
        <time>2018-01-09T12:24:35Z</time>
      </trkpt>
      <trkpt lat="62.647990861213" lon="17.866262757462">
        <ele>52.6</ele>
        <time>2018-01-09T12:24:36Z</time>
      </trkpt>
      <trkpt lat="62.647980048562" lon="17.866280778547">
        <ele>52.8</ele>
        <time>2018-01-09T12:24:37Z</time>
      </trkpt>
      <trkpt lat="62.647970577015" lon="17.866297039433">
        <ele>53</ele>
        <time>2018-01-09T12:24:38Z</time>
      </trkpt>
      <trkpt lat="62.647963620038" lon="17.866308103541">
        <ele>53.2</ele>
        <time>2018-01-09T12:24:39Z</time>
      </trkpt>
      <trkpt lat="62.647953897034" lon="17.866333584517">
        <ele>53.2</ele>
        <time>2018-01-09T12:24:40Z</time>
      </trkpt>
      <trkpt lat="62.647944257849" lon="17.866349845403">
        <ele>53.4</ele>
        <time>2018-01-09T12:24:41Z</time>
      </trkpt>
      <trkpt lat="62.647935037759" lon="17.866372811809">
        <ele>53.4</ele>
        <time>2018-01-09T12:24:42Z</time>
      </trkpt>
      <trkpt lat="62.647927494049" lon="17.866394101835">
        <ele>53.6</ele>
        <time>2018-01-09T12:24:43Z</time>
      </trkpt>
      <trkpt lat="62.647918357778" lon="17.8664137993">
        <ele>53.6</ele>
        <time>2018-01-09T12:24:44Z</time>
      </trkpt>
      <trkpt lat="62.647914418285" lon="17.866436765706">
        <ele>54</ele>
        <time>2018-01-09T12:24:45Z</time>
      </trkpt>
      <trkpt lat="62.647906204023" lon="17.866475154808">
        <ele>54.2</ele>
        <time>2018-01-09T12:24:46Z</time>
      </trkpt>
      <trkpt lat="62.647899582322" lon="17.866496612472">
        <ele>54.4</ele>
        <time>2018-01-09T12:24:47Z</time>
      </trkpt>
      <trkpt lat="62.64789220625" lon="17.866511951349">
        <ele>54.6</ele>
        <time>2018-01-09T12:24:48Z</time>
      </trkpt>
      <trkpt lat="62.647883069979" lon="17.86653366047">
        <ele>54.8</ele>
        <time>2018-01-09T12:24:49Z</time>
      </trkpt>
      <trkpt lat="62.647876615916" lon="17.866551765374">
        <ele>55</ele>
        <time>2018-01-09T12:24:50Z</time>
      </trkpt>
      <trkpt lat="62.647870664767" lon="17.866563583853">
        <ele>55.2</ele>
        <time>2018-01-09T12:24:51Z</time>
      </trkpt>
      <trkpt lat="62.647866138541" lon="17.866574396504">
        <ele>55.2</ele>
        <time>2018-01-09T12:24:52Z</time>
      </trkpt>
      <trkpt lat="62.647860187392" lon="17.86658311368">
        <ele>55.4</ele>
        <time>2018-01-09T12:24:53Z</time>
      </trkpt>
      <trkpt lat="62.647854822976" lon="17.866603397878">
        <ele>55.8</ele>
        <time>2018-01-09T12:24:54Z</time>
      </trkpt>
      <trkpt lat="62.64784778218" lon="17.866625106999">
        <ele>56</ele>
        <time>2018-01-09T12:24:55Z</time>
      </trkpt>
      <trkpt lat="62.647839735556" lon="17.866644050093">
        <ele>56.2</ele>
        <time>2018-01-09T12:24:56Z</time>
      </trkpt>
      <trkpt lat="62.647832862398" lon="17.866662657911">
        <ele>56.4</ele>
        <time>2018-01-09T12:24:57Z</time>
      </trkpt>
      <trkpt lat="62.647826492154" lon="17.866679002616">
        <ele>56.6</ele>
        <time>2018-01-09T12:24:58Z</time>
      </trkpt>
      <trkpt lat="62.647821211557" lon="17.866696436968">
        <ele>56.8</ele>
        <time>2018-01-09T12:24:59Z</time>
      </trkpt>
      <trkpt lat="62.647815847141" lon="17.866715966795">
        <ele>57</ele>
        <time>2018-01-09T12:25:00Z</time>
      </trkpt>
      <trkpt lat="62.64781006363" lon="17.866730970396">
        <ele>57</ele>
        <time>2018-01-09T12:25:01Z</time>
      </trkpt>
      <trkpt lat="62.647802268463" lon="17.866745554902">
        <ele>57</ele>
        <time>2018-01-09T12:25:02Z</time>
      </trkpt>
      <trkpt lat="62.647794305658" lon="17.866759301218">
        <ele>57.2</ele>
        <time>2018-01-09T12:25:03Z</time>
      </trkpt>
      <trkpt lat="62.647783409188" lon="17.866778914864">
        <ele>57.4</ele>
        <time>2018-01-09T12:25:04Z</time>
      </trkpt>
      <trkpt lat="62.647778296229" lon="17.866799785795">
        <ele>57.4</ele>
        <time>2018-01-09T12:25:05Z</time>
      </trkpt>
      <trkpt lat="62.647767399759" lon="17.866840018915">
        <ele>57.6</ele>
        <time>2018-01-09T12:25:06Z</time>
      </trkpt>
      <trkpt lat="62.647763208809" lon="17.866865667529">
        <ele>58</ele>
        <time>2018-01-09T12:25:07Z</time>
      </trkpt>
      <trkpt lat="62.64774887576" lon="17.866926603942">
        <ele>58.2</ele>
        <time>2018-01-09T12:25:08Z</time>
      </trkpt>
      <trkpt lat="62.64774049386" lon="17.866968094347">
        <ele>58.4</ele>
        <time>2018-01-09T12:25:09Z</time>
      </trkpt>
      <trkpt lat="62.647733033969" lon="17.867010003847">
        <ele>58.4</ele>
        <time>2018-01-09T12:25:10Z</time>
      </trkpt>
      <trkpt lat="62.64772624463" lon="17.867048476768">
        <ele>58.2</ele>
        <time>2018-01-09T12:25:11Z</time>
      </trkpt>
      <trkpt lat="62.647718114187" lon="17.86708267492">
        <ele>58.2</ele>
        <time>2018-01-09T12:25:12Z</time>
      </trkpt>
      <trkpt lat="62.647707636812" lon="17.867121566936">
        <ele>58.2</ele>
        <time>2018-01-09T12:25:13Z</time>
      </trkpt>
      <trkpt lat="62.647699254912" lon="17.867150484491">
        <ele>58.4</ele>
        <time>2018-01-09T12:25:14Z</time>
      </trkpt>
      <trkpt lat="62.647692465573" lon="17.867181413702">
        <ele>58.8</ele>
        <time>2018-01-09T12:25:15Z</time>
      </trkpt>
      <trkpt lat="62.647687855528" lon="17.867220640994">
        <ele>59</ele>
        <time>2018-01-09T12:25:16Z</time>
      </trkpt>
      <trkpt lat="62.647680479456" lon="17.867265567978">
        <ele>59.4</ele>
        <time>2018-01-09T12:25:17Z</time>
      </trkpt>
      <trkpt lat="62.647672181375" lon="17.867301274872">
        <ele>59.6</ele>
        <time>2018-01-09T12:25:18Z</time>
      </trkpt>
      <trkpt lat="62.647662458371" lon="17.867331952626">
        <ele>59.8</ele>
        <time>2018-01-09T12:25:19Z</time>
      </trkpt>
      <trkpt lat="62.647653992652" lon="17.867359361439">
        <ele>60</ele>
        <time>2018-01-09T12:25:20Z</time>
      </trkpt>
      <trkpt lat="62.64764410201" lon="17.867392889039">
        <ele>60.2</ele>
        <time>2018-01-09T12:25:21Z</time>
      </trkpt>
      <trkpt lat="62.647638067042" lon="17.867423734431">
        <ele>60.4</ele>
        <time>2018-01-09T12:25:22Z</time>
      </trkpt>
      <trkpt lat="62.64763152916" lon="17.867446784656">
        <ele>60.4</ele>
        <time>2018-01-09T12:25:23Z</time>
      </trkpt>
      <trkpt lat="62.647627086753" lon="17.867472600908">
        <ele>60.6</ele>
        <time>2018-01-09T12:25:24Z</time>
      </trkpt>
      <trkpt lat="62.647620967966" lon="17.867497746608">
        <ele>60.8</ele>
        <time>2018-01-09T12:25:25Z</time>
      </trkpt>
      <trkpt lat="62.647612166971" lon="17.86752943019">
        <ele>61</ele>
        <time>2018-01-09T12:25:26Z</time>
      </trkpt>
      <trkpt lat="62.647605796727" lon="17.867553402424">
        <ele>61.4</ele>
        <time>2018-01-09T12:25:27Z</time>
      </trkpt>
      <trkpt lat="62.647598253017" lon="17.867580392142">
        <ele>61.4</ele>
        <time>2018-01-09T12:25:28Z</time>
      </trkpt>
      <trkpt lat="62.647590625488" lon="17.867614506475">
        <ele>61.6</ele>
        <time>2018-01-09T12:25:29Z</time>
      </trkpt>
      <trkpt lat="62.647581573036" lon="17.86764929136">
        <ele>61.8</ele>
        <time>2018-01-09T12:25:30Z</time>
      </trkpt>
      <trkpt lat="62.647574364602" lon="17.867675778164">
        <ele>62</ele>
        <time>2018-01-09T12:25:31Z</time>
      </trkpt>
      <trkpt lat="62.647564976874" lon="17.86769874457">
        <ele>62.2</ele>
        <time>2018-01-09T12:25:32Z</time>
      </trkpt>
      <trkpt lat="62.647557349345" lon="17.867727662125">
        <ele>62.4</ele>
        <time>2018-01-09T12:25:33Z</time>
      </trkpt>
      <trkpt lat="62.647540250269" lon="17.867760602992">
        <ele>62.6</ele>
        <time>2018-01-09T12:25:34Z</time>
      </trkpt>
      <trkpt lat="62.647523821745" lon="17.867785497235">
        <ele>62.8</ele>
        <time>2018-01-09T12:25:35Z</time>
      </trkpt>
      <trkpt lat="62.647509321058" lon="17.867802931587">
        <ele>63</ele>
        <time>2018-01-09T12:25:36Z</time>
      </trkpt>
      <trkpt lat="62.647490880878" lon="17.867816258808">
        <ele>63.2</ele>
        <time>2018-01-09T12:25:37Z</time>
      </trkpt>
      <trkpt lat="62.647471518689" lon="17.867835034264">
        <ele>63.2</ele>
        <time>2018-01-09T12:25:38Z</time>
      </trkpt>
      <trkpt lat="62.647444948066" lon="17.867845679277">
        <ele>63.4</ele>
        <time>2018-01-09T12:25:39Z</time>
      </trkpt>
      <trkpt lat="62.64741695252" lon="17.867852720073">
        <ele>63.6</ele>
        <time>2018-01-09T12:25:40Z</time>
      </trkpt>
      <trkpt lat="62.647398009426" lon="17.867856156652">
        <ele>63.6</ele>
        <time>2018-01-09T12:25:41Z</time>
      </trkpt>
      <trkpt lat="62.647380658893" lon="17.867857078661">
        <ele>63.8</ele>
        <time>2018-01-09T12:25:42Z</time>
      </trkpt>
      <trkpt lat="62.647344784361" lon="17.86784123687">
        <ele>64</ele>
        <time>2018-01-09T12:25:43Z</time>
      </trkpt>
      <trkpt lat="62.647314441883" lon="17.867824053975">
        <ele>64</ele>
        <time>2018-01-09T12:25:44Z</time>
      </trkpt>
      <trkpt lat="62.647296672255" lon="17.867818019007">
        <ele>64</ele>
        <time>2018-01-09T12:25:45Z</time>
      </trkpt>
      <trkpt lat="62.647267419424" lon="17.867794884963">
        <ele>64</ele>
        <time>2018-01-09T12:25:46Z</time>
      </trkpt>
      <trkpt lat="62.647241016439" lon="17.867766135046">
        <ele>64</ele>
        <time>2018-01-09T12:25:47Z</time>
      </trkpt>
      <trkpt lat="62.647220061689" lon="17.867741995174">
        <ele>64.2</ele>
        <time>2018-01-09T12:25:48Z</time>
      </trkpt>
      <trkpt lat="62.647201286233" lon="17.867713999628">
        <ele>64.2</ele>
        <time>2018-01-09T12:25:49Z</time>
      </trkpt>
      <trkpt lat="62.647181924044" lon="17.867686255539">
        <ele>64.2</ele>
        <time>2018-01-09T12:25:50Z</time>
      </trkpt>
      <trkpt lat="62.647170273203" lon="17.867651386835">
        <ele>64.4</ele>
        <time>2018-01-09T12:25:51Z</time>
      </trkpt>
      <trkpt lat="62.647137416155" lon="17.867605537842">
        <ele>64.8</ele>
        <time>2018-01-09T12:25:52Z</time>
      </trkpt>
      <trkpt lat="62.647113276283" lon="17.867568070749">
        <ele>65</ele>
        <time>2018-01-09T12:25:53Z</time>
      </trkpt>
      <trkpt lat="62.647093494999" lon="17.867525742154">
        <ele>65.2</ele>
        <time>2018-01-09T12:25:54Z</time>
      </trkpt>
      <trkpt lat="62.647064745082" lon="17.86749003526">
        <ele>65.2</ele>
        <time>2018-01-09T12:25:55Z</time>
      </trkpt>
      <trkpt lat="62.647048400377" lon="17.867464386646">
        <ele>65.4</ele>
        <time>2018-01-09T12:25:56Z</time>
      </trkpt>
      <trkpt lat="62.64703389969" lon="17.86744644938">
        <ele>65.2</ele>
        <time>2018-01-09T12:25:57Z</time>
      </trkpt>
      <trkpt lat="62.647017471166" lon="17.867411915952">
        <ele>65.4</ele>
        <time>2018-01-09T12:25:58Z</time>
      </trkpt>
      <trkpt lat="62.647002551384" lon="17.867369419719">
        <ele>65.4</ele>
        <time>2018-01-09T12:25:59Z</time>
      </trkpt>
      <trkpt lat="62.646979501159" lon="17.86733748468">
        <ele>65.4</ele>
        <time>2018-01-09T12:26:00Z</time>
      </trkpt>
      <trkpt lat="62.646964749015" lon="17.867313763903">
        <ele>65.6</ele>
        <time>2018-01-09T12:26:01Z</time>
      </trkpt>
      <trkpt lat="62.646946057378" lon="17.867254587689">
        <ele>65.6</ele>
        <time>2018-01-09T12:26:02Z</time>
      </trkpt>
      <trkpt lat="62.646929042121" lon="17.867209157791">
        <ele>65.6</ele>
        <time>2018-01-09T12:26:03Z</time>
      </trkpt>
      <trkpt lat="62.646914122339" lon="17.867161380961">
        <ele>65.6</ele>
        <time>2018-01-09T12:26:04Z</time>
      </trkpt>
      <trkpt lat="62.646897442358" lon="17.867119974375">
        <ele>65.6</ele>
        <time>2018-01-09T12:26:05Z</time>
      </trkpt>
      <trkpt lat="62.646882522576" lon="17.867072197545">
        <ele>65.6</ele>
        <time>2018-01-09T12:26:06Z</time>
      </trkpt>
      <trkpt lat="62.646872631934" lon="17.867026180914">
        <ele>65.6</ele>
        <time>2018-01-09T12:26:07Z</time>
      </trkpt>
      <trkpt lat="62.646860310541" lon="17.8669670047">
        <ele>65.8</ele>
        <time>2018-01-09T12:26:08Z</time>
      </trkpt>
      <trkpt lat="62.646854443211" lon="17.866913863454">
        <ele>65.8</ele>
        <time>2018-01-09T12:26:09Z</time>
      </trkpt>
      <trkpt lat="62.646847989148" lon="17.866861811855">
        <ele>65.8</ele>
        <time>2018-01-09T12:26:10Z</time>
      </trkpt>
      <trkpt lat="62.646843714379" lon="17.866788637868">
        <ele>65.8</ele>
        <time>2018-01-09T12:26:11Z</time>
      </trkpt>
      <trkpt lat="62.646841199809" lon="17.866725773618">
        <ele>65.8</ele>
        <time>2018-01-09T12:26:12Z</time>
      </trkpt>
      <trkpt lat="62.646840529257" lon="17.8666568744">
        <ele>65.8</ele>
        <time>2018-01-09T12:26:13Z</time>
      </trkpt>
      <trkpt lat="62.646837427954" lon="17.866592417589">
        <ele>66</ele>
        <time>2018-01-09T12:26:14Z</time>
      </trkpt>
      <trkpt lat="62.646835332479" lon="17.866539192524">
        <ele>65.8</ele>
        <time>2018-01-09T12:26:15Z</time>
      </trkpt>
      <trkpt lat="62.646834745746" lon="17.866465096528">
        <ele>65.8</ele>
        <time>2018-01-09T12:26:16Z</time>
      </trkpt>
      <trkpt lat="62.646833069366" lon="17.866390413799">
        <ele>66</ele>
        <time>2018-01-09T12:26:17Z</time>
      </trkpt>
      <trkpt lat="62.646820412697" lon="17.866314557604">
        <ele>66.2</ele>
        <time>2018-01-09T12:26:18Z</time>
      </trkpt>
      <trkpt lat="62.646816389385" lon="17.866239958694">
        <ele>66.4</ele>
        <time>2018-01-09T12:26:19Z</time>
      </trkpt>
      <trkpt lat="62.646805492915" lon="17.866164773051">
        <ele>66.4</ele>
        <time>2018-01-09T12:26:20Z</time>
      </trkpt>
      <trkpt lat="62.646791159866" lon="17.86612127099">
        <ele>66.2</ele>
        <time>2018-01-09T12:26:21Z</time>
      </trkpt>
      <trkpt lat="62.646782358871" lon="17.866037032895">
        <ele>66.2</ele>
        <time>2018-01-09T12:26:22Z</time>
      </trkpt>
      <trkpt lat="62.646762074673" lon="17.86598129326">
        <ele>66</ele>
        <time>2018-01-09T12:26:23Z</time>
      </trkpt>
      <trkpt lat="62.646748747452" lon="17.865926224177">
        <ele>65.8</ele>
        <time>2018-01-09T12:26:24Z</time>
      </trkpt>
      <trkpt lat="62.646730139634" lon="17.865845087385">
        <ele>65.6</ele>
        <time>2018-01-09T12:26:25Z</time>
      </trkpt>
      <trkpt lat="62.646713375834" lon="17.86576671662">
        <ele>65.4</ele>
        <time>2018-01-09T12:26:26Z</time>
      </trkpt>
      <trkpt lat="62.646695857663" lon="17.865691698615">
        <ele>65.2</ele>
        <time>2018-01-09T12:26:27Z</time>
      </trkpt>
      <trkpt lat="62.646677920397" lon="17.865619446637">
        <ele>65</ele>
        <time>2018-01-09T12:26:28Z</time>
      </trkpt>
      <trkpt lat="62.646661240416" lon="17.865568987599">
        <ele>64.8</ele>
        <time>2018-01-09T12:26:29Z</time>
      </trkpt>
      <trkpt lat="62.646640704761" lon="17.865504027874">
        <ele>64.6</ele>
        <time>2018-01-09T12:26:30Z</time>
      </trkpt>
      <trkpt lat="62.646621426391" lon="17.865458095062">
        <ele>64.6</ele>
        <time>2018-01-09T12:26:31Z</time>
      </trkpt>
      <trkpt lat="62.64659887908" lon="17.865399924676">
        <ele>64.6</ele>
        <time>2018-01-09T12:26:32Z</time>
      </trkpt>
      <trkpt lat="62.646576415588" lon="17.865325912499">
        <ele>64.6</ele>
        <time>2018-01-09T12:26:33Z</time>
      </trkpt>
      <trkpt lat="62.646552527173" lon="17.865274112357">
        <ele>64.4</ele>
        <time>2018-01-09T12:26:34Z</time>
      </trkpt>
      <trkpt lat="62.646522268514" lon="17.86520010018">
        <ele>64.6</ele>
        <time>2018-01-09T12:26:35Z</time>
      </trkpt>
      <trkpt lat="62.646504834162" lon="17.865157771585">
        <ele>64.6</ele>
        <time>2018-01-09T12:26:36Z</time>
      </trkpt>
      <trkpt lat="62.646491171665" lon="17.865115862085">
        <ele>64.8</ele>
        <time>2018-01-09T12:26:37Z</time>
      </trkpt>
      <trkpt lat="62.646466025965" lon="17.865074958413">
        <ele>64.8</ele>
        <time>2018-01-09T12:26:38Z</time>
      </trkpt>
      <trkpt lat="62.646444735939" lon="17.865039251519">
        <ele>65</ele>
        <time>2018-01-09T12:26:39Z</time>
      </trkpt>
      <trkpt lat="62.646422523904" lon="17.865003879901">
        <ele>64.8</ele>
        <time>2018-01-09T12:26:40Z</time>
      </trkpt>
      <trkpt lat="62.646395701824" lon="17.864962221858">
        <ele>65</ele>
        <time>2018-01-09T12:26:41Z</time>
      </trkpt>
      <trkpt lat="62.64637843511" lon="17.864946296248">
        <ele>65</ele>
        <time>2018-01-09T12:26:42Z</time>
      </trkpt>
      <trkpt lat="62.646350188107" lon="17.864909080612">
        <ele>65</ele>
        <time>2018-01-09T12:26:43Z</time>
      </trkpt>
      <trkpt lat="62.646320935276" lon="17.86487320608">
        <ele>65</ele>
        <time>2018-01-09T12:26:44Z</time>
      </trkpt>
      <trkpt lat="62.646300818716" lon="17.864833978788">
        <ele>65.2</ele>
        <time>2018-01-09T12:26:45Z</time>
      </trkpt>
      <trkpt lat="62.646270140962" lon="17.864800618826">
        <ele>65.2</ele>
        <time>2018-01-09T12:26:46Z</time>
      </trkpt>
      <trkpt lat="62.6462451629" lon="17.864779664076">
        <ele>65.2</ele>
        <time>2018-01-09T12:26:47Z</time>
      </trkpt>
      <trkpt lat="62.646212389671" lon="17.864757032946">
        <ele>65.2</ele>
        <time>2018-01-09T12:26:48Z</time>
      </trkpt>
      <trkpt lat="62.646178862071" lon="17.864742951354">
        <ele>65</ele>
        <time>2018-01-09T12:26:49Z</time>
      </trkpt>
      <trkpt lat="62.646143238996" lon="17.864738928042">
        <ele>65</ele>
        <time>2018-01-09T12:26:50Z</time>
      </trkpt>
      <trkpt lat="62.646108202654" lon="17.864748231951">
        <ele>64.8</ele>
        <time>2018-01-09T12:26:51Z</time>
      </trkpt>
      <trkpt lat="62.646072998674" lon="17.864775892221">
        <ele>64.8</ele>
        <time>2018-01-09T12:26:52Z</time>
      </trkpt>
      <trkpt lat="62.646044248757" lon="17.864826015983">
        <ele>64.6</ele>
        <time>2018-01-09T12:26:53Z</time>
      </trkpt>
      <trkpt lat="62.646019186876" lon="17.864889802242">
        <ele>64.6</ele>
        <time>2018-01-09T12:26:54Z</time>
      </trkpt>
      <trkpt lat="62.645997393936" lon="17.864960629297">
        <ele>64.4</ele>
        <time>2018-01-09T12:26:55Z</time>
      </trkpt>
      <trkpt lat="62.645976355367" lon="17.865024164099">
        <ele>64.2</ele>
        <time>2018-01-09T12:26:56Z</time>
      </trkpt>
      <trkpt lat="62.645954646246" lon="17.865082669761">
        <ele>63.8</ele>
        <time>2018-01-09T12:26:57Z</time>
      </trkpt>
      <trkpt lat="62.64592078337" lon="17.865164560924">
        <ele>63.4</ele>
        <time>2018-01-09T12:26:58Z</time>
      </trkpt>
      <trkpt lat="62.645885495571" lon="17.865231616124">
        <ele>63</ele>
        <time>2018-01-09T12:26:59Z</time>
      </trkpt>
      <trkpt lat="62.645847777021" lon="17.865294145098">
        <ele>62.4</ele>
        <time>2018-01-09T12:27:00Z</time>
      </trkpt>
      <trkpt lat="62.645811231937" lon="17.865356925529">
        <ele>61.8</ele>
        <time>2018-01-09T12:27:01Z</time>
      </trkpt>
      <trkpt lat="62.645771417912" lon="17.865420125055">
        <ele>61.2</ele>
        <time>2018-01-09T12:27:02Z</time>
      </trkpt>
      <trkpt lat="62.645732358258" lon="17.865485000961">
        <ele>60.8</ele>
        <time>2018-01-09T12:27:03Z</time>
      </trkpt>
      <trkpt lat="62.645689778206" lon="17.865560270423">
        <ele>60.4</ele>
        <time>2018-01-09T12:27:04Z</time>
      </trkpt>
      <trkpt lat="62.645649377448" lon="17.865632438582">
        <ele>60</ele>
        <time>2018-01-09T12:27:05Z</time>
      </trkpt>
      <trkpt lat="62.64561149126" lon="17.865699409963">
        <ele>59.8</ele>
        <time>2018-01-09T12:27:06Z</time>
      </trkpt>
      <trkpt lat="62.645577544565" lon="17.86577426033">
        <ele>59.6</ele>
        <time>2018-01-09T12:27:07Z</time>
      </trkpt>
      <trkpt lat="62.645539658377" lon="17.865855313303">
        <ele>59</ele>
        <time>2018-01-09T12:27:08Z</time>
      </trkpt>
      <trkpt lat="62.645505963139" lon="17.865937372104">
        <ele>58.6</ele>
        <time>2018-01-09T12:27:09Z</time>
      </trkpt>
      <trkpt lat="62.645469501874" lon="17.866022616027">
        <ele>57.8</ele>
        <time>2018-01-09T12:27:10Z</time>
      </trkpt>
      <trkpt lat="62.645428849659" lon="17.866104088095">
        <ele>57.2</ele>
        <time>2018-01-09T12:27:11Z</time>
      </trkpt>
      <trkpt lat="62.645389035634" lon="17.866179273738">
        <ele>56.8</ele>
        <time>2018-01-09T12:27:12Z</time>
      </trkpt>
      <trkpt lat="62.645344779202" lon="17.866261500177">
        <ele>56.4</ele>
        <time>2018-01-09T12:27:13Z</time>
      </trkpt>
      <trkpt lat="62.645295158354" lon="17.866346660281">
        <ele>56</ele>
        <time>2018-01-09T12:27:14Z</time>
      </trkpt>
      <trkpt lat="62.645247632981" lon="17.866431736566">
        <ele>55.6</ele>
        <time>2018-01-09T12:27:15Z</time>
      </trkpt>
      <trkpt lat="62.64519239626" lon="17.866528882787">
        <ele>55.2</ele>
        <time>2018-01-09T12:27:16Z</time>
      </trkpt>
      <trkpt lat="62.645141182851" lon="17.866636338745">
        <ele>54.8</ele>
        <time>2018-01-09T12:27:17Z</time>
      </trkpt>
      <trkpt lat="62.645088041605" lon="17.866757373381">
        <ele>54.4</ele>
        <time>2018-01-09T12:27:18Z</time>
      </trkpt>
      <trkpt lat="62.645045461553" lon="17.866887041374">
        <ele>54</ele>
        <time>2018-01-09T12:27:19Z</time>
      </trkpt>
      <trkpt lat="62.645008497374" lon="17.867020229765">
        <ele>53.4</ele>
        <time>2018-01-09T12:27:20Z</time>
      </trkpt>
      <trkpt lat="62.644979579819" lon="17.867150819767">
        <ele>51.4</ele>
        <time>2018-01-09T12:27:21Z</time>
      </trkpt>
      <trkpt lat="62.644943537649" lon="17.867309489134">
        <ele>50</ele>
        <time>2018-01-09T12:27:22Z</time>
      </trkpt>
      <trkpt lat="62.644904645633" lon="17.86747159508">
        <ele>48.4</ele>
        <time>2018-01-09T12:27:23Z</time>
      </trkpt>
      <trkpt lat="62.644862484676" lon="17.86763001299">
        <ele>46.8</ele>
        <time>2018-01-09T12:27:24Z</time>
      </trkpt>
      <trkpt lat="62.644823257384" lon="17.867765632132">
        <ele>45.8</ele>
        <time>2018-01-09T12:27:25Z</time>
      </trkpt>
      <trkpt lat="62.644779084771" lon="17.867910555183">
        <ele>45.2</ele>
        <time>2018-01-09T12:27:26Z</time>
      </trkpt>
      <trkpt lat="62.644749580483" lon="17.868031925095">
        <ele>44.6</ele>
        <time>2018-01-09T12:27:27Z</time>
      </trkpt>
      <trkpt lat="62.644722423127" lon="17.868186152055">
        <ele>43.8</ele>
        <time>2018-01-09T12:27:28Z</time>
      </trkpt>
      <trkpt lat="62.644708425354" lon="17.868317747885">
        <ele>43.4</ele>
        <time>2018-01-09T12:27:29Z</time>
      </trkpt>
      <trkpt lat="62.644694343762" lon="17.868446493869">
        <ele>43.2</ele>
        <time>2018-01-09T12:27:30Z</time>
      </trkpt>
      <trkpt lat="62.644677999057" lon="17.868576078043">
        <ele>43</ele>
        <time>2018-01-09T12:27:31Z</time>
      </trkpt>
      <trkpt lat="62.644664671836" lon="17.868690742435">
        <ele>43</ele>
        <time>2018-01-09T12:27:32Z</time>
      </trkpt>
      <trkpt lat="62.644644471457" lon="17.868787972475">
        <ele>43.2</ele>
        <time>2018-01-09T12:27:33Z</time>
      </trkpt>
      <trkpt lat="62.644626869467" lon="17.86889987084">
        <ele>43.2</ele>
        <time>2018-01-09T12:27:34Z</time>
      </trkpt>
      <trkpt lat="62.64461320697" lon="17.869003387305">
        <ele>43.4</ele>
        <time>2018-01-09T12:27:35Z</time>
      </trkpt>
      <trkpt lat="62.644611027676" lon="17.869098689508">
        <ele>43.6</ele>
        <time>2018-01-09T12:27:36Z</time>
      </trkpt>
      <trkpt lat="62.644614296617" lon="17.869203044163">
        <ele>43.8</ele>
        <time>2018-01-09T12:27:37Z</time>
      </trkpt>
      <trkpt lat="62.644608596925" lon="17.869290048285">
        <ele>44.2</ele>
        <time>2018-01-09T12:27:38Z</time>
      </trkpt>
      <trkpt lat="62.644601137034" lon="17.869397252786">
        <ele>44.4</ele>
        <time>2018-01-09T12:27:39Z</time>
      </trkpt>
      <trkpt lat="62.644597365179" lon="17.869497081215">
        <ele>44.4</ele>
        <time>2018-01-09T12:27:40Z</time>
      </trkpt>
      <trkpt lat="62.644584959967" lon="17.869596239092">
        <ele>44.4</ele>
        <time>2018-01-09T12:27:41Z</time>
      </trkpt>
      <trkpt lat="62.644572638574" lon="17.869705790525">
        <ele>44.2</ele>
        <time>2018-01-09T12:27:42Z</time>
      </trkpt>
      <trkpt lat="62.644568531443" lon="17.869805535135">
        <ele>44</ele>
        <time>2018-01-09T12:27:43Z</time>
      </trkpt>
      <trkpt lat="62.644556377688" lon="17.86992162445">
        <ele>43.8</ele>
        <time>2018-01-09T12:27:44Z</time>
      </trkpt>
      <trkpt lat="62.64454698996" lon="17.870027823123">
        <ele>43.6</ele>
        <time>2018-01-09T12:27:45Z</time>
      </trkpt>
      <trkpt lat="62.644536009671" lon="17.870145337361">
        <ele>43.2</ele>
        <time>2018-01-09T12:27:46Z</time>
      </trkpt>
      <trkpt lat="62.644523353002" lon="17.870230329827">
        <ele>42.8</ele>
        <time>2018-01-09T12:27:47Z</time>
      </trkpt>
      <trkpt lat="62.644505331917" lon="17.870338456337">
        <ele>42.4</ele>
        <time>2018-01-09T12:27:48Z</time>
      </trkpt>
      <trkpt lat="62.644493932533" lon="17.870432585074">
        <ele>42.2</ele>
        <time>2018-01-09T12:27:49Z</time>
      </trkpt>
      <trkpt lat="62.644486305004" lon="17.870546830371">
        <ele>42.2</ele>
        <time>2018-01-09T12:27:50Z</time>
      </trkpt>
      <trkpt lat="62.644472893964" lon="17.870669960482">
        <ele>42.2</ele>
        <time>2018-01-09T12:27:51Z</time>
      </trkpt>
      <trkpt lat="62.644465182616" lon="17.870805998719">
        <ele>42</ele>
        <time>2018-01-09T12:27:52Z</time>
      </trkpt>
      <trkpt lat="62.644459902019" lon="17.87091320322">
        <ele>41.8</ele>
        <time>2018-01-09T12:27:53Z</time>
      </trkpt>
      <trkpt lat="62.644452106852" lon="17.871083774885">
        <ele>41.2</ele>
        <time>2018-01-09T12:27:54Z</time>
      </trkpt>
      <trkpt lat="62.64444221621" lon="17.871206988815">
        <ele>40.8</ele>
        <time>2018-01-09T12:27:55Z</time>
      </trkpt>
      <trkpt lat="62.644430230093" lon="17.871326095614">
        <ele>40.2</ele>
        <time>2018-01-09T12:27:56Z</time>
      </trkpt>
      <trkpt lat="62.644416902872" lon="17.871429192984">
        <ele>39.4</ele>
        <time>2018-01-09T12:27:57Z</time>
      </trkpt>
      <trkpt lat="62.644404413841" lon="17.87154100753">
        <ele>39</ele>
        <time>2018-01-09T12:27:58Z</time>
      </trkpt>
      <trkpt lat="62.644389661697" lon="17.871656091017">
        <ele>38.6</ele>
        <time>2018-01-09T12:27:59Z</time>
      </trkpt>
      <trkpt lat="62.644372394983" lon="17.87176396607">
        <ele>38.6</ele>
        <time>2018-01-09T12:28:00Z</time>
      </trkpt>
      <trkpt lat="62.644368539309" lon="17.871858932997">
        <ele>38.6</ele>
        <time>2018-01-09T12:28:01Z</time>
      </trkpt>
      <trkpt lat="62.644349428577" lon="17.871958342331">
        <ele>38.6</ele>
        <time>2018-01-09T12:28:02Z</time>
      </trkpt>
      <trkpt lat="62.644336268994" lon="17.872055823828">
        <ele>39</ele>
        <time>2018-01-09T12:28:03Z</time>
      </trkpt>
      <trkpt lat="62.644317074443" lon="17.872154394972">
        <ele>39.2</ele>
        <time>2018-01-09T12:28:04Z</time>
      </trkpt>
      <trkpt lat="62.644298131349" lon="17.872254893953">
        <ele>39.2</ele>
        <time>2018-01-09T12:28:05Z</time>
      </trkpt>
      <trkpt lat="62.644270722536" lon="17.872347178672">
        <ele>39.2</ele>
        <time>2018-01-09T12:28:06Z</time>
      </trkpt>
      <trkpt lat="62.644248175225" lon="17.872435104803">
        <ele>38.8</ele>
        <time>2018-01-09T12:28:07Z</time>
      </trkpt>
      <trkpt lat="62.644222861887" lon="17.872520516364">
        <ele>38.6</ele>
        <time>2018-01-09T12:28:08Z</time>
      </trkpt>
      <trkpt lat="62.644199308748" lon="17.872614561282">
        <ele>38</ele>
        <time>2018-01-09T12:28:09Z</time>
      </trkpt>
      <trkpt lat="62.64418489188" lon="17.872710450218">
        <ele>38</ele>
        <time>2018-01-09T12:28:10Z</time>
      </trkpt>
      <trkpt lat="62.644167457528" lon="17.872811368294">
        <ele>37.8</ele>
        <time>2018-01-09T12:28:11Z</time>
      </trkpt>
      <trkpt lat="62.644149855538" lon="17.87292066827">
        <ele>37.8</ele>
        <time>2018-01-09T12:28:12Z</time>
      </trkpt>
      <trkpt lat="62.64413460048" lon="17.873042457277">
        <ele>37.4</ele>
        <time>2018-01-09T12:28:13Z</time>
      </trkpt>
      <trkpt lat="62.644118758689" lon="17.873166844673">
        <ele>37.2</ele>
        <time>2018-01-09T12:28:14Z</time>
      </trkpt>
      <trkpt lat="62.644109119504" lon="17.873283269264">
        <ele>37</ele>
        <time>2018-01-09T12:28:15Z</time>
      </trkpt>
      <trkpt lat="62.644089841134" lon="17.873418804587">
        <ele>36.6</ele>
        <time>2018-01-09T12:28:16Z</time>
      </trkpt>
      <trkpt lat="62.644067796737" lon="17.87354595801">
        <ele>36.4</ele>
        <time>2018-01-09T12:28:17Z</time>
      </trkpt>
      <trkpt lat="62.644042651037" lon="17.873673698166">
        <ele>36</ele>
        <time>2018-01-09T12:28:18Z</time>
      </trkpt>
      <trkpt lat="62.644017756794" lon="17.873787272911">
        <ele>35.8</ele>
        <time>2018-01-09T12:28:19Z</time>
      </trkpt>
      <trkpt lat="62.643992778732" lon="17.873902440217">
        <ele>35.6</ele>
        <time>2018-01-09T12:28:20Z</time>
      </trkpt>
      <trkpt lat="62.643966543385" lon="17.874009393261">
        <ele>35</ele>
        <time>2018-01-09T12:28:21Z</time>
      </trkpt>
      <trkpt lat="62.643938547839" lon="17.874129002974">
        <ele>34.4</ele>
        <time>2018-01-09T12:28:22Z</time>
      </trkpt>
      <trkpt lat="62.643911222845" lon="17.874245762841">
        <ele>33.8</ele>
        <time>2018-01-09T12:28:23Z</time>
      </trkpt>
      <trkpt lat="62.643884736041" lon="17.874372329531">
        <ele>33.2</ele>
        <time>2018-01-09T12:28:24Z</time>
      </trkpt>
      <trkpt lat="62.643861182902" lon="17.874494286176">
        <ele>32.6</ele>
        <time>2018-01-09T12:28:25Z</time>
      </trkpt>
      <trkpt lat="62.643839976695" lon="17.874612806242">
        <ele>32.2</ele>
        <time>2018-01-09T12:28:26Z</time>
      </trkpt>
      <trkpt lat="62.64382027923" lon="17.874721184209">
        <ele>31.8</ele>
        <time>2018-01-09T12:28:27Z</time>
      </trkpt>
      <trkpt lat="62.643801587593" lon="17.874837524981">
        <ele>31.4</ele>
        <time>2018-01-09T12:28:28Z</time>
      </trkpt>
      <trkpt lat="62.643777950635" lon="17.874967025336">
        <ele>31.6</ele>
        <time>2018-01-09T12:28:29Z</time>
      </trkpt>
      <trkpt lat="62.643763785224" lon="17.875066769946">
        <ele>31.8</ele>
        <time>2018-01-09T12:28:30Z</time>
      </trkpt>
      <trkpt lat="62.643741824646" lon="17.87517875213">
        <ele>31.8</ele>
        <time>2018-01-09T12:28:31Z</time>
      </trkpt>
      <trkpt lat="62.643723384466" lon="17.875276904179">
        <ele>31.8</ele>
        <time>2018-01-09T12:28:32Z</time>
      </trkpt>
      <trkpt lat="62.643703100268" lon="17.875379750092">
        <ele>32</ele>
        <time>2018-01-09T12:28:33Z</time>
      </trkpt>
      <trkpt lat="62.643681642604" lon="17.875493576294">
        <ele>32</ele>
        <time>2018-01-09T12:28:34Z</time>
      </trkpt>
      <trkpt lat="62.643664711166" lon="17.875593320904">
        <ele>31.6</ele>
        <time>2018-01-09T12:28:35Z</time>
      </trkpt>
      <trkpt lat="62.643648198823" lon="17.875692394962">
        <ele>31.4</ele>
        <time>2018-01-09T12:28:36Z</time>
      </trkpt>
      <trkpt lat="62.643632692308" lon="17.875783590034">
        <ele>31</ele>
        <time>2018-01-09T12:28:37Z</time>
      </trkpt>
      <trkpt lat="62.643617185793" lon="17.875877886409">
        <ele>30.8</ele>
        <time>2018-01-09T12:28:38Z</time>
      </trkpt>
      <trkpt lat="62.643598326518" lon="17.875974613535">
        <ele>30.8</ele>
        <time>2018-01-09T12:28:39Z</time>
      </trkpt>
      <trkpt lat="62.643584580202" lon="17.876075950706">
        <ele>30.6</ele>
        <time>2018-01-09T12:28:40Z</time>
      </trkpt>
      <trkpt lat="62.643572929361" lon="17.876166307588">
        <ele>30.6</ele>
        <time>2018-01-09T12:28:41Z</time>
      </trkpt>
      <trkpt lat="62.643560775606" lon="17.876254736633">
        <ele>30.4</ele>
        <time>2018-01-09T12:28:42Z</time>
      </trkpt>
      <trkpt lat="62.643545604367" lon="17.876348278637">
        <ele>30.4</ele>
        <time>2018-01-09T12:28:43Z</time>
      </trkpt>
      <trkpt lat="62.643527415644" lon="17.876432013818">
        <ele>30.2</ele>
        <time>2018-01-09T12:28:44Z</time>
      </trkpt>
      <trkpt lat="62.6435042816" lon="17.876503427606">
        <ele>30</ele>
        <time>2018-01-09T12:28:45Z</time>
      </trkpt>
      <trkpt lat="62.643472849475" lon="17.876575260489">
        <ele>29.8</ele>
        <time>2018-01-09T12:28:46Z</time>
      </trkpt>
      <trkpt lat="62.643437477857" lon="17.876625719527">
        <ele>29.6</ele>
        <time>2018-01-09T12:28:47Z</time>
      </trkpt>
      <trkpt lat="62.643395065443" lon="17.876659079489">
        <ele>29.4</ele>
        <time>2018-01-09T12:28:48Z</time>
      </trkpt>
      <trkpt lat="62.643356173427" lon="17.876674837461">
        <ele>29.2</ele>
        <time>2018-01-09T12:28:49Z</time>
      </trkpt>
      <trkpt lat="62.643321220904" lon="17.876704844663">
        <ele>29.4</ele>
        <time>2018-01-09T12:28:50Z</time>
      </trkpt>
      <trkpt lat="62.643289956417" lon="17.876710879631">
        <ele>29.6</ele>
        <time>2018-01-09T12:28:51Z</time>
      </trkpt>
      <trkpt lat="62.6432528246" lon="17.876708951794">
        <ele>29.8</ele>
        <time>2018-01-09T12:28:52Z</time>
      </trkpt>
      <trkpt lat="62.64321510605" lon="17.8767067725">
        <ele>30</ele>
        <time>2018-01-09T12:28:53Z</time>
      </trkpt>
      <trkpt lat="62.643178812423" lon="17.876706101948">
        <ele>30.2</ele>
        <time>2018-01-09T12:28:54Z</time>
      </trkpt>
      <trkpt lat="62.643135058905" lon="17.876693110003">
        <ele>30.4</ele>
        <time>2018-01-09T12:28:55Z</time>
      </trkpt>
      <trkpt lat="62.643093065586" lon="17.876684476646">
        <ele>30.4</ele>
        <time>2018-01-09T12:28:56Z</time>
      </trkpt>
      <trkpt lat="62.643062387832" lon="17.876682716447">
        <ele>30.4</ele>
        <time>2018-01-09T12:28:57Z</time>
      </trkpt>
      <trkpt lat="62.643028944051" lon="17.876682548809">
        <ele>30.4</ele>
        <time>2018-01-09T12:28:58Z</time>
      </trkpt>
      <trkpt lat="62.642973874968" lon="17.876662432249">
        <ele>30.4</ele>
        <time>2018-01-09T12:28:59Z</time>
      </trkpt>
      <trkpt lat="62.642938000436" lon="17.876653882711">
        <ele>30.2</ele>
        <time>2018-01-09T12:29:00Z</time>
      </trkpt>
      <trkpt lat="62.642904640474" lon="17.876652122512">
        <ele>30.4</ele>
        <time>2018-01-09T12:29:01Z</time>
      </trkpt>
      <trkpt lat="62.642876393471" lon="17.876658744213">
        <ele>30.2</ele>
        <time>2018-01-09T12:29:02Z</time>
      </trkpt>
      <trkpt lat="62.642843955518" lon="17.876663605715">
        <ele>30.2</ele>
        <time>2018-01-09T12:29:04Z</time>
      </trkpt>
      <trkpt lat="62.642830460659" lon="17.87665564291">
        <ele>30.2</ele>
        <time>2018-01-09T12:29:05Z</time>
      </trkpt>
      <trkpt lat="62.642813277764" lon="17.876652373969">
        <ele>30.4</ele>
        <time>2018-01-09T12:29:06Z</time>
      </trkpt>
      <trkpt lat="62.642799279991" lon="17.876653463616">
        <ele>30.6</ele>
        <time>2018-01-09T12:29:07Z</time>
      </trkpt>
      <trkpt lat="62.642783522019" lon="17.876653463616">
        <ele>31.4</ele>
        <time>2018-01-09T12:29:08Z</time>
      </trkpt>
      <trkpt lat="62.642767847866" lon="17.876655139996">
        <ele>31.8</ele>
        <time>2018-01-09T12:29:09Z</time>
      </trkpt>
      <trkpt lat="62.642750078238" lon="17.876653798892">
        <ele>32.4</ele>
        <time>2018-01-09T12:29:10Z</time>
      </trkpt>
      <trkpt lat="62.642735409913" lon="17.876658576575">
        <ele>32.8</ele>
        <time>2018-01-09T12:29:11Z</time>
      </trkpt>
      <trkpt lat="62.642722166511" lon="17.876661677878">
        <ele>33.2</ele>
        <time>2018-01-09T12:29:12Z</time>
      </trkpt>
      <trkpt lat="62.642706576177" lon="17.876667880484">
        <ele>33.2</ele>
        <time>2018-01-09T12:29:13Z</time>
      </trkpt>
      <trkpt lat="62.642687213988" lon="17.876677016755">
        <ele>33.4</ele>
        <time>2018-01-09T12:29:14Z</time>
      </trkpt>
      <trkpt lat="62.64266944436" lon="17.876701156627">
        <ele>33.6</ele>
        <time>2018-01-09T12:29:15Z</time>
      </trkpt>
      <trkpt lat="62.642645304488" lon="17.876725715594">
        <ele>33.6</ele>
        <time>2018-01-09T12:29:16Z</time>
      </trkpt>
      <trkpt lat="62.642612363621" lon="17.87675454933">
        <ele>33.8</ele>
        <time>2018-01-09T12:29:17Z</time>
      </trkpt>
      <trkpt lat="62.642587720835" lon="17.87676963675">
        <ele>33.8</ele>
        <time>2018-01-09T12:29:18Z</time>
      </trkpt>
      <trkpt lat="62.64256215604" lon="17.876794530993">
        <ele>33.8</ele>
        <time>2018-01-09T12:29:19Z</time>
      </trkpt>
      <trkpt lat="62.642543548222" lon="17.876823197091">
        <ele>34</ele>
        <time>2018-01-09T12:29:20Z</time>
      </trkpt>
      <trkpt lat="62.64251857016" lon="17.876840715262">
        <ele>34</ele>
        <time>2018-01-09T12:29:21Z</time>
      </trkpt>
      <trkpt lat="62.642498118324" lon="17.876874997233">
        <ele>34.2</ele>
        <time>2018-01-09T12:29:22Z</time>
      </trkpt>
      <trkpt lat="62.642479845782" lon="17.876907854281">
        <ele>34.2</ele>
        <time>2018-01-09T12:29:23Z</time>
      </trkpt>
      <trkpt lat="62.642456711738" lon="17.876936101284">
        <ele>34.4</ele>
        <time>2018-01-09T12:29:24Z</time>
      </trkpt>
      <trkpt lat="62.642435337893" lon="17.876959738242">
        <ele>34.4</ele>
        <time>2018-01-09T12:29:25Z</time>
      </trkpt>
      <trkpt lat="62.642409689279" lon="17.876987649969">
        <ele>34.8</ele>
        <time>2018-01-09T12:29:26Z</time>
      </trkpt>
      <trkpt lat="62.642384627398" lon="17.877020674655">
        <ele>35.2</ele>
        <time>2018-01-09T12:29:27Z</time>
      </trkpt>
      <trkpt lat="62.642370042892" lon="17.877047748192">
        <ele>35.4</ele>
        <time>2018-01-09T12:29:28Z</time>
      </trkpt>
      <trkpt lat="62.642349674875" lon="17.877085802018">
        <ele>35.8</ele>
        <time>2018-01-09T12:29:29Z</time>
      </trkpt>
      <trkpt lat="62.642330312686" lon="17.877122347102">
        <ele>36</ele>
        <time>2018-01-09T12:29:30Z</time>
      </trkpt>
      <trkpt lat="62.642316901646" lon="17.877150426467">
        <ele>36.2</ele>
        <time>2018-01-09T12:29:31Z</time>
      </trkpt>
      <trkpt lat="62.642285385702" lon="17.8772013046">
        <ele>36.4</ele>
        <time>2018-01-09T12:29:32Z</time>
      </trkpt>
      <trkpt lat="62.642259234174" lon="17.877239693702">
        <ele>36.4</ele>
        <time>2018-01-09T12:29:33Z</time>
      </trkpt>
      <trkpt lat="62.642228724058" lon="17.877283950134">
        <ele>36.4</ele>
        <time>2018-01-09T12:29:34Z</time>
      </trkpt>
      <trkpt lat="62.642194693544" lon="17.877338600122">
        <ele>36.2</ele>
        <time>2018-01-09T12:29:35Z</time>
      </trkpt>
      <trkpt lat="62.64216653036" lon="17.877392076644">
        <ele>35.8</ele>
        <time>2018-01-09T12:29:36Z</time>
      </trkpt>
      <trkpt lat="62.642136690796" lon="17.877445050252">
        <ele>35.2</ele>
        <time>2018-01-09T12:29:37Z</time>
      </trkpt>
      <trkpt lat="62.642108527612" lon="17.877498107679">
        <ele>34.8</ele>
        <time>2018-01-09T12:29:38Z</time>
      </trkpt>
      <trkpt lat="62.642081202618" lon="17.877552422391">
        <ele>34.4</ele>
        <time>2018-01-09T12:29:39Z</time>
      </trkpt>
      <trkpt lat="62.642046920647" lon="17.877625680197">
        <ele>34.2</ele>
        <time>2018-01-09T12:29:40Z</time>
      </trkpt>
      <trkpt lat="62.642012471038" lon="17.877705140609">
        <ele>34</ele>
        <time>2018-01-09T12:29:41Z</time>
      </trkpt>
      <trkpt lat="62.641983302026" lon="17.87778300846">
        <ele>33.8</ele>
        <time>2018-01-09T12:29:42Z</time>
      </trkpt>
      <trkpt lat="62.641953797738" lon="17.877873281523">
        <ele>33.6</ele>
        <time>2018-01-09T12:29:43Z</time>
      </trkpt>
      <trkpt lat="62.641919599586" lon="17.877987945915">
        <ele>33.2</ele>
        <time>2018-01-09T12:29:44Z</time>
      </trkpt>
      <trkpt lat="62.641887329271" lon="17.878103867592">
        <ele>32.8</ele>
        <time>2018-01-09T12:29:45Z</time>
      </trkpt>
      <trkpt lat="62.641858495535" lon="17.878229009359">
        <ele>32.4</ele>
        <time>2018-01-09T12:29:46Z</time>
      </trkpt>
      <trkpt lat="62.641831924912" lon="17.878368987089">
        <ele>31.8</ele>
        <time>2018-01-09T12:29:47Z</time>
      </trkpt>
      <trkpt lat="62.641809712877" lon="17.878512401398">
        <ele>31</ele>
        <time>2018-01-09T12:29:48Z</time>
      </trkpt>
      <trkpt lat="62.641788171394" lon="17.878665371073">
        <ele>30</ele>
        <time>2018-01-09T12:29:49Z</time>
      </trkpt>
      <trkpt lat="62.641772329603" lon="17.878813730703">
        <ele>29</ele>
        <time>2018-01-09T12:29:50Z</time>
      </trkpt>
      <trkpt lat="62.641762019866" lon="17.878961419781">
        <ele>28</ele>
        <time>2018-01-09T12:29:51Z</time>
      </trkpt>
      <trkpt lat="62.64175833183" lon="17.879097122742">
        <ele>27.2</ele>
        <time>2018-01-09T12:29:52Z</time>
      </trkpt>
      <trkpt lat="62.641762187504" lon="17.879256630299">
        <ele>26.6</ele>
        <time>2018-01-09T12:29:53Z</time>
      </trkpt>
      <trkpt lat="62.641771239956" lon="17.879411946906">
        <ele>26</ele>
        <time>2018-01-09T12:29:54Z</time>
      </trkpt>
      <trkpt lat="62.641785321548" lon="17.879578579078">
        <ele>25.4</ele>
        <time>2018-01-09T12:29:55Z</time>
      </trkpt>
      <trkpt lat="62.64179772676" lon="17.879729788554">
        <ele>24.8</ele>
        <time>2018-01-09T12:29:56Z</time>
      </trkpt>
      <trkpt lat="62.641807533583" lon="17.879878148184">
        <ele>24.2</ele>
        <time>2018-01-09T12:29:57Z</time>
      </trkpt>
      <trkpt lat="62.641811724533" lon="17.879996500612">
        <ele>24</ele>
        <time>2018-01-09T12:29:58Z</time>
      </trkpt>
      <trkpt lat="62.641812395085" lon="17.880139831102">
        <ele>23.4</ele>
        <time>2018-01-09T12:29:59Z</time>
      </trkpt>
      <trkpt lat="62.641806779212" lon="17.880287101085">
        <ele>23</ele>
        <time>2018-01-09T12:30:00Z</time>
      </trkpt>
      <trkpt lat="62.641795463647" lon="17.880428252281">
        <ele>22.8</ele>
        <time>2018-01-09T12:30:01Z</time>
      </trkpt>
      <trkpt lat="62.64178096296" lon="17.880570660762">
        <ele>22.4</ele>
        <time>2018-01-09T12:30:02Z</time>
      </trkpt>
      <trkpt lat="62.641764618255" lon="17.880686750077">
        <ele>22.2</ele>
        <time>2018-01-09T12:30:03Z</time>
      </trkpt>
      <trkpt lat="62.641745507523" lon="17.880793703121">
        <ele>22</ele>
        <time>2018-01-09T12:30:04Z</time>
      </trkpt>
      <trkpt lat="62.641732180302" lon="17.880893112455">
        <ele>21.8</ele>
        <time>2018-01-09T12:30:05Z</time>
      </trkpt>
      <trkpt lat="62.641709046258" lon="17.88098908521">
        <ele>21.6</ele>
        <time>2018-01-09T12:30:06Z</time>
      </trkpt>
      <trkpt lat="62.641691528087" lon="17.88106200774">
        <ele>21.6</ele>
        <time>2018-01-09T12:30:07Z</time>
      </trkpt>
      <trkpt lat="62.641681385988" lon="17.881115987176">
        <ele>21.6</ele>
        <time>2018-01-09T12:30:08Z</time>
      </trkpt>
      <trkpt lat="62.64166696912" lon="17.881186814231">
        <ele>22</ele>
        <time>2018-01-09T12:30:09Z</time>
      </trkpt>
      <trkpt lat="62.641649115673" lon="17.881274237448">
        <ele>22.4</ele>
        <time>2018-01-09T12:30:10Z</time>
      </trkpt>
      <trkpt lat="62.641635536995" lon="17.881383453605">
        <ele>22.8</ele>
        <time>2018-01-09T12:30:11Z</time>
      </trkpt>
      <trkpt lat="62.641631429864" lon="17.881492585943">
        <ele>23</ele>
        <time>2018-01-09T12:30:12Z</time>
      </trkpt>
      <trkpt lat="62.641617348272" lon="17.881587636689">
        <ele>22.8</ele>
        <time>2018-01-09T12:30:13Z</time>
      </trkpt>
      <trkpt lat="62.641599327187" lon="17.881681346331">
        <ele>22.4</ele>
        <time>2018-01-09T12:30:14Z</time>
      </trkpt>
      <trkpt lat="62.641574684401" lon="17.881753933585">
        <ele>22</ele>
        <time>2018-01-09T12:30:15Z</time>
      </trkpt>
      <trkpt lat="62.641545683027" lon="17.881785617167">
        <ele>21.6</ele>
        <time>2018-01-09T12:30:16Z</time>
      </trkpt>
      <trkpt lat="62.64152531501" lon="17.881811684876">
        <ele>21.6</ele>
        <time>2018-01-09T12:30:17Z</time>
      </trkpt>
      <trkpt lat="62.641505869002" lon="17.881821575518">
        <ele>21.6</ele>
        <time>2018-01-09T12:30:18Z</time>
      </trkpt>
      <trkpt lat="62.641481561492" lon="17.881833729273">
        <ele>21.8</ele>
        <time>2018-01-09T12:30:19Z</time>
      </trkpt>
      <trkpt lat="62.641447111883" lon="17.881851750358">
        <ele>22</ele>
        <time>2018-01-09T12:30:20Z</time>
      </trkpt>
      <trkpt lat="62.641416517948" lon="17.881864826122">
        <ele>22.2</ele>
        <time>2018-01-09T12:30:21Z</time>
      </trkpt>
      <trkpt lat="62.641392210438" lon="17.881880835551">
        <ele>22.4</ele>
        <time>2018-01-09T12:30:22Z</time>
      </trkpt>
      <trkpt lat="62.641367483833" lon="17.881898772817">
        <ele>22.4</ele>
        <time>2018-01-09T12:30:23Z</time>
      </trkpt>
      <trkpt lat="62.641344098332" lon="17.8819119324">
        <ele>22.4</ele>
        <time>2018-01-09T12:30:24Z</time>
      </trkpt>
      <trkpt lat="62.641324317048" lon="17.881932132779">
        <ele>22.6</ele>
        <time>2018-01-09T12:30:25Z</time>
      </trkpt>
      <trkpt lat="62.641296070045" lon="17.881952500796">
        <ele>22.6</ele>
        <time>2018-01-09T12:30:26Z</time>
      </trkpt>
      <trkpt lat="62.641269583241" lon="17.881971695347">
        <ele>22.8</ele>
        <time>2018-01-09T12:30:27Z</time>
      </trkpt>
      <trkpt lat="62.64124368317" lon="17.881996254314">
        <ele>23</ele>
        <time>2018-01-09T12:30:28Z</time>
      </trkpt>
      <trkpt lat="62.641204204421" lon="17.882042773859">
        <ele>23</ele>
        <time>2018-01-09T12:30:29Z</time>
      </trkpt>
      <trkpt lat="62.641167156423" lon="17.882107649765">
        <ele>23</ele>
        <time>2018-01-09T12:30:30Z</time>
      </trkpt>
      <trkpt lat="62.64113471847" lon="17.88219021148">
        <ele>23.2</ele>
        <time>2018-01-09T12:30:31Z</time>
      </trkpt>
      <trkpt lat="62.641102196698" lon="17.882278975801">
        <ele>23</ele>
        <time>2018-01-09T12:30:32Z</time>
      </trkpt>
      <trkpt lat="62.641066154528" lon="17.882377379307">
        <ele>22.6</ele>
        <time>2018-01-09T12:30:33Z</time>
      </trkpt>
      <trkpt lat="62.641036482602" lon="17.882488523301">
        <ele>22.2</ele>
        <time>2018-01-09T12:30:34Z</time>
      </trkpt>
      <trkpt lat="62.641012426549" lon="17.882609641756">
        <ele>21.6</ele>
        <time>2018-01-09T12:30:35Z</time>
      </trkpt>
      <trkpt lat="62.641002032993" lon="17.882731263125">
        <ele>21</ele>
        <time>2018-01-09T12:30:36Z</time>
      </trkpt>
      <trkpt lat="62.64099641712" lon="17.882845005508">
        <ele>20.6</ele>
        <time>2018-01-09T12:30:37Z</time>
      </trkpt>
      <trkpt lat="62.640991471799" lon="17.882946091222">
        <ele>20</ele>
        <time>2018-01-09T12:30:38Z</time>
      </trkpt>
      <trkpt lat="62.640983928089" lon="17.883031586602">
        <ele>19.6</ele>
        <time>2018-01-09T12:30:39Z</time>
      </trkpt>
      <trkpt lat="62.6409729478" lon="17.883107610435">
        <ele>19.4</ele>
        <time>2018-01-09T12:30:40Z</time>
      </trkpt>
      <trkpt lat="62.640954926715" lon="17.883187992856">
        <ele>19.2</ele>
        <time>2018-01-09T12:30:41Z</time>
      </trkpt>
      <trkpt lat="62.640945706625" lon="17.883287486009">
        <ele>19</ele>
        <time>2018-01-09T12:30:42Z</time>
      </trkpt>
      <trkpt lat="62.640943778788" lon="17.883380860375">
        <ele>19</ele>
        <time>2018-01-09T12:30:43Z</time>
      </trkpt>
      <trkpt lat="62.640950484308" lon="17.883496782052">
        <ele>18.8</ele>
        <time>2018-01-09T12:30:44Z</time>
      </trkpt>
      <trkpt lat="62.640970768506" lon="17.883611278806">
        <ele>18.6</ele>
        <time>2018-01-09T12:30:45Z</time>
      </trkpt>
      <trkpt lat="62.640994573102" lon="17.883709263217">
        <ele>18.4</ele>
        <time>2018-01-09T12:30:46Z</time>
      </trkpt>
      <trkpt lat="62.641018377698" lon="17.88382719655">
        <ele>18</ele>
        <time>2018-01-09T12:30:47Z</time>
      </trkpt>
      <trkpt lat="62.641043188122" lon="17.88391436831">
        <ele>17.8</ele>
        <time>2018-01-09T12:30:48Z</time>
      </trkpt>
      <trkpt lat="62.641075039342" lon="17.884016711309">
        <ele>17.4</ele>
        <time>2018-01-09T12:30:49Z</time>
      </trkpt>
      <trkpt lat="62.641107644933" lon="17.884140344334">
        <ele>17.2</ele>
        <time>2018-01-09T12:30:50Z</time>
      </trkpt>
      <trkpt lat="62.641137735954" lon="17.884251236871">
        <ele>16.8</ele>
        <time>2018-01-09T12:30:51Z</time>
      </trkpt>
      <trkpt lat="62.641161289093" lon="17.884342180486">
        <ele>16.4</ele>
        <time>2018-01-09T12:30:52Z</time>
      </trkpt>
      <trkpt lat="62.641192050666" lon="17.884453492118">
        <ele>15.8</ele>
        <time>2018-01-09T12:30:53Z</time>
      </trkpt>
      <trkpt lat="62.641218369832" lon="17.884528677761">
        <ele>15.4</ele>
        <time>2018-01-09T12:30:54Z</time>
      </trkpt>
      <trkpt lat="62.641264721739" lon="17.884634792615">
        <ele>14.8</ele>
        <time>2018-01-09T12:30:55Z</time>
      </trkpt>
      <trkpt lat="62.641311660379" lon="17.884716348502">
        <ele>14.4</ele>
        <time>2018-01-09T12:30:56Z</time>
      </trkpt>
      <trkpt lat="62.641359101933" lon="17.884797317656">
        <ele>14</ele>
        <time>2018-01-09T12:30:57Z</time>
      </trkpt>
      <trkpt lat="62.641401933442" lon="17.884875269326">
        <ele>13.6</ele>
        <time>2018-01-09T12:30:58Z</time>
      </trkpt>
      <trkpt lat="62.641450632281" lon="17.884960680887">
        <ele>13.4</ele>
        <time>2018-01-09T12:30:59Z</time>
      </trkpt>
      <trkpt lat="62.641494804894" lon="17.885044751344">
        <ele>12.8</ele>
        <time>2018-01-09T12:31:00Z</time>
      </trkpt>
      <trkpt lat="62.641536630575" lon="17.885124547032">
        <ele>12.6</ele>
        <time>2018-01-09T12:31:01Z</time>
      </trkpt>
      <trkpt lat="62.641578037161" lon="17.885203755987">
        <ele>12.2</ele>
        <time>2018-01-09T12:31:02Z</time>
      </trkpt>
      <trkpt lat="62.641619443747" lon="17.885282378209">
        <ele>11.8</ele>
        <time>2018-01-09T12:31:03Z</time>
      </trkpt>
      <trkpt lat="62.641653725718" lon="17.885343649898">
        <ele>11.6</ele>
        <time>2018-01-09T12:31:04Z</time>
      </trkpt>
      <trkpt lat="62.641713656303" lon="17.88545579972">
        <ele>11.2</ele>
        <time>2018-01-09T12:31:05Z</time>
      </trkpt>
      <trkpt lat="62.641761265495" lon="17.885542300928">
        <ele>11</ele>
        <time>2018-01-09T12:31:06Z</time>
      </trkpt>
      <trkpt lat="62.641811556895" lon="17.885637100217">
        <ele>10.4</ele>
        <time>2018-01-09T12:31:07Z</time>
      </trkpt>
      <trkpt lat="62.641854891318" lon="17.885719997208">
        <ele>10</ele>
        <time>2018-01-09T12:31:08Z</time>
      </trkpt>
      <trkpt lat="62.641896297904" lon="17.885798535611">
        <ele>9.4</ele>
        <time>2018-01-09T12:31:09Z</time>
      </trkpt>
      <trkpt lat="62.64193351354" lon="17.885873134521">
        <ele>8.8</ele>
        <time>2018-01-09T12:31:10Z</time>
      </trkpt>
      <trkpt lat="62.641968046968" lon="17.885916888039">
        <ele>8.4</ele>
        <time>2018-01-09T12:31:11Z</time>
      </trkpt>
      <trkpt lat="62.642000149645" lon="17.885974974606">
        <ele>8</ele>
        <time>2018-01-09T12:31:12Z</time>
      </trkpt>
      <trkpt lat="62.64202990539" lon="17.886039263779">
        <ele>7.2</ele>
        <time>2018-01-09T12:31:13Z</time>
      </trkpt>
      <trkpt lat="62.642058487669" lon="17.886101541296">
        <ele>7</ele>
        <time>2018-01-09T12:31:14Z</time>
      </trkpt>
      <trkpt lat="62.642088662509" lon="17.88615736475">
        <ele>6.8</ele>
        <time>2018-01-09T12:31:15Z</time>
      </trkpt>
      <trkpt lat="62.642115652227" lon="17.886209583987">
        <ele>6.8</ele>
        <time>2018-01-09T12:31:16Z</time>
      </trkpt>
      <trkpt lat="62.642151275302" lon="17.886263228147">
        <ele>6.6</ele>
        <time>2018-01-09T12:31:17Z</time>
      </trkpt>
      <trkpt lat="62.64218245597" lon="17.886318883963">
        <ele>6.6</ele>
        <time>2018-01-09T12:31:18Z</time>
      </trkpt>
      <trkpt lat="62.642218665778" lon="17.886391471217">
        <ele>6.2</ele>
        <time>2018-01-09T12:31:19Z</time>
      </trkpt>
      <trkpt lat="62.642257641613" lon="17.886480403176">
        <ele>6</ele>
        <time>2018-01-09T12:31:20Z</time>
      </trkpt>
      <trkpt lat="62.642298796742" lon="17.886576208293">
        <ele>5.8</ele>
        <time>2018-01-09T12:31:21Z</time>
      </trkpt>
      <trkpt lat="62.642331821428" lon="17.886668157736">
        <ele>5.6</ele>
        <time>2018-01-09T12:31:22Z</time>
      </trkpt>
      <trkpt lat="62.642361325716" lon="17.886767231794">
        <ele>5.4</ele>
        <time>2018-01-09T12:31:23Z</time>
      </trkpt>
      <trkpt lat="62.642383202475" lon="17.886859684151">
        <ele>5</ele>
        <time>2018-01-09T12:31:24Z</time>
      </trkpt>
      <trkpt lat="62.642399714818" lon="17.886964876996">
        <ele>4.4</ele>
        <time>2018-01-09T12:31:25Z</time>
      </trkpt>
      <trkpt lat="62.642404743958" lon="17.887070405117">
        <ele>4</ele>
        <time>2018-01-09T12:31:26Z</time>
      </trkpt>
      <trkpt lat="62.642394350402" lon="17.887171826107">
        <ele>3.4</ele>
        <time>2018-01-09T12:31:27Z</time>
      </trkpt>
      <trkpt lat="62.642369037064" lon="17.887246676474">
        <ele>3</ele>
        <time>2018-01-09T12:31:28Z</time>
      </trkpt>
      <trkpt lat="62.642332827256" lon="17.887326472162">
        <ele>2.6</ele>
        <time>2018-01-09T12:31:29Z</time>
      </trkpt>
      <trkpt lat="62.642295276344" lon="17.887397802131">
        <ele>2</ele>
        <time>2018-01-09T12:31:30Z</time>
      </trkpt>
      <trkpt lat="62.642253031568" lon="17.887467539539">
        <ele>1.4</ele>
        <time>2018-01-09T12:31:31Z</time>
      </trkpt>
      <trkpt lat="62.642205757652" lon="17.887536606395">
        <ele>1</ele>
        <time>2018-01-09T12:31:32Z</time>
      </trkpt>
      <trkpt lat="62.642152951682" lon="17.887594944419">
        <ele>0.4</ele>
        <time>2018-01-09T12:31:33Z</time>
      </trkpt>
      <trkpt lat="62.642100648626" lon="17.887632327693">
        <ele>0</ele>
        <time>2018-01-09T12:31:34Z</time>
      </trkpt>
      <trkpt lat="62.642049267579" lon="17.88768035598">
        <ele>0</ele>
        <time>2018-01-09T12:31:35Z</time>
      </trkpt>
      <trkpt lat="62.64201900892" lon="17.887752272682">
        <ele>0</ele>
        <time>2018-01-09T12:31:36Z</time>
      </trkpt>
      <trkpt lat="62.641985146044" lon="17.887827961239">
        <ele>0</ele>
        <time>2018-01-09T12:31:37Z</time>
      </trkpt>
      <trkpt lat="62.641955893213" lon="17.887890406394">
        <ele>0</ele>
        <time>2018-01-09T12:31:38Z</time>
      </trkpt>
      <trkpt lat="62.64193099897" lon="17.887960059983">
        <ele>0</ele>
        <time>2018-01-09T12:31:39Z</time>
      </trkpt>
      <trkpt lat="62.641905182718" lon="17.888030216486">
        <ele>0</ele>
        <time>2018-01-09T12:31:40Z</time>
      </trkpt>
      <trkpt lat="62.641880791389" lon="17.888112526744">
        <ele>0</ele>
        <time>2018-01-09T12:31:41Z</time>
      </trkpt>
      <trkpt lat="62.641866123064" lon="17.888179749582">
        <ele>0</ele>
        <time>2018-01-09T12:31:42Z</time>
      </trkpt>
      <trkpt lat="62.641845335952" lon="17.888247223877">
        <ele>0</ele>
        <time>2018-01-09T12:31:43Z</time>
      </trkpt>
      <trkpt lat="62.641822537184" lon="17.888328444488">
        <ele>0</ele>
        <time>2018-01-09T12:31:44Z</time>
      </trkpt>
      <trkpt lat="62.641806443936" lon="17.888404300683">
        <ele>0</ele>
        <time>2018-01-09T12:31:45Z</time>
      </trkpt>
      <trkpt lat="62.641786327376" lon="17.888500524895">
        <ele>0</ele>
        <time>2018-01-09T12:31:46Z</time>
      </trkpt>
      <trkpt lat="62.641766210816" lon="17.888595156546">
        <ele>0</ele>
        <time>2018-01-09T12:31:47Z</time>
      </trkpt>
      <trkpt lat="62.641756320174" lon="17.888662044108">
        <ele>0</ele>
        <time>2018-01-09T12:31:48Z</time>
      </trkpt>
      <trkpt lat="62.641740226926" lon="17.888723399616">
        <ele>0</ele>
        <time>2018-01-09T12:31:49Z</time>
      </trkpt>
      <trkpt lat="62.641738466727" lon="17.88877167936">
        <ele>0</ele>
        <time>2018-01-09T12:31:50Z</time>
      </trkpt>
      <trkpt lat="62.641730755379" lon="17.888818115086">
        <ele>0</ele>
        <time>2018-01-09T12:31:51Z</time>
      </trkpt>
      <trkpt lat="62.64172396604" lon="17.888846613546">
        <ele>0</ele>
        <time>2018-01-09T12:31:52Z</time>
      </trkpt>
      <trkpt lat="62.641718433986" lon="17.888879554413">
        <ele>0</ele>
        <time>2018-01-09T12:31:53Z</time>
      </trkpt>
      <trkpt lat="62.641713991579" lon="17.888900592982">
        <ele>0</ele>
        <time>2018-01-09T12:31:54Z</time>
      </trkpt>
      <trkpt lat="62.641710471181" lon="17.888922888836">
        <ele>0</ele>
        <time>2018-01-09T12:31:55Z</time>
      </trkpt>
      <trkpt lat="62.641705106765" lon="17.888946693432">
        <ele>0</ele>
        <time>2018-01-09T12:31:56Z</time>
      </trkpt>
      <trkpt lat="62.641700831996" lon="17.88896362487">
        <ele>0</ele>
        <time>2018-01-09T12:31:57Z</time>
      </trkpt>
      <trkpt lat="62.641698065969" lon="17.888978544652">
        <ele>0</ele>
        <time>2018-01-09T12:31:58Z</time>
      </trkpt>
      <trkpt lat="62.641692701553" lon="17.889009473863">
        <ele>0</ele>
        <time>2018-01-09T12:31:59Z</time>
      </trkpt>
      <trkpt lat="62.641687504775" lon="17.889037972323">
        <ele>0</ele>
        <time>2018-01-09T12:32:00Z</time>
      </trkpt>
      <trkpt lat="62.641684654929" lon="17.889062279833">
        <ele>0</ele>
        <time>2018-01-09T12:32:01Z</time>
      </trkpt>
      <trkpt lat="62.641680547798" lon="17.889083653678">
        <ele>0</ele>
        <time>2018-01-09T12:32:02Z</time>
      </trkpt>
      <trkpt lat="62.641676021572" lon="17.889102429134">
        <ele>0</ele>
        <time>2018-01-09T12:32:03Z</time>
      </trkpt>
      <trkpt lat="62.641671662984" lon="17.889121791323">
        <ele>0</ele>
        <time>2018-01-09T12:32:04Z</time>
      </trkpt>
      <trkpt lat="62.641667472034" lon="17.889148445765">
        <ele>0</ele>
        <time>2018-01-09T12:32:05Z</time>
      </trkpt>
      <trkpt lat="62.641664370731" lon="17.88917149599">
        <ele>0.2</ele>
        <time>2018-01-09T12:32:06Z</time>
      </trkpt>
      <trkpt lat="62.641661269428" lon="17.889195049129">
        <ele>0.4</ele>
        <time>2018-01-09T12:32:07Z</time>
      </trkpt>
      <trkpt lat="62.641658671039" lon="17.889210723282">
        <ele>0.6</ele>
        <time>2018-01-09T12:32:08Z</time>
      </trkpt>
      <trkpt lat="62.641655318279" lon="17.889230504566">
        <ele>0.8</ele>
        <time>2018-01-09T12:32:09Z</time>
      </trkpt>
      <trkpt lat="62.64165355808" lon="17.889250034393">
        <ele>0.8</ele>
        <time>2018-01-09T12:32:10Z</time>
      </trkpt>
      <trkpt lat="62.641650372958" lon="17.889271743514">
        <ele>1</ele>
        <time>2018-01-09T12:32:11Z</time>
      </trkpt>
      <trkpt lat="62.641646517284" lon="17.889292446807">
        <ele>1.2</ele>
        <time>2018-01-09T12:32:12Z</time>
      </trkpt>
      <trkpt lat="62.641643835076" lon="17.889312814824">
        <ele>1.4</ele>
        <time>2018-01-09T12:32:13Z</time>
      </trkpt>
      <trkpt lat="62.641641404325" lon="17.889334440126">
        <ele>1.6</ele>
        <time>2018-01-09T12:32:14Z</time>
      </trkpt>
      <trkpt lat="62.641638303022" lon="17.889358999093">
        <ele>2</ele>
        <time>2018-01-09T12:32:15Z</time>
      </trkpt>
      <trkpt lat="62.641636123728" lon="17.88937601435">
        <ele>2.2</ele>
        <time>2018-01-09T12:32:16Z</time>
      </trkpt>
      <trkpt lat="62.641634363529" lon="17.889399818946">
        <ele>2.6</ele>
        <time>2018-01-09T12:32:17Z</time>
      </trkpt>
      <trkpt lat="62.641632854787" lon="17.889423539723">
        <ele>3.4</ele>
        <time>2018-01-09T12:32:18Z</time>
      </trkpt>
      <trkpt lat="62.641629669665" lon="17.889448517785">
        <ele>3.8</ele>
        <time>2018-01-09T12:32:19Z</time>
      </trkpt>
      <trkpt lat="62.641628831475" lon="17.889468969621">
        <ele>4</ele>
        <time>2018-01-09T12:32:20Z</time>
      </trkpt>
      <trkpt lat="62.641626400724" lon="17.889493528588">
        <ele>4.4</ele>
        <time>2018-01-09T12:32:21Z</time>
      </trkpt>
      <trkpt lat="62.641624975801" lon="17.889515656804">
        <ele>4.6</ele>
        <time>2018-01-09T12:32:22Z</time>
      </trkpt>
      <trkpt lat="62.641623634697" lon="17.889546837472">
        <ele>4.4</ele>
        <time>2018-01-09T12:32:23Z</time>
      </trkpt>
      <trkpt lat="62.64162338324" lon="17.889568630412">
        <ele>4.6</ele>
        <time>2018-01-09T12:32:24Z</time>
      </trkpt>
      <trkpt lat="62.641621371584" lon="17.889596877415">
        <ele>5</ele>
        <time>2018-01-09T12:32:25Z</time>
      </trkpt>
      <trkpt lat="62.641619611385" lon="17.889625040599">
        <ele>5.2</ele>
        <time>2018-01-09T12:32:26Z</time>
      </trkpt>
      <trkpt lat="62.64161919229" lon="17.889653706697">
        <ele>5.6</ele>
        <time>2018-01-09T12:32:27Z</time>
      </trkpt>
      <trkpt lat="62.641618689376" lon="17.889674158533">
        <ele>5.8</ele>
        <time>2018-01-09T12:32:28Z</time>
      </trkpt>
      <trkpt lat="62.641618605557" lon="17.889698801319">
        <ele>6</ele>
        <time>2018-01-09T12:32:29Z</time>
      </trkpt>
      <trkpt lat="62.641617851186" lon="17.889717828232">
        <ele>6.2</ele>
        <time>2018-01-09T12:32:30Z</time>
      </trkpt>
      <trkpt lat="62.64161667772" lon="17.889741716647">
        <ele>6.4</ele>
        <time>2018-01-09T12:32:31Z</time>
      </trkpt>
      <trkpt lat="62.641615755711" lon="17.889762839035">
        <ele>6.6</ele>
        <time>2018-01-09T12:32:32Z</time>
      </trkpt>
      <trkpt lat="62.641617012996" lon="17.889781949767">
        <ele>6.8</ele>
        <time>2018-01-09T12:32:33Z</time>
      </trkpt>
      <trkpt lat="62.641619527566" lon="17.889803658888">
        <ele>7</ele>
        <time>2018-01-09T12:32:34Z</time>
      </trkpt>
      <trkpt lat="62.641621790679" lon="17.889829978054">
        <ele>7.2</ele>
        <time>2018-01-09T12:32:35Z</time>
      </trkpt>
      <trkpt lat="62.641625478715" lon="17.889855207573">
        <ele>7.4</ele>
        <time>2018-01-09T12:32:36Z</time>
      </trkpt>
      <trkpt lat="62.641627658009" lon="17.889882951662">
        <ele>7.6</ele>
        <time>2018-01-09T12:32:37Z</time>
      </trkpt>
      <trkpt lat="62.641629418208" lon="17.889913545597">
        <ele>8</ele>
        <time>2018-01-09T12:32:38Z</time>
      </trkpt>
      <trkpt lat="62.64163176514" lon="17.889941960238">
        <ele>8.2</ele>
        <time>2018-01-09T12:32:39Z</time>
      </trkpt>
      <trkpt lat="62.641635285538" lon="17.889976074571">
        <ele>8.4</ele>
        <time>2018-01-09T12:32:40Z</time>
      </trkpt>
      <trkpt lat="62.641637381013" lon="17.89001220056">
        <ele>8.6</ele>
        <time>2018-01-09T12:32:41Z</time>
      </trkpt>
      <trkpt lat="62.641639811764" lon="17.890046650169">
        <ele>8.6</ele>
        <time>2018-01-09T12:32:42Z</time>
      </trkpt>
      <trkpt lat="62.641643332162" lon="17.89007255024">
        <ele>8.6</ele>
        <time>2018-01-09T12:32:43Z</time>
      </trkpt>
      <trkpt lat="62.641653055166" lon="17.890113537731">
        <ele>8.8</ele>
        <time>2018-01-09T12:32:44Z</time>
      </trkpt>
      <trkpt lat="62.641665544197" lon="17.890152848842">
        <ele>9</ele>
        <time>2018-01-09T12:32:45Z</time>
      </trkpt>
      <trkpt lat="62.641679458151" lon="17.890188555736">
        <ele>9</ele>
        <time>2018-01-09T12:32:46Z</time>
      </trkpt>
      <trkpt lat="62.641696557227" lon="17.890231638702">
        <ele>9</ele>
        <time>2018-01-09T12:32:47Z</time>
      </trkpt>
      <trkpt lat="62.641719439814" lon="17.890280505179">
        <ele>9.2</ele>
        <time>2018-01-09T12:32:48Z</time>
      </trkpt>
      <trkpt lat="62.641751961586" lon="17.890328952561">
        <ele>9.2</ele>
        <time>2018-01-09T12:32:49Z</time>
      </trkpt>
      <trkpt lat="62.641784986272" lon="17.890377902857">
        <ele>9.2</ele>
        <time>2018-01-09T12:32:50Z</time>
      </trkpt>
      <trkpt lat="62.641824045926" lon="17.890425344411">
        <ele>9.2</ele>
        <time>2018-01-09T12:32:51Z</time>
      </trkpt>
      <trkpt lat="62.641868469996" lon="17.890458872011">
        <ele>8.8</ele>
        <time>2018-01-09T12:32:52Z</time>
      </trkpt>
      <trkpt lat="62.641924377269" lon="17.890499356588">
        <ele>8.6</ele>
        <time>2018-01-09T12:32:53Z</time>
      </trkpt>
      <trkpt lat="62.641988079709" lon="17.890540427898">
        <ele>8.4</ele>
        <time>2018-01-09T12:32:54Z</time>
      </trkpt>
      <trkpt lat="62.642065696103" lon="17.890591725126">
        <ele>7.8</ele>
        <time>2018-01-09T12:32:55Z</time>
      </trkpt>
      <trkpt lat="62.642146329981" lon="17.890647967675">
        <ele>7.2</ele>
        <time>2018-01-09T12:32:56Z</time>
      </trkpt>
      <trkpt lat="62.642229226972" lon="17.890702952939">
        <ele>5.8</ele>
        <time>2018-01-09T12:32:57Z</time>
      </trkpt>
      <trkpt lat="62.64230231714" lon="17.890756178004">
        <ele>4.4</ele>
        <time>2018-01-09T12:32:58Z</time>
      </trkpt>
      <trkpt lat="62.64238026881" lon="17.890816443865">
        <ele>2.6</ele>
        <time>2018-01-09T12:32:59Z</time>
      </trkpt>
      <trkpt lat="62.64243475116" lon="17.890865394161">
        <ele>1</ele>
        <time>2018-01-09T12:33:00Z</time>
      </trkpt>
      <trkpt lat="62.642467859665" lon="17.890939909252">
        <ele>0</ele>
        <time>2018-01-09T12:33:01Z</time>
      </trkpt>
      <trkpt lat="62.642498118324" lon="17.891006126262">
        <ele>0</ele>
        <time>2018-01-09T12:33:02Z</time>
      </trkpt>
      <trkpt lat="62.642535166322" lon="17.891077288593">
        <ele>0.2</ele>
        <time>2018-01-09T12:33:03Z</time>
      </trkpt>
      <trkpt lat="62.642553438864" lon="17.891130010744">
        <ele>1</ele>
        <time>2018-01-09T12:33:04Z</time>
      </trkpt>
      <trkpt lat="62.64256047966" lon="17.891173177529">
        <ele>2.2</ele>
        <time>2018-01-09T12:33:05Z</time>
      </trkpt>
      <trkpt lat="62.642564754429" lon="17.891215673762">
        <ele>2.8</ele>
        <time>2018-01-09T12:33:06Z</time>
      </trkpt>
      <trkpt lat="62.642566011714" lon="17.891273508872">
        <ele>3.4</ele>
        <time>2018-01-09T12:33:07Z</time>
      </trkpt>
      <trkpt lat="62.642561485488" lon="17.891327655946">
        <ele>3.4</ele>
        <time>2018-01-09T12:33:08Z</time>
      </trkpt>
      <trkpt lat="62.642558719461" lon="17.89136420103">
        <ele>3.6</ele>
        <time>2018-01-09T12:33:09Z</time>
      </trkpt>
      <trkpt lat="62.642544805507" lon="17.891425221262">
        <ele>3.8</ele>
        <time>2018-01-09T12:33:10Z</time>
      </trkpt>
      <trkpt lat="62.642526616784" lon="17.891474506834">
        <ele>3.8</ele>
        <time>2018-01-09T12:33:11Z</time>
      </trkpt>
      <trkpt lat="62.642502309274" lon="17.89152345713">
        <ele>3.8</ele>
        <time>2018-01-09T12:33:12Z</time>
      </trkpt>
      <trkpt lat="62.642475487194" lon="17.891572491245">
        <ele>3.4</ele>
        <time>2018-01-09T12:33:13Z</time>
      </trkpt>
      <trkpt lat="62.642442211051" lon="17.891627895604">
        <ele>3.4</ele>
        <time>2018-01-09T12:33:14Z</time>
      </trkpt>
      <trkpt lat="62.642407426166" lon="17.891684724886">
        <ele>3.2</ele>
        <time>2018-01-09T12:33:15Z</time>
      </trkpt>
      <trkpt lat="62.642371803091" lon="17.891742392358">
        <ele>2.8</ele>
        <time>2018-01-09T12:33:16Z</time>
      </trkpt>
      <trkpt lat="62.6423475794" lon="17.891794276319">
        <ele>2.6</ele>
        <time>2018-01-09T12:33:17Z</time>
      </trkpt>
      <trkpt lat="62.642314638533" lon="17.891841047321">
        <ele>2.2</ele>
        <time>2018-01-09T12:33:18Z</time>
      </trkpt>
      <trkpt lat="62.642294857249" lon="17.891868288496">
        <ele>1.8</ele>
        <time>2018-01-09T12:33:19Z</time>
      </trkpt>
      <trkpt lat="62.642276668526" lon="17.891888488875">
        <ele>1.8</ele>
        <time>2018-01-09T12:33:20Z</time>
      </trkpt>
      <trkpt lat="62.642266107332" lon="17.891894607662">
        <ele>1.8</ele>
        <time>2018-01-09T12:33:21Z</time>
      </trkpt>
      <trkpt lat="62.642248840618" lon="17.89190064263">
        <ele>2.2</ele>
        <time>2018-01-09T12:33:22Z</time>
      </trkpt>
      <trkpt lat="62.642235429578" lon="17.891910952367">
        <ele>2.8</ele>
        <time>2018-01-09T12:33:23Z</time>
      </trkpt>
      <trkpt lat="62.642222353814" lon="17.891915478593">
        <ele>3.4</ele>
        <time>2018-01-09T12:33:24Z</time>
      </trkpt>
      <trkpt lat="62.642206512023" lon="17.89191740643">
        <ele>3.8</ele>
        <time>2018-01-09T12:33:25Z</time>
      </trkpt>
      <trkpt lat="62.642190921689" lon="17.89191070091">
        <ele>4</ele>
        <time>2018-01-09T12:33:26Z</time>
      </trkpt>
      <trkpt lat="62.64217742683" lon="17.891921932656">
        <ele>4</ele>
        <time>2018-01-09T12:33:27Z</time>
      </trkpt>
      <trkpt lat="62.642161249763" lon="17.891922603208">
        <ele>4.2</ele>
        <time>2018-01-09T12:33:28Z</time>
      </trkpt>
      <trkpt lat="62.642151275302" lon="17.891933080583">
        <ele>4.2</ele>
        <time>2018-01-09T12:33:29Z</time>
      </trkpt>
      <trkpt lat="62.642145491791" lon="17.891936936257">
        <ele>4.2</ele>
        <time>2018-01-09T12:33:30Z</time>
      </trkpt>
      <trkpt lat="62.642123363575" lon="17.891947245994">
        <ele>4.6</ele>
        <time>2018-01-09T12:33:31Z</time>
      </trkpt>
      <trkpt lat="62.642111126001" lon="17.891955376437">
        <ele>4.8</ele>
        <time>2018-01-09T12:33:32Z</time>
      </trkpt>
      <trkpt lat="62.64210115154" lon="17.891957555731">
        <ele>4.8</ele>
        <time>2018-01-09T12:33:33Z</time>
      </trkpt>
      <trkpt lat="62.642088494871" lon="17.891961746681">
        <ele>5</ele>
        <time>2018-01-09T12:33:34Z</time>
      </trkpt>
      <trkpt lat="62.642077346944" lon="17.891965686174">
        <ele>5.2</ele>
        <time>2018-01-09T12:33:35Z</time>
      </trkpt>
      <trkpt lat="62.642066366655" lon="17.89196602145">
        <ele>5.4</ele>
        <time>2018-01-09T12:33:36Z</time>
      </trkpt>
      <trkpt lat="62.642051614511" lon="17.891969960943">
        <ele>5.4</ele>
        <time>2018-01-09T12:33:37Z</time>
      </trkpt>
      <trkpt lat="62.642043735525" lon="17.891966189088">
        <ele>5.6</ele>
        <time>2018-01-09T12:33:38Z</time>
      </trkpt>
      <trkpt lat="62.642031414132" lon="17.891967278735">
        <ele>5.8</ele>
        <time>2018-01-09T12:33:39Z</time>
      </trkpt>
      <trkpt lat="62.642020098567" lon="17.891968787477">
        <ele>5.8</ele>
        <time>2018-01-09T12:33:40Z</time>
      </trkpt>
      <trkpt lat="62.642008196269" lon="17.891965434717">
        <ele>6</ele>
        <time>2018-01-09T12:33:41Z</time>
      </trkpt>
      <trkpt lat="62.641996713066" lon="17.891967111097">
        <ele>6.4</ele>
        <time>2018-01-09T12:33:42Z</time>
      </trkpt>
      <trkpt lat="62.641986151872" lon="17.891971385866">
        <ele>6.6</ele>
        <time>2018-01-09T12:33:43Z</time>
      </trkpt>
      <trkpt lat="62.641974501031" lon="17.891973816617">
        <ele>6.8</ele>
        <time>2018-01-09T12:33:44Z</time>
      </trkpt>
      <trkpt lat="62.641960754715" lon="17.891975660635">
        <ele>7.2</ele>
        <time>2018-01-09T12:33:45Z</time>
      </trkpt>
      <trkpt lat="62.641947678951" lon="17.891981611784">
        <ele>7.4</ele>
        <time>2018-01-09T12:33:46Z</time>
      </trkpt>
      <trkpt lat="62.641935692834" lon="17.89199032896">
        <ele>7.4</ele>
        <time>2018-01-09T12:33:47Z</time>
      </trkpt>
      <trkpt lat="62.641925802192" lon="17.891999213774">
        <ele>7.6</ele>
        <time>2018-01-09T12:33:48Z</time>
      </trkpt>
      <trkpt lat="62.641913061704" lon="17.892016983402">
        <ele>7.6</ele>
        <time>2018-01-09T12:33:49Z</time>
      </trkpt>
      <trkpt lat="62.641906188546" lon="17.892029975347">
        <ele>7.8</ele>
        <time>2018-01-09T12:33:50Z</time>
      </trkpt>
      <trkpt lat="62.641899315388" lon="17.892052271201">
        <ele>7.8</ele>
        <time>2018-01-09T12:33:51Z</time>
      </trkpt>
      <trkpt lat="62.641893699515" lon="17.892076578711">
        <ele>8</ele>
        <time>2018-01-09T12:33:52Z</time>
      </trkpt>
      <trkpt lat="62.641888586556" lon="17.892101389135">
        <ele>8.2</ele>
        <time>2018-01-09T12:33:53Z</time>
      </trkpt>
      <trkpt lat="62.641883808873" lon="17.892134749097">
        <ele>8.2</ele>
        <time>2018-01-09T12:33:54Z</time>
      </trkpt>
      <trkpt lat="62.641884730882" lon="17.892170372172">
        <ele>8.4</ele>
        <time>2018-01-09T12:33:55Z</time>
      </trkpt>
      <trkpt lat="62.641884144149" lon="17.892197194252">
        <ele>8.4</ele>
        <time>2018-01-09T12:33:56Z</time>
      </trkpt>
      <trkpt lat="62.641885233796" lon="17.892224016332">
        <ele>8.8</ele>
        <time>2018-01-09T12:33:57Z</time>
      </trkpt>
      <trkpt lat="62.641886491081" lon="17.892247988566">
        <ele>9</ele>
        <time>2018-01-09T12:33:58Z</time>
      </trkpt>
      <trkpt lat="62.64188992766" lon="17.892284114555">
        <ele>9</ele>
        <time>2018-01-09T12:33:59Z</time>
      </trkpt>
      <trkpt lat="62.641890933488" lon="17.892323593304">
        <ele>9.4</ele>
        <time>2018-01-09T12:34:00Z</time>
      </trkpt>
      <trkpt lat="62.641894370067" lon="17.89235661799">
        <ele>9.6</ele>
        <time>2018-01-09T12:34:01Z</time>
      </trkpt>
      <trkpt lat="62.641896968456" lon="17.892414201643">
        <ele>9.8</ele>
        <time>2018-01-09T12:34:02Z</time>
      </trkpt>
      <trkpt lat="62.641895208257" lon="17.892446471958">
        <ele>10</ele>
        <time>2018-01-09T12:34:03Z</time>
      </trkpt>
      <trkpt lat="62.641902332872" lon="17.892473796952">
        <ele>10.2</ele>
        <time>2018-01-09T12:34:04Z</time>
      </trkpt>
      <trkpt lat="62.641900991768" lon="17.89251084495">
        <ele>10.4</ele>
        <time>2018-01-09T12:34:05Z</time>
      </trkpt>
      <trkpt lat="62.641900153578" lon="17.892541522704">
        <ele>10.4</ele>
        <time>2018-01-09T12:34:06Z</time>
      </trkpt>
      <trkpt lat="62.641903087243" lon="17.892566500766">
        <ele>10.6</ele>
        <time>2018-01-09T12:34:07Z</time>
      </trkpt>
      <trkpt lat="62.641904344528" lon="17.892595250683">
        <ele>10.8</ele>
        <time>2018-01-09T12:34:08Z</time>
      </trkpt>
      <trkpt lat="62.641902416691" lon="17.892619558193">
        <ele>10.8</ele>
        <time>2018-01-09T12:34:09Z</time>
      </trkpt>
      <trkpt lat="62.641899818302" lon="17.892645206807">
        <ele>11</ele>
        <time>2018-01-09T12:34:10Z</time>
      </trkpt>
      <trkpt lat="62.641898728655" lon="17.892668843765">
        <ele>11.2</ele>
        <time>2018-01-09T12:34:11Z</time>
      </trkpt>
      <trkpt lat="62.641898812474" lon="17.892692313085">
        <ele>11.4</ele>
        <time>2018-01-09T12:34:12Z</time>
      </trkpt>
      <trkpt lat="62.641898980112" lon="17.892710753265">
        <ele>11.4</ele>
        <time>2018-01-09T12:34:13Z</time>
      </trkpt>
      <trkpt lat="62.641900153578" lon="17.892729947816">
        <ele>11.8</ele>
        <time>2018-01-09T12:34:14Z</time>
      </trkpt>
      <trkpt lat="62.64189830956" lon="17.892747885082">
        <ele>12</ele>
        <time>2018-01-09T12:34:15Z</time>
      </trkpt>
      <trkpt lat="62.641901159406" lon="17.892775293895">
        <ele>12.2</ele>
        <time>2018-01-09T12:34:16Z</time>
      </trkpt>
      <trkpt lat="62.64190166232" lon="17.892795578093">
        <ele>12.4</ele>
        <time>2018-01-09T12:34:17Z</time>
      </trkpt>
      <trkpt lat="62.641900488854" lon="17.892813180083">
        <ele>12.6</ele>
        <time>2018-01-09T12:34:18Z</time>
      </trkpt>
      <trkpt lat="62.641898141922" lon="17.892840672715">
        <ele>12.6</ele>
        <time>2018-01-09T12:34:19Z</time>
      </trkpt>
      <trkpt lat="62.641895459714" lon="17.892862381836">
        <ele>12.8</ele>
        <time>2018-01-09T12:34:20Z</time>
      </trkpt>
      <trkpt lat="62.641895375895" lon="17.892876379609">
        <ele>13.2</ele>
        <time>2018-01-09T12:34:21Z</time>
      </trkpt>
      <trkpt lat="62.641894789162" lon="17.89288551588">
        <ele>13.4</ele>
        <time>2018-01-09T12:34:22Z</time>
      </trkpt>
      <trkpt lat="62.641892190773" lon="17.89290144149">
        <ele>13.6</ele>
        <time>2018-01-09T12:34:23Z</time>
      </trkpt>
      <trkpt lat="62.641891771678" lon="17.892923821163">
        <ele>13.8</ele>
        <time>2018-01-09T12:34:24Z</time>
      </trkpt>
      <trkpt lat="62.641891855497" lon="17.892942009886">
        <ele>14.2</ele>
        <time>2018-01-09T12:34:25Z</time>
      </trkpt>
      <trkpt lat="62.641892861325" lon="17.892965060111">
        <ele>14.4</ele>
        <time>2018-01-09T12:34:26Z</time>
      </trkpt>
      <trkpt lat="62.641890346755" lon="17.892982326825">
        <ele>14.6</ele>
        <time>2018-01-09T12:34:27Z</time>
      </trkpt>
      <trkpt lat="62.641890514393" lon="17.892998084797">
        <ele>14.8</ele>
        <time>2018-01-09T12:34:28Z</time>
      </trkpt>
      <trkpt lat="62.641890346755" lon="17.89301208257">
        <ele>15</ele>
        <time>2018-01-09T12:34:29Z</time>
      </trkpt>
      <trkpt lat="62.641887748366" lon="17.893024236325">
        <ele>15.4</ele>
        <time>2018-01-09T12:34:30Z</time>
      </trkpt>
      <trkpt lat="62.641886826357" lon="17.893049298206">
        <ele>15.6</ele>
        <time>2018-01-09T12:34:31Z</time>
      </trkpt>
      <trkpt lat="62.641885485253" lon="17.893075449734">
        <ele>15.8</ele>
        <time>2018-01-09T12:34:32Z</time>
      </trkpt>
      <trkpt lat="62.64187986938" lon="17.893100763072">
        <ele>16.4</ele>
        <time>2018-01-09T12:34:33Z</time>
      </trkpt>
      <trkpt lat="62.64187735481" lon="17.893121214908">
        <ele>16.4</ele>
        <time>2018-01-09T12:34:34Z</time>
      </trkpt>
      <trkpt lat="62.64187567843" lon="17.893150719196">
        <ele>16.8</ele>
        <time>2018-01-09T12:34:35Z</time>
      </trkpt>
      <trkpt lat="62.641874169688" lon="17.893171841584">
        <ele>16.8</ele>
        <time>2018-01-09T12:34:36Z</time>
      </trkpt>
      <trkpt lat="62.641869643462" lon="17.893193383067">
        <ele>17.2</ele>
        <time>2018-01-09T12:34:37Z</time>
      </trkpt>
      <trkpt lat="62.641870146376" lon="17.893206375012">
        <ele>17.2</ele>
        <time>2018-01-09T12:34:38Z</time>
      </trkpt>
      <trkpt lat="62.641868889091" lon="17.893229006142">
        <ele>17.2</ele>
        <time>2018-01-09T12:34:39Z</time>
      </trkpt>
      <trkpt lat="62.641866039245" lon="17.893254570937">
        <ele>17.4</ele>
        <time>2018-01-09T12:34:40Z</time>
      </trkpt>
      <trkpt lat="62.641864949598" lon="17.893286422157">
        <ele>17.6</ele>
        <time>2018-01-09T12:34:41Z</time>
      </trkpt>
      <trkpt lat="62.641858244078" lon="17.893318441015">
        <ele>17.8</ele>
        <time>2018-01-09T12:34:42Z</time>
      </trkpt>
      <trkpt lat="62.641853298757" lon="17.893360099058">
        <ele>18</ele>
        <time>2018-01-09T12:34:43Z</time>
      </trkpt>
      <trkpt lat="62.641849862178" lon="17.893386250586">
        <ele>18</ele>
        <time>2018-01-09T12:34:44Z</time>
      </trkpt>
      <trkpt lat="62.641841731735" lon="17.893419107634">
        <ele>18.2</ele>
        <time>2018-01-09T12:34:45Z</time>
      </trkpt>
      <trkpt lat="62.641833349835" lon="17.893447438456">
        <ele>18.4</ele>
        <time>2018-01-09T12:34:46Z</time>
      </trkpt>
      <trkpt lat="62.641825722306" lon="17.893476775106">
        <ele>18.6</ele>
        <time>2018-01-09T12:34:47Z</time>
      </trkpt>
      <trkpt lat="62.641816921311" lon="17.893505860299">
        <ele>18.8</ele>
        <time>2018-01-09T12:34:48Z</time>
      </trkpt>
      <trkpt lat="62.641811556895" lon="17.893534191121">
        <ele>19</ele>
        <time>2018-01-09T12:34:49Z</time>
      </trkpt>
      <trkpt lat="62.641806611574" lon="17.893559672097">
        <ele>19.2</ele>
        <time>2018-01-09T12:34:50Z</time>
      </trkpt>
      <trkpt lat="62.641800492787" lon="17.893587667643">
        <ele>19.4</ele>
        <time>2018-01-09T12:34:51Z</time>
      </trkpt>
      <trkpt lat="62.64179688857" lon="17.893615998465">
        <ele>19.6</ele>
        <time>2018-01-09T12:34:52Z</time>
      </trkpt>
      <trkpt lat="62.641792613801" lon="17.893653800834">
        <ele>19.8</ele>
        <time>2018-01-09T12:34:53Z</time>
      </trkpt>
      <trkpt lat="62.641790015412" lon="17.893683556579">
        <ele>20</ele>
        <time>2018-01-09T12:34:54Z</time>
      </trkpt>
      <trkpt lat="62.641787752299" lon="17.893733261246">
        <ele>20.2</ele>
        <time>2018-01-09T12:34:55Z</time>
      </trkpt>
      <trkpt lat="62.64179018305" lon="17.893770728339">
        <ele>20.4</ele>
        <time>2018-01-09T12:34:56Z</time>
      </trkpt>
      <trkpt lat="62.641790518326" lon="17.893819427178">
        <ele>20.6</ele>
        <time>2018-01-09T12:34:57Z</time>
      </trkpt>
      <trkpt lat="62.641799151683" lon="17.89385781628">
        <ele>20.6</ele>
        <time>2018-01-09T12:34:58Z</time>
      </trkpt>
      <trkpt lat="62.641813233275" lon="17.893898133219">
        <ele>20.8</ele>
        <time>2018-01-09T12:34:59Z</time>
      </trkpt>
      <trkpt lat="62.641843324296" lon="17.893938869253">
        <ele>20.8</ele>
        <time>2018-01-09T12:35:00Z</time>
      </trkpt>
      <trkpt lat="62.641872912403" lon="17.893940210357">
        <ele>20.8</ele>
        <time>2018-01-09T12:35:01Z</time>
      </trkpt>
      <trkpt lat="62.641915743912" lon="17.893941467642">
        <ele>20.8</ele>
        <time>2018-01-09T12:35:02Z</time>
      </trkpt>
      <trkpt lat="62.641961089991" lon="17.893926715498">
        <ele>20.6</ele>
        <time>2018-01-09T12:35:03Z</time>
      </trkpt>
      <trkpt lat="62.642005178785" lon="17.893908191499">
        <ele>20.2</ele>
        <time>2018-01-09T12:35:04Z</time>
      </trkpt>
      <trkpt lat="62.642054464357" lon="17.893888745491">
        <ele>20</ele>
        <time>2018-01-09T12:35:05Z</time>
      </trkpt>
      <trkpt lat="62.642102241187" lon="17.893883464894">
        <ele>19.6</ele>
        <time>2018-01-09T12:35:06Z</time>
      </trkpt>
      <trkpt lat="62.642146162343" lon="17.893900228694">
        <ele>19</ele>
        <time>2018-01-09T12:35:07Z</time>
      </trkpt>
      <trkpt lat="62.642183042703" lon="17.893945742411">
        <ele>18.4</ele>
        <time>2018-01-09T12:35:08Z</time>
      </trkpt>
      <trkpt lat="62.64221011624" lon="17.894004415711">
        <ele>17.6</ele>
        <time>2018-01-09T12:35:09Z</time>
      </trkpt>
      <trkpt lat="62.642231238628" lon="17.894082283562">
        <ele>17</ele>
        <time>2018-01-09T12:35:10Z</time>
      </trkpt>
      <trkpt lat="62.642244062935" lon="17.894152775341">
        <ele>16.4</ele>
        <time>2018-01-09T12:35:11Z</time>
      </trkpt>
      <trkpt lat="62.642254707948" lon="17.8942165616">
        <ele>15.8</ele>
        <time>2018-01-09T12:35:12Z</time>
      </trkpt>
      <trkpt lat="62.642264179495" lon="17.894291495786">
        <ele>15.4</ele>
        <time>2018-01-09T12:35:13Z</time>
      </trkpt>
      <trkpt lat="62.642273064309" lon="17.894379421917">
        <ele>15.2</ele>
        <time>2018-01-09T12:35:14Z</time>
      </trkpt>
      <trkpt lat="62.642270968834" lon="17.89447220955">
        <ele>14.8</ele>
        <time>2018-01-09T12:35:15Z</time>
      </trkpt>
      <trkpt lat="62.642263089848" lon="17.894557034378">
        <ele>14.4</ele>
        <time>2018-01-09T12:35:16Z</time>
      </trkpt>
      <trkpt lat="62.642250014084" lon="17.894653761504">
        <ele>13.8</ele>
        <time>2018-01-09T12:35:17Z</time>
      </trkpt>
      <trkpt lat="62.642227885868" lon="17.894743196377">
        <ele>13.6</ele>
        <time>2018-01-09T12:35:18Z</time>
      </trkpt>
      <trkpt lat="62.642208775136" lon="17.894838833856">
        <ele>12.8</ele>
        <time>2018-01-09T12:35:19Z</time>
      </trkpt>
      <trkpt lat="62.642194274449" lon="17.894923407227">
        <ele>12</ele>
        <time>2018-01-09T12:35:20Z</time>
      </trkpt>
      <trkpt lat="62.642180444314" lon="17.895004292562">
        <ele>11.6</ele>
        <time>2018-01-09T12:35:21Z</time>
      </trkpt>
      <trkpt lat="62.642175163717" lon="17.895073946151">
        <ele>11.2</ele>
        <time>2018-01-09T12:35:22Z</time>
      </trkpt>
      <trkpt lat="62.64217239769" lon="17.895159022436">
        <ele>10.8</ele>
        <time>2018-01-09T12:35:23Z</time>
      </trkpt>
      <trkpt lat="62.642170637491" lon="17.895264550557">
        <ele>10.4</ele>
        <time>2018-01-09T12:35:24Z</time>
      </trkpt>
      <trkpt lat="62.64216988312" lon="17.895404528287">
        <ele>10.2</ele>
        <time>2018-01-09T12:35:25Z</time>
      </trkpt>
      <trkpt lat="62.642158232279" lon="17.895551714451">
        <ele>10</ele>
        <time>2018-01-09T12:35:26Z</time>
      </trkpt>
      <trkpt lat="62.64214809018" lon="17.895697475692">
        <ele>9.6</ele>
        <time>2018-01-09T12:35:27Z</time>
      </trkpt>
      <trkpt lat="62.642138450995" lon="17.89581582812">
        <ele>8.8</ele>
        <time>2018-01-09T12:35:28Z</time>
      </trkpt>
      <trkpt lat="62.642118334435" lon="17.89596334956">
        <ele>7.6</ele>
        <time>2018-01-09T12:35:29Z</time>
      </trkpt>
      <trkpt lat="62.642094865115" lon="17.896088156051">
        <ele>7</ele>
        <time>2018-01-09T12:35:30Z</time>
      </trkpt>
      <trkpt lat="62.642071982528" lon="17.896182620064">
        <ele>6.2</ele>
        <time>2018-01-09T12:35:31Z</time>
      </trkpt>
      <trkpt lat="62.642040550403" lon="17.896299296112">
        <ele>5.2</ele>
        <time>2018-01-09T12:35:32Z</time>
      </trkpt>
      <trkpt lat="62.642017667816" lon="17.896407506441">
        <ele>4.4</ele>
        <time>2018-01-09T12:35:33Z</time>
      </trkpt>
      <trkpt lat="62.642002161301" lon="17.896511442001">
        <ele>3.8</ele>
        <time>2018-01-09T12:35:34Z</time>
      </trkpt>
      <trkpt lat="62.641986822424" lon="17.896633566284">
        <ele>3.2</ele>
        <time>2018-01-09T12:35:35Z</time>
      </trkpt>
      <trkpt lat="62.641964442751" lon="17.896742782441">
        <ele>3.6</ele>
        <time>2018-01-09T12:35:36Z</time>
      </trkpt>
      <trkpt lat="62.641948684779" lon="17.89684931639">
        <ele>3.4</ele>
        <time>2018-01-09T12:35:37Z</time>
      </trkpt>
      <trkpt lat="62.641937117757" lon="17.896961885307">
        <ele>3</ele>
        <time>2018-01-09T12:35:38Z</time>
      </trkpt>
      <trkpt lat="62.641927143296" lon="17.897087865264">
        <ele>2.8</ele>
        <time>2018-01-09T12:35:39Z</time>
      </trkpt>
      <trkpt lat="62.641917839387" lon="17.897223652044">
        <ele>2.4</ele>
        <time>2018-01-09T12:35:40Z</time>
      </trkpt>
      <trkpt lat="62.64190920603" lon="17.897361701937">
        <ele>1.2</ele>
        <time>2018-01-09T12:35:41Z</time>
      </trkpt>
      <trkpt lat="62.641899818302" lon="17.897494555052">
        <ele>0.6</ele>
        <time>2018-01-09T12:35:42Z</time>
      </trkpt>
      <trkpt lat="62.641890011479" lon="17.897623384855">
        <ele>0.2</ele>
        <time>2018-01-09T12:35:43Z</time>
      </trkpt>
      <trkpt lat="62.641874924059" lon="17.897767050621">
        <ele>0</ele>
        <time>2018-01-09T12:35:44Z</time>
      </trkpt>
      <trkpt lat="62.641868553815" lon="17.897880960642">
        <ele>0</ele>
        <time>2018-01-09T12:35:45Z</time>
      </trkpt>
      <trkpt lat="62.641863859951" lon="17.897960337235">
        <ele>0</ele>
        <time>2018-01-09T12:35:46Z</time>
      </trkpt>
      <trkpt lat="62.641878025362" lon="17.898083383527">
        <ele>0</ele>
        <time>2018-01-09T12:35:47Z</time>
      </trkpt>
      <trkpt lat="62.641871403661" lon="17.898172734581">
        <ele>0</ele>
        <time>2018-01-09T12:35:48Z</time>
      </trkpt>
      <trkpt lat="62.641864195227" lon="17.898249261328">
        <ele>0</ele>
        <time>2018-01-09T12:35:49Z</time>
      </trkpt>
      <trkpt lat="62.641857908802" lon="17.898311874121">
        <ele>0.2</ele>
        <time>2018-01-09T12:35:50Z</time>
      </trkpt>
      <trkpt lat="62.641847431427" lon="17.898389155239">
        <ele>0.4</ele>
        <time>2018-01-09T12:35:51Z</time>
      </trkpt>
      <trkpt lat="62.641839217165" lon="17.898458808828">
        <ele>0.6</ele>
        <time>2018-01-09T12:35:52Z</time>
      </trkpt>
      <trkpt lat="62.641832846921" lon="17.898525780209">
        <ele>0.8</ele>
        <time>2018-01-09T12:35:53Z</time>
      </trkpt>
      <trkpt lat="62.641830583808" lon="17.898578586179">
        <ele>1</ele>
        <time>2018-01-09T12:35:54Z</time>
      </trkpt>
      <trkpt lat="62.641827985419" lon="17.898651257252">
        <ele>1.2</ele>
        <time>2018-01-09T12:35:55Z</time>
      </trkpt>
      <trkpt lat="62.641820944623" lon="17.898710433466">
        <ele>1.4</ele>
        <time>2018-01-09T12:35:56Z</time>
      </trkpt>
      <trkpt lat="62.641820441709" lon="17.898754019346">
        <ele>1.4</ele>
        <time>2018-01-09T12:35:57Z</time>
      </trkpt>
      <trkpt lat="62.641812897999" lon="17.898807244411">
        <ele>1.4</ele>
        <time>2018-01-09T12:35:58Z</time>
      </trkpt>
      <trkpt lat="62.641800576606" lon="17.898882681511">
        <ele>1.6</ele>
        <time>2018-01-09T12:35:59Z</time>
      </trkpt>
      <trkpt lat="62.641793451991" lon="17.89892216026">
        <ele>1.6</ele>
        <time>2018-01-09T12:36:00Z</time>
      </trkpt>
      <trkpt lat="62.641783728987" lon="17.898975385325">
        <ele>2</ele>
        <time>2018-01-09T12:36:01Z</time>
      </trkpt>
      <trkpt lat="62.641763947703" lon="17.899040009774">
        <ele>2.2</ele>
        <time>2018-01-09T12:36:02Z</time>
      </trkpt>
      <trkpt lat="62.641756487812" lon="17.89907303446">
        <ele>2.4</ele>
        <time>2018-01-09T12:36:03Z</time>
      </trkpt>
      <trkpt lat="62.641736706528" lon="17.899108489897">
        <ele>2.6</ele>
        <time>2018-01-09T12:36:04Z</time>
      </trkpt>
      <trkpt lat="62.64172564242" lon="17.899126091887">
        <ele>2.6</ele>
        <time>2018-01-09T12:36:05Z</time>
      </trkpt>
    </trkseg>
  </trk>
</gpx>